<?xml version="1.0" encoding="UTF-8" standalone="no" ?>
<gpx xmlns="http://www.topografix.com/GPX/1/1" xmlns:xsi="http://www.w3.org/2001/XMLSchema-instance" xsi:schemaLocation="http://www.topografix.com/GPX/1/1 http://www.topografix.com/GPX/1/1/gpx.xsd" version="1.1" creator="VisuGPX - https://www.visugpx.com">
  <metadata>
    <name>Bois de Lessines ffmbp</name>
    <desc><![CDATA[Très belle marche du club ht050 d'Acren.temps excellent .M.N.D.B.H ]]></desc>
  </metadata>
  <trk>
    <name><![CDATA[2017-04-16 14:52:42]]></name>
    <trkseg>
      <trkpt lat="50.69804" lon="3.88844">
        <ele>73.2</ele>
        <time>2017-04-16T08:02:29Z</time>
      </trkpt>
      <trkpt lat="50.69804" lon="3.88844">
        <ele>73.2</ele>
        <time>2017-04-16T08:02:30Z</time>
      </trkpt>
      <trkpt lat="50.69804" lon="3.88844">
        <ele>71.76</ele>
        <time>2017-04-16T08:02:34Z</time>
      </trkpt>
      <trkpt lat="50.69805" lon="3.88846">
        <ele>71.76</ele>
        <time>2017-04-16T08:02:54Z</time>
      </trkpt>
      <trkpt lat="50.69802" lon="3.88846">
        <ele>71.27</ele>
        <time>2017-04-16T08:03:18Z</time>
      </trkpt>
      <trkpt lat="50.69802" lon="3.88842">
        <ele>71.27</ele>
        <time>2017-04-16T08:03:42Z</time>
      </trkpt>
      <trkpt lat="50.69801" lon="3.88847">
        <ele>71.27</ele>
        <time>2017-04-16T08:04:06Z</time>
      </trkpt>
      <trkpt lat="50.69803" lon="3.88853">
        <ele>71.27</ele>
        <time>2017-04-16T08:04:30Z</time>
      </trkpt>
      <trkpt lat="50.698" lon="3.88852">
        <ele>71.27</ele>
        <time>2017-04-16T08:04:50Z</time>
      </trkpt>
      <trkpt lat="50.69803" lon="3.88845">
        <ele>71.27</ele>
        <time>2017-04-16T08:05:14Z</time>
      </trkpt>
      <trkpt lat="50.69802" lon="3.88845">
        <ele>71.27</ele>
        <time>2017-04-16T08:05:35Z</time>
      </trkpt>
      <trkpt lat="50.69801" lon="3.88847">
        <ele>71.27</ele>
        <time>2017-04-16T08:06:01Z</time>
      </trkpt>
      <trkpt lat="50.69799" lon="3.88845">
        <ele>71.27</ele>
        <time>2017-04-16T08:06:18Z</time>
      </trkpt>
      <trkpt lat="50.69795" lon="3.88843">
        <ele>71.76</ele>
        <time>2017-04-16T08:06:36Z</time>
      </trkpt>
      <trkpt lat="50.6979" lon="3.88845">
        <ele>71.76</ele>
        <time>2017-04-16T08:06:42Z</time>
      </trkpt>
      <trkpt lat="50.69788" lon="3.88864">
        <ele>71.76</ele>
        <time>2017-04-16T08:06:54Z</time>
      </trkpt>
      <trkpt lat="50.69791" lon="3.88872">
        <ele>71.76</ele>
        <time>2017-04-16T08:06:58Z</time>
      </trkpt>
      <trkpt lat="50.698" lon="3.88888">
        <ele>70.79</ele>
        <time>2017-04-16T08:07:12Z</time>
      </trkpt>
      <trkpt lat="50.698" lon="3.88889">
        <ele>70.79</ele>
        <time>2017-04-16T08:07:13Z</time>
      </trkpt>
      <trkpt lat="50.69803" lon="3.88896">
        <ele>70.79</ele>
        <time>2017-04-16T08:07:18Z</time>
      </trkpt>
      <trkpt lat="50.69807" lon="3.88904">
        <ele>70.31</ele>
        <time>2017-04-16T08:07:25Z</time>
      </trkpt>
      <trkpt lat="50.69818" lon="3.88928">
        <ele>68.87</ele>
        <time>2017-04-16T08:07:40Z</time>
      </trkpt>
      <trkpt lat="50.69827" lon="3.88948">
        <ele>68.87</ele>
        <time>2017-04-16T08:07:52Z</time>
      </trkpt>
      <trkpt lat="50.69836" lon="3.88968">
        <ele>67.91</ele>
        <time>2017-04-16T08:08:06Z</time>
      </trkpt>
      <trkpt lat="50.69838" lon="3.88974">
        <ele>67.91</ele>
        <time>2017-04-16T08:08:10Z</time>
      </trkpt>
      <trkpt lat="50.69845" lon="3.88983">
        <ele>67.43</ele>
        <time>2017-04-16T08:08:18Z</time>
      </trkpt>
      <trkpt lat="50.69846" lon="3.88988">
        <ele>66.95</ele>
        <time>2017-04-16T08:08:21Z</time>
      </trkpt>
      <trkpt lat="50.69851" lon="3.88999">
        <ele>66.47</ele>
        <time>2017-04-16T08:08:28Z</time>
      </trkpt>
      <trkpt lat="50.69858" lon="3.89012">
        <ele>65.99</ele>
        <time>2017-04-16T08:08:38Z</time>
      </trkpt>
      <trkpt lat="50.69864" lon="3.89022">
        <ele>65.51</ele>
        <time>2017-04-16T08:08:45Z</time>
      </trkpt>
      <trkpt lat="50.69869" lon="3.89035">
        <ele>65.03</ele>
        <time>2017-04-16T08:08:51Z</time>
      </trkpt>
      <trkpt lat="50.69878" lon="3.89041">
        <ele>65.03</ele>
        <time>2017-04-16T08:08:57Z</time>
      </trkpt>
      <trkpt lat="50.69878" lon="3.89044">
        <ele>65.03</ele>
        <time>2017-04-16T08:08:58Z</time>
      </trkpt>
      <trkpt lat="50.6988" lon="3.89048">
        <ele>65.03</ele>
        <time>2017-04-16T08:09:00Z</time>
      </trkpt>
      <trkpt lat="50.6988" lon="3.8905">
        <ele>64.55</ele>
        <time>2017-04-16T08:09:01Z</time>
      </trkpt>
      <trkpt lat="50.6988" lon="3.89053">
        <ele>64.55</ele>
        <time>2017-04-16T08:09:02Z</time>
      </trkpt>
      <trkpt lat="50.69879" lon="3.89055">
        <ele>64.55</ele>
        <time>2017-04-16T08:09:03Z</time>
      </trkpt>
      <trkpt lat="50.6988" lon="3.89057">
        <ele>64.55</ele>
        <time>2017-04-16T08:09:04Z</time>
      </trkpt>
      <trkpt lat="50.69884" lon="3.89065">
        <ele>64.55</ele>
        <time>2017-04-16T08:09:10Z</time>
      </trkpt>
      <trkpt lat="50.69884" lon="3.89067">
        <ele>64.55</ele>
        <time>2017-04-16T08:09:11Z</time>
      </trkpt>
      <trkpt lat="50.69885" lon="3.8907">
        <ele>64.07</ele>
        <time>2017-04-16T08:09:12Z</time>
      </trkpt>
      <trkpt lat="50.69886" lon="3.89072">
        <ele>64.07</ele>
        <time>2017-04-16T08:09:13Z</time>
      </trkpt>
      <trkpt lat="50.69887" lon="3.89074">
        <ele>64.07</ele>
        <time>2017-04-16T08:09:14Z</time>
      </trkpt>
      <trkpt lat="50.69888" lon="3.89077">
        <ele>64.07</ele>
        <time>2017-04-16T08:09:15Z</time>
      </trkpt>
      <trkpt lat="50.69888" lon="3.89079">
        <ele>64.07</ele>
        <time>2017-04-16T08:09:16Z</time>
      </trkpt>
      <trkpt lat="50.69889" lon="3.89081">
        <ele>64.07</ele>
        <time>2017-04-16T08:09:17Z</time>
      </trkpt>
      <trkpt lat="50.69889" lon="3.89083">
        <ele>64.07</ele>
        <time>2017-04-16T08:09:18Z</time>
      </trkpt>
      <trkpt lat="50.6989" lon="3.89085">
        <ele>64.07</ele>
        <time>2017-04-16T08:09:19Z</time>
      </trkpt>
      <trkpt lat="50.69891" lon="3.89086">
        <ele>64.07</ele>
        <time>2017-04-16T08:09:20Z</time>
      </trkpt>
      <trkpt lat="50.69892" lon="3.89087">
        <ele>64.07</ele>
        <time>2017-04-16T08:09:21Z</time>
      </trkpt>
      <trkpt lat="50.69893" lon="3.89088">
        <ele>64.07</ele>
        <time>2017-04-16T08:09:22Z</time>
      </trkpt>
      <trkpt lat="50.69894" lon="3.8909">
        <ele>63.58</ele>
        <time>2017-04-16T08:09:23Z</time>
      </trkpt>
      <trkpt lat="50.69897" lon="3.89096">
        <ele>62.62</ele>
        <time>2017-04-16T08:09:28Z</time>
      </trkpt>
      <trkpt lat="50.69898" lon="3.89098">
        <ele>62.62</ele>
        <time>2017-04-16T08:09:29Z</time>
      </trkpt>
      <trkpt lat="50.69898" lon="3.891">
        <ele>62.62</ele>
        <time>2017-04-16T08:09:30Z</time>
      </trkpt>
      <trkpt lat="50.69899" lon="3.89102">
        <ele>62.62</ele>
        <time>2017-04-16T08:09:31Z</time>
      </trkpt>
      <trkpt lat="50.699" lon="3.89104">
        <ele>62.62</ele>
        <time>2017-04-16T08:09:32Z</time>
      </trkpt>
      <trkpt lat="50.69901" lon="3.89106">
        <ele>62.62</ele>
        <time>2017-04-16T08:09:33Z</time>
      </trkpt>
      <trkpt lat="50.69901" lon="3.89107">
        <ele>62.62</ele>
        <time>2017-04-16T08:09:34Z</time>
      </trkpt>
      <trkpt lat="50.69905" lon="3.89115">
        <ele>62.62</ele>
        <time>2017-04-16T08:09:40Z</time>
      </trkpt>
      <trkpt lat="50.69906" lon="3.89117">
        <ele>62.62</ele>
        <time>2017-04-16T08:09:41Z</time>
      </trkpt>
      <trkpt lat="50.69907" lon="3.89118">
        <ele>62.14</ele>
        <time>2017-04-16T08:09:42Z</time>
      </trkpt>
      <trkpt lat="50.69908" lon="3.89121">
        <ele>62.14</ele>
        <time>2017-04-16T08:09:45Z</time>
      </trkpt>
      <trkpt lat="50.69908" lon="3.89123">
        <ele>62.14</ele>
        <time>2017-04-16T08:09:46Z</time>
      </trkpt>
      <trkpt lat="50.69908" lon="3.89125">
        <ele>62.14</ele>
        <time>2017-04-16T08:09:47Z</time>
      </trkpt>
      <trkpt lat="50.69909" lon="3.89127">
        <ele>62.14</ele>
        <time>2017-04-16T08:09:48Z</time>
      </trkpt>
      <trkpt lat="50.6991" lon="3.89129">
        <ele>62.14</ele>
        <time>2017-04-16T08:09:49Z</time>
      </trkpt>
      <trkpt lat="50.69912" lon="3.89133">
        <ele>62.14</ele>
        <time>2017-04-16T08:09:52Z</time>
      </trkpt>
      <trkpt lat="50.69913" lon="3.89134">
        <ele>61.66</ele>
        <time>2017-04-16T08:09:53Z</time>
      </trkpt>
      <trkpt lat="50.69915" lon="3.89138">
        <ele>61.66</ele>
        <time>2017-04-16T08:09:56Z</time>
      </trkpt>
      <trkpt lat="50.69916" lon="3.8914">
        <ele>61.66</ele>
        <time>2017-04-16T08:09:57Z</time>
      </trkpt>
      <trkpt lat="50.69916" lon="3.89142">
        <ele>61.66</ele>
        <time>2017-04-16T08:09:58Z</time>
      </trkpt>
      <trkpt lat="50.6992" lon="3.89153">
        <ele>61.18</ele>
        <time>2017-04-16T08:10:04Z</time>
      </trkpt>
      <trkpt lat="50.69921" lon="3.89155">
        <ele>61.18</ele>
        <time>2017-04-16T08:10:05Z</time>
      </trkpt>
      <trkpt lat="50.69922" lon="3.89157">
        <ele>60.7</ele>
        <time>2017-04-16T08:10:06Z</time>
      </trkpt>
      <trkpt lat="50.69923" lon="3.89159">
        <ele>60.7</ele>
        <time>2017-04-16T08:10:07Z</time>
      </trkpt>
      <trkpt lat="50.69924" lon="3.89161">
        <ele>60.7</ele>
        <time>2017-04-16T08:10:08Z</time>
      </trkpt>
      <trkpt lat="50.69925" lon="3.89163">
        <ele>60.7</ele>
        <time>2017-04-16T08:10:09Z</time>
      </trkpt>
      <trkpt lat="50.69927" lon="3.89162">
        <ele>60.7</ele>
        <time>2017-04-16T08:10:10Z</time>
      </trkpt>
      <trkpt lat="50.69928" lon="3.89162">
        <ele>60.7</ele>
        <time>2017-04-16T08:10:11Z</time>
      </trkpt>
      <trkpt lat="50.6993" lon="3.89162">
        <ele>60.7</ele>
        <time>2017-04-16T08:10:12Z</time>
      </trkpt>
      <trkpt lat="50.69934" lon="3.89161">
        <ele>60.7</ele>
        <time>2017-04-16T08:10:23Z</time>
      </trkpt>
      <trkpt lat="50.69936" lon="3.8916">
        <ele>60.7</ele>
        <time>2017-04-16T08:10:39Z</time>
      </trkpt>
      <trkpt lat="50.69934" lon="3.8916">
        <ele>60.7</ele>
        <time>2017-04-16T08:10:59Z</time>
      </trkpt>
      <trkpt lat="50.69933" lon="3.8916">
        <ele>60.7</ele>
        <time>2017-04-16T08:11:27Z</time>
      </trkpt>
      <trkpt lat="50.69932" lon="3.89163">
        <ele>60.7</ele>
        <time>2017-04-16T08:11:50Z</time>
      </trkpt>
      <trkpt lat="50.69935" lon="3.89163">
        <ele>61.18</ele>
        <time>2017-04-16T08:12:13Z</time>
      </trkpt>
      <trkpt lat="50.69942" lon="3.8915">
        <ele>60.7</ele>
        <time>2017-04-16T08:12:24Z</time>
      </trkpt>
      <trkpt lat="50.69954" lon="3.89144">
        <ele>59.26</ele>
        <time>2017-04-16T08:12:36Z</time>
      </trkpt>
      <trkpt lat="50.69957" lon="3.89146">
        <ele>59.26</ele>
        <time>2017-04-16T08:12:39Z</time>
      </trkpt>
      <trkpt lat="50.69958" lon="3.89145">
        <ele>59.26</ele>
        <time>2017-04-16T08:12:40Z</time>
      </trkpt>
      <trkpt lat="50.6997" lon="3.89132">
        <ele>58.3</ele>
        <time>2017-04-16T08:12:53Z</time>
      </trkpt>
      <trkpt lat="50.69983" lon="3.89126">
        <ele>57.34</ele>
        <time>2017-04-16T08:13:07Z</time>
      </trkpt>
      <trkpt lat="50.69995" lon="3.89123">
        <ele>56.37</ele>
        <time>2017-04-16T08:13:19Z</time>
      </trkpt>
      <trkpt lat="50.70015" lon="3.89126">
        <ele>56.37</ele>
        <time>2017-04-16T08:13:34Z</time>
      </trkpt>
      <trkpt lat="50.70038" lon="3.89137">
        <ele>55.41</ele>
        <time>2017-04-16T08:13:51Z</time>
      </trkpt>
      <trkpt lat="50.7005" lon="3.89146">
        <ele>55.41</ele>
        <time>2017-04-16T08:14:04Z</time>
      </trkpt>
      <trkpt lat="50.70069" lon="3.89156">
        <ele>54.93</ele>
        <time>2017-04-16T08:14:17Z</time>
      </trkpt>
      <trkpt lat="50.70093" lon="3.89163">
        <ele>53.49</ele>
        <time>2017-04-16T08:14:32Z</time>
      </trkpt>
      <trkpt lat="50.70107" lon="3.89169">
        <ele>53.97</ele>
        <time>2017-04-16T08:14:43Z</time>
      </trkpt>
      <trkpt lat="50.7011" lon="3.8917">
        <ele>54.93</ele>
        <time>2017-04-16T08:14:47Z</time>
      </trkpt>
      <trkpt lat="50.70113" lon="3.89172">
        <ele>53.49</ele>
        <time>2017-04-16T08:14:51Z</time>
      </trkpt>
      <trkpt lat="50.70114" lon="3.89173">
        <ele>53.97</ele>
        <time>2017-04-16T08:14:52Z</time>
      </trkpt>
      <trkpt lat="50.70123" lon="3.89179">
        <ele>53.01</ele>
        <time>2017-04-16T08:15:01Z</time>
      </trkpt>
      <trkpt lat="50.70124" lon="3.89179">
        <ele>53.01</ele>
        <time>2017-04-16T08:15:02Z</time>
      </trkpt>
      <trkpt lat="50.70126" lon="3.8918">
        <ele>53.01</ele>
        <time>2017-04-16T08:15:03Z</time>
      </trkpt>
      <trkpt lat="50.70127" lon="3.89181">
        <ele>53.01</ele>
        <time>2017-04-16T08:15:04Z</time>
      </trkpt>
      <trkpt lat="50.70128" lon="3.89182">
        <ele>53.01</ele>
        <time>2017-04-16T08:15:05Z</time>
      </trkpt>
      <trkpt lat="50.7013" lon="3.89183">
        <ele>53.01</ele>
        <time>2017-04-16T08:15:06Z</time>
      </trkpt>
      <trkpt lat="50.70131" lon="3.89183">
        <ele>53.01</ele>
        <time>2017-04-16T08:15:07Z</time>
      </trkpt>
      <trkpt lat="50.7015" lon="3.89193">
        <ele>53.01</ele>
        <time>2017-04-16T08:15:23Z</time>
      </trkpt>
      <trkpt lat="50.70164" lon="3.89204">
        <ele>54.45</ele>
        <time>2017-04-16T08:15:39Z</time>
      </trkpt>
      <trkpt lat="50.70184" lon="3.89213">
        <ele>54.45</ele>
        <time>2017-04-16T08:15:55Z</time>
      </trkpt>
      <trkpt lat="50.70209" lon="3.8922">
        <ele>54.93</ele>
        <time>2017-04-16T08:16:11Z</time>
      </trkpt>
      <trkpt lat="50.70211" lon="3.89221">
        <ele>53.49</ele>
        <time>2017-04-16T08:16:13Z</time>
      </trkpt>
      <trkpt lat="50.70214" lon="3.89222">
        <ele>55.41</ele>
        <time>2017-04-16T08:16:15Z</time>
      </trkpt>
      <trkpt lat="50.70234" lon="3.89232">
        <ele>55.89</ele>
        <time>2017-04-16T08:16:31Z</time>
      </trkpt>
      <trkpt lat="50.70251" lon="3.89241">
        <ele>56.37</ele>
        <time>2017-04-16T08:16:46Z</time>
      </trkpt>
      <trkpt lat="50.7027" lon="3.89247">
        <ele>56.86</ele>
        <time>2017-04-16T08:17:01Z</time>
      </trkpt>
      <trkpt lat="50.70288" lon="3.89257">
        <ele>56.86</ele>
        <time>2017-04-16T08:17:15Z</time>
      </trkpt>
      <trkpt lat="50.70298" lon="3.8926">
        <ele>55.41</ele>
        <time>2017-04-16T08:17:24Z</time>
      </trkpt>
      <trkpt lat="50.70315" lon="3.89269">
        <ele>57.34</ele>
        <time>2017-04-16T08:17:38Z</time>
      </trkpt>
      <trkpt lat="50.7033" lon="3.89275">
        <ele>57.82</ele>
        <time>2017-04-16T08:17:49Z</time>
      </trkpt>
      <trkpt lat="50.70334" lon="3.89277">
        <ele>56.37</ele>
        <time>2017-04-16T08:17:52Z</time>
      </trkpt>
      <trkpt lat="50.70342" lon="3.89281">
        <ele>57.34</ele>
        <time>2017-04-16T08:18:00Z</time>
      </trkpt>
      <trkpt lat="50.70351" lon="3.89285">
        <ele>56.37</ele>
        <time>2017-04-16T08:18:07Z</time>
      </trkpt>
      <trkpt lat="50.70368" lon="3.89292">
        <ele>57.34</ele>
        <time>2017-04-16T08:18:20Z</time>
      </trkpt>
      <trkpt lat="50.70386" lon="3.89301">
        <ele>58.78</ele>
        <time>2017-04-16T08:18:35Z</time>
      </trkpt>
      <trkpt lat="50.70391" lon="3.89302">
        <ele>57.34</ele>
        <time>2017-04-16T08:18:39Z</time>
      </trkpt>
      <trkpt lat="50.70405" lon="3.8931">
        <ele>56.86</ele>
        <time>2017-04-16T08:18:52Z</time>
      </trkpt>
      <trkpt lat="50.70407" lon="3.89312">
        <ele>59.26</ele>
        <time>2017-04-16T08:18:54Z</time>
      </trkpt>
      <trkpt lat="50.70419" lon="3.89316">
        <ele>57.82</ele>
        <time>2017-04-16T08:19:03Z</time>
      </trkpt>
      <trkpt lat="50.70421" lon="3.89317">
        <ele>59.26</ele>
        <time>2017-04-16T08:19:05Z</time>
      </trkpt>
      <trkpt lat="50.70431" lon="3.89323">
        <ele>57.82</ele>
        <time>2017-04-16T08:19:13Z</time>
      </trkpt>
      <trkpt lat="50.70433" lon="3.89323">
        <ele>59.74</ele>
        <time>2017-04-16T08:19:15Z</time>
      </trkpt>
      <trkpt lat="50.70445" lon="3.89329">
        <ele>57.82</ele>
        <time>2017-04-16T08:19:24Z</time>
      </trkpt>
      <trkpt lat="50.70447" lon="3.89331">
        <ele>59.74</ele>
        <time>2017-04-16T08:19:26Z</time>
      </trkpt>
      <trkpt lat="50.7046" lon="3.89337">
        <ele>59.26</ele>
        <time>2017-04-16T08:19:35Z</time>
      </trkpt>
      <trkpt lat="50.70461" lon="3.89337">
        <ele>59.74</ele>
        <time>2017-04-16T08:19:36Z</time>
      </trkpt>
      <trkpt lat="50.70463" lon="3.89337">
        <ele>59.74</ele>
        <time>2017-04-16T08:19:37Z</time>
      </trkpt>
      <trkpt lat="50.7047" lon="3.89339">
        <ele>58.78</ele>
        <time>2017-04-16T08:19:41Z</time>
      </trkpt>
      <trkpt lat="50.70483" lon="3.89347">
        <ele>59.74</ele>
        <time>2017-04-16T08:19:51Z</time>
      </trkpt>
      <trkpt lat="50.70487" lon="3.89349">
        <ele>57.82</ele>
        <time>2017-04-16T08:19:55Z</time>
      </trkpt>
      <trkpt lat="50.70496" lon="3.89351">
        <ele>58.78</ele>
        <time>2017-04-16T08:20:00Z</time>
      </trkpt>
      <trkpt lat="50.70516" lon="3.89358">
        <ele>58.78</ele>
        <time>2017-04-16T08:20:12Z</time>
      </trkpt>
      <trkpt lat="50.70527" lon="3.89364">
        <ele>57.34</ele>
        <time>2017-04-16T08:20:21Z</time>
      </trkpt>
      <trkpt lat="50.70532" lon="3.89365">
        <ele>58.78</ele>
        <time>2017-04-16T08:20:26Z</time>
      </trkpt>
      <trkpt lat="50.70552" lon="3.89378">
        <ele>58.3</ele>
        <time>2017-04-16T08:20:42Z</time>
      </trkpt>
      <trkpt lat="50.70566" lon="3.89389">
        <ele>59.26</ele>
        <time>2017-04-16T08:20:56Z</time>
      </trkpt>
      <trkpt lat="50.70572" lon="3.89392">
        <ele>59.26</ele>
        <time>2017-04-16T08:21:01Z</time>
      </trkpt>
      <trkpt lat="50.70573" lon="3.89392">
        <ele>57.82</ele>
        <time>2017-04-16T08:21:02Z</time>
      </trkpt>
      <trkpt lat="50.70575" lon="3.89393">
        <ele>57.82</ele>
        <time>2017-04-16T08:21:03Z</time>
      </trkpt>
      <trkpt lat="50.7058" lon="3.89396">
        <ele>59.26</ele>
        <time>2017-04-16T08:21:07Z</time>
      </trkpt>
      <trkpt lat="50.70601" lon="3.89404">
        <ele>57.82</ele>
        <time>2017-04-16T08:21:17Z</time>
      </trkpt>
      <trkpt lat="50.70607" lon="3.89404">
        <ele>59.74</ele>
        <time>2017-04-16T08:21:19Z</time>
      </trkpt>
      <trkpt lat="50.70626" lon="3.89409">
        <ele>59.74</ele>
        <time>2017-04-16T08:21:29Z</time>
      </trkpt>
      <trkpt lat="50.70641" lon="3.89417">
        <ele>60.7</ele>
        <time>2017-04-16T08:21:41Z</time>
      </trkpt>
      <trkpt lat="50.70644" lon="3.89415">
        <ele>59.74</ele>
        <time>2017-04-16T08:21:44Z</time>
      </trkpt>
      <trkpt lat="50.70653" lon="3.89417">
        <ele>60.7</ele>
        <time>2017-04-16T08:21:52Z</time>
      </trkpt>
      <trkpt lat="50.70656" lon="3.89417">
        <ele>59.74</ele>
        <time>2017-04-16T08:21:55Z</time>
      </trkpt>
      <trkpt lat="50.70662" lon="3.89413">
        <ele>61.18</ele>
        <time>2017-04-16T08:22:04Z</time>
      </trkpt>
      <trkpt lat="50.70671" lon="3.89416">
        <ele>59.74</ele>
        <time>2017-04-16T08:22:13Z</time>
      </trkpt>
      <trkpt lat="50.70672" lon="3.89416">
        <ele>59.74</ele>
        <time>2017-04-16T08:22:14Z</time>
      </trkpt>
      <trkpt lat="50.70673" lon="3.89416">
        <ele>61.18</ele>
        <time>2017-04-16T08:22:15Z</time>
      </trkpt>
      <trkpt lat="50.70674" lon="3.89417">
        <ele>61.18</ele>
        <time>2017-04-16T08:22:16Z</time>
      </trkpt>
      <trkpt lat="50.70675" lon="3.89416">
        <ele>61.18</ele>
        <time>2017-04-16T08:22:17Z</time>
      </trkpt>
      <trkpt lat="50.70676" lon="3.89416">
        <ele>59.74</ele>
        <time>2017-04-16T08:22:18Z</time>
      </trkpt>
      <trkpt lat="50.70677" lon="3.89416">
        <ele>59.74</ele>
        <time>2017-04-16T08:22:19Z</time>
      </trkpt>
      <trkpt lat="50.70689" lon="3.89414">
        <ele>61.18</ele>
        <time>2017-04-16T08:22:32Z</time>
      </trkpt>
      <trkpt lat="50.70697" lon="3.89415">
        <ele>59.74</ele>
        <time>2017-04-16T08:22:39Z</time>
      </trkpt>
      <trkpt lat="50.707" lon="3.89415">
        <ele>61.18</ele>
        <time>2017-04-16T08:22:41Z</time>
      </trkpt>
      <trkpt lat="50.70708" lon="3.89413">
        <ele>59.74</ele>
        <time>2017-04-16T08:22:47Z</time>
      </trkpt>
      <trkpt lat="50.70714" lon="3.89412">
        <ele>61.18</ele>
        <time>2017-04-16T08:22:51Z</time>
      </trkpt>
      <trkpt lat="50.70726" lon="3.89411">
        <ele>59.74</ele>
        <time>2017-04-16T08:23:00Z</time>
      </trkpt>
      <trkpt lat="50.7073" lon="3.89412">
        <ele>61.18</ele>
        <time>2017-04-16T08:23:03Z</time>
      </trkpt>
      <trkpt lat="50.70744" lon="3.89414">
        <ele>59.74</ele>
        <time>2017-04-16T08:23:13Z</time>
      </trkpt>
      <trkpt lat="50.70748" lon="3.89414">
        <ele>61.66</ele>
        <time>2017-04-16T08:23:16Z</time>
      </trkpt>
      <trkpt lat="50.70753" lon="3.89419">
        <ele>60.22</ele>
        <time>2017-04-16T08:23:20Z</time>
      </trkpt>
      <trkpt lat="50.70753" lon="3.89421">
        <ele>60.22</ele>
        <time>2017-04-16T08:23:21Z</time>
      </trkpt>
      <trkpt lat="50.70754" lon="3.89422">
        <ele>60.22</ele>
        <time>2017-04-16T08:23:22Z</time>
      </trkpt>
      <trkpt lat="50.70754" lon="3.89424">
        <ele>60.22</ele>
        <time>2017-04-16T08:23:23Z</time>
      </trkpt>
      <trkpt lat="50.70755" lon="3.89426">
        <ele>60.22</ele>
        <time>2017-04-16T08:23:24Z</time>
      </trkpt>
      <trkpt lat="50.70762" lon="3.89433">
        <ele>62.14</ele>
        <time>2017-04-16T08:23:29Z</time>
      </trkpt>
      <trkpt lat="50.70768" lon="3.89445">
        <ele>60.7</ele>
        <time>2017-04-16T08:23:38Z</time>
      </trkpt>
      <trkpt lat="50.70769" lon="3.89448">
        <ele>62.14</ele>
        <time>2017-04-16T08:23:40Z</time>
      </trkpt>
      <trkpt lat="50.70776" lon="3.89475">
        <ele>62.14</ele>
        <time>2017-04-16T08:23:53Z</time>
      </trkpt>
      <trkpt lat="50.70782" lon="3.89488">
        <ele>60.7</ele>
        <time>2017-04-16T08:24:02Z</time>
      </trkpt>
      <trkpt lat="50.70784" lon="3.89493">
        <ele>62.62</ele>
        <time>2017-04-16T08:24:05Z</time>
      </trkpt>
      <trkpt lat="50.70789" lon="3.89515">
        <ele>61.18</ele>
        <time>2017-04-16T08:24:15Z</time>
      </trkpt>
      <trkpt lat="50.70791" lon="3.89521">
        <ele>62.62</ele>
        <time>2017-04-16T08:24:18Z</time>
      </trkpt>
      <trkpt lat="50.70797" lon="3.89539">
        <ele>61.66</ele>
        <time>2017-04-16T08:24:29Z</time>
      </trkpt>
      <trkpt lat="50.70799" lon="3.89542">
        <ele>63.1</ele>
        <time>2017-04-16T08:24:31Z</time>
      </trkpt>
      <trkpt lat="50.70803" lon="3.89568">
        <ele>63.58</ele>
        <time>2017-04-16T08:24:43Z</time>
      </trkpt>
      <trkpt lat="50.70804" lon="3.8957">
        <ele>63.58</ele>
        <time>2017-04-16T08:24:44Z</time>
      </trkpt>
      <trkpt lat="50.70805" lon="3.89572">
        <ele>63.58</ele>
        <time>2017-04-16T08:24:45Z</time>
      </trkpt>
      <trkpt lat="50.70806" lon="3.89573">
        <ele>63.58</ele>
        <time>2017-04-16T08:24:46Z</time>
      </trkpt>
      <trkpt lat="50.70811" lon="3.89589">
        <ele>62.14</ele>
        <time>2017-04-16T08:24:58Z</time>
      </trkpt>
      <trkpt lat="50.70813" lon="3.89592">
        <ele>62.14</ele>
        <time>2017-04-16T08:25:00Z</time>
      </trkpt>
      <trkpt lat="50.70814" lon="3.89601">
        <ele>61.18</ele>
        <time>2017-04-16T08:25:05Z</time>
      </trkpt>
      <trkpt lat="50.70815" lon="3.89604">
        <ele>61.18</ele>
        <time>2017-04-16T08:25:06Z</time>
      </trkpt>
      <trkpt lat="50.70815" lon="3.89607">
        <ele>61.18</ele>
        <time>2017-04-16T08:25:07Z</time>
      </trkpt>
      <trkpt lat="50.70815" lon="3.89609">
        <ele>62.62</ele>
        <time>2017-04-16T08:25:08Z</time>
      </trkpt>
      <trkpt lat="50.70815" lon="3.89612">
        <ele>62.14</ele>
        <time>2017-04-16T08:25:09Z</time>
      </trkpt>
      <trkpt lat="50.70817" lon="3.89621">
        <ele>62.14</ele>
        <time>2017-04-16T08:25:12Z</time>
      </trkpt>
      <trkpt lat="50.70817" lon="3.89623">
        <ele>62.14</ele>
        <time>2017-04-16T08:25:13Z</time>
      </trkpt>
      <trkpt lat="50.70817" lon="3.89625">
        <ele>62.14</ele>
        <time>2017-04-16T08:25:14Z</time>
      </trkpt>
      <trkpt lat="50.70818" lon="3.89629">
        <ele>61.18</ele>
        <time>2017-04-16T08:25:16Z</time>
      </trkpt>
      <trkpt lat="50.7082" lon="3.8964">
        <ele>60.22</ele>
        <time>2017-04-16T08:25:23Z</time>
      </trkpt>
      <trkpt lat="50.70821" lon="3.89649">
        <ele>60.22</ele>
        <time>2017-04-16T08:25:29Z</time>
      </trkpt>
      <trkpt lat="50.70822" lon="3.89652">
        <ele>60.22</ele>
        <time>2017-04-16T08:25:30Z</time>
      </trkpt>
      <trkpt lat="50.70822" lon="3.89655">
        <ele>60.22</ele>
        <time>2017-04-16T08:25:31Z</time>
      </trkpt>
      <trkpt lat="50.70822" lon="3.89658">
        <ele>60.22</ele>
        <time>2017-04-16T08:25:32Z</time>
      </trkpt>
      <trkpt lat="50.70822" lon="3.89661">
        <ele>59.74</ele>
        <time>2017-04-16T08:25:33Z</time>
      </trkpt>
      <trkpt lat="50.70822" lon="3.89663">
        <ele>59.74</ele>
        <time>2017-04-16T08:25:34Z</time>
      </trkpt>
      <trkpt lat="50.70822" lon="3.89666">
        <ele>60.7</ele>
        <time>2017-04-16T08:25:35Z</time>
      </trkpt>
      <trkpt lat="50.70822" lon="3.89668">
        <ele>60.7</ele>
        <time>2017-04-16T08:25:36Z</time>
      </trkpt>
      <trkpt lat="50.70822" lon="3.89671">
        <ele>60.7</ele>
        <time>2017-04-16T08:25:37Z</time>
      </trkpt>
      <trkpt lat="50.70823" lon="3.89679">
        <ele>59.74</ele>
        <time>2017-04-16T08:25:40Z</time>
      </trkpt>
      <trkpt lat="50.70826" lon="3.89686">
        <ele>59.74</ele>
        <time>2017-04-16T08:25:43Z</time>
      </trkpt>
      <trkpt lat="50.70826" lon="3.89689">
        <ele>59.74</ele>
        <time>2017-04-16T08:25:44Z</time>
      </trkpt>
      <trkpt lat="50.70826" lon="3.89691">
        <ele>59.74</ele>
        <time>2017-04-16T08:25:45Z</time>
      </trkpt>
      <trkpt lat="50.70827" lon="3.89694">
        <ele>59.74</ele>
        <time>2017-04-16T08:25:46Z</time>
      </trkpt>
      <trkpt lat="50.70827" lon="3.89696">
        <ele>59.74</ele>
        <time>2017-04-16T08:25:47Z</time>
      </trkpt>
      <trkpt lat="50.70828" lon="3.89698">
        <ele>59.26</ele>
        <time>2017-04-16T08:25:48Z</time>
      </trkpt>
      <trkpt lat="50.70828" lon="3.897">
        <ele>58.78</ele>
        <time>2017-04-16T08:25:49Z</time>
      </trkpt>
      <trkpt lat="50.70829" lon="3.89702">
        <ele>58.3</ele>
        <time>2017-04-16T08:25:50Z</time>
      </trkpt>
      <trkpt lat="50.70829" lon="3.89703">
        <ele>59.74</ele>
        <time>2017-04-16T08:25:51Z</time>
      </trkpt>
      <trkpt lat="50.7083" lon="3.89706">
        <ele>59.74</ele>
        <time>2017-04-16T08:25:53Z</time>
      </trkpt>
      <trkpt lat="50.70831" lon="3.89723">
        <ele>58.3</ele>
        <time>2017-04-16T08:26:03Z</time>
      </trkpt>
      <trkpt lat="50.70831" lon="3.89727">
        <ele>59.74</ele>
        <time>2017-04-16T08:26:05Z</time>
      </trkpt>
      <trkpt lat="50.70837" lon="3.89758">
        <ele>57.82</ele>
        <time>2017-04-16T08:26:19Z</time>
      </trkpt>
      <trkpt lat="50.70837" lon="3.89763">
        <ele>59.26</ele>
        <time>2017-04-16T08:26:22Z</time>
      </trkpt>
      <trkpt lat="50.70838" lon="3.89776">
        <ele>57.82</ele>
        <time>2017-04-16T08:26:30Z</time>
      </trkpt>
      <trkpt lat="50.70843" lon="3.89783">
        <ele>58.3</ele>
        <time>2017-04-16T08:26:36Z</time>
      </trkpt>
      <trkpt lat="50.70847" lon="3.89792">
        <ele>58.3</ele>
        <time>2017-04-16T08:26:41Z</time>
      </trkpt>
      <trkpt lat="50.70847" lon="3.89794">
        <ele>58.3</ele>
        <time>2017-04-16T08:26:42Z</time>
      </trkpt>
      <trkpt lat="50.70848" lon="3.89798">
        <ele>58.3</ele>
        <time>2017-04-16T08:26:44Z</time>
      </trkpt>
      <trkpt lat="50.70849" lon="3.898">
        <ele>58.3</ele>
        <time>2017-04-16T08:26:45Z</time>
      </trkpt>
      <trkpt lat="50.70849" lon="3.89802">
        <ele>58.3</ele>
        <time>2017-04-16T08:26:46Z</time>
      </trkpt>
      <trkpt lat="50.7085" lon="3.89804">
        <ele>57.34</ele>
        <time>2017-04-16T08:26:47Z</time>
      </trkpt>
      <trkpt lat="50.7085" lon="3.89806">
        <ele>57.34</ele>
        <time>2017-04-16T08:26:48Z</time>
      </trkpt>
      <trkpt lat="50.70851" lon="3.8981">
        <ele>57.34</ele>
        <time>2017-04-16T08:26:50Z</time>
      </trkpt>
      <trkpt lat="50.7085" lon="3.89812">
        <ele>57.34</ele>
        <time>2017-04-16T08:26:51Z</time>
      </trkpt>
      <trkpt lat="50.7085" lon="3.89815">
        <ele>57.34</ele>
        <time>2017-04-16T08:26:52Z</time>
      </trkpt>
      <trkpt lat="50.70851" lon="3.89817">
        <ele>57.34</ele>
        <time>2017-04-16T08:26:53Z</time>
      </trkpt>
      <trkpt lat="50.70851" lon="3.89819">
        <ele>57.34</ele>
        <time>2017-04-16T08:26:54Z</time>
      </trkpt>
      <trkpt lat="50.70851" lon="3.89821">
        <ele>57.34</ele>
        <time>2017-04-16T08:26:55Z</time>
      </trkpt>
      <trkpt lat="50.70852" lon="3.89824">
        <ele>56.86</ele>
        <time>2017-04-16T08:26:56Z</time>
      </trkpt>
      <trkpt lat="50.70852" lon="3.89825">
        <ele>56.86</ele>
        <time>2017-04-16T08:26:57Z</time>
      </trkpt>
      <trkpt lat="50.70852" lon="3.89827">
        <ele>56.86</ele>
        <time>2017-04-16T08:26:58Z</time>
      </trkpt>
      <trkpt lat="50.70852" lon="3.89829">
        <ele>56.37</ele>
        <time>2017-04-16T08:26:59Z</time>
      </trkpt>
      <trkpt lat="50.70858" lon="3.89846">
        <ele>56.37</ele>
        <time>2017-04-16T08:27:11Z</time>
      </trkpt>
      <trkpt lat="50.70858" lon="3.89848">
        <ele>55.89</ele>
        <time>2017-04-16T08:27:12Z</time>
      </trkpt>
      <trkpt lat="50.70859" lon="3.89851">
        <ele>55.41</ele>
        <time>2017-04-16T08:27:14Z</time>
      </trkpt>
      <trkpt lat="50.70859" lon="3.89853">
        <ele>55.41</ele>
        <time>2017-04-16T08:27:15Z</time>
      </trkpt>
      <trkpt lat="50.7086" lon="3.89855">
        <ele>55.41</ele>
        <time>2017-04-16T08:27:16Z</time>
      </trkpt>
      <trkpt lat="50.7086" lon="3.89857">
        <ele>54.93</ele>
        <time>2017-04-16T08:27:17Z</time>
      </trkpt>
      <trkpt lat="50.70861" lon="3.8986">
        <ele>54.93</ele>
        <time>2017-04-16T08:27:18Z</time>
      </trkpt>
      <trkpt lat="50.70861" lon="3.89862">
        <ele>56.86</ele>
        <time>2017-04-16T08:27:19Z</time>
      </trkpt>
      <trkpt lat="50.70861" lon="3.89864">
        <ele>56.86</ele>
        <time>2017-04-16T08:27:20Z</time>
      </trkpt>
      <trkpt lat="50.70861" lon="3.89867">
        <ele>56.86</ele>
        <time>2017-04-16T08:27:21Z</time>
      </trkpt>
      <trkpt lat="50.70862" lon="3.89868">
        <ele>56.86</ele>
        <time>2017-04-16T08:27:22Z</time>
      </trkpt>
      <trkpt lat="50.70862" lon="3.8987">
        <ele>56.86</ele>
        <time>2017-04-16T08:27:23Z</time>
      </trkpt>
      <trkpt lat="50.70862" lon="3.89872">
        <ele>54.93</ele>
        <time>2017-04-16T08:27:24Z</time>
      </trkpt>
      <trkpt lat="50.70863" lon="3.89874">
        <ele>54.93</ele>
        <time>2017-04-16T08:27:25Z</time>
      </trkpt>
      <trkpt lat="50.70864" lon="3.89876">
        <ele>54.93</ele>
        <time>2017-04-16T08:27:26Z</time>
      </trkpt>
      <trkpt lat="50.70865" lon="3.89878">
        <ele>54.93</ele>
        <time>2017-04-16T08:27:27Z</time>
      </trkpt>
      <trkpt lat="50.70866" lon="3.89881">
        <ele>54.93</ele>
        <time>2017-04-16T08:27:28Z</time>
      </trkpt>
      <trkpt lat="50.70866" lon="3.89883">
        <ele>54.93</ele>
        <time>2017-04-16T08:27:29Z</time>
      </trkpt>
      <trkpt lat="50.70866" lon="3.89885">
        <ele>54.93</ele>
        <time>2017-04-16T08:27:30Z</time>
      </trkpt>
      <trkpt lat="50.70867" lon="3.89887">
        <ele>54.93</ele>
        <time>2017-04-16T08:27:31Z</time>
      </trkpt>
      <trkpt lat="50.70868" lon="3.89898">
        <ele>55.41</ele>
        <time>2017-04-16T08:27:36Z</time>
      </trkpt>
      <trkpt lat="50.7087" lon="3.89905">
        <ele>55.41</ele>
        <time>2017-04-16T08:27:40Z</time>
      </trkpt>
      <trkpt lat="50.7087" lon="3.89907">
        <ele>55.41</ele>
        <time>2017-04-16T08:27:41Z</time>
      </trkpt>
      <trkpt lat="50.70872" lon="3.89919">
        <ele>54.93</ele>
        <time>2017-04-16T08:27:50Z</time>
      </trkpt>
      <trkpt lat="50.70873" lon="3.8992">
        <ele>54.93</ele>
        <time>2017-04-16T08:27:51Z</time>
      </trkpt>
      <trkpt lat="50.70874" lon="3.89922">
        <ele>54.93</ele>
        <time>2017-04-16T08:27:52Z</time>
      </trkpt>
      <trkpt lat="50.70875" lon="3.89924">
        <ele>53.49</ele>
        <time>2017-04-16T08:27:53Z</time>
      </trkpt>
      <trkpt lat="50.70875" lon="3.89926">
        <ele>53.49</ele>
        <time>2017-04-16T08:27:54Z</time>
      </trkpt>
      <trkpt lat="50.70876" lon="3.89928">
        <ele>53.49</ele>
        <time>2017-04-16T08:27:55Z</time>
      </trkpt>
      <trkpt lat="50.70876" lon="3.8993">
        <ele>53.49</ele>
        <time>2017-04-16T08:27:56Z</time>
      </trkpt>
      <trkpt lat="50.70877" lon="3.89932">
        <ele>53.49</ele>
        <time>2017-04-16T08:27:57Z</time>
      </trkpt>
      <trkpt lat="50.70877" lon="3.89934">
        <ele>53.49</ele>
        <time>2017-04-16T08:27:58Z</time>
      </trkpt>
      <trkpt lat="50.70877" lon="3.8994">
        <ele>52.53</ele>
        <time>2017-04-16T08:28:01Z</time>
      </trkpt>
      <trkpt lat="50.70877" lon="3.89942">
        <ele>53.97</ele>
        <time>2017-04-16T08:28:02Z</time>
      </trkpt>
      <trkpt lat="50.70876" lon="3.89945">
        <ele>53.97</ele>
        <time>2017-04-16T08:28:03Z</time>
      </trkpt>
      <trkpt lat="50.70876" lon="3.89947">
        <ele>53.97</ele>
        <time>2017-04-16T08:28:04Z</time>
      </trkpt>
      <trkpt lat="50.70877" lon="3.89949">
        <ele>53.97</ele>
        <time>2017-04-16T08:28:05Z</time>
      </trkpt>
      <trkpt lat="50.70877" lon="3.8995">
        <ele>53.97</ele>
        <time>2017-04-16T08:28:06Z</time>
      </trkpt>
      <trkpt lat="50.70878" lon="3.89952">
        <ele>52.53</ele>
        <time>2017-04-16T08:28:07Z</time>
      </trkpt>
      <trkpt lat="50.70878" lon="3.89953">
        <ele>52.53</ele>
        <time>2017-04-16T08:28:08Z</time>
      </trkpt>
      <trkpt lat="50.70881" lon="3.89967">
        <ele>52.53</ele>
        <time>2017-04-16T08:28:18Z</time>
      </trkpt>
      <trkpt lat="50.70882" lon="3.89973">
        <ele>52.53</ele>
        <time>2017-04-16T08:28:21Z</time>
      </trkpt>
      <trkpt lat="50.70882" lon="3.89977">
        <ele>51.57</ele>
        <time>2017-04-16T08:28:23Z</time>
      </trkpt>
      <trkpt lat="50.70883" lon="3.89985">
        <ele>51.09</ele>
        <time>2017-04-16T08:28:28Z</time>
      </trkpt>
      <trkpt lat="50.70883" lon="3.89989">
        <ele>51.09</ele>
        <time>2017-04-16T08:28:30Z</time>
      </trkpt>
      <trkpt lat="50.70883" lon="3.8999">
        <ele>51.09</ele>
        <time>2017-04-16T08:28:31Z</time>
      </trkpt>
      <trkpt lat="50.70887" lon="3.90011">
        <ele>50.13</ele>
        <time>2017-04-16T08:28:41Z</time>
      </trkpt>
      <trkpt lat="50.70897" lon="3.90033">
        <ele>49.65</ele>
        <time>2017-04-16T08:28:54Z</time>
      </trkpt>
      <trkpt lat="50.70915" lon="3.90047">
        <ele>49.16</ele>
        <time>2017-04-16T08:29:03Z</time>
      </trkpt>
      <trkpt lat="50.70931" lon="3.90065">
        <ele>47.72</ele>
        <time>2017-04-16T08:29:13Z</time>
      </trkpt>
      <trkpt lat="50.70935" lon="3.90074">
        <ele>47.72</ele>
        <time>2017-04-16T08:29:18Z</time>
      </trkpt>
      <trkpt lat="50.70943" lon="3.90086">
        <ele>48.68</ele>
        <time>2017-04-16T08:29:26Z</time>
      </trkpt>
      <trkpt lat="50.70944" lon="3.90089">
        <ele>47.24</ele>
        <time>2017-04-16T08:29:28Z</time>
      </trkpt>
      <trkpt lat="50.70945" lon="3.90094">
        <ele>46.76</ele>
        <time>2017-04-16T08:29:30Z</time>
      </trkpt>
      <trkpt lat="50.70945" lon="3.901">
        <ele>47.72</ele>
        <time>2017-04-16T08:29:34Z</time>
      </trkpt>
      <trkpt lat="50.70946" lon="3.90105">
        <ele>46.28</ele>
        <time>2017-04-16T08:29:37Z</time>
      </trkpt>
      <trkpt lat="50.70947" lon="3.90113">
        <ele>46.28</ele>
        <time>2017-04-16T08:29:41Z</time>
      </trkpt>
      <trkpt lat="50.70948" lon="3.90122">
        <ele>45.8</ele>
        <time>2017-04-16T08:29:45Z</time>
      </trkpt>
      <trkpt lat="50.70955" lon="3.90139">
        <ele>46.28</ele>
        <time>2017-04-16T08:29:55Z</time>
      </trkpt>
      <trkpt lat="50.70957" lon="3.9014">
        <ele>46.28</ele>
        <time>2017-04-16T08:29:56Z</time>
      </trkpt>
      <trkpt lat="50.70961" lon="3.90141">
        <ele>46.28</ele>
        <time>2017-04-16T08:29:58Z</time>
      </trkpt>
      <trkpt lat="50.70964" lon="3.90143">
        <ele>44.84</ele>
        <time>2017-04-16T08:30:00Z</time>
      </trkpt>
      <trkpt lat="50.70969" lon="3.90147">
        <ele>44.36</ele>
        <time>2017-04-16T08:30:04Z</time>
      </trkpt>
      <trkpt lat="50.70975" lon="3.90152">
        <ele>44.84</ele>
        <time>2017-04-16T08:30:10Z</time>
      </trkpt>
      <trkpt lat="50.71" lon="3.90163">
        <ele>42.92</ele>
        <time>2017-04-16T08:30:29Z</time>
      </trkpt>
      <trkpt lat="50.71012" lon="3.90166">
        <ele>43.4</ele>
        <time>2017-04-16T08:30:37Z</time>
      </trkpt>
      <trkpt lat="50.71028" lon="3.90171">
        <ele>41.47</ele>
        <time>2017-04-16T08:30:48Z</time>
      </trkpt>
      <trkpt lat="50.71037" lon="3.90172">
        <ele>42.44</ele>
        <time>2017-04-16T08:30:53Z</time>
      </trkpt>
      <trkpt lat="50.7106" lon="3.90172">
        <ele>41.95</ele>
        <time>2017-04-16T08:31:06Z</time>
      </trkpt>
      <trkpt lat="50.71085" lon="3.90165">
        <ele>41.95</ele>
        <time>2017-04-16T08:31:20Z</time>
      </trkpt>
      <trkpt lat="50.71099" lon="3.90154">
        <ele>40.51</ele>
        <time>2017-04-16T08:31:30Z</time>
      </trkpt>
      <trkpt lat="50.71101" lon="3.9015">
        <ele>41.95</ele>
        <time>2017-04-16T08:31:32Z</time>
      </trkpt>
      <trkpt lat="50.71105" lon="3.90145">
        <ele>40.51</ele>
        <time>2017-04-16T08:31:35Z</time>
      </trkpt>
      <trkpt lat="50.71107" lon="3.90142">
        <ele>40.51</ele>
        <time>2017-04-16T08:31:38Z</time>
      </trkpt>
      <trkpt lat="50.71114" lon="3.90136">
        <ele>42.44</ele>
        <time>2017-04-16T08:31:44Z</time>
      </trkpt>
      <trkpt lat="50.71116" lon="3.90133">
        <ele>40.51</ele>
        <time>2017-04-16T08:31:46Z</time>
      </trkpt>
      <trkpt lat="50.71124" lon="3.9012">
        <ele>42.92</ele>
        <time>2017-04-16T08:31:55Z</time>
      </trkpt>
      <trkpt lat="50.71133" lon="3.90104">
        <ele>40.99</ele>
        <time>2017-04-16T08:32:05Z</time>
      </trkpt>
      <trkpt lat="50.71137" lon="3.90098">
        <ele>43.4</ele>
        <time>2017-04-16T08:32:09Z</time>
      </trkpt>
      <trkpt lat="50.71145" lon="3.90087">
        <ele>41.95</ele>
        <time>2017-04-16T08:32:18Z</time>
      </trkpt>
      <trkpt lat="50.71149" lon="3.90082">
        <ele>44.36</ele>
        <time>2017-04-16T08:32:21Z</time>
      </trkpt>
      <trkpt lat="50.71154" lon="3.90076">
        <ele>42.92</ele>
        <time>2017-04-16T08:32:25Z</time>
      </trkpt>
      <trkpt lat="50.71164" lon="3.90064">
        <ele>44.84</ele>
        <time>2017-04-16T08:32:33Z</time>
      </trkpt>
      <trkpt lat="50.71177" lon="3.90046">
        <ele>45.32</ele>
        <time>2017-04-16T08:32:45Z</time>
      </trkpt>
      <trkpt lat="50.71183" lon="3.90036">
        <ele>43.88</ele>
        <time>2017-04-16T08:32:52Z</time>
      </trkpt>
      <trkpt lat="50.71188" lon="3.90031">
        <ele>46.28</ele>
        <time>2017-04-16T08:32:56Z</time>
      </trkpt>
      <trkpt lat="50.71206" lon="3.90003">
        <ele>46.28</ele>
        <time>2017-04-16T08:33:14Z</time>
      </trkpt>
      <trkpt lat="50.71211" lon="3.89995">
        <ele>47.24</ele>
        <time>2017-04-16T08:33:19Z</time>
      </trkpt>
      <trkpt lat="50.71215" lon="3.89989">
        <ele>46.28</ele>
        <time>2017-04-16T08:33:24Z</time>
      </trkpt>
      <trkpt lat="50.7122" lon="3.89982">
        <ele>47.72</ele>
        <time>2017-04-16T08:33:29Z</time>
      </trkpt>
      <trkpt lat="50.71223" lon="3.89977">
        <ele>46.28</ele>
        <time>2017-04-16T08:33:33Z</time>
      </trkpt>
      <trkpt lat="50.71225" lon="3.89975">
        <ele>46.28</ele>
        <time>2017-04-16T08:33:35Z</time>
      </trkpt>
      <trkpt lat="50.7123" lon="3.8997">
        <ele>47.72</ele>
        <time>2017-04-16T08:33:40Z</time>
      </trkpt>
      <trkpt lat="50.71234" lon="3.89965">
        <ele>46.76</ele>
        <time>2017-04-16T08:33:44Z</time>
      </trkpt>
      <trkpt lat="50.71243" lon="3.89951">
        <ele>48.2</ele>
        <time>2017-04-16T08:33:52Z</time>
      </trkpt>
      <trkpt lat="50.71246" lon="3.89945">
        <ele>46.76</ele>
        <time>2017-04-16T08:33:56Z</time>
      </trkpt>
      <trkpt lat="50.71249" lon="3.89941">
        <ele>46.76</ele>
        <time>2017-04-16T08:34:00Z</time>
      </trkpt>
      <trkpt lat="50.71253" lon="3.89935">
        <ele>48.2</ele>
        <time>2017-04-16T08:34:05Z</time>
      </trkpt>
      <trkpt lat="50.71257" lon="3.89928">
        <ele>47.24</ele>
        <time>2017-04-16T08:34:09Z</time>
      </trkpt>
      <trkpt lat="50.71266" lon="3.89916">
        <ele>49.16</ele>
        <time>2017-04-16T08:34:17Z</time>
      </trkpt>
      <trkpt lat="50.71277" lon="3.89903">
        <ele>49.65</ele>
        <time>2017-04-16T08:34:29Z</time>
      </trkpt>
      <trkpt lat="50.71286" lon="3.89891">
        <ele>48.2</ele>
        <time>2017-04-16T08:34:37Z</time>
      </trkpt>
      <trkpt lat="50.71289" lon="3.89886">
        <ele>50.61</ele>
        <time>2017-04-16T08:34:40Z</time>
      </trkpt>
      <trkpt lat="50.71294" lon="3.89879">
        <ele>49.16</ele>
        <time>2017-04-16T08:34:44Z</time>
      </trkpt>
      <trkpt lat="50.71301" lon="3.89872">
        <ele>50.13</ele>
        <time>2017-04-16T08:34:52Z</time>
      </trkpt>
      <trkpt lat="50.71307" lon="3.89865">
        <ele>50.13</ele>
        <time>2017-04-16T08:34:57Z</time>
      </trkpt>
      <trkpt lat="50.71312" lon="3.8986">
        <ele>48.68</ele>
        <time>2017-04-16T08:35:01Z</time>
      </trkpt>
      <trkpt lat="50.71314" lon="3.89856">
        <ele>51.09</ele>
        <time>2017-04-16T08:35:03Z</time>
      </trkpt>
      <trkpt lat="50.71315" lon="3.89855">
        <ele>51.09</ele>
        <time>2017-04-16T08:35:04Z</time>
      </trkpt>
      <trkpt lat="50.71327" lon="3.89844">
        <ele>51.09</ele>
        <time>2017-04-16T08:35:14Z</time>
      </trkpt>
      <trkpt lat="50.71339" lon="3.89838">
        <ele>51.09</ele>
        <time>2017-04-16T08:35:24Z</time>
      </trkpt>
      <trkpt lat="50.71342" lon="3.89837">
        <ele>49.65</ele>
        <time>2017-04-16T08:35:27Z</time>
      </trkpt>
      <trkpt lat="50.71343" lon="3.89837">
        <ele>49.65</ele>
        <time>2017-04-16T08:35:28Z</time>
      </trkpt>
      <trkpt lat="50.71347" lon="3.89836">
        <ele>48.2</ele>
        <time>2017-04-16T08:35:31Z</time>
      </trkpt>
      <trkpt lat="50.71352" lon="3.89835">
        <ele>51.09</ele>
        <time>2017-04-16T08:35:34Z</time>
      </trkpt>
      <trkpt lat="50.71356" lon="3.89833">
        <ele>51.09</ele>
        <time>2017-04-16T08:35:37Z</time>
      </trkpt>
      <trkpt lat="50.71361" lon="3.89832">
        <ele>49.65</ele>
        <time>2017-04-16T08:35:40Z</time>
      </trkpt>
      <trkpt lat="50.71366" lon="3.8983">
        <ele>51.09</ele>
        <time>2017-04-16T08:35:44Z</time>
      </trkpt>
      <trkpt lat="50.71371" lon="3.89829">
        <ele>49.16</ele>
        <time>2017-04-16T08:35:48Z</time>
      </trkpt>
      <trkpt lat="50.71373" lon="3.89829">
        <ele>51.09</ele>
        <time>2017-04-16T08:35:50Z</time>
      </trkpt>
      <trkpt lat="50.71375" lon="3.89828">
        <ele>50.13</ele>
        <time>2017-04-16T08:35:52Z</time>
      </trkpt>
      <trkpt lat="50.71383" lon="3.89824">
        <ele>51.57</ele>
        <time>2017-04-16T08:36:00Z</time>
      </trkpt>
      <trkpt lat="50.7139" lon="3.89823">
        <ele>50.13</ele>
        <time>2017-04-16T08:36:05Z</time>
      </trkpt>
      <trkpt lat="50.71403" lon="3.8982">
        <ele>51.09</ele>
        <time>2017-04-16T08:36:14Z</time>
      </trkpt>
      <trkpt lat="50.71418" lon="3.89813">
        <ele>50.13</ele>
        <time>2017-04-16T08:36:28Z</time>
      </trkpt>
      <trkpt lat="50.7143" lon="3.89805">
        <ele>50.61</ele>
        <time>2017-04-16T08:36:37Z</time>
      </trkpt>
      <trkpt lat="50.71431" lon="3.89802">
        <ele>50.61</ele>
        <time>2017-04-16T08:36:39Z</time>
      </trkpt>
      <trkpt lat="50.71433" lon="3.89789">
        <ele>52.05</ele>
        <time>2017-04-16T08:36:45Z</time>
      </trkpt>
      <trkpt lat="50.71433" lon="3.89782">
        <ele>50.13</ele>
        <time>2017-04-16T08:36:48Z</time>
      </trkpt>
      <trkpt lat="50.71436" lon="3.8977">
        <ele>51.57</ele>
        <time>2017-04-16T08:36:54Z</time>
      </trkpt>
      <trkpt lat="50.71437" lon="3.89751">
        <ele>50.13</ele>
        <time>2017-04-16T08:37:02Z</time>
      </trkpt>
      <trkpt lat="50.71438" lon="3.89747">
        <ele>51.57</ele>
        <time>2017-04-16T08:37:04Z</time>
      </trkpt>
      <trkpt lat="50.71441" lon="3.89732">
        <ele>50.13</ele>
        <time>2017-04-16T08:37:12Z</time>
      </trkpt>
      <trkpt lat="50.71442" lon="3.8973">
        <ele>52.53</ele>
        <time>2017-04-16T08:37:14Z</time>
      </trkpt>
      <trkpt lat="50.71443" lon="3.89725">
        <ele>50.61</ele>
        <time>2017-04-16T08:37:16Z</time>
      </trkpt>
      <trkpt lat="50.71445" lon="3.89712">
        <ele>52.05</ele>
        <time>2017-04-16T08:37:23Z</time>
      </trkpt>
      <trkpt lat="50.71448" lon="3.89685">
        <ele>52.53</ele>
        <time>2017-04-16T08:37:35Z</time>
      </trkpt>
      <trkpt lat="50.71449" lon="3.89675">
        <ele>53.49</ele>
        <time>2017-04-16T08:37:40Z</time>
      </trkpt>
      <trkpt lat="50.71449" lon="3.8967">
        <ele>52.05</ele>
        <time>2017-04-16T08:37:42Z</time>
      </trkpt>
      <trkpt lat="50.71449" lon="3.89657">
        <ele>53.97</ele>
        <time>2017-04-16T08:37:49Z</time>
      </trkpt>
      <trkpt lat="50.7145" lon="3.89655">
        <ele>52.05</ele>
        <time>2017-04-16T08:37:51Z</time>
      </trkpt>
      <trkpt lat="50.71452" lon="3.89642">
        <ele>53.97</ele>
        <time>2017-04-16T08:37:57Z</time>
      </trkpt>
      <trkpt lat="50.71455" lon="3.89628">
        <ele>53.97</ele>
        <time>2017-04-16T08:38:04Z</time>
      </trkpt>
      <trkpt lat="50.71456" lon="3.89622">
        <ele>52.53</ele>
        <time>2017-04-16T08:38:07Z</time>
      </trkpt>
      <trkpt lat="50.71457" lon="3.89607">
        <ele>53.49</ele>
        <time>2017-04-16T08:38:13Z</time>
      </trkpt>
      <trkpt lat="50.7146" lon="3.89594">
        <ele>53.01</ele>
        <time>2017-04-16T08:38:20Z</time>
      </trkpt>
      <trkpt lat="50.7146" lon="3.89591">
        <ele>54.45</ele>
        <time>2017-04-16T08:38:21Z</time>
      </trkpt>
      <trkpt lat="50.7146" lon="3.89588">
        <ele>54.45</ele>
        <time>2017-04-16T08:38:22Z</time>
      </trkpt>
      <trkpt lat="50.7146" lon="3.89586">
        <ele>54.45</ele>
        <time>2017-04-16T08:38:23Z</time>
      </trkpt>
      <trkpt lat="50.71463" lon="3.89578">
        <ele>53.01</ele>
        <time>2017-04-16T08:38:28Z</time>
      </trkpt>
      <trkpt lat="50.71464" lon="3.89576">
        <ele>54.93</ele>
        <time>2017-04-16T08:38:29Z</time>
      </trkpt>
      <trkpt lat="50.71471" lon="3.89563">
        <ele>52.53</ele>
        <time>2017-04-16T08:38:37Z</time>
      </trkpt>
      <trkpt lat="50.71472" lon="3.89563">
        <ele>54.45</ele>
        <time>2017-04-16T08:38:38Z</time>
      </trkpt>
      <trkpt lat="50.71472" lon="3.89562">
        <ele>54.45</ele>
        <time>2017-04-16T08:38:39Z</time>
      </trkpt>
      <trkpt lat="50.71476" lon="3.89552">
        <ele>53.01</ele>
        <time>2017-04-16T08:38:47Z</time>
      </trkpt>
      <trkpt lat="50.71477" lon="3.8955">
        <ele>53.01</ele>
        <time>2017-04-16T08:38:48Z</time>
      </trkpt>
      <trkpt lat="50.71478" lon="3.89548">
        <ele>53.01</ele>
        <time>2017-04-16T08:38:49Z</time>
      </trkpt>
      <trkpt lat="50.71482" lon="3.89541">
        <ele>52.05</ele>
        <time>2017-04-16T08:38:55Z</time>
      </trkpt>
      <trkpt lat="50.71489" lon="3.89527">
        <ele>50.13</ele>
        <time>2017-04-16T08:39:05Z</time>
      </trkpt>
      <trkpt lat="50.71496" lon="3.89506">
        <ele>50.13</ele>
        <time>2017-04-16T08:39:19Z</time>
      </trkpt>
      <trkpt lat="50.71504" lon="3.89487">
        <ele>48.68</ele>
        <time>2017-04-16T08:39:33Z</time>
      </trkpt>
      <trkpt lat="50.71509" lon="3.89476">
        <ele>47.72</ele>
        <time>2017-04-16T08:39:40Z</time>
      </trkpt>
      <trkpt lat="50.71511" lon="3.89475">
        <ele>47.72</ele>
        <time>2017-04-16T08:39:41Z</time>
      </trkpt>
      <trkpt lat="50.71512" lon="3.89473">
        <ele>47.72</ele>
        <time>2017-04-16T08:39:42Z</time>
      </trkpt>
      <trkpt lat="50.71515" lon="3.89472">
        <ele>47.72</ele>
        <time>2017-04-16T08:39:43Z</time>
      </trkpt>
      <trkpt lat="50.71516" lon="3.8947">
        <ele>47.72</ele>
        <time>2017-04-16T08:39:44Z</time>
      </trkpt>
      <trkpt lat="50.71526" lon="3.89457">
        <ele>47.24</ele>
        <time>2017-04-16T08:39:57Z</time>
      </trkpt>
      <trkpt lat="50.71532" lon="3.89453">
        <ele>45.32</ele>
        <time>2017-04-16T08:40:03Z</time>
      </trkpt>
      <trkpt lat="50.71535" lon="3.89453">
        <ele>46.76</ele>
        <time>2017-04-16T08:40:05Z</time>
      </trkpt>
      <trkpt lat="50.71543" lon="3.89448">
        <ele>45.32</ele>
        <time>2017-04-16T08:40:10Z</time>
      </trkpt>
      <trkpt lat="50.71554" lon="3.8944">
        <ele>44.36</ele>
        <time>2017-04-16T08:40:19Z</time>
      </trkpt>
      <trkpt lat="50.71557" lon="3.89437">
        <ele>45.8</ele>
        <time>2017-04-16T08:40:22Z</time>
      </trkpt>
      <trkpt lat="50.71563" lon="3.89434">
        <ele>43.88</ele>
        <time>2017-04-16T08:40:27Z</time>
      </trkpt>
      <trkpt lat="50.71565" lon="3.89433">
        <ele>43.88</ele>
        <time>2017-04-16T08:40:28Z</time>
      </trkpt>
      <trkpt lat="50.71568" lon="3.8943">
        <ele>45.32</ele>
        <time>2017-04-16T08:40:30Z</time>
      </trkpt>
      <trkpt lat="50.71577" lon="3.89423">
        <ele>43.88</ele>
        <time>2017-04-16T08:40:37Z</time>
      </trkpt>
      <trkpt lat="50.71579" lon="3.89421">
        <ele>45.32</ele>
        <time>2017-04-16T08:40:39Z</time>
      </trkpt>
      <trkpt lat="50.71583" lon="3.89418">
        <ele>43.88</ele>
        <time>2017-04-16T08:40:42Z</time>
      </trkpt>
      <trkpt lat="50.71593" lon="3.89408">
        <ele>43.4</ele>
        <time>2017-04-16T08:40:51Z</time>
      </trkpt>
      <trkpt lat="50.71604" lon="3.89401">
        <ele>44.36</ele>
        <time>2017-04-16T08:40:59Z</time>
      </trkpt>
      <trkpt lat="50.71616" lon="3.89393">
        <ele>42.92</ele>
        <time>2017-04-16T08:41:07Z</time>
      </trkpt>
      <trkpt lat="50.71634" lon="3.8938">
        <ele>42.92</ele>
        <time>2017-04-16T08:41:20Z</time>
      </trkpt>
      <trkpt lat="50.71642" lon="3.89373">
        <ele>43.88</ele>
        <time>2017-04-16T08:41:30Z</time>
      </trkpt>
      <trkpt lat="50.71652" lon="3.89366">
        <ele>42.44</ele>
        <time>2017-04-16T08:41:37Z</time>
      </trkpt>
      <trkpt lat="50.71653" lon="3.89365">
        <ele>42.44</ele>
        <time>2017-04-16T08:41:38Z</time>
      </trkpt>
      <trkpt lat="50.71657" lon="3.89363">
        <ele>43.88</ele>
        <time>2017-04-16T08:41:41Z</time>
      </trkpt>
      <trkpt lat="50.71667" lon="3.89355">
        <ele>43.4</ele>
        <time>2017-04-16T08:41:49Z</time>
      </trkpt>
      <trkpt lat="50.71674" lon="3.89351">
        <ele>41.95</ele>
        <time>2017-04-16T08:41:54Z</time>
      </trkpt>
      <trkpt lat="50.71685" lon="3.8934">
        <ele>40.99</ele>
        <time>2017-04-16T08:42:05Z</time>
      </trkpt>
      <trkpt lat="50.71696" lon="3.89334">
        <ele>40.51</ele>
        <time>2017-04-16T08:42:14Z</time>
      </trkpt>
      <trkpt lat="50.71712" lon="3.89325">
        <ele>39.07</ele>
        <time>2017-04-16T08:42:30Z</time>
      </trkpt>
      <trkpt lat="50.71722" lon="3.89315">
        <ele>37.63</ele>
        <time>2017-04-16T08:42:41Z</time>
      </trkpt>
      <trkpt lat="50.71733" lon="3.89307">
        <ele>37.15</ele>
        <time>2017-04-16T08:42:53Z</time>
      </trkpt>
      <trkpt lat="50.71747" lon="3.89297">
        <ele>35.71</ele>
        <time>2017-04-16T08:43:06Z</time>
      </trkpt>
      <trkpt lat="50.71748" lon="3.89297">
        <ele>35.23</ele>
        <time>2017-04-16T08:43:07Z</time>
      </trkpt>
      <trkpt lat="50.71749" lon="3.89296">
        <ele>34.74</ele>
        <time>2017-04-16T08:43:08Z</time>
      </trkpt>
      <trkpt lat="50.71751" lon="3.89295">
        <ele>34.74</ele>
        <time>2017-04-16T08:43:09Z</time>
      </trkpt>
      <trkpt lat="50.71762" lon="3.89284">
        <ele>34.26</ele>
        <time>2017-04-16T08:43:19Z</time>
      </trkpt>
      <trkpt lat="50.71778" lon="3.89271">
        <ele>33.3</ele>
        <time>2017-04-16T08:43:31Z</time>
      </trkpt>
      <trkpt lat="50.71792" lon="3.89264">
        <ele>33.3</ele>
        <time>2017-04-16T08:43:44Z</time>
      </trkpt>
      <trkpt lat="50.71803" lon="3.89259">
        <ele>31.38</ele>
        <time>2017-04-16T08:43:52Z</time>
      </trkpt>
      <trkpt lat="50.71815" lon="3.89256">
        <ele>30.42</ele>
        <time>2017-04-16T08:44:05Z</time>
      </trkpt>
      <trkpt lat="50.71821" lon="3.89259">
        <ele>29.94</ele>
        <time>2017-04-16T08:44:14Z</time>
      </trkpt>
      <trkpt lat="50.71823" lon="3.8926">
        <ele>31.38</ele>
        <time>2017-04-16T08:44:16Z</time>
      </trkpt>
      <trkpt lat="50.71828" lon="3.89263">
        <ele>30.9</ele>
        <time>2017-04-16T08:44:22Z</time>
      </trkpt>
      <trkpt lat="50.71828" lon="3.89262">
        <ele>30.9</ele>
        <time>2017-04-16T08:44:24Z</time>
      </trkpt>
      <trkpt lat="50.71841" lon="3.89262">
        <ele>29.46</ele>
        <time>2017-04-16T08:44:28Z</time>
      </trkpt>
      <trkpt lat="50.71855" lon="3.8926">
        <ele>28.98</ele>
        <time>2017-04-16T08:44:39Z</time>
      </trkpt>
      <trkpt lat="50.7186" lon="3.89253">
        <ele>28.5</ele>
        <time>2017-04-16T08:44:45Z</time>
      </trkpt>
      <trkpt lat="50.71874" lon="3.89235">
        <ele>28.5</ele>
        <time>2017-04-16T08:44:56Z</time>
      </trkpt>
      <trkpt lat="50.7188" lon="3.89217">
        <ele>27.05</ele>
        <time>2017-04-16T08:45:08Z</time>
      </trkpt>
      <trkpt lat="50.71884" lon="3.89207">
        <ele>26.57</ele>
        <time>2017-04-16T08:45:16Z</time>
      </trkpt>
      <trkpt lat="50.71886" lon="3.89206">
        <ele>28.02</ele>
        <time>2017-04-16T08:45:18Z</time>
      </trkpt>
      <trkpt lat="50.7189" lon="3.89193">
        <ele>28.02</ele>
        <time>2017-04-16T08:45:27Z</time>
      </trkpt>
      <trkpt lat="50.71891" lon="3.8919">
        <ele>28.02</ele>
        <time>2017-04-16T08:45:28Z</time>
      </trkpt>
      <trkpt lat="50.71893" lon="3.89188">
        <ele>26.57</ele>
        <time>2017-04-16T08:45:30Z</time>
      </trkpt>
      <trkpt lat="50.71895" lon="3.89181">
        <ele>27.53</ele>
        <time>2017-04-16T08:45:35Z</time>
      </trkpt>
      <trkpt lat="50.71897" lon="3.89169">
        <ele>27.53</ele>
        <time>2017-04-16T08:45:41Z</time>
      </trkpt>
      <trkpt lat="50.71898" lon="3.89166">
        <ele>28.5</ele>
        <time>2017-04-16T08:45:43Z</time>
      </trkpt>
      <trkpt lat="50.71903" lon="3.89153">
        <ele>26.57</ele>
        <time>2017-04-16T08:45:51Z</time>
      </trkpt>
      <trkpt lat="50.71901" lon="3.89148">
        <ele>28.5</ele>
        <time>2017-04-16T08:45:53Z</time>
      </trkpt>
      <trkpt lat="50.71903" lon="3.89142">
        <ele>28.5</ele>
        <time>2017-04-16T08:45:56Z</time>
      </trkpt>
      <trkpt lat="50.71904" lon="3.8914">
        <ele>28.5</ele>
        <time>2017-04-16T08:45:57Z</time>
      </trkpt>
      <trkpt lat="50.71909" lon="3.89127">
        <ele>28.5</ele>
        <time>2017-04-16T08:46:05Z</time>
      </trkpt>
      <trkpt lat="50.71918" lon="3.89115">
        <ele>27.53</ele>
        <time>2017-04-16T08:46:15Z</time>
      </trkpt>
      <trkpt lat="50.71922" lon="3.89111">
        <ele>27.53</ele>
        <time>2017-04-16T08:46:20Z</time>
      </trkpt>
      <trkpt lat="50.71927" lon="3.89111">
        <ele>28.5</ele>
        <time>2017-04-16T08:46:24Z</time>
      </trkpt>
      <trkpt lat="50.71932" lon="3.89106">
        <ele>28.5</ele>
        <time>2017-04-16T08:46:29Z</time>
      </trkpt>
      <trkpt lat="50.71934" lon="3.89103">
        <ele>27.53</ele>
        <time>2017-04-16T08:46:31Z</time>
      </trkpt>
      <trkpt lat="50.71934" lon="3.89101">
        <ele>27.53</ele>
        <time>2017-04-16T08:46:32Z</time>
      </trkpt>
      <trkpt lat="50.71936" lon="3.89099">
        <ele>28.5</ele>
        <time>2017-04-16T08:46:34Z</time>
      </trkpt>
      <trkpt lat="50.71944" lon="3.89076">
        <ele>28.02</ele>
        <time>2017-04-16T08:46:47Z</time>
      </trkpt>
      <trkpt lat="50.71944" lon="3.89073">
        <ele>28.02</ele>
        <time>2017-04-16T08:46:48Z</time>
      </trkpt>
      <trkpt lat="50.71946" lon="3.89053">
        <ele>28.98</ele>
        <time>2017-04-16T08:46:55Z</time>
      </trkpt>
      <trkpt lat="50.71952" lon="3.89035">
        <ele>28.98</ele>
        <time>2017-04-16T08:47:02Z</time>
      </trkpt>
      <trkpt lat="50.71954" lon="3.89012">
        <ele>28.98</ele>
        <time>2017-04-16T08:47:10Z</time>
      </trkpt>
      <trkpt lat="50.71955" lon="3.88998">
        <ele>28.98</ele>
        <time>2017-04-16T08:47:17Z</time>
      </trkpt>
      <trkpt lat="50.71955" lon="3.88996">
        <ele>28.98</ele>
        <time>2017-04-16T08:47:18Z</time>
      </trkpt>
      <trkpt lat="50.71956" lon="3.88993">
        <ele>28.98</ele>
        <time>2017-04-16T08:47:19Z</time>
      </trkpt>
      <trkpt lat="50.71956" lon="3.88991">
        <ele>28.98</ele>
        <time>2017-04-16T08:47:20Z</time>
      </trkpt>
      <trkpt lat="50.71956" lon="3.88989">
        <ele>29.94</ele>
        <time>2017-04-16T08:47:21Z</time>
      </trkpt>
      <trkpt lat="50.7196" lon="3.88978">
        <ele>29.94</ele>
        <time>2017-04-16T08:47:29Z</time>
      </trkpt>
      <trkpt lat="50.71961" lon="3.88956">
        <ele>28.98</ele>
        <time>2017-04-16T08:47:37Z</time>
      </trkpt>
      <trkpt lat="50.71962" lon="3.88952">
        <ele>30.9</ele>
        <time>2017-04-16T08:47:40Z</time>
      </trkpt>
      <trkpt lat="50.71963" lon="3.88948">
        <ele>30.9</ele>
        <time>2017-04-16T08:47:42Z</time>
      </trkpt>
      <trkpt lat="50.71964" lon="3.88939">
        <ele>29.46</ele>
        <time>2017-04-16T08:47:47Z</time>
      </trkpt>
      <trkpt lat="50.71965" lon="3.88937">
        <ele>30.9</ele>
        <time>2017-04-16T08:47:48Z</time>
      </trkpt>
      <trkpt lat="50.71966" lon="3.88925">
        <ele>29.94</ele>
        <time>2017-04-16T08:47:55Z</time>
      </trkpt>
      <trkpt lat="50.71966" lon="3.88923">
        <ele>31.86</ele>
        <time>2017-04-16T08:47:56Z</time>
      </trkpt>
      <trkpt lat="50.71966" lon="3.88922">
        <ele>31.86</ele>
        <time>2017-04-16T08:47:57Z</time>
      </trkpt>
      <trkpt lat="50.71966" lon="3.8892">
        <ele>30.42</ele>
        <time>2017-04-16T08:47:58Z</time>
      </trkpt>
      <trkpt lat="50.71967" lon="3.88918">
        <ele>30.42</ele>
        <time>2017-04-16T08:47:59Z</time>
      </trkpt>
      <trkpt lat="50.71967" lon="3.88915">
        <ele>30.42</ele>
        <time>2017-04-16T08:48:00Z</time>
      </trkpt>
      <trkpt lat="50.71967" lon="3.88913">
        <ele>30.42</ele>
        <time>2017-04-16T08:48:01Z</time>
      </trkpt>
      <trkpt lat="50.71967" lon="3.88911">
        <ele>29.94</ele>
        <time>2017-04-16T08:48:02Z</time>
      </trkpt>
      <trkpt lat="50.71968" lon="3.88904">
        <ele>31.86</ele>
        <time>2017-04-16T08:48:06Z</time>
      </trkpt>
      <trkpt lat="50.71968" lon="3.88901">
        <ele>30.42</ele>
        <time>2017-04-16T08:48:08Z</time>
      </trkpt>
      <trkpt lat="50.71968" lon="3.88897">
        <ele>30.42</ele>
        <time>2017-04-16T08:48:10Z</time>
      </trkpt>
      <trkpt lat="50.71968" lon="3.88895">
        <ele>30.42</ele>
        <time>2017-04-16T08:48:11Z</time>
      </trkpt>
      <trkpt lat="50.71968" lon="3.88883">
        <ele>31.38</ele>
        <time>2017-04-16T08:48:17Z</time>
      </trkpt>
      <trkpt lat="50.71966" lon="3.8887">
        <ele>31.86</ele>
        <time>2017-04-16T08:48:24Z</time>
      </trkpt>
      <trkpt lat="50.71965" lon="3.88852">
        <ele>32.82</ele>
        <time>2017-04-16T08:48:33Z</time>
      </trkpt>
      <trkpt lat="50.71964" lon="3.88847">
        <ele>31.38</ele>
        <time>2017-04-16T08:48:35Z</time>
      </trkpt>
      <trkpt lat="50.71962" lon="3.88822">
        <ele>32.34</ele>
        <time>2017-04-16T08:48:48Z</time>
      </trkpt>
      <trkpt lat="50.71962" lon="3.8882">
        <ele>32.34</ele>
        <time>2017-04-16T08:48:49Z</time>
      </trkpt>
      <trkpt lat="50.7196" lon="3.88801">
        <ele>32.34</ele>
        <time>2017-04-16T08:48:58Z</time>
      </trkpt>
      <trkpt lat="50.7196" lon="3.88789">
        <ele>30.9</ele>
        <time>2017-04-16T08:49:04Z</time>
      </trkpt>
      <trkpt lat="50.71958" lon="3.8877">
        <ele>31.86</ele>
        <time>2017-04-16T08:49:14Z</time>
      </trkpt>
      <trkpt lat="50.71958" lon="3.88758">
        <ele>32.82</ele>
        <time>2017-04-16T08:49:20Z</time>
      </trkpt>
      <trkpt lat="50.71958" lon="3.8875">
        <ele>33.3</ele>
        <time>2017-04-16T08:49:24Z</time>
      </trkpt>
      <trkpt lat="50.71958" lon="3.88738">
        <ele>31.86</ele>
        <time>2017-04-16T08:49:30Z</time>
      </trkpt>
      <trkpt lat="50.71958" lon="3.88736">
        <ele>31.86</ele>
        <time>2017-04-16T08:49:31Z</time>
      </trkpt>
      <trkpt lat="50.71959" lon="3.88732">
        <ele>33.78</ele>
        <time>2017-04-16T08:49:33Z</time>
      </trkpt>
      <trkpt lat="50.71959" lon="3.8873">
        <ele>32.82</ele>
        <time>2017-04-16T08:49:34Z</time>
      </trkpt>
      <trkpt lat="50.71959" lon="3.88728">
        <ele>32.82</ele>
        <time>2017-04-16T08:49:35Z</time>
      </trkpt>
      <trkpt lat="50.71959" lon="3.88726">
        <ele>32.82</ele>
        <time>2017-04-16T08:49:36Z</time>
      </trkpt>
      <trkpt lat="50.71959" lon="3.88724">
        <ele>32.82</ele>
        <time>2017-04-16T08:49:37Z</time>
      </trkpt>
      <trkpt lat="50.71957" lon="3.88715">
        <ele>33.3</ele>
        <time>2017-04-16T08:49:42Z</time>
      </trkpt>
      <trkpt lat="50.71956" lon="3.88709">
        <ele>34.26</ele>
        <time>2017-04-16T08:49:45Z</time>
      </trkpt>
      <trkpt lat="50.71956" lon="3.88703">
        <ele>34.26</ele>
        <time>2017-04-16T08:49:48Z</time>
      </trkpt>
      <trkpt lat="50.71956" lon="3.88701">
        <ele>32.82</ele>
        <time>2017-04-16T08:49:49Z</time>
      </trkpt>
      <trkpt lat="50.71956" lon="3.88699">
        <ele>32.82</ele>
        <time>2017-04-16T08:49:50Z</time>
      </trkpt>
      <trkpt lat="50.71955" lon="3.88696">
        <ele>32.82</ele>
        <time>2017-04-16T08:49:51Z</time>
      </trkpt>
      <trkpt lat="50.71955" lon="3.88694">
        <ele>33.78</ele>
        <time>2017-04-16T08:49:52Z</time>
      </trkpt>
      <trkpt lat="50.71953" lon="3.88671">
        <ele>33.78</ele>
        <time>2017-04-16T08:50:04Z</time>
      </trkpt>
      <trkpt lat="50.71953" lon="3.88664">
        <ele>34.74</ele>
        <time>2017-04-16T08:50:08Z</time>
      </trkpt>
      <trkpt lat="50.71952" lon="3.88646">
        <ele>35.71</ele>
        <time>2017-04-16T08:50:16Z</time>
      </trkpt>
      <trkpt lat="50.71953" lon="3.88644">
        <ele>33.78</ele>
        <time>2017-04-16T08:50:17Z</time>
      </trkpt>
      <trkpt lat="50.71953" lon="3.88642">
        <ele>33.78</ele>
        <time>2017-04-16T08:50:18Z</time>
      </trkpt>
      <trkpt lat="50.71956" lon="3.88631">
        <ele>35.71</ele>
        <time>2017-04-16T08:50:23Z</time>
      </trkpt>
      <trkpt lat="50.71956" lon="3.88628">
        <ele>35.71</ele>
        <time>2017-04-16T08:50:24Z</time>
      </trkpt>
      <trkpt lat="50.71957" lon="3.88626">
        <ele>34.26</ele>
        <time>2017-04-16T08:50:25Z</time>
      </trkpt>
      <trkpt lat="50.71958" lon="3.88625">
        <ele>34.26</ele>
        <time>2017-04-16T08:50:26Z</time>
      </trkpt>
      <trkpt lat="50.71961" lon="3.88613">
        <ele>35.71</ele>
        <time>2017-04-16T08:50:32Z</time>
      </trkpt>
      <trkpt lat="50.71964" lon="3.88603">
        <ele>34.26</ele>
        <time>2017-04-16T08:50:38Z</time>
      </trkpt>
      <trkpt lat="50.71965" lon="3.88598">
        <ele>36.19</ele>
        <time>2017-04-16T08:50:40Z</time>
      </trkpt>
      <trkpt lat="50.71969" lon="3.88588">
        <ele>36.19</ele>
        <time>2017-04-16T08:50:47Z</time>
      </trkpt>
      <trkpt lat="50.71969" lon="3.88585">
        <ele>36.19</ele>
        <time>2017-04-16T08:50:48Z</time>
      </trkpt>
      <trkpt lat="50.7197" lon="3.88583">
        <ele>36.19</ele>
        <time>2017-04-16T08:50:49Z</time>
      </trkpt>
      <trkpt lat="50.71972" lon="3.88577">
        <ele>34.74</ele>
        <time>2017-04-16T08:50:53Z</time>
      </trkpt>
      <trkpt lat="50.71972" lon="3.88573">
        <ele>36.67</ele>
        <time>2017-04-16T08:50:55Z</time>
      </trkpt>
      <trkpt lat="50.71976" lon="3.88558">
        <ele>35.23</ele>
        <time>2017-04-16T08:51:02Z</time>
      </trkpt>
      <trkpt lat="50.71978" lon="3.88554">
        <ele>37.15</ele>
        <time>2017-04-16T08:51:04Z</time>
      </trkpt>
      <trkpt lat="50.71979" lon="3.88545">
        <ele>35.23</ele>
        <time>2017-04-16T08:51:09Z</time>
      </trkpt>
      <trkpt lat="50.71979" lon="3.88543">
        <ele>35.23</ele>
        <time>2017-04-16T08:51:10Z</time>
      </trkpt>
      <trkpt lat="50.71981" lon="3.88539">
        <ele>38.11</ele>
        <time>2017-04-16T08:51:13Z</time>
      </trkpt>
      <trkpt lat="50.71981" lon="3.88537">
        <ele>38.11</ele>
        <time>2017-04-16T08:51:14Z</time>
      </trkpt>
      <trkpt lat="50.71982" lon="3.88535">
        <ele>38.11</ele>
        <time>2017-04-16T08:51:15Z</time>
      </trkpt>
      <trkpt lat="50.71981" lon="3.88532">
        <ele>36.19</ele>
        <time>2017-04-16T08:51:16Z</time>
      </trkpt>
      <trkpt lat="50.71981" lon="3.8853">
        <ele>36.19</ele>
        <time>2017-04-16T08:51:17Z</time>
      </trkpt>
      <trkpt lat="50.71984" lon="3.88521">
        <ele>38.11</ele>
        <time>2017-04-16T08:51:22Z</time>
      </trkpt>
      <trkpt lat="50.71985" lon="3.8852">
        <ele>37.15</ele>
        <time>2017-04-16T08:51:23Z</time>
      </trkpt>
      <trkpt lat="50.71985" lon="3.88518">
        <ele>37.15</ele>
        <time>2017-04-16T08:51:24Z</time>
      </trkpt>
      <trkpt lat="50.71986" lon="3.88516">
        <ele>37.15</ele>
        <time>2017-04-16T08:51:25Z</time>
      </trkpt>
      <trkpt lat="50.71987" lon="3.88514">
        <ele>37.15</ele>
        <time>2017-04-16T08:51:26Z</time>
      </trkpt>
      <trkpt lat="50.71987" lon="3.88512">
        <ele>37.15</ele>
        <time>2017-04-16T08:51:27Z</time>
      </trkpt>
      <trkpt lat="50.71988" lon="3.88509">
        <ele>37.15</ele>
        <time>2017-04-16T08:51:28Z</time>
      </trkpt>
      <trkpt lat="50.71988" lon="3.88507">
        <ele>37.15</ele>
        <time>2017-04-16T08:51:29Z</time>
      </trkpt>
      <trkpt lat="50.71989" lon="3.88505">
        <ele>37.15</ele>
        <time>2017-04-16T08:51:30Z</time>
      </trkpt>
      <trkpt lat="50.71992" lon="3.88494">
        <ele>38.11</ele>
        <time>2017-04-16T08:51:37Z</time>
      </trkpt>
      <trkpt lat="50.71993" lon="3.88492">
        <ele>38.59</ele>
        <time>2017-04-16T08:51:39Z</time>
      </trkpt>
      <trkpt lat="50.71997" lon="3.88485">
        <ele>37.15</ele>
        <time>2017-04-16T08:51:44Z</time>
      </trkpt>
      <trkpt lat="50.71998" lon="3.88482">
        <ele>40.03</ele>
        <time>2017-04-16T08:51:46Z</time>
      </trkpt>
      <trkpt lat="50.71999" lon="3.88481">
        <ele>38.59</ele>
        <time>2017-04-16T08:51:47Z</time>
      </trkpt>
      <trkpt lat="50.72" lon="3.88479">
        <ele>38.59</ele>
        <time>2017-04-16T08:51:48Z</time>
      </trkpt>
      <trkpt lat="50.72002" lon="3.88477">
        <ele>38.59</ele>
        <time>2017-04-16T08:51:50Z</time>
      </trkpt>
      <trkpt lat="50.72003" lon="3.88466">
        <ele>40.03</ele>
        <time>2017-04-16T08:51:54Z</time>
      </trkpt>
      <trkpt lat="50.72008" lon="3.8844">
        <ele>38.59</ele>
        <time>2017-04-16T08:52:06Z</time>
      </trkpt>
      <trkpt lat="50.72009" lon="3.88437">
        <ele>40.51</ele>
        <time>2017-04-16T08:52:08Z</time>
      </trkpt>
      <trkpt lat="50.72012" lon="3.88429">
        <ele>39.07</ele>
        <time>2017-04-16T08:52:12Z</time>
      </trkpt>
      <trkpt lat="50.72014" lon="3.88425">
        <ele>41.47</ele>
        <time>2017-04-16T08:52:15Z</time>
      </trkpt>
      <trkpt lat="50.72019" lon="3.88409">
        <ele>41.95</ele>
        <time>2017-04-16T08:52:25Z</time>
      </trkpt>
      <trkpt lat="50.72021" lon="3.88405">
        <ele>42.92</ele>
        <time>2017-04-16T08:52:28Z</time>
      </trkpt>
      <trkpt lat="50.72021" lon="3.88402">
        <ele>42.92</ele>
        <time>2017-04-16T08:52:29Z</time>
      </trkpt>
      <trkpt lat="50.72021" lon="3.884">
        <ele>42.92</ele>
        <time>2017-04-16T08:52:30Z</time>
      </trkpt>
      <trkpt lat="50.72022" lon="3.88398">
        <ele>40.99</ele>
        <time>2017-04-16T08:52:31Z</time>
      </trkpt>
      <trkpt lat="50.72022" lon="3.88397">
        <ele>40.99</ele>
        <time>2017-04-16T08:52:32Z</time>
      </trkpt>
      <trkpt lat="50.72025" lon="3.88392">
        <ele>42.92</ele>
        <time>2017-04-16T08:52:35Z</time>
      </trkpt>
      <trkpt lat="50.72026" lon="3.88388">
        <ele>42.92</ele>
        <time>2017-04-16T08:52:37Z</time>
      </trkpt>
      <trkpt lat="50.72026" lon="3.88387">
        <ele>42.92</ele>
        <time>2017-04-16T08:52:38Z</time>
      </trkpt>
      <trkpt lat="50.7203" lon="3.88372">
        <ele>43.4</ele>
        <time>2017-04-16T08:52:47Z</time>
      </trkpt>
      <trkpt lat="50.72033" lon="3.88362">
        <ele>43.4</ele>
        <time>2017-04-16T08:52:52Z</time>
      </trkpt>
      <trkpt lat="50.72034" lon="3.88361">
        <ele>43.4</ele>
        <time>2017-04-16T08:52:53Z</time>
      </trkpt>
      <trkpt lat="50.72034" lon="3.88358">
        <ele>43.4</ele>
        <time>2017-04-16T08:52:54Z</time>
      </trkpt>
      <trkpt lat="50.72034" lon="3.88355">
        <ele>43.4</ele>
        <time>2017-04-16T08:52:55Z</time>
      </trkpt>
      <trkpt lat="50.72034" lon="3.88353">
        <ele>43.4</ele>
        <time>2017-04-16T08:52:56Z</time>
      </trkpt>
      <trkpt lat="50.7204" lon="3.88337">
        <ele>43.4</ele>
        <time>2017-04-16T08:53:06Z</time>
      </trkpt>
      <trkpt lat="50.7204" lon="3.88335">
        <ele>45.32</ele>
        <time>2017-04-16T08:53:07Z</time>
      </trkpt>
      <trkpt lat="50.7204" lon="3.88333">
        <ele>45.8</ele>
        <time>2017-04-16T08:53:08Z</time>
      </trkpt>
      <trkpt lat="50.72041" lon="3.88326">
        <ele>45.32</ele>
        <time>2017-04-16T08:53:11Z</time>
      </trkpt>
      <trkpt lat="50.72041" lon="3.88324">
        <ele>43.88</ele>
        <time>2017-04-16T08:53:12Z</time>
      </trkpt>
      <trkpt lat="50.72042" lon="3.88323">
        <ele>43.88</ele>
        <time>2017-04-16T08:53:13Z</time>
      </trkpt>
      <trkpt lat="50.72048" lon="3.88305">
        <ele>45.8</ele>
        <time>2017-04-16T08:53:24Z</time>
      </trkpt>
      <trkpt lat="50.72051" lon="3.88296">
        <ele>43.88</ele>
        <time>2017-04-16T08:53:28Z</time>
      </trkpt>
      <trkpt lat="50.72051" lon="3.88294">
        <ele>46.76</ele>
        <time>2017-04-16T08:53:29Z</time>
      </trkpt>
      <trkpt lat="50.72051" lon="3.88292">
        <ele>46.76</ele>
        <time>2017-04-16T08:53:30Z</time>
      </trkpt>
      <trkpt lat="50.72053" lon="3.88283">
        <ele>45.32</ele>
        <time>2017-04-16T08:53:35Z</time>
      </trkpt>
      <trkpt lat="50.72055" lon="3.88276">
        <ele>46.76</ele>
        <time>2017-04-16T08:53:38Z</time>
      </trkpt>
      <trkpt lat="50.72057" lon="3.88263">
        <ele>45.32</ele>
        <time>2017-04-16T08:53:45Z</time>
      </trkpt>
      <trkpt lat="50.72058" lon="3.8826">
        <ele>47.24</ele>
        <time>2017-04-16T08:53:47Z</time>
      </trkpt>
      <trkpt lat="50.72067" lon="3.88234">
        <ele>48.2</ele>
        <time>2017-04-16T08:54:03Z</time>
      </trkpt>
      <trkpt lat="50.72071" lon="3.88224">
        <ele>46.76</ele>
        <time>2017-04-16T08:54:10Z</time>
      </trkpt>
      <trkpt lat="50.72073" lon="3.88218">
        <ele>48.68</ele>
        <time>2017-04-16T08:54:13Z</time>
      </trkpt>
      <trkpt lat="50.72077" lon="3.88206">
        <ele>46.76</ele>
        <time>2017-04-16T08:54:19Z</time>
      </trkpt>
      <trkpt lat="50.72078" lon="3.88203">
        <ele>48.2</ele>
        <time>2017-04-16T08:54:21Z</time>
      </trkpt>
      <trkpt lat="50.72085" lon="3.88171">
        <ele>48.68</ele>
        <time>2017-04-16T08:54:37Z</time>
      </trkpt>
      <trkpt lat="50.72089" lon="3.88155">
        <ele>47.72</ele>
        <time>2017-04-16T08:54:46Z</time>
      </trkpt>
      <trkpt lat="50.72092" lon="3.88147">
        <ele>49.16</ele>
        <time>2017-04-16T08:54:50Z</time>
      </trkpt>
      <trkpt lat="50.72095" lon="3.88138">
        <ele>47.24</ele>
        <time>2017-04-16T08:54:56Z</time>
      </trkpt>
      <trkpt lat="50.72098" lon="3.88122">
        <ele>48.2</ele>
        <time>2017-04-16T08:55:04Z</time>
      </trkpt>
      <trkpt lat="50.72098" lon="3.88119">
        <ele>48.2</ele>
        <time>2017-04-16T08:55:05Z</time>
      </trkpt>
      <trkpt lat="50.72101" lon="3.88115">
        <ele>46.76</ele>
        <time>2017-04-16T08:55:08Z</time>
      </trkpt>
      <trkpt lat="50.72102" lon="3.88115">
        <ele>48.2</ele>
        <time>2017-04-16T08:55:09Z</time>
      </trkpt>
      <trkpt lat="50.72103" lon="3.88115">
        <ele>47.72</ele>
        <time>2017-04-16T08:55:10Z</time>
      </trkpt>
      <trkpt lat="50.72106" lon="3.88107">
        <ele>46.76</ele>
        <time>2017-04-16T08:55:16Z</time>
      </trkpt>
      <trkpt lat="50.7211" lon="3.88102">
        <ele>47.24</ele>
        <time>2017-04-16T08:55:21Z</time>
      </trkpt>
      <trkpt lat="50.72115" lon="3.88079">
        <ele>45.8</ele>
        <time>2017-04-16T08:55:34Z</time>
      </trkpt>
      <trkpt lat="50.72118" lon="3.88069">
        <ele>46.28</ele>
        <time>2017-04-16T08:55:38Z</time>
      </trkpt>
      <trkpt lat="50.72119" lon="3.8806">
        <ele>45.32</ele>
        <time>2017-04-16T08:55:43Z</time>
      </trkpt>
      <trkpt lat="50.7212" lon="3.88058">
        <ele>44.84</ele>
        <time>2017-04-16T08:55:44Z</time>
      </trkpt>
      <trkpt lat="50.72122" lon="3.88052">
        <ele>45.8</ele>
        <time>2017-04-16T08:55:47Z</time>
      </trkpt>
      <trkpt lat="50.72123" lon="3.88044">
        <ele>45.8</ele>
        <time>2017-04-16T08:55:51Z</time>
      </trkpt>
      <trkpt lat="50.72125" lon="3.88039">
        <ele>43.88</ele>
        <time>2017-04-16T08:55:54Z</time>
      </trkpt>
      <trkpt lat="50.72125" lon="3.88036">
        <ele>45.32</ele>
        <time>2017-04-16T08:55:56Z</time>
      </trkpt>
      <trkpt lat="50.72133" lon="3.88007">
        <ele>43.88</ele>
        <time>2017-04-16T08:56:10Z</time>
      </trkpt>
      <trkpt lat="50.72144" lon="3.87982">
        <ele>41.95</ele>
        <time>2017-04-16T08:56:25Z</time>
      </trkpt>
      <trkpt lat="50.72156" lon="3.87958">
        <ele>40.99</ele>
        <time>2017-04-16T08:56:41Z</time>
      </trkpt>
      <trkpt lat="50.72166" lon="3.87941">
        <ele>40.99</ele>
        <time>2017-04-16T08:56:54Z</time>
      </trkpt>
      <trkpt lat="50.72178" lon="3.87914">
        <ele>38.59</ele>
        <time>2017-04-16T08:57:11Z</time>
      </trkpt>
      <trkpt lat="50.72188" lon="3.87888">
        <ele>36.67</ele>
        <time>2017-04-16T08:57:26Z</time>
      </trkpt>
      <trkpt lat="50.722" lon="3.87865">
        <ele>35.71</ele>
        <time>2017-04-16T08:57:41Z</time>
      </trkpt>
      <trkpt lat="50.72202" lon="3.8786">
        <ele>34.74</ele>
        <time>2017-04-16T08:57:44Z</time>
      </trkpt>
      <trkpt lat="50.72202" lon="3.87859">
        <ele>34.74</ele>
        <time>2017-04-16T08:57:45Z</time>
      </trkpt>
      <trkpt lat="50.72203" lon="3.87857">
        <ele>34.74</ele>
        <time>2017-04-16T08:57:46Z</time>
      </trkpt>
      <trkpt lat="50.72205" lon="3.87855">
        <ele>34.74</ele>
        <time>2017-04-16T08:57:47Z</time>
      </trkpt>
      <trkpt lat="50.72206" lon="3.87854">
        <ele>34.74</ele>
        <time>2017-04-16T08:57:48Z</time>
      </trkpt>
      <trkpt lat="50.72207" lon="3.87852">
        <ele>34.74</ele>
        <time>2017-04-16T08:57:49Z</time>
      </trkpt>
      <trkpt lat="50.72214" lon="3.87838">
        <ele>32.82</ele>
        <time>2017-04-16T08:57:58Z</time>
      </trkpt>
      <trkpt lat="50.72218" lon="3.87826">
        <ele>32.82</ele>
        <time>2017-04-16T08:58:07Z</time>
      </trkpt>
      <trkpt lat="50.72217" lon="3.87823">
        <ele>32.82</ele>
        <time>2017-04-16T08:58:08Z</time>
      </trkpt>
      <trkpt lat="50.72216" lon="3.87822">
        <ele>32.82</ele>
        <time>2017-04-16T08:58:09Z</time>
      </trkpt>
      <trkpt lat="50.72215" lon="3.87821">
        <ele>32.82</ele>
        <time>2017-04-16T08:58:10Z</time>
      </trkpt>
      <trkpt lat="50.72212" lon="3.87819">
        <ele>31.86</ele>
        <time>2017-04-16T08:58:13Z</time>
      </trkpt>
      <trkpt lat="50.7221" lon="3.87818">
        <ele>31.86</ele>
        <time>2017-04-16T08:58:14Z</time>
      </trkpt>
      <trkpt lat="50.72209" lon="3.87817">
        <ele>33.3</ele>
        <time>2017-04-16T08:58:15Z</time>
      </trkpt>
      <trkpt lat="50.72208" lon="3.87816">
        <ele>33.3</ele>
        <time>2017-04-16T08:58:16Z</time>
      </trkpt>
      <trkpt lat="50.72206" lon="3.87816">
        <ele>33.3</ele>
        <time>2017-04-16T08:58:17Z</time>
      </trkpt>
      <trkpt lat="50.72205" lon="3.87816">
        <ele>33.3</ele>
        <time>2017-04-16T08:58:18Z</time>
      </trkpt>
      <trkpt lat="50.72203" lon="3.87815">
        <ele>33.3</ele>
        <time>2017-04-16T08:58:19Z</time>
      </trkpt>
      <trkpt lat="50.72202" lon="3.87814">
        <ele>31.86</ele>
        <time>2017-04-16T08:58:20Z</time>
      </trkpt>
      <trkpt lat="50.72201" lon="3.87814">
        <ele>31.86</ele>
        <time>2017-04-16T08:58:21Z</time>
      </trkpt>
      <trkpt lat="50.72196" lon="3.87812">
        <ele>34.26</ele>
        <time>2017-04-16T08:58:25Z</time>
      </trkpt>
      <trkpt lat="50.72185" lon="3.87808">
        <ele>32.82</ele>
        <time>2017-04-16T08:58:33Z</time>
      </trkpt>
      <trkpt lat="50.72176" lon="3.87804">
        <ele>34.26</ele>
        <time>2017-04-16T08:58:40Z</time>
      </trkpt>
      <trkpt lat="50.72168" lon="3.87801">
        <ele>33.3</ele>
        <time>2017-04-16T08:58:46Z</time>
      </trkpt>
      <trkpt lat="50.72165" lon="3.878">
        <ele>35.23</ele>
        <time>2017-04-16T08:58:49Z</time>
      </trkpt>
      <trkpt lat="50.72151" lon="3.87794">
        <ele>34.74</ele>
        <time>2017-04-16T08:59:00Z</time>
      </trkpt>
      <trkpt lat="50.72148" lon="3.87793">
        <ele>36.67</ele>
        <time>2017-04-16T08:59:02Z</time>
      </trkpt>
      <trkpt lat="50.72143" lon="3.8779">
        <ele>35.23</ele>
        <time>2017-04-16T08:59:07Z</time>
      </trkpt>
      <trkpt lat="50.7214" lon="3.87788">
        <ele>38.11</ele>
        <time>2017-04-16T08:59:10Z</time>
      </trkpt>
      <trkpt lat="50.72137" lon="3.87788">
        <ele>36.67</ele>
        <time>2017-04-16T08:59:12Z</time>
      </trkpt>
      <trkpt lat="50.72134" lon="3.87786">
        <ele>38.59</ele>
        <time>2017-04-16T08:59:16Z</time>
      </trkpt>
      <trkpt lat="50.72115" lon="3.87778">
        <ele>39.55</ele>
        <time>2017-04-16T08:59:31Z</time>
      </trkpt>
      <trkpt lat="50.72109" lon="3.87775">
        <ele>37.15</ele>
        <time>2017-04-16T08:59:36Z</time>
      </trkpt>
      <trkpt lat="50.72106" lon="3.87774">
        <ele>40.03</ele>
        <time>2017-04-16T08:59:38Z</time>
      </trkpt>
      <trkpt lat="50.72104" lon="3.87773">
        <ele>38.11</ele>
        <time>2017-04-16T08:59:40Z</time>
      </trkpt>
      <trkpt lat="50.72096" lon="3.8777">
        <ele>40.03</ele>
        <time>2017-04-16T08:59:46Z</time>
      </trkpt>
      <trkpt lat="50.72079" lon="3.87763">
        <ele>40.99</ele>
        <time>2017-04-16T09:00:00Z</time>
      </trkpt>
      <trkpt lat="50.72076" lon="3.87762">
        <ele>39.55</ele>
        <time>2017-04-16T09:00:02Z</time>
      </trkpt>
      <trkpt lat="50.72069" lon="3.87759">
        <ele>41.47</ele>
        <time>2017-04-16T09:00:08Z</time>
      </trkpt>
      <trkpt lat="50.72063" lon="3.87756">
        <ele>39.55</ele>
        <time>2017-04-16T09:00:13Z</time>
      </trkpt>
      <trkpt lat="50.7206" lon="3.87755">
        <ele>40.99</ele>
        <time>2017-04-16T09:00:15Z</time>
      </trkpt>
      <trkpt lat="50.72054" lon="3.87753">
        <ele>39.55</ele>
        <time>2017-04-16T09:00:20Z</time>
      </trkpt>
      <trkpt lat="50.72052" lon="3.87752">
        <ele>41.47</ele>
        <time>2017-04-16T09:00:22Z</time>
      </trkpt>
      <trkpt lat="50.72044" lon="3.87749">
        <ele>40.03</ele>
        <time>2017-04-16T09:00:28Z</time>
      </trkpt>
      <trkpt lat="50.72043" lon="3.87748">
        <ele>42.44</ele>
        <time>2017-04-16T09:00:30Z</time>
      </trkpt>
      <trkpt lat="50.7204" lon="3.87747">
        <ele>40.99</ele>
        <time>2017-04-16T09:00:32Z</time>
      </trkpt>
      <trkpt lat="50.72032" lon="3.87743">
        <ele>41.95</ele>
        <time>2017-04-16T09:00:38Z</time>
      </trkpt>
      <trkpt lat="50.7203" lon="3.87741">
        <ele>40.51</ele>
        <time>2017-04-16T09:00:40Z</time>
      </trkpt>
      <trkpt lat="50.72029" lon="3.87741">
        <ele>40.51</ele>
        <time>2017-04-16T09:00:41Z</time>
      </trkpt>
      <trkpt lat="50.72027" lon="3.8774">
        <ele>40.51</ele>
        <time>2017-04-16T09:00:43Z</time>
      </trkpt>
      <trkpt lat="50.72026" lon="3.87739">
        <ele>40.51</ele>
        <time>2017-04-16T09:00:44Z</time>
      </trkpt>
      <trkpt lat="50.72025" lon="3.87739">
        <ele>40.51</ele>
        <time>2017-04-16T09:00:45Z</time>
      </trkpt>
      <trkpt lat="50.72023" lon="3.87738">
        <ele>40.51</ele>
        <time>2017-04-16T09:00:46Z</time>
      </trkpt>
      <trkpt lat="50.72022" lon="3.87738">
        <ele>40.51</ele>
        <time>2017-04-16T09:00:47Z</time>
      </trkpt>
      <trkpt lat="50.7202" lon="3.87737">
        <ele>40.51</ele>
        <time>2017-04-16T09:00:48Z</time>
      </trkpt>
      <trkpt lat="50.72019" lon="3.87737">
        <ele>40.51</ele>
        <time>2017-04-16T09:00:49Z</time>
      </trkpt>
      <trkpt lat="50.72001" lon="3.8773">
        <ele>40.99</ele>
        <time>2017-04-16T09:01:03Z</time>
      </trkpt>
      <trkpt lat="50.71985" lon="3.87724">
        <ele>39.55</ele>
        <time>2017-04-16T09:01:17Z</time>
      </trkpt>
      <trkpt lat="50.71967" lon="3.87716">
        <ele>39.07</ele>
        <time>2017-04-16T09:01:32Z</time>
      </trkpt>
      <trkpt lat="50.71948" lon="3.87709">
        <ele>36.67</ele>
        <time>2017-04-16T09:01:48Z</time>
      </trkpt>
      <trkpt lat="50.71947" lon="3.87708">
        <ele>37.15</ele>
        <time>2017-04-16T09:01:49Z</time>
      </trkpt>
      <trkpt lat="50.71935" lon="3.87703">
        <ele>36.67</ele>
        <time>2017-04-16T09:02:00Z</time>
      </trkpt>
      <trkpt lat="50.71918" lon="3.87696">
        <ele>36.19</ele>
        <time>2017-04-16T09:02:14Z</time>
      </trkpt>
      <trkpt lat="50.71907" lon="3.87693">
        <ele>37.15</ele>
        <time>2017-04-16T09:02:24Z</time>
      </trkpt>
      <trkpt lat="50.71901" lon="3.87691">
        <ele>35.71</ele>
        <time>2017-04-16T09:02:28Z</time>
      </trkpt>
      <trkpt lat="50.71897" lon="3.87691">
        <ele>36.67</ele>
        <time>2017-04-16T09:02:32Z</time>
      </trkpt>
      <trkpt lat="50.71889" lon="3.87687">
        <ele>35.23</ele>
        <time>2017-04-16T09:02:38Z</time>
      </trkpt>
      <trkpt lat="50.71888" lon="3.87685">
        <ele>37.15</ele>
        <time>2017-04-16T09:02:40Z</time>
      </trkpt>
      <trkpt lat="50.71888" lon="3.87679">
        <ele>35.71</ele>
        <time>2017-04-16T09:02:43Z</time>
      </trkpt>
      <trkpt lat="50.71887" lon="3.87677">
        <ele>34.74</ele>
        <time>2017-04-16T09:02:44Z</time>
      </trkpt>
      <trkpt lat="50.71887" lon="3.87675">
        <ele>34.74</ele>
        <time>2017-04-16T09:02:45Z</time>
      </trkpt>
      <trkpt lat="50.71887" lon="3.87673">
        <ele>34.74</ele>
        <time>2017-04-16T09:02:46Z</time>
      </trkpt>
      <trkpt lat="50.71888" lon="3.87671">
        <ele>34.74</ele>
        <time>2017-04-16T09:02:47Z</time>
      </trkpt>
      <trkpt lat="50.71888" lon="3.87669">
        <ele>34.74</ele>
        <time>2017-04-16T09:02:48Z</time>
      </trkpt>
      <trkpt lat="50.71888" lon="3.87667">
        <ele>34.74</ele>
        <time>2017-04-16T09:02:49Z</time>
      </trkpt>
      <trkpt lat="50.71888" lon="3.87665">
        <ele>34.74</ele>
        <time>2017-04-16T09:02:50Z</time>
      </trkpt>
      <trkpt lat="50.71888" lon="3.87663">
        <ele>34.74</ele>
        <time>2017-04-16T09:02:51Z</time>
      </trkpt>
      <trkpt lat="50.71888" lon="3.87661">
        <ele>34.74</ele>
        <time>2017-04-16T09:02:52Z</time>
      </trkpt>
      <trkpt lat="50.7189" lon="3.87647">
        <ele>35.71</ele>
        <time>2017-04-16T09:02:59Z</time>
      </trkpt>
      <trkpt lat="50.7189" lon="3.87643">
        <ele>34.26</ele>
        <time>2017-04-16T09:03:01Z</time>
      </trkpt>
      <trkpt lat="50.71892" lon="3.87611">
        <ele>33.3</ele>
        <time>2017-04-16T09:03:16Z</time>
      </trkpt>
      <trkpt lat="50.71894" lon="3.8758">
        <ele>33.3</ele>
        <time>2017-04-16T09:03:31Z</time>
      </trkpt>
      <trkpt lat="50.71895" lon="3.87547">
        <ele>30.9</ele>
        <time>2017-04-16T09:03:48Z</time>
      </trkpt>
      <trkpt lat="50.71897" lon="3.87519">
        <ele>30.42</ele>
        <time>2017-04-16T09:04:02Z</time>
      </trkpt>
      <trkpt lat="50.71898" lon="3.87496">
        <ele>30.9</ele>
        <time>2017-04-16T09:04:14Z</time>
      </trkpt>
      <trkpt lat="50.71902" lon="3.87473">
        <ele>29.46</ele>
        <time>2017-04-16T09:04:25Z</time>
      </trkpt>
      <trkpt lat="50.71902" lon="3.87466">
        <ele>30.42</ele>
        <time>2017-04-16T09:04:28Z</time>
      </trkpt>
      <trkpt lat="50.71906" lon="3.87436">
        <ele>31.86</ele>
        <time>2017-04-16T09:04:42Z</time>
      </trkpt>
      <trkpt lat="50.71907" lon="3.87427">
        <ele>30.42</ele>
        <time>2017-04-16T09:04:47Z</time>
      </trkpt>
      <trkpt lat="50.71911" lon="3.87404">
        <ele>30.42</ele>
        <time>2017-04-16T09:05:01Z</time>
      </trkpt>
      <trkpt lat="50.71914" lon="3.87393">
        <ele>31.86</ele>
        <time>2017-04-16T09:05:06Z</time>
      </trkpt>
      <trkpt lat="50.71914" lon="3.87382">
        <ele>31.86</ele>
        <time>2017-04-16T09:05:11Z</time>
      </trkpt>
      <trkpt lat="50.71917" lon="3.87359">
        <ele>30.9</ele>
        <time>2017-04-16T09:05:23Z</time>
      </trkpt>
      <trkpt lat="50.7192" lon="3.87343">
        <ele>32.34</ele>
        <time>2017-04-16T09:05:30Z</time>
      </trkpt>
      <trkpt lat="50.71924" lon="3.87321">
        <ele>30.9</ele>
        <time>2017-04-16T09:05:41Z</time>
      </trkpt>
      <trkpt lat="50.71924" lon="3.87311">
        <ele>33.3</ele>
        <time>2017-04-16T09:05:47Z</time>
      </trkpt>
      <trkpt lat="50.71929" lon="3.87277">
        <ele>32.34</ele>
        <time>2017-04-16T09:06:03Z</time>
      </trkpt>
      <trkpt lat="50.71936" lon="3.87242">
        <ele>32.34</ele>
        <time>2017-04-16T09:06:20Z</time>
      </trkpt>
      <trkpt lat="50.71938" lon="3.87227">
        <ele>32.82</ele>
        <time>2017-04-16T09:06:28Z</time>
      </trkpt>
      <trkpt lat="50.71939" lon="3.8722">
        <ele>31.38</ele>
        <time>2017-04-16T09:06:31Z</time>
      </trkpt>
      <trkpt lat="50.71945" lon="3.87177">
        <ele>32.82</ele>
        <time>2017-04-16T09:06:51Z</time>
      </trkpt>
      <trkpt lat="50.7195" lon="3.87147">
        <ele>34.26</ele>
        <time>2017-04-16T09:07:08Z</time>
      </trkpt>
      <trkpt lat="50.71954" lon="3.8712">
        <ele>33.78</ele>
        <time>2017-04-16T09:07:21Z</time>
      </trkpt>
      <trkpt lat="50.71957" lon="3.87099">
        <ele>35.71</ele>
        <time>2017-04-16T09:07:32Z</time>
      </trkpt>
      <trkpt lat="50.71961" lon="3.87063">
        <ele>36.19</ele>
        <time>2017-04-16T09:07:50Z</time>
      </trkpt>
      <trkpt lat="50.71963" lon="3.87034">
        <ele>36.67</ele>
        <time>2017-04-16T09:08:06Z</time>
      </trkpt>
      <trkpt lat="50.71965" lon="3.87024">
        <ele>38.11</ele>
        <time>2017-04-16T09:08:12Z</time>
      </trkpt>
      <trkpt lat="50.71966" lon="3.8702">
        <ele>38.11</ele>
        <time>2017-04-16T09:08:14Z</time>
      </trkpt>
      <trkpt lat="50.71969" lon="3.87012">
        <ele>37.15</ele>
        <time>2017-04-16T09:08:18Z</time>
      </trkpt>
      <trkpt lat="50.7197" lon="3.87006">
        <ele>38.59</ele>
        <time>2017-04-16T09:08:21Z</time>
      </trkpt>
      <trkpt lat="50.7197" lon="3.87002">
        <ele>37.15</ele>
        <time>2017-04-16T09:08:23Z</time>
      </trkpt>
      <trkpt lat="50.71974" lon="3.86974">
        <ele>37.15</ele>
        <time>2017-04-16T09:08:37Z</time>
      </trkpt>
      <trkpt lat="50.71975" lon="3.86968">
        <ele>38.59</ele>
        <time>2017-04-16T09:08:40Z</time>
      </trkpt>
      <trkpt lat="50.71976" lon="3.86953">
        <ele>37.15</ele>
        <time>2017-04-16T09:08:47Z</time>
      </trkpt>
      <trkpt lat="50.71976" lon="3.86947">
        <ele>40.03</ele>
        <time>2017-04-16T09:08:50Z</time>
      </trkpt>
      <trkpt lat="50.71977" lon="3.86944">
        <ele>38.59</ele>
        <time>2017-04-16T09:08:52Z</time>
      </trkpt>
      <trkpt lat="50.71978" lon="3.8693">
        <ele>39.07</ele>
        <time>2017-04-16T09:08:59Z</time>
      </trkpt>
      <trkpt lat="50.71981" lon="3.86912">
        <ele>37.63</ele>
        <time>2017-04-16T09:09:09Z</time>
      </trkpt>
      <trkpt lat="50.71982" lon="3.86908">
        <ele>39.07</ele>
        <time>2017-04-16T09:09:11Z</time>
      </trkpt>
      <trkpt lat="50.71987" lon="3.86869">
        <ele>39.55</ele>
        <time>2017-04-16T09:09:31Z</time>
      </trkpt>
      <trkpt lat="50.71991" lon="3.86835">
        <ele>37.63</ele>
        <time>2017-04-16T09:09:49Z</time>
      </trkpt>
      <trkpt lat="50.71994" lon="3.8683">
        <ele>37.63</ele>
        <time>2017-04-16T09:10:16Z</time>
      </trkpt>
      <trkpt lat="50.71994" lon="3.86826">
        <ele>37.63</ele>
        <time>2017-04-16T09:10:39Z</time>
      </trkpt>
      <trkpt lat="50.71994" lon="3.86825">
        <ele>37.63</ele>
        <time>2017-04-16T09:11:04Z</time>
      </trkpt>
      <trkpt lat="50.71994" lon="3.86831">
        <ele>38.59</ele>
        <time>2017-04-16T09:11:22Z</time>
      </trkpt>
      <trkpt lat="50.71994" lon="3.8683">
        <ele>37.15</ele>
        <time>2017-04-16T09:11:42Z</time>
      </trkpt>
      <trkpt lat="50.71996" lon="3.86828">
        <ele>38.11</ele>
        <time>2017-04-16T09:12:06Z</time>
      </trkpt>
      <trkpt lat="50.71995" lon="3.86817">
        <ele>37.15</ele>
        <time>2017-04-16T09:12:19Z</time>
      </trkpt>
      <trkpt lat="50.71996" lon="3.86816">
        <ele>37.15</ele>
        <time>2017-04-16T09:12:20Z</time>
      </trkpt>
      <trkpt lat="50.71996" lon="3.86814">
        <ele>37.15</ele>
        <time>2017-04-16T09:12:21Z</time>
      </trkpt>
      <trkpt lat="50.71997" lon="3.8681">
        <ele>38.59</ele>
        <time>2017-04-16T09:12:24Z</time>
      </trkpt>
      <trkpt lat="50.71999" lon="3.86797">
        <ele>37.15</ele>
        <time>2017-04-16T09:12:31Z</time>
      </trkpt>
      <trkpt lat="50.72" lon="3.86791">
        <ele>38.59</ele>
        <time>2017-04-16T09:12:34Z</time>
      </trkpt>
      <trkpt lat="50.72001" lon="3.86787">
        <ele>37.63</ele>
        <time>2017-04-16T09:12:36Z</time>
      </trkpt>
      <trkpt lat="50.72001" lon="3.8678">
        <ele>37.63</ele>
        <time>2017-04-16T09:12:41Z</time>
      </trkpt>
      <trkpt lat="50.72001" lon="3.86778">
        <ele>37.63</ele>
        <time>2017-04-16T09:12:42Z</time>
      </trkpt>
      <trkpt lat="50.72004" lon="3.86757">
        <ele>38.11</ele>
        <time>2017-04-16T09:12:53Z</time>
      </trkpt>
      <trkpt lat="50.72006" lon="3.86749">
        <ele>37.15</ele>
        <time>2017-04-16T09:13:01Z</time>
      </trkpt>
      <trkpt lat="50.72007" lon="3.86742">
        <ele>36.67</ele>
        <time>2017-04-16T09:13:06Z</time>
      </trkpt>
      <trkpt lat="50.72007" lon="3.86733">
        <ele>37.63</ele>
        <time>2017-04-16T09:13:12Z</time>
      </trkpt>
      <trkpt lat="50.72007" lon="3.86724">
        <ele>36.67</ele>
        <time>2017-04-16T09:13:16Z</time>
      </trkpt>
      <trkpt lat="50.72011" lon="3.86705">
        <ele>38.59</ele>
        <time>2017-04-16T09:13:24Z</time>
      </trkpt>
      <trkpt lat="50.72014" lon="3.86696">
        <ele>37.15</ele>
        <time>2017-04-16T09:13:28Z</time>
      </trkpt>
      <trkpt lat="50.72017" lon="3.86682">
        <ele>38.11</ele>
        <time>2017-04-16T09:13:37Z</time>
      </trkpt>
      <trkpt lat="50.72024" lon="3.86648">
        <ele>36.67</ele>
        <time>2017-04-16T09:13:52Z</time>
      </trkpt>
      <trkpt lat="50.72026" lon="3.86646">
        <ele>36.67</ele>
        <time>2017-04-16T09:13:53Z</time>
      </trkpt>
      <trkpt lat="50.72024" lon="3.86633">
        <ele>38.11</ele>
        <time>2017-04-16T09:14:01Z</time>
      </trkpt>
      <trkpt lat="50.72027" lon="3.8661">
        <ele>36.67</ele>
        <time>2017-04-16T09:14:11Z</time>
      </trkpt>
      <trkpt lat="50.72027" lon="3.86607">
        <ele>38.11</ele>
        <time>2017-04-16T09:14:13Z</time>
      </trkpt>
      <trkpt lat="50.72027" lon="3.86587">
        <ele>37.15</ele>
        <time>2017-04-16T09:14:24Z</time>
      </trkpt>
      <trkpt lat="50.72028" lon="3.86577">
        <ele>38.59</ele>
        <time>2017-04-16T09:14:30Z</time>
      </trkpt>
      <trkpt lat="50.72029" lon="3.86566">
        <ele>36.19</ele>
        <time>2017-04-16T09:14:36Z</time>
      </trkpt>
      <trkpt lat="50.72029" lon="3.86561">
        <ele>37.63</ele>
        <time>2017-04-16T09:14:38Z</time>
      </trkpt>
      <trkpt lat="50.72031" lon="3.86549">
        <ele>39.07</ele>
        <time>2017-04-16T09:14:45Z</time>
      </trkpt>
      <trkpt lat="50.72033" lon="3.86542">
        <ele>37.63</ele>
        <time>2017-04-16T09:14:48Z</time>
      </trkpt>
      <trkpt lat="50.72034" lon="3.86533">
        <ele>38.59</ele>
        <time>2017-04-16T09:14:53Z</time>
      </trkpt>
      <trkpt lat="50.72035" lon="3.86518">
        <ele>36.67</ele>
        <time>2017-04-16T09:15:00Z</time>
      </trkpt>
      <trkpt lat="50.72035" lon="3.86514">
        <ele>38.11</ele>
        <time>2017-04-16T09:15:02Z</time>
      </trkpt>
      <trkpt lat="50.72037" lon="3.86501">
        <ele>39.55</ele>
        <time>2017-04-16T09:15:10Z</time>
      </trkpt>
      <trkpt lat="50.7204" lon="3.8649">
        <ele>37.15</ele>
        <time>2017-04-16T09:15:16Z</time>
      </trkpt>
      <trkpt lat="50.7204" lon="3.86487">
        <ele>39.55</ele>
        <time>2017-04-16T09:15:18Z</time>
      </trkpt>
      <trkpt lat="50.72041" lon="3.86483">
        <ele>38.59</ele>
        <time>2017-04-16T09:15:20Z</time>
      </trkpt>
      <trkpt lat="50.72045" lon="3.86465">
        <ele>38.59</ele>
        <time>2017-04-16T09:15:33Z</time>
      </trkpt>
      <trkpt lat="50.72046" lon="3.86452">
        <ele>40.03</ele>
        <time>2017-04-16T09:15:41Z</time>
      </trkpt>
      <trkpt lat="50.72046" lon="3.86443">
        <ele>39.07</ele>
        <time>2017-04-16T09:15:46Z</time>
      </trkpt>
      <trkpt lat="50.72046" lon="3.86441">
        <ele>39.07</ele>
        <time>2017-04-16T09:15:47Z</time>
      </trkpt>
      <trkpt lat="50.72043" lon="3.86426">
        <ele>39.07</ele>
        <time>2017-04-16T09:15:55Z</time>
      </trkpt>
      <trkpt lat="50.72042" lon="3.86424">
        <ele>38.11</ele>
        <time>2017-04-16T09:15:56Z</time>
      </trkpt>
      <trkpt lat="50.72041" lon="3.86421">
        <ele>37.63</ele>
        <time>2017-04-16T09:15:58Z</time>
      </trkpt>
      <trkpt lat="50.7204" lon="3.86415">
        <ele>40.03</ele>
        <time>2017-04-16T09:16:01Z</time>
      </trkpt>
      <trkpt lat="50.72036" lon="3.86401">
        <ele>40.03</ele>
        <time>2017-04-16T09:16:15Z</time>
      </trkpt>
      <trkpt lat="50.72041" lon="3.86398">
        <ele>39.07</ele>
        <time>2017-04-16T09:16:33Z</time>
      </trkpt>
      <trkpt lat="50.7204" lon="3.86394">
        <ele>40.51</ele>
        <time>2017-04-16T09:16:55Z</time>
      </trkpt>
      <trkpt lat="50.72039" lon="3.8639">
        <ele>39.07</ele>
        <time>2017-04-16T09:16:57Z</time>
      </trkpt>
      <trkpt lat="50.72039" lon="3.86389">
        <ele>39.07</ele>
        <time>2017-04-16T09:16:58Z</time>
      </trkpt>
      <trkpt lat="50.72036" lon="3.86381">
        <ele>40.51</ele>
        <time>2017-04-16T09:17:02Z</time>
      </trkpt>
      <trkpt lat="50.72035" lon="3.86377">
        <ele>40.51</ele>
        <time>2017-04-16T09:17:04Z</time>
      </trkpt>
      <trkpt lat="50.72034" lon="3.86375">
        <ele>40.51</ele>
        <time>2017-04-16T09:17:05Z</time>
      </trkpt>
      <trkpt lat="50.72033" lon="3.86374">
        <ele>40.51</ele>
        <time>2017-04-16T09:17:06Z</time>
      </trkpt>
      <trkpt lat="50.72024" lon="3.86365">
        <ele>39.07</ele>
        <time>2017-04-16T09:17:13Z</time>
      </trkpt>
      <trkpt lat="50.72018" lon="3.86353">
        <ele>40.03</ele>
        <time>2017-04-16T09:17:20Z</time>
      </trkpt>
      <trkpt lat="50.72018" lon="3.86348">
        <ele>40.99</ele>
        <time>2017-04-16T09:17:23Z</time>
      </trkpt>
      <trkpt lat="50.72017" lon="3.86343">
        <ele>40.99</ele>
        <time>2017-04-16T09:17:26Z</time>
      </trkpt>
      <trkpt lat="50.72016" lon="3.86341">
        <ele>40.03</ele>
        <time>2017-04-16T09:17:27Z</time>
      </trkpt>
      <trkpt lat="50.72" lon="3.86312">
        <ele>37.63</ele>
        <time>2017-04-16T09:17:42Z</time>
      </trkpt>
      <trkpt lat="50.71977" lon="3.86268">
        <ele>38.11</ele>
        <time>2017-04-16T09:18:03Z</time>
      </trkpt>
      <trkpt lat="50.71969" lon="3.86251">
        <ele>35.71</ele>
        <time>2017-04-16T09:18:13Z</time>
      </trkpt>
      <trkpt lat="50.71968" lon="3.86249">
        <ele>35.71</ele>
        <time>2017-04-16T09:18:14Z</time>
      </trkpt>
      <trkpt lat="50.71967" lon="3.86248">
        <ele>35.71</ele>
        <time>2017-04-16T09:18:15Z</time>
      </trkpt>
      <trkpt lat="50.71955" lon="3.86216">
        <ele>35.23</ele>
        <time>2017-04-16T09:18:33Z</time>
      </trkpt>
      <trkpt lat="50.71952" lon="3.862">
        <ele>34.74</ele>
        <time>2017-04-16T09:18:40Z</time>
      </trkpt>
      <trkpt lat="50.71941" lon="3.86149">
        <ele>33.3</ele>
        <time>2017-04-16T09:19:00Z</time>
      </trkpt>
      <trkpt lat="50.71938" lon="3.86132">
        <ele>34.74</ele>
        <time>2017-04-16T09:19:07Z</time>
      </trkpt>
      <trkpt lat="50.7193" lon="3.86099">
        <ele>32.34</ele>
        <time>2017-04-16T09:19:22Z</time>
      </trkpt>
      <trkpt lat="50.71924" lon="3.86072">
        <ele>32.82</ele>
        <time>2017-04-16T09:19:35Z</time>
      </trkpt>
      <trkpt lat="50.71919" lon="3.86055">
        <ele>32.34</ele>
        <time>2017-04-16T09:19:44Z</time>
      </trkpt>
      <trkpt lat="50.71907" lon="3.86015">
        <ele>30.9</ele>
        <time>2017-04-16T09:20:04Z</time>
      </trkpt>
      <trkpt lat="50.71906" lon="3.86011">
        <ele>32.82</ele>
        <time>2017-04-16T09:20:06Z</time>
      </trkpt>
      <trkpt lat="50.71905" lon="3.86008">
        <ele>31.38</ele>
        <time>2017-04-16T09:20:08Z</time>
      </trkpt>
      <trkpt lat="50.71894" lon="3.85972">
        <ele>32.34</ele>
        <time>2017-04-16T09:20:25Z</time>
      </trkpt>
      <trkpt lat="50.71892" lon="3.85968">
        <ele>30.9</ele>
        <time>2017-04-16T09:20:27Z</time>
      </trkpt>
      <trkpt lat="50.71881" lon="3.85935">
        <ele>31.38</ele>
        <time>2017-04-16T09:20:44Z</time>
      </trkpt>
      <trkpt lat="50.71869" lon="3.85903">
        <ele>28.5</ele>
        <time>2017-04-16T09:21:02Z</time>
      </trkpt>
      <trkpt lat="50.71868" lon="3.859">
        <ele>30.42</ele>
        <time>2017-04-16T09:21:04Z</time>
      </trkpt>
      <trkpt lat="50.71867" lon="3.85898">
        <ele>31.38</ele>
        <time>2017-04-16T09:21:06Z</time>
      </trkpt>
      <trkpt lat="50.71865" lon="3.85893">
        <ele>29.46</ele>
        <time>2017-04-16T09:21:09Z</time>
      </trkpt>
      <trkpt lat="50.71865" lon="3.8589">
        <ele>29.46</ele>
        <time>2017-04-16T09:21:11Z</time>
      </trkpt>
      <trkpt lat="50.71864" lon="3.85888">
        <ele>29.46</ele>
        <time>2017-04-16T09:21:12Z</time>
      </trkpt>
      <trkpt lat="50.71863" lon="3.85886">
        <ele>29.46</ele>
        <time>2017-04-16T09:21:13Z</time>
      </trkpt>
      <trkpt lat="50.71863" lon="3.85884">
        <ele>28.5</ele>
        <time>2017-04-16T09:21:14Z</time>
      </trkpt>
      <trkpt lat="50.71862" lon="3.85881">
        <ele>29.94</ele>
        <time>2017-04-16T09:21:15Z</time>
      </trkpt>
      <trkpt lat="50.71862" lon="3.85879">
        <ele>31.38</ele>
        <time>2017-04-16T09:21:16Z</time>
      </trkpt>
      <trkpt lat="50.71861" lon="3.85877">
        <ele>31.38</ele>
        <time>2017-04-16T09:21:17Z</time>
      </trkpt>
      <trkpt lat="50.71857" lon="3.85865">
        <ele>30.9</ele>
        <time>2017-04-16T09:21:25Z</time>
      </trkpt>
      <trkpt lat="50.71852" lon="3.8585">
        <ele>28.02</ele>
        <time>2017-04-16T09:21:33Z</time>
      </trkpt>
      <trkpt lat="50.71851" lon="3.85846">
        <ele>29.94</ele>
        <time>2017-04-16T09:21:35Z</time>
      </trkpt>
      <trkpt lat="50.71846" lon="3.85805">
        <ele>28.98</ele>
        <time>2017-04-16T09:21:54Z</time>
      </trkpt>
      <trkpt lat="50.71852" lon="3.85769">
        <ele>30.9</ele>
        <time>2017-04-16T09:22:08Z</time>
      </trkpt>
      <trkpt lat="50.71849" lon="3.85749">
        <ele>29.46</ele>
        <time>2017-04-16T09:22:17Z</time>
      </trkpt>
      <trkpt lat="50.71855" lon="3.85726">
        <ele>27.53</ele>
        <time>2017-04-16T09:22:31Z</time>
      </trkpt>
      <trkpt lat="50.71858" lon="3.85723">
        <ele>30.9</ele>
        <time>2017-04-16T09:22:33Z</time>
      </trkpt>
      <trkpt lat="50.71859" lon="3.85721">
        <ele>30.9</ele>
        <time>2017-04-16T09:22:34Z</time>
      </trkpt>
      <trkpt lat="50.71861" lon="3.85712">
        <ele>28.98</ele>
        <time>2017-04-16T09:22:37Z</time>
      </trkpt>
      <trkpt lat="50.71867" lon="3.85683">
        <ele>29.46</ele>
        <time>2017-04-16T09:22:49Z</time>
      </trkpt>
      <trkpt lat="50.71869" lon="3.85672">
        <ele>28.5</ele>
        <time>2017-04-16T09:22:54Z</time>
      </trkpt>
      <trkpt lat="50.7187" lon="3.85662">
        <ele>28.5</ele>
        <time>2017-04-16T09:23:01Z</time>
      </trkpt>
      <trkpt lat="50.7187" lon="3.8566">
        <ele>28.5</ele>
        <time>2017-04-16T09:23:02Z</time>
      </trkpt>
      <trkpt lat="50.71869" lon="3.85629">
        <ele>29.46</ele>
        <time>2017-04-16T09:23:19Z</time>
      </trkpt>
      <trkpt lat="50.7187" lon="3.85621">
        <ele>27.53</ele>
        <time>2017-04-16T09:23:22Z</time>
      </trkpt>
      <trkpt lat="50.71871" lon="3.85603">
        <ele>28.5</ele>
        <time>2017-04-16T09:23:29Z</time>
      </trkpt>
      <trkpt lat="50.7187" lon="3.85564">
        <ele>28.98</ele>
        <time>2017-04-16T09:23:44Z</time>
      </trkpt>
      <trkpt lat="50.71868" lon="3.85556">
        <ele>29.94</ele>
        <time>2017-04-16T09:23:48Z</time>
      </trkpt>
      <trkpt lat="50.71866" lon="3.85539">
        <ele>31.38</ele>
        <time>2017-04-16T09:23:57Z</time>
      </trkpt>
      <trkpt lat="50.71864" lon="3.85529">
        <ele>30.42</ele>
        <time>2017-04-16T09:24:03Z</time>
      </trkpt>
      <trkpt lat="50.71862" lon="3.8552">
        <ele>28.02</ele>
        <time>2017-04-16T09:24:07Z</time>
      </trkpt>
      <trkpt lat="50.71861" lon="3.85515">
        <ele>30.42</ele>
        <time>2017-04-16T09:24:09Z</time>
      </trkpt>
      <trkpt lat="50.7186" lon="3.85505">
        <ele>29.46</ele>
        <time>2017-04-16T09:24:13Z</time>
      </trkpt>
      <trkpt lat="50.71857" lon="3.85485">
        <ele>30.9</ele>
        <time>2017-04-16T09:24:23Z</time>
      </trkpt>
      <trkpt lat="50.71856" lon="3.85479">
        <ele>29.46</ele>
        <time>2017-04-16T09:24:27Z</time>
      </trkpt>
      <trkpt lat="50.71853" lon="3.85461">
        <ele>31.86</ele>
        <time>2017-04-16T09:24:36Z</time>
      </trkpt>
      <trkpt lat="50.71851" lon="3.85451">
        <ele>30.42</ele>
        <time>2017-04-16T09:24:40Z</time>
      </trkpt>
      <trkpt lat="50.71848" lon="3.85417">
        <ele>31.38</ele>
        <time>2017-04-16T09:24:54Z</time>
      </trkpt>
      <trkpt lat="50.71844" lon="3.85396">
        <ele>31.38</ele>
        <time>2017-04-16T09:25:03Z</time>
      </trkpt>
      <trkpt lat="50.71843" lon="3.85389">
        <ele>29.94</ele>
        <time>2017-04-16T09:25:07Z</time>
      </trkpt>
      <trkpt lat="50.71842" lon="3.85376">
        <ele>30.42</ele>
        <time>2017-04-16T09:25:15Z</time>
      </trkpt>
      <trkpt lat="50.71838" lon="3.85352">
        <ele>33.3</ele>
        <time>2017-04-16T09:25:26Z</time>
      </trkpt>
      <trkpt lat="50.71837" lon="3.85346">
        <ele>31.86</ele>
        <time>2017-04-16T09:25:29Z</time>
      </trkpt>
      <trkpt lat="50.71836" lon="3.85337">
        <ele>32.34</ele>
        <time>2017-04-16T09:25:33Z</time>
      </trkpt>
      <trkpt lat="50.71835" lon="3.85328">
        <ele>30.42</ele>
        <time>2017-04-16T09:25:37Z</time>
      </trkpt>
      <trkpt lat="50.71832" lon="3.85313">
        <ele>31.38</ele>
        <time>2017-04-16T09:25:45Z</time>
      </trkpt>
      <trkpt lat="50.7183" lon="3.85306">
        <ele>32.82</ele>
        <time>2017-04-16T09:25:49Z</time>
      </trkpt>
      <trkpt lat="50.7183" lon="3.85303">
        <ele>31.38</ele>
        <time>2017-04-16T09:25:51Z</time>
      </trkpt>
      <trkpt lat="50.71829" lon="3.85297">
        <ele>33.78</ele>
        <time>2017-04-16T09:25:54Z</time>
      </trkpt>
      <trkpt lat="50.71828" lon="3.85288">
        <ele>31.86</ele>
        <time>2017-04-16T09:25:58Z</time>
      </trkpt>
      <trkpt lat="50.71828" lon="3.85278">
        <ele>33.3</ele>
        <time>2017-04-16T09:26:02Z</time>
      </trkpt>
      <trkpt lat="50.71829" lon="3.85275">
        <ele>33.3</ele>
        <time>2017-04-16T09:26:03Z</time>
      </trkpt>
      <trkpt lat="50.71829" lon="3.85267">
        <ele>34.26</ele>
        <time>2017-04-16T09:26:07Z</time>
      </trkpt>
      <trkpt lat="50.71827" lon="3.85261">
        <ele>32.34</ele>
        <time>2017-04-16T09:26:10Z</time>
      </trkpt>
      <trkpt lat="50.71826" lon="3.85258">
        <ele>34.26</ele>
        <time>2017-04-16T09:26:12Z</time>
      </trkpt>
      <trkpt lat="50.71824" lon="3.8525">
        <ele>32.34</ele>
        <time>2017-04-16T09:26:17Z</time>
      </trkpt>
      <trkpt lat="50.71824" lon="3.85246">
        <ele>34.74</ele>
        <time>2017-04-16T09:26:19Z</time>
      </trkpt>
      <trkpt lat="50.71823" lon="3.85237">
        <ele>33.3</ele>
        <time>2017-04-16T09:26:23Z</time>
      </trkpt>
      <trkpt lat="50.71822" lon="3.8523">
        <ele>35.23</ele>
        <time>2017-04-16T09:26:26Z</time>
      </trkpt>
      <trkpt lat="50.71821" lon="3.85217">
        <ele>33.78</ele>
        <time>2017-04-16T09:26:31Z</time>
      </trkpt>
      <trkpt lat="50.7182" lon="3.85204">
        <ele>34.74</ele>
        <time>2017-04-16T09:26:37Z</time>
      </trkpt>
      <trkpt lat="50.71816" lon="3.85186">
        <ele>37.15</ele>
        <time>2017-04-16T09:26:48Z</time>
      </trkpt>
      <trkpt lat="50.71804" lon="3.85176">
        <ele>33.78</ele>
        <time>2017-04-16T09:26:56Z</time>
      </trkpt>
      <trkpt lat="50.71801" lon="3.85174">
        <ele>37.63</ele>
        <time>2017-04-16T09:26:58Z</time>
      </trkpt>
      <trkpt lat="50.718" lon="3.85172">
        <ele>37.63</ele>
        <time>2017-04-16T09:26:59Z</time>
      </trkpt>
      <trkpt lat="50.71796" lon="3.85169">
        <ele>36.19</ele>
        <time>2017-04-16T09:27:02Z</time>
      </trkpt>
      <trkpt lat="50.71791" lon="3.85165">
        <ele>37.63</ele>
        <time>2017-04-16T09:27:08Z</time>
      </trkpt>
      <trkpt lat="50.71782" lon="3.85159">
        <ele>35.71</ele>
        <time>2017-04-16T09:27:16Z</time>
      </trkpt>
      <trkpt lat="50.71774" lon="3.85157">
        <ele>37.15</ele>
        <time>2017-04-16T09:27:23Z</time>
      </trkpt>
      <trkpt lat="50.71769" lon="3.85157">
        <ele>39.55</ele>
        <time>2017-04-16T09:27:28Z</time>
      </trkpt>
      <trkpt lat="50.71768" lon="3.85156">
        <ele>36.19</ele>
        <time>2017-04-16T09:27:29Z</time>
      </trkpt>
      <trkpt lat="50.71767" lon="3.85154">
        <ele>37.63</ele>
        <time>2017-04-16T09:27:31Z</time>
      </trkpt>
      <trkpt lat="50.71764" lon="3.85141">
        <ele>37.63</ele>
        <time>2017-04-16T09:27:43Z</time>
      </trkpt>
      <trkpt lat="50.71763" lon="3.85139">
        <ele>37.63</ele>
        <time>2017-04-16T09:27:44Z</time>
      </trkpt>
      <trkpt lat="50.71763" lon="3.85136">
        <ele>37.63</ele>
        <time>2017-04-16T09:27:45Z</time>
      </trkpt>
      <trkpt lat="50.71762" lon="3.85134">
        <ele>36.19</ele>
        <time>2017-04-16T09:27:46Z</time>
      </trkpt>
      <trkpt lat="50.71762" lon="3.85131">
        <ele>37.63</ele>
        <time>2017-04-16T09:27:47Z</time>
      </trkpt>
      <trkpt lat="50.71761" lon="3.85129">
        <ele>39.07</ele>
        <time>2017-04-16T09:27:48Z</time>
      </trkpt>
      <trkpt lat="50.71761" lon="3.85127">
        <ele>38.59</ele>
        <time>2017-04-16T09:27:49Z</time>
      </trkpt>
      <trkpt lat="50.7176" lon="3.85122">
        <ele>37.63</ele>
        <time>2017-04-16T09:27:51Z</time>
      </trkpt>
      <trkpt lat="50.7176" lon="3.85119">
        <ele>38.59</ele>
        <time>2017-04-16T09:27:53Z</time>
      </trkpt>
      <trkpt lat="50.71758" lon="3.85102">
        <ele>37.63</ele>
        <time>2017-04-16T09:28:04Z</time>
      </trkpt>
      <trkpt lat="50.71757" lon="3.851">
        <ele>38.11</ele>
        <time>2017-04-16T09:28:06Z</time>
      </trkpt>
      <trkpt lat="50.71756" lon="3.85098">
        <ele>38.11</ele>
        <time>2017-04-16T09:28:07Z</time>
      </trkpt>
      <trkpt lat="50.71752" lon="3.85079">
        <ele>40.99</ele>
        <time>2017-04-16T09:28:18Z</time>
      </trkpt>
      <trkpt lat="50.71751" lon="3.85074">
        <ele>39.55</ele>
        <time>2017-04-16T09:28:20Z</time>
      </trkpt>
      <trkpt lat="50.71748" lon="3.85059">
        <ele>41.47</ele>
        <time>2017-04-16T09:28:28Z</time>
      </trkpt>
      <trkpt lat="50.71746" lon="3.85054">
        <ele>40.99</ele>
        <time>2017-04-16T09:28:32Z</time>
      </trkpt>
      <trkpt lat="50.71744" lon="3.85051">
        <ele>42.44</ele>
        <time>2017-04-16T09:28:35Z</time>
      </trkpt>
      <trkpt lat="50.71742" lon="3.8505">
        <ele>40.99</ele>
        <time>2017-04-16T09:28:36Z</time>
      </trkpt>
      <trkpt lat="50.71737" lon="3.85046">
        <ele>42.92</ele>
        <time>2017-04-16T09:28:40Z</time>
      </trkpt>
      <trkpt lat="50.71735" lon="3.85043">
        <ele>40.99</ele>
        <time>2017-04-16T09:28:43Z</time>
      </trkpt>
      <trkpt lat="50.71733" lon="3.85035">
        <ele>40.51</ele>
        <time>2017-04-16T09:28:48Z</time>
      </trkpt>
      <trkpt lat="50.71731" lon="3.85029">
        <ele>43.4</ele>
        <time>2017-04-16T09:28:51Z</time>
      </trkpt>
      <trkpt lat="50.71729" lon="3.85025">
        <ele>41.47</ele>
        <time>2017-04-16T09:28:53Z</time>
      </trkpt>
      <trkpt lat="50.71728" lon="3.85021">
        <ele>42.92</ele>
        <time>2017-04-16T09:28:55Z</time>
      </trkpt>
      <trkpt lat="50.71726" lon="3.85015">
        <ele>41.47</ele>
        <time>2017-04-16T09:28:58Z</time>
      </trkpt>
      <trkpt lat="50.71726" lon="3.85014">
        <ele>44.84</ele>
        <time>2017-04-16T09:28:59Z</time>
      </trkpt>
      <trkpt lat="50.71725" lon="3.85012">
        <ele>43.4</ele>
        <time>2017-04-16T09:29:00Z</time>
      </trkpt>
      <trkpt lat="50.7172" lon="3.85002">
        <ele>43.4</ele>
        <time>2017-04-16T09:29:07Z</time>
      </trkpt>
      <trkpt lat="50.71717" lon="3.84995">
        <ele>44.84</ele>
        <time>2017-04-16T09:29:15Z</time>
      </trkpt>
      <trkpt lat="50.71714" lon="3.84986">
        <ele>46.28</ele>
        <time>2017-04-16T09:29:20Z</time>
      </trkpt>
      <trkpt lat="50.71714" lon="3.8498">
        <ele>43.88</ele>
        <time>2017-04-16T09:29:23Z</time>
      </trkpt>
      <trkpt lat="50.7171" lon="3.84968">
        <ele>46.76</ele>
        <time>2017-04-16T09:29:28Z</time>
      </trkpt>
      <trkpt lat="50.7171" lon="3.84962">
        <ele>45.32</ele>
        <time>2017-04-16T09:29:30Z</time>
      </trkpt>
      <trkpt lat="50.71715" lon="3.84946">
        <ele>44.84</ele>
        <time>2017-04-16T09:29:36Z</time>
      </trkpt>
      <trkpt lat="50.71712" lon="3.84943">
        <ele>46.76</ele>
        <time>2017-04-16T09:29:38Z</time>
      </trkpt>
      <trkpt lat="50.71711" lon="3.84941">
        <ele>46.76</ele>
        <time>2017-04-16T09:29:39Z</time>
      </trkpt>
      <trkpt lat="50.71707" lon="3.84943">
        <ele>45.32</ele>
        <time>2017-04-16T09:29:40Z</time>
      </trkpt>
      <trkpt lat="50.71705" lon="3.84942">
        <ele>45.32</ele>
        <time>2017-04-16T09:29:41Z</time>
      </trkpt>
      <trkpt lat="50.71703" lon="3.84942">
        <ele>45.32</ele>
        <time>2017-04-16T09:29:42Z</time>
      </trkpt>
      <trkpt lat="50.71701" lon="3.8494">
        <ele>45.32</ele>
        <time>2017-04-16T09:29:43Z</time>
      </trkpt>
      <trkpt lat="50.71699" lon="3.84938">
        <ele>43.88</ele>
        <time>2017-04-16T09:29:44Z</time>
      </trkpt>
      <trkpt lat="50.71698" lon="3.84933">
        <ele>46.28</ele>
        <time>2017-04-16T09:29:51Z</time>
      </trkpt>
      <trkpt lat="50.71693" lon="3.84923">
        <ele>47.24</ele>
        <time>2017-04-16T09:30:00Z</time>
      </trkpt>
      <trkpt lat="50.7169" lon="3.84918">
        <ele>45.8</ele>
        <time>2017-04-16T09:30:03Z</time>
      </trkpt>
      <trkpt lat="50.71687" lon="3.84912">
        <ele>47.72</ele>
        <time>2017-04-16T09:30:08Z</time>
      </trkpt>
      <trkpt lat="50.71681" lon="3.84905">
        <ele>45.8</ele>
        <time>2017-04-16T09:30:13Z</time>
      </trkpt>
      <trkpt lat="50.7168" lon="3.84904">
        <ele>45.32</ele>
        <time>2017-04-16T09:30:14Z</time>
      </trkpt>
      <trkpt lat="50.71679" lon="3.84902">
        <ele>47.72</ele>
        <time>2017-04-16T09:30:15Z</time>
      </trkpt>
      <trkpt lat="50.71676" lon="3.84892">
        <ele>45.32</ele>
        <time>2017-04-16T09:30:29Z</time>
      </trkpt>
      <trkpt lat="50.71675" lon="3.84891">
        <ele>47.72</ele>
        <time>2017-04-16T09:30:30Z</time>
      </trkpt>
      <trkpt lat="50.71672" lon="3.84889">
        <ele>45.8</ele>
        <time>2017-04-16T09:30:32Z</time>
      </trkpt>
      <trkpt lat="50.71669" lon="3.84888">
        <ele>47.72</ele>
        <time>2017-04-16T09:30:35Z</time>
      </trkpt>
      <trkpt lat="50.71668" lon="3.84889">
        <ele>45.8</ele>
        <time>2017-04-16T09:30:38Z</time>
      </trkpt>
      <trkpt lat="50.71667" lon="3.84889">
        <ele>47.24</ele>
        <time>2017-04-16T09:30:40Z</time>
      </trkpt>
      <trkpt lat="50.71662" lon="3.84881">
        <ele>46.28</ele>
        <time>2017-04-16T09:31:01Z</time>
      </trkpt>
      <trkpt lat="50.7166" lon="3.84879">
        <ele>46.76</ele>
        <time>2017-04-16T09:31:33Z</time>
      </trkpt>
      <trkpt lat="50.7166" lon="3.84877">
        <ele>46.76</ele>
        <time>2017-04-16T09:32:00Z</time>
      </trkpt>
      <trkpt lat="50.71659" lon="3.84878">
        <ele>46.76</ele>
        <time>2017-04-16T09:32:20Z</time>
      </trkpt>
      <trkpt lat="50.7166" lon="3.8488">
        <ele>48.68</ele>
        <time>2017-04-16T09:32:28Z</time>
      </trkpt>
      <trkpt lat="50.7166" lon="3.84882">
        <ele>46.76</ele>
        <time>2017-04-16T09:32:30Z</time>
      </trkpt>
      <trkpt lat="50.71658" lon="3.84887">
        <ele>46.76</ele>
        <time>2017-04-16T09:32:34Z</time>
      </trkpt>
      <trkpt lat="50.71656" lon="3.84897">
        <ele>46.28</ele>
        <time>2017-04-16T09:32:41Z</time>
      </trkpt>
      <trkpt lat="50.71647" lon="3.84903">
        <ele>47.24</ele>
        <time>2017-04-16T09:32:54Z</time>
      </trkpt>
      <trkpt lat="50.71642" lon="3.84906">
        <ele>47.24</ele>
        <time>2017-04-16T09:33:34Z</time>
      </trkpt>
      <trkpt lat="50.71648" lon="3.84899">
        <ele>47.24</ele>
        <time>2017-04-16T09:34:07Z</time>
      </trkpt>
      <trkpt lat="50.71648" lon="3.84898">
        <ele>47.72</ele>
        <time>2017-04-16T09:34:33Z</time>
      </trkpt>
      <trkpt lat="50.71643" lon="3.84904">
        <ele>47.72</ele>
        <time>2017-04-16T09:35:11Z</time>
      </trkpt>
      <trkpt lat="50.71643" lon="3.84903">
        <ele>47.72</ele>
        <time>2017-04-16T09:35:51Z</time>
      </trkpt>
      <trkpt lat="50.71645" lon="3.84901">
        <ele>47.72</ele>
        <time>2017-04-16T09:35:59Z</time>
      </trkpt>
      <trkpt lat="50.71653" lon="3.84892">
        <ele>47.24</ele>
        <time>2017-04-16T09:36:05Z</time>
      </trkpt>
      <trkpt lat="50.71661" lon="3.84881">
        <ele>48.2</ele>
        <time>2017-04-16T09:36:14Z</time>
      </trkpt>
      <trkpt lat="50.71662" lon="3.84877">
        <ele>48.68</ele>
        <time>2017-04-16T09:36:19Z</time>
      </trkpt>
      <trkpt lat="50.7166" lon="3.84872">
        <ele>46.76</ele>
        <time>2017-04-16T09:36:23Z</time>
      </trkpt>
      <trkpt lat="50.71657" lon="3.84867">
        <ele>49.16</ele>
        <time>2017-04-16T09:36:26Z</time>
      </trkpt>
      <trkpt lat="50.71651" lon="3.84856">
        <ele>48.68</ele>
        <time>2017-04-16T09:36:36Z</time>
      </trkpt>
      <trkpt lat="50.71649" lon="3.84853">
        <ele>47.72</ele>
        <time>2017-04-16T09:36:38Z</time>
      </trkpt>
      <trkpt lat="50.71639" lon="3.84839">
        <ele>48.68</ele>
        <time>2017-04-16T09:36:47Z</time>
      </trkpt>
      <trkpt lat="50.71635" lon="3.84831">
        <ele>47.24</ele>
        <time>2017-04-16T09:36:53Z</time>
      </trkpt>
      <trkpt lat="50.71634" lon="3.84827">
        <ele>49.65</ele>
        <time>2017-04-16T09:36:55Z</time>
      </trkpt>
      <trkpt lat="50.71626" lon="3.84809">
        <ele>46.28</ele>
        <time>2017-04-16T09:37:05Z</time>
      </trkpt>
      <trkpt lat="50.71626" lon="3.84803">
        <ele>49.16</ele>
        <time>2017-04-16T09:37:08Z</time>
      </trkpt>
      <trkpt lat="50.71624" lon="3.84797">
        <ele>47.72</ele>
        <time>2017-04-16T09:37:12Z</time>
      </trkpt>
      <trkpt lat="50.71619" lon="3.84784">
        <ele>49.65</ele>
        <time>2017-04-16T09:37:19Z</time>
      </trkpt>
      <trkpt lat="50.71613" lon="3.84766">
        <ele>49.16</ele>
        <time>2017-04-16T09:37:30Z</time>
      </trkpt>
      <trkpt lat="50.71611" lon="3.84759">
        <ele>47.72</ele>
        <time>2017-04-16T09:37:34Z</time>
      </trkpt>
      <trkpt lat="50.71609" lon="3.84751">
        <ele>48.2</ele>
        <time>2017-04-16T09:37:39Z</time>
      </trkpt>
      <trkpt lat="50.71601" lon="3.84721">
        <ele>45.8</ele>
        <time>2017-04-16T09:37:55Z</time>
      </trkpt>
      <trkpt lat="50.71601" lon="3.84718">
        <ele>48.68</ele>
        <time>2017-04-16T09:37:57Z</time>
      </trkpt>
      <trkpt lat="50.71595" lon="3.84697">
        <ele>46.28</ele>
        <time>2017-04-16T09:38:11Z</time>
      </trkpt>
      <trkpt lat="50.71589" lon="3.84678">
        <ele>46.76</ele>
        <time>2017-04-16T09:38:20Z</time>
      </trkpt>
      <trkpt lat="50.71587" lon="3.84672">
        <ele>45.32</ele>
        <time>2017-04-16T09:38:23Z</time>
      </trkpt>
      <trkpt lat="50.71585" lon="3.84669">
        <ele>47.72</ele>
        <time>2017-04-16T09:38:25Z</time>
      </trkpt>
      <trkpt lat="50.71583" lon="3.84665">
        <ele>46.28</ele>
        <time>2017-04-16T09:38:28Z</time>
      </trkpt>
      <trkpt lat="50.7158" lon="3.84652">
        <ele>44.36</ele>
        <time>2017-04-16T09:38:36Z</time>
      </trkpt>
      <trkpt lat="50.71578" lon="3.84649">
        <ele>46.76</ele>
        <time>2017-04-16T09:38:38Z</time>
      </trkpt>
      <trkpt lat="50.71575" lon="3.8464">
        <ele>44.84</ele>
        <time>2017-04-16T09:38:42Z</time>
      </trkpt>
      <trkpt lat="50.7157" lon="3.84623">
        <ele>43.4</ele>
        <time>2017-04-16T09:38:50Z</time>
      </trkpt>
      <trkpt lat="50.7157" lon="3.84619">
        <ele>45.8</ele>
        <time>2017-04-16T09:38:52Z</time>
      </trkpt>
      <trkpt lat="50.71562" lon="3.84592">
        <ele>42.92</ele>
        <time>2017-04-16T09:39:08Z</time>
      </trkpt>
      <trkpt lat="50.71554" lon="3.84579">
        <ele>40.99</ele>
        <time>2017-04-16T09:39:16Z</time>
      </trkpt>
      <trkpt lat="50.71553" lon="3.84576">
        <ele>42.44</ele>
        <time>2017-04-16T09:39:18Z</time>
      </trkpt>
      <trkpt lat="50.7155" lon="3.8457">
        <ele>40.99</ele>
        <time>2017-04-16T09:39:23Z</time>
      </trkpt>
      <trkpt lat="50.71547" lon="3.84564">
        <ele>40.03</ele>
        <time>2017-04-16T09:39:30Z</time>
      </trkpt>
      <trkpt lat="50.71546" lon="3.84564">
        <ele>42.44</ele>
        <time>2017-04-16T09:39:32Z</time>
      </trkpt>
      <trkpt lat="50.71537" lon="3.84568">
        <ele>40.99</ele>
        <time>2017-04-16T09:39:40Z</time>
      </trkpt>
      <trkpt lat="50.71532" lon="3.84571">
        <ele>40.03</ele>
        <time>2017-04-16T09:39:44Z</time>
      </trkpt>
      <trkpt lat="50.71529" lon="3.84574">
        <ele>40.51</ele>
        <time>2017-04-16T09:39:46Z</time>
      </trkpt>
      <trkpt lat="50.71528" lon="3.84576">
        <ele>39.07</ele>
        <time>2017-04-16T09:39:48Z</time>
      </trkpt>
      <trkpt lat="50.71522" lon="3.84585">
        <ele>37.63</ele>
        <time>2017-04-16T09:39:55Z</time>
      </trkpt>
      <trkpt lat="50.71519" lon="3.84588">
        <ele>39.55</ele>
        <time>2017-04-16T09:39:58Z</time>
      </trkpt>
      <trkpt lat="50.71511" lon="3.84589">
        <ele>37.15</ele>
        <time>2017-04-16T09:40:09Z</time>
      </trkpt>
      <trkpt lat="50.71501" lon="3.84599">
        <ele>37.63</ele>
        <time>2017-04-16T09:40:19Z</time>
      </trkpt>
      <trkpt lat="50.71497" lon="3.84599">
        <ele>36.19</ele>
        <time>2017-04-16T09:40:22Z</time>
      </trkpt>
      <trkpt lat="50.71491" lon="3.84602">
        <ele>37.15</ele>
        <time>2017-04-16T09:40:28Z</time>
      </trkpt>
      <trkpt lat="50.71478" lon="3.84612">
        <ele>33.3</ele>
        <time>2017-04-16T09:40:47Z</time>
      </trkpt>
      <trkpt lat="50.71476" lon="3.84619">
        <ele>31.86</ele>
        <time>2017-04-16T09:40:55Z</time>
      </trkpt>
      <trkpt lat="50.71476" lon="3.84625">
        <ele>33.78</ele>
        <time>2017-04-16T09:40:57Z</time>
      </trkpt>
      <trkpt lat="50.71481" lon="3.84656">
        <ele>31.86</ele>
        <time>2017-04-16T09:41:11Z</time>
      </trkpt>
      <trkpt lat="50.71484" lon="3.84664">
        <ele>33.78</ele>
        <time>2017-04-16T09:41:15Z</time>
      </trkpt>
      <trkpt lat="50.71489" lon="3.84686">
        <ele>33.78</ele>
        <time>2017-04-16T09:41:26Z</time>
      </trkpt>
      <trkpt lat="50.71497" lon="3.8472">
        <ele>31.86</ele>
        <time>2017-04-16T09:41:41Z</time>
      </trkpt>
      <trkpt lat="50.715" lon="3.84729">
        <ele>32.82</ele>
        <time>2017-04-16T09:41:47Z</time>
      </trkpt>
      <trkpt lat="50.71506" lon="3.84747">
        <ele>31.86</ele>
        <time>2017-04-16T09:41:58Z</time>
      </trkpt>
      <trkpt lat="50.71507" lon="3.84755">
        <ele>33.78</ele>
        <time>2017-04-16T09:42:02Z</time>
      </trkpt>
      <trkpt lat="50.71512" lon="3.84783">
        <ele>32.82</ele>
        <time>2017-04-16T09:42:16Z</time>
      </trkpt>
      <trkpt lat="50.71514" lon="3.84796">
        <ele>33.78</ele>
        <time>2017-04-16T09:42:22Z</time>
      </trkpt>
      <trkpt lat="50.71518" lon="3.84815">
        <ele>33.3</ele>
        <time>2017-04-16T09:42:32Z</time>
      </trkpt>
      <trkpt lat="50.71522" lon="3.84839">
        <ele>35.23</ele>
        <time>2017-04-16T09:42:44Z</time>
      </trkpt>
      <trkpt lat="50.71523" lon="3.84847">
        <ele>33.78</ele>
        <time>2017-04-16T09:42:47Z</time>
      </trkpt>
      <trkpt lat="50.71521" lon="3.84886">
        <ele>34.74</ele>
        <time>2017-04-16T09:43:01Z</time>
      </trkpt>
      <trkpt lat="50.71522" lon="3.8489">
        <ele>32.82</ele>
        <time>2017-04-16T09:43:03Z</time>
      </trkpt>
      <trkpt lat="50.71521" lon="3.84894">
        <ele>34.26</ele>
        <time>2017-04-16T09:43:05Z</time>
      </trkpt>
      <trkpt lat="50.71522" lon="3.84899">
        <ele>32.34</ele>
        <time>2017-04-16T09:43:08Z</time>
      </trkpt>
      <trkpt lat="50.71524" lon="3.84903">
        <ele>34.74</ele>
        <time>2017-04-16T09:43:10Z</time>
      </trkpt>
      <trkpt lat="50.71529" lon="3.84915">
        <ele>33.78</ele>
        <time>2017-04-16T09:43:16Z</time>
      </trkpt>
      <trkpt lat="50.7153" lon="3.84919">
        <ele>32.34</ele>
        <time>2017-04-16T09:43:18Z</time>
      </trkpt>
      <trkpt lat="50.71531" lon="3.84924">
        <ele>34.74</ele>
        <time>2017-04-16T09:43:21Z</time>
      </trkpt>
      <trkpt lat="50.7153" lon="3.84929">
        <ele>32.82</ele>
        <time>2017-04-16T09:43:25Z</time>
      </trkpt>
      <trkpt lat="50.7153" lon="3.84936">
        <ele>35.23</ele>
        <time>2017-04-16T09:43:28Z</time>
      </trkpt>
      <trkpt lat="50.7153" lon="3.84946">
        <ele>33.78</ele>
        <time>2017-04-16T09:43:32Z</time>
      </trkpt>
      <trkpt lat="50.71528" lon="3.84954">
        <ele>35.23</ele>
        <time>2017-04-16T09:43:35Z</time>
      </trkpt>
      <trkpt lat="50.71527" lon="3.84967">
        <ele>35.71</ele>
        <time>2017-04-16T09:43:42Z</time>
      </trkpt>
      <trkpt lat="50.71526" lon="3.84974">
        <ele>34.26</ele>
        <time>2017-04-16T09:43:46Z</time>
      </trkpt>
      <trkpt lat="50.71527" lon="3.84975">
        <ele>34.26</ele>
        <time>2017-04-16T09:43:47Z</time>
      </trkpt>
      <trkpt lat="50.71526" lon="3.84977">
        <ele>34.26</ele>
        <time>2017-04-16T09:43:48Z</time>
      </trkpt>
      <trkpt lat="50.71527" lon="3.8498">
        <ele>33.3</ele>
        <time>2017-04-16T09:43:49Z</time>
      </trkpt>
      <trkpt lat="50.71527" lon="3.84981">
        <ele>33.3</ele>
        <time>2017-04-16T09:43:50Z</time>
      </trkpt>
      <trkpt lat="50.71528" lon="3.84983">
        <ele>34.74</ele>
        <time>2017-04-16T09:43:51Z</time>
      </trkpt>
      <trkpt lat="50.7153" lon="3.85004">
        <ele>35.23</ele>
        <time>2017-04-16T09:44:03Z</time>
      </trkpt>
      <trkpt lat="50.71536" lon="3.8501">
        <ele>33.78</ele>
        <time>2017-04-16T09:44:13Z</time>
      </trkpt>
      <trkpt lat="50.71526" lon="3.85009">
        <ele>32.82</ele>
        <time>2017-04-16T09:44:15Z</time>
      </trkpt>
      <trkpt lat="50.71521" lon="3.85008">
        <ele>34.74</ele>
        <time>2017-04-16T09:44:17Z</time>
      </trkpt>
      <trkpt lat="50.71507" lon="3.85019">
        <ele>32.82</ele>
        <time>2017-04-16T09:44:29Z</time>
      </trkpt>
      <trkpt lat="50.71506" lon="3.85017">
        <ele>32.82</ele>
        <time>2017-04-16T09:44:33Z</time>
      </trkpt>
      <trkpt lat="50.71504" lon="3.85016">
        <ele>32.34</ele>
        <time>2017-04-16T09:44:36Z</time>
      </trkpt>
      <trkpt lat="50.71502" lon="3.85016">
        <ele>32.34</ele>
        <time>2017-04-16T09:44:37Z</time>
      </trkpt>
      <trkpt lat="50.715" lon="3.85016">
        <ele>33.3</ele>
        <time>2017-04-16T09:44:39Z</time>
      </trkpt>
      <trkpt lat="50.71495" lon="3.85015">
        <ele>32.34</ele>
        <time>2017-04-16T09:44:43Z</time>
      </trkpt>
      <trkpt lat="50.71488" lon="3.85014">
        <ele>33.78</ele>
        <time>2017-04-16T09:44:48Z</time>
      </trkpt>
      <trkpt lat="50.71481" lon="3.85014">
        <ele>31.86</ele>
        <time>2017-04-16T09:44:53Z</time>
      </trkpt>
      <trkpt lat="50.71473" lon="3.85011">
        <ele>33.3</ele>
        <time>2017-04-16T09:44:59Z</time>
      </trkpt>
      <trkpt lat="50.71458" lon="3.85008">
        <ele>32.82</ele>
        <time>2017-04-16T09:45:11Z</time>
      </trkpt>
      <trkpt lat="50.71453" lon="3.85006">
        <ele>31.38</ele>
        <time>2017-04-16T09:45:15Z</time>
      </trkpt>
      <trkpt lat="50.71445" lon="3.85006">
        <ele>30.9</ele>
        <time>2017-04-16T09:45:26Z</time>
      </trkpt>
      <trkpt lat="50.71438" lon="3.8501">
        <ele>31.86</ele>
        <time>2017-04-16T09:45:31Z</time>
      </trkpt>
      <trkpt lat="50.71436" lon="3.85011">
        <ele>31.86</ele>
        <time>2017-04-16T09:45:33Z</time>
      </trkpt>
      <trkpt lat="50.71435" lon="3.85012">
        <ele>30.42</ele>
        <time>2017-04-16T09:45:34Z</time>
      </trkpt>
      <trkpt lat="50.71432" lon="3.85014">
        <ele>29.94</ele>
        <time>2017-04-16T09:45:36Z</time>
      </trkpt>
      <trkpt lat="50.71423" lon="3.85019">
        <ele>28.5</ele>
        <time>2017-04-16T09:45:44Z</time>
      </trkpt>
      <trkpt lat="50.71419" lon="3.85022">
        <ele>30.9</ele>
        <time>2017-04-16T09:45:47Z</time>
      </trkpt>
      <trkpt lat="50.71405" lon="3.85034">
        <ele>30.42</ele>
        <time>2017-04-16T09:46:02Z</time>
      </trkpt>
      <trkpt lat="50.7139" lon="3.85043">
        <ele>28.02</ele>
        <time>2017-04-16T09:46:17Z</time>
      </trkpt>
      <trkpt lat="50.71388" lon="3.85045">
        <ele>28.02</ele>
        <time>2017-04-16T09:46:18Z</time>
      </trkpt>
      <trkpt lat="50.71387" lon="3.85046">
        <ele>29.94</ele>
        <time>2017-04-16T09:46:19Z</time>
      </trkpt>
      <trkpt lat="50.71385" lon="3.85048">
        <ele>30.9</ele>
        <time>2017-04-16T09:46:20Z</time>
      </trkpt>
      <trkpt lat="50.71383" lon="3.8505">
        <ele>30.9</ele>
        <time>2017-04-16T09:46:21Z</time>
      </trkpt>
      <trkpt lat="50.71382" lon="3.85051">
        <ele>30.9</ele>
        <time>2017-04-16T09:46:22Z</time>
      </trkpt>
      <trkpt lat="50.71366" lon="3.85064">
        <ele>28.02</ele>
        <time>2017-04-16T09:46:33Z</time>
      </trkpt>
      <trkpt lat="50.71361" lon="3.85068">
        <ele>29.94</ele>
        <time>2017-04-16T09:46:37Z</time>
      </trkpt>
      <trkpt lat="50.71345" lon="3.85086">
        <ele>27.53</ele>
        <time>2017-04-16T09:46:53Z</time>
      </trkpt>
      <trkpt lat="50.71344" lon="3.85088">
        <ele>29.46</ele>
        <time>2017-04-16T09:46:55Z</time>
      </trkpt>
      <trkpt lat="50.71341" lon="3.85094">
        <ele>28.02</ele>
        <time>2017-04-16T09:47:00Z</time>
      </trkpt>
      <trkpt lat="50.71331" lon="3.85102">
        <ele>26.57</ele>
        <time>2017-04-16T09:47:08Z</time>
      </trkpt>
      <trkpt lat="50.71325" lon="3.85101">
        <ele>28.98</ele>
        <time>2017-04-16T09:47:12Z</time>
      </trkpt>
      <trkpt lat="50.71314" lon="3.851">
        <ele>26.57</ele>
        <time>2017-04-16T09:47:19Z</time>
      </trkpt>
      <trkpt lat="50.71304" lon="3.85101">
        <ele>28.98</ele>
        <time>2017-04-16T09:47:25Z</time>
      </trkpt>
      <trkpt lat="50.71279" lon="3.85094">
        <ele>29.94</ele>
        <time>2017-04-16T09:47:44Z</time>
      </trkpt>
      <trkpt lat="50.71278" lon="3.85094">
        <ele>29.94</ele>
        <time>2017-04-16T09:47:45Z</time>
      </trkpt>
      <trkpt lat="50.71267" lon="3.85091">
        <ele>26.57</ele>
        <time>2017-04-16T09:47:53Z</time>
      </trkpt>
      <trkpt lat="50.71264" lon="3.8509">
        <ele>29.46</ele>
        <time>2017-04-16T09:47:55Z</time>
      </trkpt>
      <trkpt lat="50.71262" lon="3.85089">
        <ele>29.46</ele>
        <time>2017-04-16T09:47:56Z</time>
      </trkpt>
      <trkpt lat="50.71256" lon="3.85094">
        <ele>29.94</ele>
        <time>2017-04-16T09:48:06Z</time>
      </trkpt>
      <trkpt lat="50.71256" lon="3.85093">
        <ele>28.5</ele>
        <time>2017-04-16T09:48:08Z</time>
      </trkpt>
      <trkpt lat="50.71255" lon="3.85092">
        <ele>28.5</ele>
        <time>2017-04-16T09:48:38Z</time>
      </trkpt>
      <trkpt lat="50.71255" lon="3.8509">
        <ele>28.98</ele>
        <time>2017-04-16T09:49:02Z</time>
      </trkpt>
      <trkpt lat="50.71255" lon="3.85088">
        <ele>30.42</ele>
        <time>2017-04-16T09:49:13Z</time>
      </trkpt>
      <trkpt lat="50.71255" lon="3.85087">
        <ele>30.42</ele>
        <time>2017-04-16T09:49:14Z</time>
      </trkpt>
      <trkpt lat="50.71254" lon="3.85087">
        <ele>28.5</ele>
        <time>2017-04-16T09:49:16Z</time>
      </trkpt>
      <trkpt lat="50.71251" lon="3.85084">
        <ele>29.46</ele>
        <time>2017-04-16T09:49:23Z</time>
      </trkpt>
      <trkpt lat="50.71249" lon="3.85083">
        <ele>29.46</ele>
        <time>2017-04-16T09:49:24Z</time>
      </trkpt>
      <trkpt lat="50.71248" lon="3.85083">
        <ele>28.5</ele>
        <time>2017-04-16T09:49:25Z</time>
      </trkpt>
      <trkpt lat="50.71245" lon="3.85081">
        <ele>29.46</ele>
        <time>2017-04-16T09:49:28Z</time>
      </trkpt>
      <trkpt lat="50.71233" lon="3.85074">
        <ele>30.9</ele>
        <time>2017-04-16T09:49:38Z</time>
      </trkpt>
      <trkpt lat="50.71232" lon="3.85074">
        <ele>30.9</ele>
        <time>2017-04-16T09:49:39Z</time>
      </trkpt>
      <trkpt lat="50.71221" lon="3.85072">
        <ele>30.42</ele>
        <time>2017-04-16T09:49:47Z</time>
      </trkpt>
      <trkpt lat="50.71219" lon="3.85073">
        <ele>29.94</ele>
        <time>2017-04-16T09:50:00Z</time>
      </trkpt>
      <trkpt lat="50.71216" lon="3.85075">
        <ele>28.5</ele>
        <time>2017-04-16T09:50:04Z</time>
      </trkpt>
      <trkpt lat="50.71215" lon="3.85076">
        <ele>30.9</ele>
        <time>2017-04-16T09:50:05Z</time>
      </trkpt>
      <trkpt lat="50.71213" lon="3.85076">
        <ele>30.9</ele>
        <time>2017-04-16T09:50:06Z</time>
      </trkpt>
      <trkpt lat="50.712" lon="3.85076">
        <ele>30.42</ele>
        <time>2017-04-16T09:50:19Z</time>
      </trkpt>
      <trkpt lat="50.71199" lon="3.85076">
        <ele>30.42</ele>
        <time>2017-04-16T09:50:20Z</time>
      </trkpt>
      <trkpt lat="50.7119" lon="3.85077">
        <ele>29.46</ele>
        <time>2017-04-16T09:50:26Z</time>
      </trkpt>
      <trkpt lat="50.71187" lon="3.85077">
        <ele>31.38</ele>
        <time>2017-04-16T09:50:28Z</time>
      </trkpt>
      <trkpt lat="50.7118" lon="3.85077">
        <ele>29.94</ele>
        <time>2017-04-16T09:50:33Z</time>
      </trkpt>
      <trkpt lat="50.7117" lon="3.85077">
        <ele>31.38</ele>
        <time>2017-04-16T09:50:40Z</time>
      </trkpt>
      <trkpt lat="50.71162" lon="3.85078">
        <ele>29.94</ele>
        <time>2017-04-16T09:50:46Z</time>
      </trkpt>
      <trkpt lat="50.71157" lon="3.85079">
        <ele>28.5</ele>
        <time>2017-04-16T09:50:49Z</time>
      </trkpt>
      <trkpt lat="50.71153" lon="3.85078">
        <ele>32.34</ele>
        <time>2017-04-16T09:50:52Z</time>
      </trkpt>
      <trkpt lat="50.71151" lon="3.85078">
        <ele>32.34</ele>
        <time>2017-04-16T09:50:53Z</time>
      </trkpt>
      <trkpt lat="50.71143" lon="3.85081">
        <ele>31.38</ele>
        <time>2017-04-16T09:50:59Z</time>
      </trkpt>
      <trkpt lat="50.71137" lon="3.85081">
        <ele>31.86</ele>
        <time>2017-04-16T09:51:05Z</time>
      </trkpt>
      <trkpt lat="50.71123" lon="3.85079">
        <ele>33.3</ele>
        <time>2017-04-16T09:51:16Z</time>
      </trkpt>
      <trkpt lat="50.711" lon="3.85082">
        <ele>32.34</ele>
        <time>2017-04-16T09:51:32Z</time>
      </trkpt>
      <trkpt lat="50.71097" lon="3.85082">
        <ele>30.9</ele>
        <time>2017-04-16T09:51:34Z</time>
      </trkpt>
      <trkpt lat="50.71091" lon="3.85082">
        <ele>33.78</ele>
        <time>2017-04-16T09:51:38Z</time>
      </trkpt>
      <trkpt lat="50.71086" lon="3.85083">
        <ele>31.86</ele>
        <time>2017-04-16T09:51:41Z</time>
      </trkpt>
      <trkpt lat="50.71078" lon="3.85084">
        <ele>32.82</ele>
        <time>2017-04-16T09:51:47Z</time>
      </trkpt>
      <trkpt lat="50.71066" lon="3.85085">
        <ele>31.38</ele>
        <time>2017-04-16T09:51:55Z</time>
      </trkpt>
      <trkpt lat="50.71062" lon="3.85085">
        <ele>34.74</ele>
        <time>2017-04-16T09:51:58Z</time>
      </trkpt>
      <trkpt lat="50.71061" lon="3.85086">
        <ele>34.74</ele>
        <time>2017-04-16T09:51:59Z</time>
      </trkpt>
      <trkpt lat="50.71058" lon="3.85086">
        <ele>32.82</ele>
        <time>2017-04-16T09:52:01Z</time>
      </trkpt>
      <trkpt lat="50.71047" lon="3.85087">
        <ele>34.26</ele>
        <time>2017-04-16T09:52:10Z</time>
      </trkpt>
      <trkpt lat="50.71032" lon="3.85086">
        <ele>31.86</ele>
        <time>2017-04-16T09:52:20Z</time>
      </trkpt>
      <trkpt lat="50.71028" lon="3.85086">
        <ele>34.26</ele>
        <time>2017-04-16T09:52:23Z</time>
      </trkpt>
      <trkpt lat="50.71009" lon="3.85086">
        <ele>34.74</ele>
        <time>2017-04-16T09:52:37Z</time>
      </trkpt>
      <trkpt lat="50.7098" lon="3.8508">
        <ele>36.67</ele>
        <time>2017-04-16T09:52:54Z</time>
      </trkpt>
      <trkpt lat="50.70969" lon="3.85081">
        <ele>35.23</ele>
        <time>2017-04-16T09:53:02Z</time>
      </trkpt>
      <trkpt lat="50.70957" lon="3.85082">
        <ele>36.67</ele>
        <time>2017-04-16T09:53:10Z</time>
      </trkpt>
      <trkpt lat="50.70954" lon="3.85082">
        <ele>34.74</ele>
        <time>2017-04-16T09:53:12Z</time>
      </trkpt>
      <trkpt lat="50.70945" lon="3.85082">
        <ele>35.71</ele>
        <time>2017-04-16T09:53:20Z</time>
      </trkpt>
      <trkpt lat="50.7094" lon="3.85083">
        <ele>32.82</ele>
        <time>2017-04-16T09:53:24Z</time>
      </trkpt>
      <trkpt lat="50.70934" lon="3.8508">
        <ele>36.67</ele>
        <time>2017-04-16T09:53:28Z</time>
      </trkpt>
      <trkpt lat="50.70932" lon="3.85078">
        <ele>37.63</ele>
        <time>2017-04-16T09:53:30Z</time>
      </trkpt>
      <trkpt lat="50.70923" lon="3.85067">
        <ele>35.71</ele>
        <time>2017-04-16T09:53:40Z</time>
      </trkpt>
      <trkpt lat="50.70907" lon="3.85049">
        <ele>36.67</ele>
        <time>2017-04-16T09:53:54Z</time>
      </trkpt>
      <trkpt lat="50.70905" lon="3.85046">
        <ele>39.07</ele>
        <time>2017-04-16T09:53:56Z</time>
      </trkpt>
      <trkpt lat="50.70898" lon="3.85037">
        <ele>37.15</ele>
        <time>2017-04-16T09:54:03Z</time>
      </trkpt>
      <trkpt lat="50.70892" lon="3.85027">
        <ele>38.59</ele>
        <time>2017-04-16T09:54:11Z</time>
      </trkpt>
      <trkpt lat="50.70879" lon="3.85017">
        <ele>36.67</ele>
        <time>2017-04-16T09:54:20Z</time>
      </trkpt>
      <trkpt lat="50.70873" lon="3.85013">
        <ele>39.07</ele>
        <time>2017-04-16T09:54:24Z</time>
      </trkpt>
      <trkpt lat="50.70864" lon="3.85007">
        <ele>39.07</ele>
        <time>2017-04-16T09:54:31Z</time>
      </trkpt>
      <trkpt lat="50.70861" lon="3.85006">
        <ele>37.63</ele>
        <time>2017-04-16T09:54:33Z</time>
      </trkpt>
      <trkpt lat="50.70858" lon="3.85005">
        <ele>39.07</ele>
        <time>2017-04-16T09:54:35Z</time>
      </trkpt>
      <trkpt lat="50.70841" lon="3.84995">
        <ele>38.11</ele>
        <time>2017-04-16T09:54:47Z</time>
      </trkpt>
      <trkpt lat="50.7084" lon="3.8499">
        <ele>40.99</ele>
        <time>2017-04-16T09:54:51Z</time>
      </trkpt>
      <trkpt lat="50.70838" lon="3.84987">
        <ele>40.51</ele>
        <time>2017-04-16T09:54:54Z</time>
      </trkpt>
      <trkpt lat="50.70826" lon="3.84986">
        <ele>38.59</ele>
        <time>2017-04-16T09:55:00Z</time>
      </trkpt>
      <trkpt lat="50.70821" lon="3.84987">
        <ele>41.47</ele>
        <time>2017-04-16T09:55:03Z</time>
      </trkpt>
      <trkpt lat="50.70816" lon="3.84988">
        <ele>40.03</ele>
        <time>2017-04-16T09:55:05Z</time>
      </trkpt>
      <trkpt lat="50.70811" lon="3.84988">
        <ele>38.11</ele>
        <time>2017-04-16T09:55:09Z</time>
      </trkpt>
      <trkpt lat="50.7081" lon="3.84988">
        <ele>41.47</ele>
        <time>2017-04-16T09:55:10Z</time>
      </trkpt>
      <trkpt lat="50.70809" lon="3.84987">
        <ele>41.47</ele>
        <time>2017-04-16T09:55:11Z</time>
      </trkpt>
      <trkpt lat="50.70807" lon="3.84985">
        <ele>40.03</ele>
        <time>2017-04-16T09:55:13Z</time>
      </trkpt>
      <trkpt lat="50.70797" lon="3.84981">
        <ele>41.47</ele>
        <time>2017-04-16T09:55:18Z</time>
      </trkpt>
      <trkpt lat="50.70786" lon="3.84982">
        <ele>41.47</ele>
        <time>2017-04-16T09:55:29Z</time>
      </trkpt>
      <trkpt lat="50.70783" lon="3.8498">
        <ele>41.47</ele>
        <time>2017-04-16T09:55:32Z</time>
      </trkpt>
      <trkpt lat="50.70782" lon="3.84979">
        <ele>41.47</ele>
        <time>2017-04-16T09:55:33Z</time>
      </trkpt>
      <trkpt lat="50.70771" lon="3.84973">
        <ele>42.92</ele>
        <time>2017-04-16T09:55:41Z</time>
      </trkpt>
      <trkpt lat="50.70767" lon="3.84971">
        <ele>39.55</ele>
        <time>2017-04-16T09:55:46Z</time>
      </trkpt>
      <trkpt lat="50.70765" lon="3.84971">
        <ele>40.99</ele>
        <time>2017-04-16T09:55:47Z</time>
      </trkpt>
      <trkpt lat="50.70763" lon="3.84971">
        <ele>41.95</ele>
        <time>2017-04-16T09:55:48Z</time>
      </trkpt>
      <trkpt lat="50.70762" lon="3.8497">
        <ele>41.95</ele>
        <time>2017-04-16T09:55:49Z</time>
      </trkpt>
      <trkpt lat="50.70734" lon="3.84965">
        <ele>38.59</ele>
        <time>2017-04-16T09:56:03Z</time>
      </trkpt>
      <trkpt lat="50.70729" lon="3.84964">
        <ele>41.47</ele>
        <time>2017-04-16T09:56:07Z</time>
      </trkpt>
      <trkpt lat="50.70701" lon="3.84963">
        <ele>40.51</ele>
        <time>2017-04-16T09:56:27Z</time>
      </trkpt>
      <trkpt lat="50.70687" lon="3.84965">
        <ele>37.63</ele>
        <time>2017-04-16T09:56:37Z</time>
      </trkpt>
      <trkpt lat="50.70685" lon="3.84966">
        <ele>41.47</ele>
        <time>2017-04-16T09:56:39Z</time>
      </trkpt>
      <trkpt lat="50.70684" lon="3.84967">
        <ele>41.47</ele>
        <time>2017-04-16T09:56:40Z</time>
      </trkpt>
      <trkpt lat="50.70683" lon="3.84968">
        <ele>39.55</ele>
        <time>2017-04-16T09:56:41Z</time>
      </trkpt>
      <trkpt lat="50.70682" lon="3.84969">
        <ele>39.55</ele>
        <time>2017-04-16T09:56:42Z</time>
      </trkpt>
      <trkpt lat="50.70679" lon="3.84971">
        <ele>41.47</ele>
        <time>2017-04-16T09:56:47Z</time>
      </trkpt>
      <trkpt lat="50.70678" lon="3.84973">
        <ele>39.55</ele>
        <time>2017-04-16T09:56:50Z</time>
      </trkpt>
      <trkpt lat="50.70671" lon="3.84972">
        <ele>39.07</ele>
        <time>2017-04-16T09:57:05Z</time>
      </trkpt>
      <trkpt lat="50.70664" lon="3.84975">
        <ele>39.55</ele>
        <time>2017-04-16T09:57:18Z</time>
      </trkpt>
      <trkpt lat="50.70663" lon="3.84976">
        <ele>40.03</ele>
        <time>2017-04-16T09:57:41Z</time>
      </trkpt>
      <trkpt lat="50.70662" lon="3.84976">
        <ele>40.03</ele>
        <time>2017-04-16T09:58:04Z</time>
      </trkpt>
      <trkpt lat="50.70661" lon="3.84973">
        <ele>40.03</ele>
        <time>2017-04-16T09:58:27Z</time>
      </trkpt>
      <trkpt lat="50.70664" lon="3.84972">
        <ele>40.03</ele>
        <time>2017-04-16T09:58:58Z</time>
      </trkpt>
      <trkpt lat="50.70664" lon="3.8497">
        <ele>38.59</ele>
        <time>2017-04-16T09:59:21Z</time>
      </trkpt>
      <trkpt lat="50.70665" lon="3.84968">
        <ele>40.03</ele>
        <time>2017-04-16T09:59:54Z</time>
      </trkpt>
      <trkpt lat="50.7066" lon="3.84973">
        <ele>40.03</ele>
        <time>2017-04-16T10:00:25Z</time>
      </trkpt>
      <trkpt lat="50.70654" lon="3.84974">
        <ele>40.03</ele>
        <time>2017-04-16T10:00:32Z</time>
      </trkpt>
      <trkpt lat="50.70652" lon="3.84972">
        <ele>38.11</ele>
        <time>2017-04-16T10:00:34Z</time>
      </trkpt>
      <trkpt lat="50.70646" lon="3.84968">
        <ele>39.07</ele>
        <time>2017-04-16T10:00:38Z</time>
      </trkpt>
      <trkpt lat="50.70633" lon="3.84966">
        <ele>38.11</ele>
        <time>2017-04-16T10:00:48Z</time>
      </trkpt>
      <trkpt lat="50.70631" lon="3.84966">
        <ele>38.11</ele>
        <time>2017-04-16T10:00:49Z</time>
      </trkpt>
      <trkpt lat="50.70624" lon="3.84966">
        <ele>36.67</ele>
        <time>2017-04-16T10:00:54Z</time>
      </trkpt>
      <trkpt lat="50.70612" lon="3.84968">
        <ele>38.11</ele>
        <time>2017-04-16T10:01:04Z</time>
      </trkpt>
      <trkpt lat="50.70611" lon="3.84968">
        <ele>38.11</ele>
        <time>2017-04-16T10:01:05Z</time>
      </trkpt>
      <trkpt lat="50.70608" lon="3.8497">
        <ele>36.67</ele>
        <time>2017-04-16T10:01:08Z</time>
      </trkpt>
      <trkpt lat="50.70601" lon="3.84973">
        <ele>38.59</ele>
        <time>2017-04-16T10:01:16Z</time>
      </trkpt>
      <trkpt lat="50.70598" lon="3.84974">
        <ele>36.67</ele>
        <time>2017-04-16T10:01:18Z</time>
      </trkpt>
      <trkpt lat="50.70584" lon="3.84979">
        <ele>34.74</ele>
        <time>2017-04-16T10:01:32Z</time>
      </trkpt>
      <trkpt lat="50.70582" lon="3.84979">
        <ele>37.63</ele>
        <time>2017-04-16T10:01:34Z</time>
      </trkpt>
      <trkpt lat="50.70579" lon="3.84978">
        <ele>36.19</ele>
        <time>2017-04-16T10:01:37Z</time>
      </trkpt>
      <trkpt lat="50.70573" lon="3.84979">
        <ele>34.74</ele>
        <time>2017-04-16T10:01:42Z</time>
      </trkpt>
      <trkpt lat="50.70569" lon="3.84979">
        <ele>37.15</ele>
        <time>2017-04-16T10:01:44Z</time>
      </trkpt>
      <trkpt lat="50.70566" lon="3.84981">
        <ele>35.23</ele>
        <time>2017-04-16T10:01:46Z</time>
      </trkpt>
      <trkpt lat="50.70554" lon="3.84993">
        <ele>34.74</ele>
        <time>2017-04-16T10:01:58Z</time>
      </trkpt>
      <trkpt lat="50.70554" lon="3.84995">
        <ele>38.11</ele>
        <time>2017-04-16T10:01:59Z</time>
      </trkpt>
      <trkpt lat="50.70554" lon="3.84997">
        <ele>38.11</ele>
        <time>2017-04-16T10:02:00Z</time>
      </trkpt>
      <trkpt lat="50.70556" lon="3.85008">
        <ele>34.26</ele>
        <time>2017-04-16T10:02:07Z</time>
      </trkpt>
      <trkpt lat="50.70557" lon="3.8501">
        <ele>37.15</ele>
        <time>2017-04-16T10:02:09Z</time>
      </trkpt>
      <trkpt lat="50.70557" lon="3.85011">
        <ele>37.15</ele>
        <time>2017-04-16T10:02:10Z</time>
      </trkpt>
      <trkpt lat="50.70559" lon="3.85018">
        <ele>34.74</ele>
        <time>2017-04-16T10:02:14Z</time>
      </trkpt>
      <trkpt lat="50.70562" lon="3.85023">
        <ele>37.63</ele>
        <time>2017-04-16T10:02:17Z</time>
      </trkpt>
      <trkpt lat="50.70563" lon="3.85028">
        <ele>35.23</ele>
        <time>2017-04-16T10:02:19Z</time>
      </trkpt>
      <trkpt lat="50.70564" lon="3.85033">
        <ele>38.11</ele>
        <time>2017-04-16T10:02:21Z</time>
      </trkpt>
      <trkpt lat="50.70565" lon="3.85037">
        <ele>36.19</ele>
        <time>2017-04-16T10:02:23Z</time>
      </trkpt>
      <trkpt lat="50.70567" lon="3.85045">
        <ele>35.71</ele>
        <time>2017-04-16T10:02:28Z</time>
      </trkpt>
      <trkpt lat="50.70568" lon="3.85049">
        <ele>39.07</ele>
        <time>2017-04-16T10:02:30Z</time>
      </trkpt>
      <trkpt lat="50.70571" lon="3.85066">
        <ele>37.15</ele>
        <time>2017-04-16T10:02:37Z</time>
      </trkpt>
      <trkpt lat="50.70572" lon="3.8507">
        <ele>39.55</ele>
        <time>2017-04-16T10:02:40Z</time>
      </trkpt>
      <trkpt lat="50.70577" lon="3.85082">
        <ele>40.03</ele>
        <time>2017-04-16T10:02:47Z</time>
      </trkpt>
      <trkpt lat="50.70578" lon="3.85091">
        <ele>38.11</ele>
        <time>2017-04-16T10:02:51Z</time>
      </trkpt>
      <trkpt lat="50.70584" lon="3.85105">
        <ele>40.03</ele>
        <time>2017-04-16T10:03:01Z</time>
      </trkpt>
      <trkpt lat="50.70592" lon="3.85111">
        <ele>41.47</ele>
        <time>2017-04-16T10:03:11Z</time>
      </trkpt>
      <trkpt lat="50.70603" lon="3.85113">
        <ele>40.99</ele>
        <time>2017-04-16T10:03:20Z</time>
      </trkpt>
      <trkpt lat="50.70613" lon="3.85117">
        <ele>41.47</ele>
        <time>2017-04-16T10:03:29Z</time>
      </trkpt>
      <trkpt lat="50.70619" lon="3.85126">
        <ele>42.44</ele>
        <time>2017-04-16T10:03:34Z</time>
      </trkpt>
      <trkpt lat="50.70624" lon="3.85136">
        <ele>40.03</ele>
        <time>2017-04-16T10:03:40Z</time>
      </trkpt>
      <trkpt lat="50.70628" lon="3.85147">
        <ele>40.99</ele>
        <time>2017-04-16T10:03:45Z</time>
      </trkpt>
      <trkpt lat="50.70629" lon="3.85159">
        <ele>42.44</ele>
        <time>2017-04-16T10:03:51Z</time>
      </trkpt>
      <trkpt lat="50.70629" lon="3.85162">
        <ele>41.47</ele>
        <time>2017-04-16T10:03:53Z</time>
      </trkpt>
      <trkpt lat="50.7063" lon="3.85172">
        <ele>43.4</ele>
        <time>2017-04-16T10:03:58Z</time>
      </trkpt>
      <trkpt lat="50.7063" lon="3.85178">
        <ele>41.47</ele>
        <time>2017-04-16T10:04:01Z</time>
      </trkpt>
      <trkpt lat="50.7063" lon="3.85188">
        <ele>40.03</ele>
        <time>2017-04-16T10:04:06Z</time>
      </trkpt>
      <trkpt lat="50.70631" lon="3.85192">
        <ele>42.44</ele>
        <time>2017-04-16T10:04:08Z</time>
      </trkpt>
      <trkpt lat="50.70631" lon="3.85198">
        <ele>40.99</ele>
        <time>2017-04-16T10:04:11Z</time>
      </trkpt>
      <trkpt lat="50.7063" lon="3.85202">
        <ele>42.44</ele>
        <time>2017-04-16T10:04:13Z</time>
      </trkpt>
      <trkpt lat="50.70631" lon="3.85211">
        <ele>40.99</ele>
        <time>2017-04-16T10:04:19Z</time>
      </trkpt>
      <trkpt lat="50.7063" lon="3.85219">
        <ele>42.92</ele>
        <time>2017-04-16T10:04:26Z</time>
      </trkpt>
      <trkpt lat="50.7063" lon="3.85227">
        <ele>41.47</ele>
        <time>2017-04-16T10:04:29Z</time>
      </trkpt>
      <trkpt lat="50.70631" lon="3.85241">
        <ele>43.4</ele>
        <time>2017-04-16T10:04:35Z</time>
      </trkpt>
      <trkpt lat="50.70631" lon="3.85246">
        <ele>41.47</ele>
        <time>2017-04-16T10:04:38Z</time>
      </trkpt>
      <trkpt lat="50.7063" lon="3.85254">
        <ele>39.55</ele>
        <time>2017-04-16T10:04:41Z</time>
      </trkpt>
      <trkpt lat="50.7063" lon="3.85256">
        <ele>42.92</ele>
        <time>2017-04-16T10:04:42Z</time>
      </trkpt>
      <trkpt lat="50.70629" lon="3.85258">
        <ele>42.92</ele>
        <time>2017-04-16T10:04:43Z</time>
      </trkpt>
      <trkpt lat="50.70629" lon="3.85262">
        <ele>41.47</ele>
        <time>2017-04-16T10:04:45Z</time>
      </trkpt>
      <trkpt lat="50.70629" lon="3.85283">
        <ele>42.92</ele>
        <time>2017-04-16T10:04:53Z</time>
      </trkpt>
      <trkpt lat="50.70626" lon="3.85289">
        <ele>42.44</ele>
        <time>2017-04-16T10:04:58Z</time>
      </trkpt>
      <trkpt lat="50.7062" lon="3.85297">
        <ele>43.4</ele>
        <time>2017-04-16T10:05:14Z</time>
      </trkpt>
      <trkpt lat="50.70619" lon="3.85299">
        <ele>40.99</ele>
        <time>2017-04-16T10:05:19Z</time>
      </trkpt>
      <trkpt lat="50.70613" lon="3.85304">
        <ele>40.99</ele>
        <time>2017-04-16T10:05:34Z</time>
      </trkpt>
      <trkpt lat="50.70612" lon="3.85304">
        <ele>43.4</ele>
        <time>2017-04-16T10:05:52Z</time>
      </trkpt>
      <trkpt lat="50.70618" lon="3.853">
        <ele>37.63</ele>
        <time>2017-04-16T10:06:02Z</time>
      </trkpt>
      <trkpt lat="50.70622" lon="3.85303">
        <ele>40.03</ele>
        <time>2017-04-16T10:06:06Z</time>
      </trkpt>
      <trkpt lat="50.70624" lon="3.85314">
        <ele>40.03</ele>
        <time>2017-04-16T10:06:12Z</time>
      </trkpt>
      <trkpt lat="50.70624" lon="3.85316">
        <ele>40.03</ele>
        <time>2017-04-16T10:06:13Z</time>
      </trkpt>
      <trkpt lat="50.70624" lon="3.85317">
        <ele>43.88</ele>
        <time>2017-04-16T10:06:14Z</time>
      </trkpt>
      <trkpt lat="50.70624" lon="3.8532">
        <ele>43.88</ele>
        <time>2017-04-16T10:06:15Z</time>
      </trkpt>
      <trkpt lat="50.70624" lon="3.85324">
        <ele>41.95</ele>
        <time>2017-04-16T10:06:17Z</time>
      </trkpt>
      <trkpt lat="50.70623" lon="3.8533">
        <ele>43.4</ele>
        <time>2017-04-16T10:06:21Z</time>
      </trkpt>
      <trkpt lat="50.70623" lon="3.85334">
        <ele>41.95</ele>
        <time>2017-04-16T10:06:23Z</time>
      </trkpt>
      <trkpt lat="50.70622" lon="3.85338">
        <ele>39.55</ele>
        <time>2017-04-16T10:06:25Z</time>
      </trkpt>
      <trkpt lat="50.70621" lon="3.8534">
        <ele>43.4</ele>
        <time>2017-04-16T10:06:26Z</time>
      </trkpt>
      <trkpt lat="50.70621" lon="3.85342">
        <ele>43.4</ele>
        <time>2017-04-16T10:06:27Z</time>
      </trkpt>
      <trkpt lat="50.7062" lon="3.85358">
        <ele>45.8</ele>
        <time>2017-04-16T10:06:35Z</time>
      </trkpt>
      <trkpt lat="50.70618" lon="3.85364">
        <ele>43.88</ele>
        <time>2017-04-16T10:06:38Z</time>
      </trkpt>
      <trkpt lat="50.70617" lon="3.85369">
        <ele>45.32</ele>
        <time>2017-04-16T10:06:40Z</time>
      </trkpt>
      <trkpt lat="50.70617" lon="3.85371">
        <ele>41.95</ele>
        <time>2017-04-16T10:06:41Z</time>
      </trkpt>
      <trkpt lat="50.70616" lon="3.85372">
        <ele>41.95</ele>
        <time>2017-04-16T10:06:42Z</time>
      </trkpt>
      <trkpt lat="50.70615" lon="3.85377">
        <ele>45.32</ele>
        <time>2017-04-16T10:06:45Z</time>
      </trkpt>
      <trkpt lat="50.70608" lon="3.85391">
        <ele>44.36</ele>
        <time>2017-04-16T10:06:52Z</time>
      </trkpt>
      <trkpt lat="50.70605" lon="3.85397">
        <ele>40.51</ele>
        <time>2017-04-16T10:06:57Z</time>
      </trkpt>
      <trkpt lat="50.70604" lon="3.85401">
        <ele>44.36</ele>
        <time>2017-04-16T10:06:59Z</time>
      </trkpt>
      <trkpt lat="50.70604" lon="3.85403">
        <ele>44.36</ele>
        <time>2017-04-16T10:07:00Z</time>
      </trkpt>
      <trkpt lat="50.70603" lon="3.85408">
        <ele>42.92</ele>
        <time>2017-04-16T10:07:02Z</time>
      </trkpt>
      <trkpt lat="50.70601" lon="3.85412">
        <ele>40.99</ele>
        <time>2017-04-16T10:07:05Z</time>
      </trkpt>
      <trkpt lat="50.706" lon="3.85414">
        <ele>42.44</ele>
        <time>2017-04-16T10:07:06Z</time>
      </trkpt>
      <trkpt lat="50.706" lon="3.85417">
        <ele>43.88</ele>
        <time>2017-04-16T10:07:08Z</time>
      </trkpt>
      <trkpt lat="50.70597" lon="3.85428">
        <ele>41.47</ele>
        <time>2017-04-16T10:07:13Z</time>
      </trkpt>
      <trkpt lat="50.70596" lon="3.85434">
        <ele>43.4</ele>
        <time>2017-04-16T10:07:16Z</time>
      </trkpt>
      <trkpt lat="50.70596" lon="3.85437">
        <ele>42.44</ele>
        <time>2017-04-16T10:07:18Z</time>
      </trkpt>
      <trkpt lat="50.70593" lon="3.85449">
        <ele>44.84</ele>
        <time>2017-04-16T10:07:26Z</time>
      </trkpt>
      <trkpt lat="50.70593" lon="3.85456">
        <ele>43.4</ele>
        <time>2017-04-16T10:07:29Z</time>
      </trkpt>
      <trkpt lat="50.70592" lon="3.85471">
        <ele>44.84</ele>
        <time>2017-04-16T10:07:37Z</time>
      </trkpt>
      <trkpt lat="50.70591" lon="3.85476">
        <ele>43.4</ele>
        <time>2017-04-16T10:07:40Z</time>
      </trkpt>
      <trkpt lat="50.7059" lon="3.85479">
        <ele>44.84</ele>
        <time>2017-04-16T10:07:42Z</time>
      </trkpt>
      <trkpt lat="50.70587" lon="3.85491">
        <ele>45.8</ele>
        <time>2017-04-16T10:07:48Z</time>
      </trkpt>
      <trkpt lat="50.70585" lon="3.855">
        <ele>44.36</ele>
        <time>2017-04-16T10:07:52Z</time>
      </trkpt>
      <trkpt lat="50.70585" lon="3.85504">
        <ele>46.28</ele>
        <time>2017-04-16T10:07:54Z</time>
      </trkpt>
      <trkpt lat="50.70583" lon="3.85517">
        <ele>46.76</ele>
        <time>2017-04-16T10:08:01Z</time>
      </trkpt>
      <trkpt lat="50.70582" lon="3.85523">
        <ele>44.84</ele>
        <time>2017-04-16T10:08:04Z</time>
      </trkpt>
      <trkpt lat="50.70582" lon="3.85527">
        <ele>46.28</ele>
        <time>2017-04-16T10:08:06Z</time>
      </trkpt>
      <trkpt lat="50.70582" lon="3.85532">
        <ele>44.36</ele>
        <time>2017-04-16T10:08:08Z</time>
      </trkpt>
      <trkpt lat="50.70582" lon="3.85537">
        <ele>46.76</ele>
        <time>2017-04-16T10:08:10Z</time>
      </trkpt>
      <trkpt lat="50.70575" lon="3.85561">
        <ele>47.72</ele>
        <time>2017-04-16T10:08:22Z</time>
      </trkpt>
      <trkpt lat="50.70574" lon="3.85563">
        <ele>46.76</ele>
        <time>2017-04-16T10:08:23Z</time>
      </trkpt>
      <trkpt lat="50.70567" lon="3.85582">
        <ele>48.2</ele>
        <time>2017-04-16T10:08:33Z</time>
      </trkpt>
      <trkpt lat="50.70565" lon="3.85585">
        <ele>46.76</ele>
        <time>2017-04-16T10:08:35Z</time>
      </trkpt>
      <trkpt lat="50.70554" lon="3.85603">
        <ele>48.68</ele>
        <time>2017-04-16T10:08:48Z</time>
      </trkpt>
      <trkpt lat="50.70552" lon="3.85606">
        <ele>45.8</ele>
        <time>2017-04-16T10:08:50Z</time>
      </trkpt>
      <trkpt lat="50.70551" lon="3.85608">
        <ele>45.8</ele>
        <time>2017-04-16T10:08:51Z</time>
      </trkpt>
      <trkpt lat="50.70549" lon="3.85612">
        <ele>47.24</ele>
        <time>2017-04-16T10:08:53Z</time>
      </trkpt>
      <trkpt lat="50.70543" lon="3.85621">
        <ele>49.16</ele>
        <time>2017-04-16T10:08:58Z</time>
      </trkpt>
      <trkpt lat="50.7054" lon="3.85625">
        <ele>46.76</ele>
        <time>2017-04-16T10:09:01Z</time>
      </trkpt>
      <trkpt lat="50.70534" lon="3.85635">
        <ele>48.68</ele>
        <time>2017-04-16T10:09:10Z</time>
      </trkpt>
      <trkpt lat="50.70531" lon="3.85641">
        <ele>47.24</ele>
        <time>2017-04-16T10:09:13Z</time>
      </trkpt>
      <trkpt lat="50.70521" lon="3.85672">
        <ele>48.68</ele>
        <time>2017-04-16T10:09:31Z</time>
      </trkpt>
      <trkpt lat="50.70519" lon="3.85679">
        <ele>46.76</ele>
        <time>2017-04-16T10:09:35Z</time>
      </trkpt>
      <trkpt lat="50.70519" lon="3.85684">
        <ele>49.65</ele>
        <time>2017-04-16T10:09:38Z</time>
      </trkpt>
      <trkpt lat="50.70515" lon="3.85695">
        <ele>45.8</ele>
        <time>2017-04-16T10:09:45Z</time>
      </trkpt>
      <trkpt lat="50.70513" lon="3.85699">
        <ele>49.65</ele>
        <time>2017-04-16T10:09:47Z</time>
      </trkpt>
      <trkpt lat="50.70513" lon="3.85702">
        <ele>49.65</ele>
        <time>2017-04-16T10:09:48Z</time>
      </trkpt>
      <trkpt lat="50.7051" lon="3.85708">
        <ele>48.2</ele>
        <time>2017-04-16T10:09:51Z</time>
      </trkpt>
      <trkpt lat="50.70506" lon="3.85719">
        <ele>50.13</ele>
        <time>2017-04-16T10:09:59Z</time>
      </trkpt>
      <trkpt lat="50.70504" lon="3.85724">
        <ele>48.68</ele>
        <time>2017-04-16T10:10:02Z</time>
      </trkpt>
      <trkpt lat="50.70493" lon="3.85743">
        <ele>50.61</ele>
        <time>2017-04-16T10:10:14Z</time>
      </trkpt>
      <trkpt lat="50.70491" lon="3.85747">
        <ele>48.2</ele>
        <time>2017-04-16T10:10:17Z</time>
      </trkpt>
      <trkpt lat="50.70486" lon="3.85755">
        <ele>48.68</ele>
        <time>2017-04-16T10:10:22Z</time>
      </trkpt>
      <trkpt lat="50.70483" lon="3.85757">
        <ele>50.13</ele>
        <time>2017-04-16T10:10:24Z</time>
      </trkpt>
      <trkpt lat="50.70477" lon="3.85765">
        <ele>48.2</ele>
        <time>2017-04-16T10:10:29Z</time>
      </trkpt>
      <trkpt lat="50.70475" lon="3.85767">
        <ele>51.57</ele>
        <time>2017-04-16T10:10:31Z</time>
      </trkpt>
      <trkpt lat="50.70474" lon="3.85768">
        <ele>51.09</ele>
        <time>2017-04-16T10:10:32Z</time>
      </trkpt>
      <trkpt lat="50.7047" lon="3.85776">
        <ele>47.72</ele>
        <time>2017-04-16T10:10:38Z</time>
      </trkpt>
      <trkpt lat="50.70467" lon="3.85779">
        <ele>51.57</ele>
        <time>2017-04-16T10:10:40Z</time>
      </trkpt>
      <trkpt lat="50.70467" lon="3.85781">
        <ele>51.57</ele>
        <time>2017-04-16T10:10:41Z</time>
      </trkpt>
      <trkpt lat="50.70464" lon="3.85784">
        <ele>49.65</ele>
        <time>2017-04-16T10:10:43Z</time>
      </trkpt>
      <trkpt lat="50.70461" lon="3.85788">
        <ele>47.72</ele>
        <time>2017-04-16T10:10:47Z</time>
      </trkpt>
      <trkpt lat="50.7046" lon="3.85789">
        <ele>51.09</ele>
        <time>2017-04-16T10:10:48Z</time>
      </trkpt>
      <trkpt lat="50.70459" lon="3.85791">
        <ele>50.61</ele>
        <time>2017-04-16T10:10:49Z</time>
      </trkpt>
      <trkpt lat="50.70456" lon="3.85797">
        <ele>48.68</ele>
        <time>2017-04-16T10:10:53Z</time>
      </trkpt>
      <trkpt lat="50.70453" lon="3.858">
        <ele>50.13</ele>
        <time>2017-04-16T10:10:55Z</time>
      </trkpt>
      <trkpt lat="50.70446" lon="3.85811">
        <ele>50.61</ele>
        <time>2017-04-16T10:11:02Z</time>
      </trkpt>
      <trkpt lat="50.70445" lon="3.85816">
        <ele>48.68</ele>
        <time>2017-04-16T10:11:05Z</time>
      </trkpt>
      <trkpt lat="50.70443" lon="3.85818">
        <ele>48.2</ele>
        <time>2017-04-16T10:11:07Z</time>
      </trkpt>
      <trkpt lat="50.7044" lon="3.85823">
        <ele>50.61</ele>
        <time>2017-04-16T10:11:11Z</time>
      </trkpt>
      <trkpt lat="50.70437" lon="3.85828">
        <ele>48.68</ele>
        <time>2017-04-16T10:11:14Z</time>
      </trkpt>
      <trkpt lat="50.70425" lon="3.8584">
        <ele>50.13</ele>
        <time>2017-04-16T10:11:23Z</time>
      </trkpt>
      <trkpt lat="50.70422" lon="3.85843">
        <ele>48.68</ele>
        <time>2017-04-16T10:11:26Z</time>
      </trkpt>
      <trkpt lat="50.70412" lon="3.85848">
        <ele>48.2</ele>
        <time>2017-04-16T10:11:37Z</time>
      </trkpt>
      <trkpt lat="50.70392" lon="3.85832">
        <ele>48.68</ele>
        <time>2017-04-16T10:11:51Z</time>
      </trkpt>
      <trkpt lat="50.70387" lon="3.85828">
        <ele>47.24</ele>
        <time>2017-04-16T10:11:54Z</time>
      </trkpt>
      <trkpt lat="50.70382" lon="3.85824">
        <ele>48.2</ele>
        <time>2017-04-16T10:11:58Z</time>
      </trkpt>
      <trkpt lat="50.70377" lon="3.8582">
        <ele>46.76</ele>
        <time>2017-04-16T10:12:03Z</time>
      </trkpt>
      <trkpt lat="50.70375" lon="3.85817">
        <ele>48.2</ele>
        <time>2017-04-16T10:12:05Z</time>
      </trkpt>
      <trkpt lat="50.70372" lon="3.8581">
        <ele>46.28</ele>
        <time>2017-04-16T10:12:10Z</time>
      </trkpt>
      <trkpt lat="50.70364" lon="3.85788">
        <ele>47.72</ele>
        <time>2017-04-16T10:12:20Z</time>
      </trkpt>
      <trkpt lat="50.70363" lon="3.85784">
        <ele>46.28</ele>
        <time>2017-04-16T10:12:22Z</time>
      </trkpt>
      <trkpt lat="50.7035" lon="3.85757">
        <ele>43.88</ele>
        <time>2017-04-16T10:12:36Z</time>
      </trkpt>
      <trkpt lat="50.70344" lon="3.85751">
        <ele>45.32</ele>
        <time>2017-04-16T10:12:40Z</time>
      </trkpt>
      <trkpt lat="50.70335" lon="3.85738">
        <ele>43.4</ele>
        <time>2017-04-16T10:12:49Z</time>
      </trkpt>
      <trkpt lat="50.7032" lon="3.85715">
        <ele>41.95</ele>
        <time>2017-04-16T10:13:05Z</time>
      </trkpt>
      <trkpt lat="50.70314" lon="3.85705">
        <ele>43.4</ele>
        <time>2017-04-16T10:13:11Z</time>
      </trkpt>
      <trkpt lat="50.70308" lon="3.85698">
        <ele>41.47</ele>
        <time>2017-04-16T10:13:17Z</time>
      </trkpt>
      <trkpt lat="50.70306" lon="3.85695">
        <ele>43.4</ele>
        <time>2017-04-16T10:13:19Z</time>
      </trkpt>
      <trkpt lat="50.70304" lon="3.85689">
        <ele>41.95</ele>
        <time>2017-04-16T10:13:22Z</time>
      </trkpt>
      <trkpt lat="50.70298" lon="3.85679">
        <ele>42.92</ele>
        <time>2017-04-16T10:13:28Z</time>
      </trkpt>
      <trkpt lat="50.70286" lon="3.85663">
        <ele>39.55</ele>
        <time>2017-04-16T10:13:40Z</time>
      </trkpt>
      <trkpt lat="50.70286" lon="3.85662">
        <ele>39.55</ele>
        <time>2017-04-16T10:13:41Z</time>
      </trkpt>
      <trkpt lat="50.70284" lon="3.8566">
        <ele>42.92</ele>
        <time>2017-04-16T10:13:43Z</time>
      </trkpt>
      <trkpt lat="50.70283" lon="3.85658">
        <ele>42.92</ele>
        <time>2017-04-16T10:13:44Z</time>
      </trkpt>
      <trkpt lat="50.70278" lon="3.85639">
        <ele>40.99</ele>
        <time>2017-04-16T10:13:54Z</time>
      </trkpt>
      <trkpt lat="50.70275" lon="3.85631">
        <ele>41.95</ele>
        <time>2017-04-16T10:13:58Z</time>
      </trkpt>
      <trkpt lat="50.70274" lon="3.85618">
        <ele>41.95</ele>
        <time>2017-04-16T10:14:05Z</time>
      </trkpt>
      <trkpt lat="50.70275" lon="3.85604">
        <ele>40.51</ele>
        <time>2017-04-16T10:14:11Z</time>
      </trkpt>
      <trkpt lat="50.70279" lon="3.85587">
        <ele>41.47</ele>
        <time>2017-04-16T10:14:20Z</time>
      </trkpt>
      <trkpt lat="50.70282" lon="3.85576">
        <ele>39.55</ele>
        <time>2017-04-16T10:14:25Z</time>
      </trkpt>
      <trkpt lat="50.70283" lon="3.85572">
        <ele>40.99</ele>
        <time>2017-04-16T10:14:27Z</time>
      </trkpt>
      <trkpt lat="50.70283" lon="3.85568">
        <ele>39.07</ele>
        <time>2017-04-16T10:14:30Z</time>
      </trkpt>
      <trkpt lat="50.70282" lon="3.85556">
        <ele>40.03</ele>
        <time>2017-04-16T10:14:37Z</time>
      </trkpt>
      <trkpt lat="50.7028" lon="3.85543">
        <ele>39.07</ele>
        <time>2017-04-16T10:14:44Z</time>
      </trkpt>
      <trkpt lat="50.70275" lon="3.85529">
        <ele>40.51</ele>
        <time>2017-04-16T10:14:50Z</time>
      </trkpt>
      <trkpt lat="50.70274" lon="3.85523">
        <ele>39.07</ele>
        <time>2017-04-16T10:14:53Z</time>
      </trkpt>
      <trkpt lat="50.70267" lon="3.85502">
        <ele>37.15</ele>
        <time>2017-04-16T10:15:03Z</time>
      </trkpt>
      <trkpt lat="50.70255" lon="3.8547">
        <ele>37.15</ele>
        <time>2017-04-16T10:15:21Z</time>
      </trkpt>
      <trkpt lat="50.70254" lon="3.85464">
        <ele>38.11</ele>
        <time>2017-04-16T10:15:25Z</time>
      </trkpt>
      <trkpt lat="50.70252" lon="3.85455">
        <ele>36.19</ele>
        <time>2017-04-16T10:15:30Z</time>
      </trkpt>
      <trkpt lat="50.70254" lon="3.85401">
        <ele>36.19</ele>
        <time>2017-04-16T10:15:52Z</time>
      </trkpt>
      <trkpt lat="50.70256" lon="3.85391">
        <ele>38.11</ele>
        <time>2017-04-16T10:15:56Z</time>
      </trkpt>
      <trkpt lat="50.70259" lon="3.85384">
        <ele>36.19</ele>
        <time>2017-04-16T10:16:00Z</time>
      </trkpt>
      <trkpt lat="50.7026" lon="3.85379">
        <ele>38.11</ele>
        <time>2017-04-16T10:16:03Z</time>
      </trkpt>
      <trkpt lat="50.70261" lon="3.85374">
        <ele>35.23</ele>
        <time>2017-04-16T10:16:07Z</time>
      </trkpt>
      <trkpt lat="50.70262" lon="3.85369">
        <ele>38.11</ele>
        <time>2017-04-16T10:16:10Z</time>
      </trkpt>
      <trkpt lat="50.70264" lon="3.85363">
        <ele>36.19</ele>
        <time>2017-04-16T10:16:13Z</time>
      </trkpt>
      <trkpt lat="50.70265" lon="3.85358">
        <ele>37.63</ele>
        <time>2017-04-16T10:16:15Z</time>
      </trkpt>
      <trkpt lat="50.70271" lon="3.85343">
        <ele>38.11</ele>
        <time>2017-04-16T10:16:22Z</time>
      </trkpt>
      <trkpt lat="50.70275" lon="3.85334">
        <ele>36.67</ele>
        <time>2017-04-16T10:16:26Z</time>
      </trkpt>
      <trkpt lat="50.70279" lon="3.85321">
        <ele>37.15</ele>
        <time>2017-04-16T10:16:35Z</time>
      </trkpt>
      <trkpt lat="50.70279" lon="3.85318">
        <ele>38.59</ele>
        <time>2017-04-16T10:16:37Z</time>
      </trkpt>
      <trkpt lat="50.7028" lon="3.85314">
        <ele>36.67</ele>
        <time>2017-04-16T10:16:39Z</time>
      </trkpt>
      <trkpt lat="50.70282" lon="3.85293">
        <ele>34.74</ele>
        <time>2017-04-16T10:16:48Z</time>
      </trkpt>
      <trkpt lat="50.70281" lon="3.85287">
        <ele>37.15</ele>
        <time>2017-04-16T10:16:51Z</time>
      </trkpt>
      <trkpt lat="50.70281" lon="3.8528">
        <ele>35.71</ele>
        <time>2017-04-16T10:16:54Z</time>
      </trkpt>
      <trkpt lat="50.7028" lon="3.85274">
        <ele>34.26</ele>
        <time>2017-04-16T10:16:58Z</time>
      </trkpt>
      <trkpt lat="50.70278" lon="3.85268">
        <ele>34.74</ele>
        <time>2017-04-16T10:17:02Z</time>
      </trkpt>
      <trkpt lat="50.70275" lon="3.8526">
        <ele>34.26</ele>
        <time>2017-04-16T10:17:07Z</time>
      </trkpt>
      <trkpt lat="50.70269" lon="3.85247">
        <ele>31.86</ele>
        <time>2017-04-16T10:17:13Z</time>
      </trkpt>
      <trkpt lat="50.70266" lon="3.85242">
        <ele>34.26</ele>
        <time>2017-04-16T10:17:16Z</time>
      </trkpt>
      <trkpt lat="50.70265" lon="3.8524">
        <ele>35.23</ele>
        <time>2017-04-16T10:17:17Z</time>
      </trkpt>
      <trkpt lat="50.70256" lon="3.85227">
        <ele>34.26</ele>
        <time>2017-04-16T10:17:25Z</time>
      </trkpt>
      <trkpt lat="50.70252" lon="3.85221">
        <ele>31.86</ele>
        <time>2017-04-16T10:17:29Z</time>
      </trkpt>
      <trkpt lat="50.70248" lon="3.85217">
        <ele>34.26</ele>
        <time>2017-04-16T10:17:33Z</time>
      </trkpt>
      <trkpt lat="50.70244" lon="3.85213">
        <ele>33.3</ele>
        <time>2017-04-16T10:17:37Z</time>
      </trkpt>
      <trkpt lat="50.70238" lon="3.85204">
        <ele>33.78</ele>
        <time>2017-04-16T10:17:44Z</time>
      </trkpt>
      <trkpt lat="50.70233" lon="3.85197">
        <ele>32.34</ele>
        <time>2017-04-16T10:17:48Z</time>
      </trkpt>
      <trkpt lat="50.70231" lon="3.85193">
        <ele>33.3</ele>
        <time>2017-04-16T10:17:50Z</time>
      </trkpt>
      <trkpt lat="50.70224" lon="3.85184">
        <ele>30.9</ele>
        <time>2017-04-16T10:17:56Z</time>
      </trkpt>
      <trkpt lat="50.70222" lon="3.85183">
        <ele>33.78</ele>
        <time>2017-04-16T10:17:57Z</time>
      </trkpt>
      <trkpt lat="50.70221" lon="3.85182">
        <ele>32.82</ele>
        <time>2017-04-16T10:17:58Z</time>
      </trkpt>
      <trkpt lat="50.70211" lon="3.85169">
        <ele>30.9</ele>
        <time>2017-04-16T10:18:10Z</time>
      </trkpt>
      <trkpt lat="50.7021" lon="3.85168">
        <ele>34.26</ele>
        <time>2017-04-16T10:18:11Z</time>
      </trkpt>
      <trkpt lat="50.70209" lon="3.85166">
        <ele>34.26</ele>
        <time>2017-04-16T10:18:12Z</time>
      </trkpt>
      <trkpt lat="50.70206" lon="3.85161">
        <ele>30.9</ele>
        <time>2017-04-16T10:18:15Z</time>
      </trkpt>
      <trkpt lat="50.70198" lon="3.85149">
        <ele>29.94</ele>
        <time>2017-04-16T10:18:22Z</time>
      </trkpt>
      <trkpt lat="50.70196" lon="3.85147">
        <ele>31.38</ele>
        <time>2017-04-16T10:18:24Z</time>
      </trkpt>
      <trkpt lat="50.70189" lon="3.85141">
        <ele>31.86</ele>
        <time>2017-04-16T10:18:32Z</time>
      </trkpt>
      <trkpt lat="50.70187" lon="3.85141">
        <ele>28.98</ele>
        <time>2017-04-16T10:18:34Z</time>
      </trkpt>
      <trkpt lat="50.70185" lon="3.85138">
        <ele>31.86</ele>
        <time>2017-04-16T10:18:36Z</time>
      </trkpt>
      <trkpt lat="50.70184" lon="3.85137">
        <ele>31.86</ele>
        <time>2017-04-16T10:18:37Z</time>
      </trkpt>
      <trkpt lat="50.70178" lon="3.85129">
        <ele>29.46</ele>
        <time>2017-04-16T10:18:42Z</time>
      </trkpt>
      <trkpt lat="50.70168" lon="3.85116">
        <ele>31.38</ele>
        <time>2017-04-16T10:18:51Z</time>
      </trkpt>
      <trkpt lat="50.70165" lon="3.85114">
        <ele>29.94</ele>
        <time>2017-04-16T10:18:54Z</time>
      </trkpt>
      <trkpt lat="50.70155" lon="3.85106">
        <ele>28.5</ele>
        <time>2017-04-16T10:19:03Z</time>
      </trkpt>
      <trkpt lat="50.70153" lon="3.85105">
        <ele>31.38</ele>
        <time>2017-04-16T10:19:05Z</time>
      </trkpt>
      <trkpt lat="50.70152" lon="3.85104">
        <ele>31.38</ele>
        <time>2017-04-16T10:19:06Z</time>
      </trkpt>
      <trkpt lat="50.7015" lon="3.85103">
        <ele>29.94</ele>
        <time>2017-04-16T10:19:08Z</time>
      </trkpt>
      <trkpt lat="50.70129" lon="3.85086">
        <ele>29.46</ele>
        <time>2017-04-16T10:19:24Z</time>
      </trkpt>
      <trkpt lat="50.70103" lon="3.85066">
        <ele>28.98</ele>
        <time>2017-04-16T10:19:43Z</time>
      </trkpt>
      <trkpt lat="50.70091" lon="3.85048">
        <ele>29.94</ele>
        <time>2017-04-16T10:19:57Z</time>
      </trkpt>
      <trkpt lat="50.70079" lon="3.85025">
        <ele>28.5</ele>
        <time>2017-04-16T10:20:10Z</time>
      </trkpt>
      <trkpt lat="50.7007" lon="3.85011">
        <ele>27.05</ele>
        <time>2017-04-16T10:20:19Z</time>
      </trkpt>
      <trkpt lat="50.70053" lon="3.84981">
        <ele>26.09</ele>
        <time>2017-04-16T10:20:39Z</time>
      </trkpt>
      <trkpt lat="50.70041" lon="3.84964">
        <ele>27.05</ele>
        <time>2017-04-16T10:20:51Z</time>
      </trkpt>
      <trkpt lat="50.70039" lon="3.8496">
        <ele>25.61</ele>
        <time>2017-04-16T10:20:54Z</time>
      </trkpt>
      <trkpt lat="50.70036" lon="3.84954">
        <ele>27.05</ele>
        <time>2017-04-16T10:20:58Z</time>
      </trkpt>
      <trkpt lat="50.70029" lon="3.84947">
        <ele>25.13</ele>
        <time>2017-04-16T10:21:04Z</time>
      </trkpt>
      <trkpt lat="50.70012" lon="3.84917">
        <ele>26.57</ele>
        <time>2017-04-16T10:21:21Z</time>
      </trkpt>
      <trkpt lat="50.7001" lon="3.84914">
        <ele>25.13</ele>
        <time>2017-04-16T10:21:23Z</time>
      </trkpt>
      <trkpt lat="50.70007" lon="3.84904">
        <ele>26.09</ele>
        <time>2017-04-16T10:21:29Z</time>
      </trkpt>
      <trkpt lat="50.70003" lon="3.84896">
        <ele>24.65</ele>
        <time>2017-04-16T10:21:34Z</time>
      </trkpt>
      <trkpt lat="50.70001" lon="3.84892">
        <ele>26.09</ele>
        <time>2017-04-16T10:21:36Z</time>
      </trkpt>
      <trkpt lat="50.69999" lon="3.84888">
        <ele>23.69</ele>
        <time>2017-04-16T10:21:39Z</time>
      </trkpt>
      <trkpt lat="50.69982" lon="3.84897">
        <ele>23.69</ele>
        <time>2017-04-16T10:21:57Z</time>
      </trkpt>
      <trkpt lat="50.69977" lon="3.84895">
        <ele>25.61</ele>
        <time>2017-04-16T10:22:14Z</time>
      </trkpt>
      <trkpt lat="50.69973" lon="3.84892">
        <ele>23.21</ele>
        <time>2017-04-16T10:22:21Z</time>
      </trkpt>
      <trkpt lat="50.69973" lon="3.84891">
        <ele>24.65</ele>
        <time>2017-04-16T10:22:22Z</time>
      </trkpt>
      <trkpt lat="50.69967" lon="3.8488">
        <ele>25.13</ele>
        <time>2017-04-16T10:22:28Z</time>
      </trkpt>
      <trkpt lat="50.69965" lon="3.84871">
        <ele>23.21</ele>
        <time>2017-04-16T10:22:33Z</time>
      </trkpt>
      <trkpt lat="50.6996" lon="3.84862">
        <ele>24.17</ele>
        <time>2017-04-16T10:22:40Z</time>
      </trkpt>
      <trkpt lat="50.69956" lon="3.84849">
        <ele>24.65</ele>
        <time>2017-04-16T10:22:57Z</time>
      </trkpt>
      <trkpt lat="50.69959" lon="3.84846">
        <ele>24.65</ele>
        <time>2017-04-16T10:23:28Z</time>
      </trkpt>
      <trkpt lat="50.69958" lon="3.8485">
        <ele>25.13</ele>
        <time>2017-04-16T10:23:49Z</time>
      </trkpt>
      <trkpt lat="50.69959" lon="3.84849">
        <ele>22.25</ele>
        <time>2017-04-16T10:23:56Z</time>
      </trkpt>
      <trkpt lat="50.69959" lon="3.84848">
        <ele>25.61</ele>
        <time>2017-04-16T10:23:57Z</time>
      </trkpt>
      <trkpt lat="50.6996" lon="3.84849">
        <ele>24.17</ele>
        <time>2017-04-16T10:24:00Z</time>
      </trkpt>
      <trkpt lat="50.69963" lon="3.84846">
        <ele>24.17</ele>
        <time>2017-04-16T10:24:20Z</time>
      </trkpt>
      <trkpt lat="50.69966" lon="3.84851">
        <ele>24.65</ele>
        <time>2017-04-16T10:24:50Z</time>
      </trkpt>
      <trkpt lat="50.69961" lon="3.84847">
        <ele>24.65</ele>
        <time>2017-04-16T10:25:19Z</time>
      </trkpt>
      <trkpt lat="50.69961" lon="3.84852">
        <ele>23.69</ele>
        <time>2017-04-16T10:25:55Z</time>
      </trkpt>
      <trkpt lat="50.6996" lon="3.84848">
        <ele>25.13</ele>
        <time>2017-04-16T10:25:59Z</time>
      </trkpt>
      <trkpt lat="50.69957" lon="3.84843">
        <ele>23.69</ele>
        <time>2017-04-16T10:26:08Z</time>
      </trkpt>
      <trkpt lat="50.69957" lon="3.84836">
        <ele>23.69</ele>
        <time>2017-04-16T10:26:39Z</time>
      </trkpt>
      <trkpt lat="50.69963" lon="3.84847">
        <ele>25.13</ele>
        <time>2017-04-16T10:27:12Z</time>
      </trkpt>
      <trkpt lat="50.69963" lon="3.84843">
        <ele>24.17</ele>
        <time>2017-04-16T10:27:45Z</time>
      </trkpt>
      <trkpt lat="50.69964" lon="3.84848">
        <ele>23.21</ele>
        <time>2017-04-16T10:28:18Z</time>
      </trkpt>
      <trkpt lat="50.69962" lon="3.84844">
        <ele>24.65</ele>
        <time>2017-04-16T10:28:32Z</time>
      </trkpt>
      <trkpt lat="50.69961" lon="3.84846">
        <ele>23.69</ele>
        <time>2017-04-16T10:28:53Z</time>
      </trkpt>
      <trkpt lat="50.69968" lon="3.84837">
        <ele>23.69</ele>
        <time>2017-04-16T10:29:22Z</time>
      </trkpt>
      <trkpt lat="50.69966" lon="3.84842">
        <ele>24.17</ele>
        <time>2017-04-16T10:29:49Z</time>
      </trkpt>
      <trkpt lat="50.69966" lon="3.84838">
        <ele>24.17</ele>
        <time>2017-04-16T10:30:18Z</time>
      </trkpt>
      <trkpt lat="50.69964" lon="3.84838">
        <ele>25.61</ele>
        <time>2017-04-16T10:30:22Z</time>
      </trkpt>
      <trkpt lat="50.69963" lon="3.84838">
        <ele>24.65</ele>
        <time>2017-04-16T10:30:28Z</time>
      </trkpt>
      <trkpt lat="50.6996" lon="3.84846">
        <ele>25.61</ele>
        <time>2017-04-16T10:30:54Z</time>
      </trkpt>
      <trkpt lat="50.69961" lon="3.84843">
        <ele>26.09</ele>
        <time>2017-04-16T10:31:17Z</time>
      </trkpt>
      <trkpt lat="50.69959" lon="3.84847">
        <ele>25.61</ele>
        <time>2017-04-16T10:31:46Z</time>
      </trkpt>
      <trkpt lat="50.69959" lon="3.84848">
        <ele>25.61</ele>
        <time>2017-04-16T10:32:24Z</time>
      </trkpt>
      <trkpt lat="50.69959" lon="3.8485">
        <ele>25.61</ele>
        <time>2017-04-16T10:33:09Z</time>
      </trkpt>
      <trkpt lat="50.69958" lon="3.84849">
        <ele>25.13</ele>
        <time>2017-04-16T10:33:46Z</time>
      </trkpt>
      <trkpt lat="50.69957" lon="3.84848">
        <ele>26.57</ele>
        <time>2017-04-16T10:34:24Z</time>
      </trkpt>
      <trkpt lat="50.69957" lon="3.84849">
        <ele>26.57</ele>
        <time>2017-04-16T10:35:00Z</time>
      </trkpt>
      <trkpt lat="50.69956" lon="3.84846">
        <ele>26.57</ele>
        <time>2017-04-16T10:35:30Z</time>
      </trkpt>
      <trkpt lat="50.69959" lon="3.84852">
        <ele>25.13</ele>
        <time>2017-04-16T10:35:44Z</time>
      </trkpt>
      <trkpt lat="50.69959" lon="3.84852">
        <ele>26.09</ele>
        <time>2017-04-16T10:35:46Z</time>
      </trkpt>
      <trkpt lat="50.69958" lon="3.84843">
        <ele>26.57</ele>
        <time>2017-04-16T10:36:17Z</time>
      </trkpt>
      <trkpt lat="50.69961" lon="3.84848">
        <ele>26.57</ele>
        <time>2017-04-16T10:36:50Z</time>
      </trkpt>
      <trkpt lat="50.69961" lon="3.84844">
        <ele>26.57</ele>
        <time>2017-04-16T10:37:25Z</time>
      </trkpt>
      <trkpt lat="50.69957" lon="3.84841">
        <ele>26.57</ele>
        <time>2017-04-16T10:37:59Z</time>
      </trkpt>
      <trkpt lat="50.69958" lon="3.84841">
        <ele>25.61</ele>
        <time>2017-04-16T10:38:01Z</time>
      </trkpt>
      <trkpt lat="50.69958" lon="3.84841">
        <ele>26.57</ele>
        <time>2017-04-16T10:38:07Z</time>
      </trkpt>
      <trkpt lat="50.69957" lon="3.84843">
        <ele>27.53</ele>
        <time>2017-04-16T10:38:33Z</time>
      </trkpt>
      <trkpt lat="50.69957" lon="3.8485">
        <ele>26.09</ele>
        <time>2017-04-16T10:39:06Z</time>
      </trkpt>
      <trkpt lat="50.69957" lon="3.84837">
        <ele>26.09</ele>
        <time>2017-04-16T10:39:41Z</time>
      </trkpt>
      <trkpt lat="50.69954" lon="3.84841">
        <ele>26.57</ele>
        <time>2017-04-16T10:40:07Z</time>
      </trkpt>
      <trkpt lat="50.69959" lon="3.84844">
        <ele>26.09</ele>
        <time>2017-04-16T10:40:37Z</time>
      </trkpt>
      <trkpt lat="50.69962" lon="3.84851">
        <ele>27.05</ele>
        <time>2017-04-16T10:41:16Z</time>
      </trkpt>
      <trkpt lat="50.69962" lon="3.8485">
        <ele>26.09</ele>
        <time>2017-04-16T10:41:24Z</time>
      </trkpt>
      <trkpt lat="50.69957" lon="3.84844">
        <ele>26.57</ele>
        <time>2017-04-16T10:41:55Z</time>
      </trkpt>
      <trkpt lat="50.69959" lon="3.84843">
        <ele>26.57</ele>
        <time>2017-04-16T10:42:26Z</time>
      </trkpt>
      <trkpt lat="50.69958" lon="3.84834">
        <ele>26.57</ele>
        <time>2017-04-16T10:42:53Z</time>
      </trkpt>
      <trkpt lat="50.69956" lon="3.84834">
        <ele>28.5</ele>
        <time>2017-04-16T10:43:04Z</time>
      </trkpt>
      <trkpt lat="50.69957" lon="3.84847">
        <ele>27.05</ele>
        <time>2017-04-16T10:43:40Z</time>
      </trkpt>
      <trkpt lat="50.69955" lon="3.84848">
        <ele>27.05</ele>
        <time>2017-04-16T10:44:17Z</time>
      </trkpt>
      <trkpt lat="50.69955" lon="3.84846">
        <ele>27.05</ele>
        <time>2017-04-16T10:44:45Z</time>
      </trkpt>
      <trkpt lat="50.69956" lon="3.84843">
        <ele>28.5</ele>
        <time>2017-04-16T10:44:47Z</time>
      </trkpt>
      <trkpt lat="50.69956" lon="3.84838">
        <ele>27.05</ele>
        <time>2017-04-16T10:44:50Z</time>
      </trkpt>
      <trkpt lat="50.69963" lon="3.84819">
        <ele>26.09</ele>
        <time>2017-04-16T10:45:04Z</time>
      </trkpt>
      <trkpt lat="50.69963" lon="3.84817">
        <ele>29.46</ele>
        <time>2017-04-16T10:45:06Z</time>
      </trkpt>
      <trkpt lat="50.69962" lon="3.84813">
        <ele>27.53</ele>
        <time>2017-04-16T10:45:09Z</time>
      </trkpt>
      <trkpt lat="50.69955" lon="3.84808">
        <ele>28.02</ele>
        <time>2017-04-16T10:45:17Z</time>
      </trkpt>
      <trkpt lat="50.69947" lon="3.84815">
        <ele>26.57</ele>
        <time>2017-04-16T10:45:25Z</time>
      </trkpt>
      <trkpt lat="50.69938" lon="3.84824">
        <ele>28.98</ele>
        <time>2017-04-16T10:45:34Z</time>
      </trkpt>
      <trkpt lat="50.69936" lon="3.84826">
        <ele>27.05</ele>
        <time>2017-04-16T10:45:36Z</time>
      </trkpt>
      <trkpt lat="50.69921" lon="3.84837">
        <ele>27.05</ele>
        <time>2017-04-16T10:45:50Z</time>
      </trkpt>
      <trkpt lat="50.6992" lon="3.84838">
        <ele>27.05</ele>
        <time>2017-04-16T10:45:51Z</time>
      </trkpt>
      <trkpt lat="50.69911" lon="3.84845">
        <ele>28.98</ele>
        <time>2017-04-16T10:46:00Z</time>
      </trkpt>
      <trkpt lat="50.69899" lon="3.84856">
        <ele>27.53</ele>
        <time>2017-04-16T10:46:10Z</time>
      </trkpt>
      <trkpt lat="50.69888" lon="3.84864">
        <ele>29.46</ele>
        <time>2017-04-16T10:46:21Z</time>
      </trkpt>
      <trkpt lat="50.69887" lon="3.84866">
        <ele>28.02</ele>
        <time>2017-04-16T10:46:23Z</time>
      </trkpt>
      <trkpt lat="50.69879" lon="3.84875">
        <ele>29.94</ele>
        <time>2017-04-16T10:46:30Z</time>
      </trkpt>
      <trkpt lat="50.69864" lon="3.84894">
        <ele>28.02</ele>
        <time>2017-04-16T10:46:45Z</time>
      </trkpt>
      <trkpt lat="50.69859" lon="3.84901">
        <ele>28.02</ele>
        <time>2017-04-16T10:46:51Z</time>
      </trkpt>
      <trkpt lat="50.69858" lon="3.84903">
        <ele>29.94</ele>
        <time>2017-04-16T10:46:53Z</time>
      </trkpt>
      <trkpt lat="50.69855" lon="3.84907">
        <ele>28.5</ele>
        <time>2017-04-16T10:46:57Z</time>
      </trkpt>
      <trkpt lat="50.69849" lon="3.8491">
        <ele>30.42</ele>
        <time>2017-04-16T10:47:03Z</time>
      </trkpt>
      <trkpt lat="50.69847" lon="3.84912">
        <ele>28.98</ele>
        <time>2017-04-16T10:47:06Z</time>
      </trkpt>
      <trkpt lat="50.6984" lon="3.84917">
        <ele>27.53</ele>
        <time>2017-04-16T10:47:12Z</time>
      </trkpt>
      <trkpt lat="50.69837" lon="3.84919">
        <ele>30.42</ele>
        <time>2017-04-16T10:47:14Z</time>
      </trkpt>
      <trkpt lat="50.69832" lon="3.84921">
        <ele>29.94</ele>
        <time>2017-04-16T10:47:17Z</time>
      </trkpt>
      <trkpt lat="50.69829" lon="3.84932">
        <ele>30.9</ele>
        <time>2017-04-16T10:47:21Z</time>
      </trkpt>
      <trkpt lat="50.69825" lon="3.8494">
        <ele>29.46</ele>
        <time>2017-04-16T10:47:24Z</time>
      </trkpt>
      <trkpt lat="50.6982" lon="3.84958">
        <ele>31.38</ele>
        <time>2017-04-16T10:47:32Z</time>
      </trkpt>
      <trkpt lat="50.6982" lon="3.84959">
        <ele>31.38</ele>
        <time>2017-04-16T10:47:34Z</time>
      </trkpt>
      <trkpt lat="50.69819" lon="3.84969">
        <ele>28.98</ele>
        <time>2017-04-16T10:47:39Z</time>
      </trkpt>
      <trkpt lat="50.69819" lon="3.84972">
        <ele>30.9</ele>
        <time>2017-04-16T10:47:41Z</time>
      </trkpt>
      <trkpt lat="50.69818" lon="3.84973">
        <ele>31.38</ele>
        <time>2017-04-16T10:47:43Z</time>
      </trkpt>
      <trkpt lat="50.69815" lon="3.84978">
        <ele>31.86</ele>
        <time>2017-04-16T10:47:47Z</time>
      </trkpt>
      <trkpt lat="50.69814" lon="3.84982">
        <ele>29.94</ele>
        <time>2017-04-16T10:47:49Z</time>
      </trkpt>
      <trkpt lat="50.69811" lon="3.8499">
        <ele>31.38</ele>
        <time>2017-04-16T10:47:55Z</time>
      </trkpt>
      <trkpt lat="50.69809" lon="3.84997">
        <ele>31.38</ele>
        <time>2017-04-16T10:47:58Z</time>
      </trkpt>
      <trkpt lat="50.69805" lon="3.85006">
        <ele>32.34</ele>
        <time>2017-04-16T10:48:04Z</time>
      </trkpt>
      <trkpt lat="50.69805" lon="3.85009">
        <ele>30.42</ele>
        <time>2017-04-16T10:48:06Z</time>
      </trkpt>
      <trkpt lat="50.69804" lon="3.85012">
        <ele>31.86</ele>
        <time>2017-04-16T10:48:08Z</time>
      </trkpt>
      <trkpt lat="50.69803" lon="3.85016">
        <ele>30.42</ele>
        <time>2017-04-16T10:48:10Z</time>
      </trkpt>
      <trkpt lat="50.69802" lon="3.8502">
        <ele>31.38</ele>
        <time>2017-04-16T10:48:12Z</time>
      </trkpt>
      <trkpt lat="50.69796" lon="3.85037">
        <ele>30.42</ele>
        <time>2017-04-16T10:48:21Z</time>
      </trkpt>
      <trkpt lat="50.69792" lon="3.85047">
        <ele>28.98</ele>
        <time>2017-04-16T10:48:26Z</time>
      </trkpt>
      <trkpt lat="50.69791" lon="3.8505">
        <ele>31.86</ele>
        <time>2017-04-16T10:48:28Z</time>
      </trkpt>
      <trkpt lat="50.6979" lon="3.85055">
        <ele>29.94</ele>
        <time>2017-04-16T10:48:31Z</time>
      </trkpt>
      <trkpt lat="50.69786" lon="3.85066">
        <ele>31.38</ele>
        <time>2017-04-16T10:48:38Z</time>
      </trkpt>
      <trkpt lat="50.69784" lon="3.85072">
        <ele>29.46</ele>
        <time>2017-04-16T10:48:41Z</time>
      </trkpt>
      <trkpt lat="50.69775" lon="3.85101">
        <ele>28.5</ele>
        <time>2017-04-16T10:48:57Z</time>
      </trkpt>
      <trkpt lat="50.69774" lon="3.85103">
        <ele>31.38</ele>
        <time>2017-04-16T10:48:58Z</time>
      </trkpt>
      <trkpt lat="50.69773" lon="3.85105">
        <ele>31.38</ele>
        <time>2017-04-16T10:48:59Z</time>
      </trkpt>
      <trkpt lat="50.69771" lon="3.85112">
        <ele>29.94</ele>
        <time>2017-04-16T10:49:02Z</time>
      </trkpt>
      <trkpt lat="50.69769" lon="3.85121">
        <ele>30.9</ele>
        <time>2017-04-16T10:49:08Z</time>
      </trkpt>
      <trkpt lat="50.69769" lon="3.85131">
        <ele>28.98</ele>
        <time>2017-04-16T10:49:12Z</time>
      </trkpt>
      <trkpt lat="50.69768" lon="3.85135">
        <ele>28.98</ele>
        <time>2017-04-16T10:49:14Z</time>
      </trkpt>
      <trkpt lat="50.6976" lon="3.85171">
        <ele>31.86</ele>
        <time>2017-04-16T10:49:32Z</time>
      </trkpt>
      <trkpt lat="50.6976" lon="3.85174">
        <ele>29.94</ele>
        <time>2017-04-16T10:49:34Z</time>
      </trkpt>
      <trkpt lat="50.69759" lon="3.85177">
        <ele>32.34</ele>
        <time>2017-04-16T10:49:36Z</time>
      </trkpt>
      <trkpt lat="50.6976" lon="3.85181">
        <ele>31.38</ele>
        <time>2017-04-16T10:49:50Z</time>
      </trkpt>
      <trkpt lat="50.69756" lon="3.85194">
        <ele>31.86</ele>
        <time>2017-04-16T10:50:00Z</time>
      </trkpt>
      <trkpt lat="50.69752" lon="3.85206">
        <ele>31.86</ele>
        <time>2017-04-16T10:50:07Z</time>
      </trkpt>
      <trkpt lat="50.69751" lon="3.85212">
        <ele>32.34</ele>
        <time>2017-04-16T10:50:11Z</time>
      </trkpt>
      <trkpt lat="50.6975" lon="3.85216">
        <ele>30.9</ele>
        <time>2017-04-16T10:50:13Z</time>
      </trkpt>
      <trkpt lat="50.69748" lon="3.85219">
        <ele>31.86</ele>
        <time>2017-04-16T10:50:15Z</time>
      </trkpt>
      <trkpt lat="50.69747" lon="3.85226">
        <ele>31.86</ele>
        <time>2017-04-16T10:50:19Z</time>
      </trkpt>
      <trkpt lat="50.69747" lon="3.85235">
        <ele>32.82</ele>
        <time>2017-04-16T10:50:24Z</time>
      </trkpt>
      <trkpt lat="50.6974" lon="3.85261">
        <ele>31.38</ele>
        <time>2017-04-16T10:50:39Z</time>
      </trkpt>
      <trkpt lat="50.69739" lon="3.85263">
        <ele>31.38</ele>
        <time>2017-04-16T10:50:40Z</time>
      </trkpt>
      <trkpt lat="50.69736" lon="3.85276">
        <ele>32.82</ele>
        <time>2017-04-16T10:50:47Z</time>
      </trkpt>
      <trkpt lat="50.69733" lon="3.85287">
        <ele>32.34</ele>
        <time>2017-04-16T10:50:53Z</time>
      </trkpt>
      <trkpt lat="50.69732" lon="3.8529">
        <ele>30.9</ele>
        <time>2017-04-16T10:50:55Z</time>
      </trkpt>
      <trkpt lat="50.6973" lon="3.85296">
        <ele>32.34</ele>
        <time>2017-04-16T10:50:58Z</time>
      </trkpt>
      <trkpt lat="50.69721" lon="3.85316">
        <ele>32.82</ele>
        <time>2017-04-16T10:51:13Z</time>
      </trkpt>
      <trkpt lat="50.6972" lon="3.85318">
        <ele>32.82</ele>
        <time>2017-04-16T10:51:14Z</time>
      </trkpt>
      <trkpt lat="50.69718" lon="3.85324">
        <ele>31.38</ele>
        <time>2017-04-16T10:51:17Z</time>
      </trkpt>
      <trkpt lat="50.69713" lon="3.85335">
        <ele>32.34</ele>
        <time>2017-04-16T10:51:26Z</time>
      </trkpt>
      <trkpt lat="50.69712" lon="3.8534">
        <ele>30.9</ele>
        <time>2017-04-16T10:51:29Z</time>
      </trkpt>
      <trkpt lat="50.6971" lon="3.85343">
        <ele>32.34</ele>
        <time>2017-04-16T10:51:31Z</time>
      </trkpt>
      <trkpt lat="50.69705" lon="3.85356">
        <ele>31.38</ele>
        <time>2017-04-16T10:51:39Z</time>
      </trkpt>
      <trkpt lat="50.69704" lon="3.85358">
        <ele>32.82</ele>
        <time>2017-04-16T10:51:41Z</time>
      </trkpt>
      <trkpt lat="50.69701" lon="3.85372">
        <ele>29.46</ele>
        <time>2017-04-16T10:51:48Z</time>
      </trkpt>
      <trkpt lat="50.697" lon="3.85379">
        <ele>32.34</ele>
        <time>2017-04-16T10:51:51Z</time>
      </trkpt>
      <trkpt lat="50.697" lon="3.85383">
        <ele>30.9</ele>
        <time>2017-04-16T10:51:53Z</time>
      </trkpt>
      <trkpt lat="50.69701" lon="3.85395">
        <ele>32.34</ele>
        <time>2017-04-16T10:52:00Z</time>
      </trkpt>
      <trkpt lat="50.69703" lon="3.85412">
        <ele>28.5</ele>
        <time>2017-04-16T10:52:08Z</time>
      </trkpt>
      <trkpt lat="50.69704" lon="3.85415">
        <ele>31.86</ele>
        <time>2017-04-16T10:52:09Z</time>
      </trkpt>
      <trkpt lat="50.6971" lon="3.85432">
        <ele>29.94</ele>
        <time>2017-04-16T10:52:20Z</time>
      </trkpt>
      <trkpt lat="50.69711" lon="3.85437">
        <ele>32.34</ele>
        <time>2017-04-16T10:52:22Z</time>
      </trkpt>
      <trkpt lat="50.69712" lon="3.85441">
        <ele>30.9</ele>
        <time>2017-04-16T10:52:24Z</time>
      </trkpt>
      <trkpt lat="50.69721" lon="3.85471">
        <ele>32.82</ele>
        <time>2017-04-16T10:52:40Z</time>
      </trkpt>
      <trkpt lat="50.69723" lon="3.85481">
        <ele>31.38</ele>
        <time>2017-04-16T10:52:45Z</time>
      </trkpt>
      <trkpt lat="50.69727" lon="3.8549">
        <ele>29.94</ele>
        <time>2017-04-16T10:52:51Z</time>
      </trkpt>
      <trkpt lat="50.69728" lon="3.85494">
        <ele>32.82</ele>
        <time>2017-04-16T10:52:53Z</time>
      </trkpt>
      <trkpt lat="50.6973" lon="3.855">
        <ele>31.86</ele>
        <time>2017-04-16T10:52:57Z</time>
      </trkpt>
      <trkpt lat="50.69734" lon="3.85515">
        <ele>31.86</ele>
        <time>2017-04-16T10:53:04Z</time>
      </trkpt>
      <trkpt lat="50.69735" lon="3.85522">
        <ele>33.3</ele>
        <time>2017-04-16T10:53:07Z</time>
      </trkpt>
      <trkpt lat="50.69736" lon="3.85532">
        <ele>31.86</ele>
        <time>2017-04-16T10:53:11Z</time>
      </trkpt>
      <trkpt lat="50.69736" lon="3.85535">
        <ele>31.86</ele>
        <time>2017-04-16T10:53:13Z</time>
      </trkpt>
      <trkpt lat="50.69737" lon="3.8555">
        <ele>33.78</ele>
        <time>2017-04-16T10:53:21Z</time>
      </trkpt>
      <trkpt lat="50.69737" lon="3.85552">
        <ele>33.78</ele>
        <time>2017-04-16T10:53:22Z</time>
      </trkpt>
      <trkpt lat="50.69736" lon="3.8556">
        <ele>31.38</ele>
        <time>2017-04-16T10:53:25Z</time>
      </trkpt>
      <trkpt lat="50.69736" lon="3.85563">
        <ele>33.78</ele>
        <time>2017-04-16T10:53:27Z</time>
      </trkpt>
      <trkpt lat="50.69735" lon="3.85567">
        <ele>31.86</ele>
        <time>2017-04-16T10:53:30Z</time>
      </trkpt>
      <trkpt lat="50.69731" lon="3.85581">
        <ele>33.78</ele>
        <time>2017-04-16T10:53:39Z</time>
      </trkpt>
      <trkpt lat="50.69728" lon="3.85595">
        <ele>33.3</ele>
        <time>2017-04-16T10:53:51Z</time>
      </trkpt>
      <trkpt lat="50.69723" lon="3.85619">
        <ele>33.78</ele>
        <time>2017-04-16T10:54:03Z</time>
      </trkpt>
      <trkpt lat="50.69718" lon="3.85637">
        <ele>33.78</ele>
        <time>2017-04-16T10:54:13Z</time>
      </trkpt>
      <trkpt lat="50.69717" lon="3.85642">
        <ele>32.34</ele>
        <time>2017-04-16T10:54:16Z</time>
      </trkpt>
      <trkpt lat="50.69713" lon="3.85654">
        <ele>33.78</ele>
        <time>2017-04-16T10:54:22Z</time>
      </trkpt>
      <trkpt lat="50.69711" lon="3.85669">
        <ele>31.86</ele>
        <time>2017-04-16T10:54:30Z</time>
      </trkpt>
      <trkpt lat="50.69706" lon="3.85683">
        <ele>33.3</ele>
        <time>2017-04-16T10:54:37Z</time>
      </trkpt>
      <trkpt lat="50.69699" lon="3.85708">
        <ele>34.26</ele>
        <time>2017-04-16T10:54:51Z</time>
      </trkpt>
      <trkpt lat="50.69693" lon="3.85728">
        <ele>34.26</ele>
        <time>2017-04-16T10:55:03Z</time>
      </trkpt>
      <trkpt lat="50.69694" lon="3.8575">
        <ele>35.71</ele>
        <time>2017-04-16T10:55:14Z</time>
      </trkpt>
      <trkpt lat="50.69693" lon="3.85759">
        <ele>34.26</ele>
        <time>2017-04-16T10:55:19Z</time>
      </trkpt>
      <trkpt lat="50.69692" lon="3.85763">
        <ele>35.71</ele>
        <time>2017-04-16T10:55:21Z</time>
      </trkpt>
      <trkpt lat="50.69691" lon="3.85766">
        <ele>34.26</ele>
        <time>2017-04-16T10:55:23Z</time>
      </trkpt>
      <trkpt lat="50.69689" lon="3.85774">
        <ele>35.71</ele>
        <time>2017-04-16T10:55:28Z</time>
      </trkpt>
      <trkpt lat="50.69684" lon="3.8579">
        <ele>34.74</ele>
        <time>2017-04-16T10:55:37Z</time>
      </trkpt>
      <trkpt lat="50.69683" lon="3.85795">
        <ele>36.19</ele>
        <time>2017-04-16T10:55:40Z</time>
      </trkpt>
      <trkpt lat="50.69681" lon="3.85803">
        <ele>36.67</ele>
        <time>2017-04-16T10:55:44Z</time>
      </trkpt>
      <trkpt lat="50.69676" lon="3.85816">
        <ele>36.67</ele>
        <time>2017-04-16T10:55:52Z</time>
      </trkpt>
      <trkpt lat="50.69669" lon="3.85837">
        <ele>35.23</ele>
        <time>2017-04-16T10:56:04Z</time>
      </trkpt>
      <trkpt lat="50.69668" lon="3.85841">
        <ele>37.15</ele>
        <time>2017-04-16T10:56:06Z</time>
      </trkpt>
      <trkpt lat="50.69665" lon="3.85853">
        <ele>35.23</ele>
        <time>2017-04-16T10:56:13Z</time>
      </trkpt>
      <trkpt lat="50.69664" lon="3.85856">
        <ele>37.63</ele>
        <time>2017-04-16T10:56:15Z</time>
      </trkpt>
      <trkpt lat="50.69663" lon="3.8586">
        <ele>36.19</ele>
        <time>2017-04-16T10:56:17Z</time>
      </trkpt>
      <trkpt lat="50.6966" lon="3.85871">
        <ele>37.63</ele>
        <time>2017-04-16T10:56:23Z</time>
      </trkpt>
      <trkpt lat="50.69658" lon="3.85881">
        <ele>36.19</ele>
        <time>2017-04-16T10:56:29Z</time>
      </trkpt>
      <trkpt lat="50.69657" lon="3.85885">
        <ele>38.11</ele>
        <time>2017-04-16T10:56:31Z</time>
      </trkpt>
      <trkpt lat="50.69653" lon="3.85899">
        <ele>38.59</ele>
        <time>2017-04-16T10:56:39Z</time>
      </trkpt>
      <trkpt lat="50.69644" lon="3.8593">
        <ele>37.15</ele>
        <time>2017-04-16T10:56:57Z</time>
      </trkpt>
      <trkpt lat="50.69641" lon="3.85952">
        <ele>38.59</ele>
        <time>2017-04-16T10:57:13Z</time>
      </trkpt>
      <trkpt lat="50.69636" lon="3.85969">
        <ele>39.07</ele>
        <time>2017-04-16T10:57:23Z</time>
      </trkpt>
      <trkpt lat="50.69634" lon="3.85973">
        <ele>37.15</ele>
        <time>2017-04-16T10:57:25Z</time>
      </trkpt>
      <trkpt lat="50.69627" lon="3.85996">
        <ele>36.19</ele>
        <time>2017-04-16T10:57:40Z</time>
      </trkpt>
      <trkpt lat="50.69626" lon="3.85998">
        <ele>39.55</ele>
        <time>2017-04-16T10:57:41Z</time>
      </trkpt>
      <trkpt lat="50.69626" lon="3.86">
        <ele>38.11</ele>
        <time>2017-04-16T10:57:42Z</time>
      </trkpt>
      <trkpt lat="50.6962" lon="3.86018">
        <ele>37.63</ele>
        <time>2017-04-16T10:57:53Z</time>
      </trkpt>
      <trkpt lat="50.69617" lon="3.86026">
        <ele>36.19</ele>
        <time>2017-04-16T10:57:57Z</time>
      </trkpt>
      <trkpt lat="50.69616" lon="3.86029">
        <ele>37.63</ele>
        <time>2017-04-16T10:57:59Z</time>
      </trkpt>
      <trkpt lat="50.69616" lon="3.86031">
        <ele>37.63</ele>
        <time>2017-04-16T10:58:01Z</time>
      </trkpt>
      <trkpt lat="50.69614" lon="3.86037">
        <ele>36.19</ele>
        <time>2017-04-16T10:58:04Z</time>
      </trkpt>
      <trkpt lat="50.69613" lon="3.8604">
        <ele>38.11</ele>
        <time>2017-04-16T10:58:06Z</time>
      </trkpt>
      <trkpt lat="50.69611" lon="3.86045">
        <ele>36.67</ele>
        <time>2017-04-16T10:58:09Z</time>
      </trkpt>
      <trkpt lat="50.69602" lon="3.86074">
        <ele>38.11</ele>
        <time>2017-04-16T10:58:26Z</time>
      </trkpt>
      <trkpt lat="50.69596" lon="3.86094">
        <ele>36.19</ele>
        <time>2017-04-16T10:58:37Z</time>
      </trkpt>
      <trkpt lat="50.69596" lon="3.86097">
        <ele>38.59</ele>
        <time>2017-04-16T10:58:39Z</time>
      </trkpt>
      <trkpt lat="50.69594" lon="3.86103">
        <ele>36.67</ele>
        <time>2017-04-16T10:58:42Z</time>
      </trkpt>
      <trkpt lat="50.69592" lon="3.86107">
        <ele>37.63</ele>
        <time>2017-04-16T10:58:44Z</time>
      </trkpt>
      <trkpt lat="50.69587" lon="3.86122">
        <ele>39.07</ele>
        <time>2017-04-16T10:58:53Z</time>
      </trkpt>
      <trkpt lat="50.69587" lon="3.86126">
        <ele>37.63</ele>
        <time>2017-04-16T10:58:55Z</time>
      </trkpt>
      <trkpt lat="50.69584" lon="3.86137">
        <ele>39.07</ele>
        <time>2017-04-16T10:59:01Z</time>
      </trkpt>
      <trkpt lat="50.69583" lon="3.8614">
        <ele>37.63</ele>
        <time>2017-04-16T10:59:03Z</time>
      </trkpt>
      <trkpt lat="50.69572" lon="3.86168">
        <ele>39.55</ele>
        <time>2017-04-16T10:59:19Z</time>
      </trkpt>
      <trkpt lat="50.69569" lon="3.86176">
        <ele>37.63</ele>
        <time>2017-04-16T10:59:23Z</time>
      </trkpt>
      <trkpt lat="50.69568" lon="3.86179">
        <ele>39.07</ele>
        <time>2017-04-16T10:59:25Z</time>
      </trkpt>
      <trkpt lat="50.69566" lon="3.86189">
        <ele>39.55</ele>
        <time>2017-04-16T10:59:31Z</time>
      </trkpt>
      <trkpt lat="50.69555" lon="3.86222">
        <ele>40.03</ele>
        <time>2017-04-16T10:59:50Z</time>
      </trkpt>
      <trkpt lat="50.69555" lon="3.86224">
        <ele>40.03</ele>
        <time>2017-04-16T10:59:51Z</time>
      </trkpt>
      <trkpt lat="50.69553" lon="3.86229">
        <ele>38.59</ele>
        <time>2017-04-16T10:59:53Z</time>
      </trkpt>
      <trkpt lat="50.6955" lon="3.86238">
        <ele>40.03</ele>
        <time>2017-04-16T10:59:59Z</time>
      </trkpt>
      <trkpt lat="50.69547" lon="3.86245">
        <ele>38.11</ele>
        <time>2017-04-16T11:00:03Z</time>
      </trkpt>
      <trkpt lat="50.69544" lon="3.86256">
        <ele>39.55</ele>
        <time>2017-04-16T11:00:09Z</time>
      </trkpt>
      <trkpt lat="50.69534" lon="3.86285">
        <ele>39.55</ele>
        <time>2017-04-16T11:00:26Z</time>
      </trkpt>
      <trkpt lat="50.69529" lon="3.86299">
        <ele>38.59</ele>
        <time>2017-04-16T11:00:35Z</time>
      </trkpt>
      <trkpt lat="50.69528" lon="3.86303">
        <ele>40.51</ele>
        <time>2017-04-16T11:00:37Z</time>
      </trkpt>
      <trkpt lat="50.69526" lon="3.86306">
        <ele>39.07</ele>
        <time>2017-04-16T11:00:39Z</time>
      </trkpt>
      <trkpt lat="50.69523" lon="3.86312">
        <ele>39.07</ele>
        <time>2017-04-16T11:00:46Z</time>
      </trkpt>
      <trkpt lat="50.69511" lon="3.86297">
        <ele>38.11</ele>
        <time>2017-04-16T11:00:58Z</time>
      </trkpt>
      <trkpt lat="50.69505" lon="3.86288">
        <ele>38.59</ele>
        <time>2017-04-16T11:01:06Z</time>
      </trkpt>
      <trkpt lat="50.69501" lon="3.86278">
        <ele>37.15</ele>
        <time>2017-04-16T11:01:11Z</time>
      </trkpt>
      <trkpt lat="50.69499" lon="3.86275">
        <ele>38.59</ele>
        <time>2017-04-16T11:01:13Z</time>
      </trkpt>
      <trkpt lat="50.69497" lon="3.8627">
        <ele>37.15</ele>
        <time>2017-04-16T11:01:16Z</time>
      </trkpt>
      <trkpt lat="50.69485" lon="3.86248">
        <ele>35.23</ele>
        <time>2017-04-16T11:01:31Z</time>
      </trkpt>
      <trkpt lat="50.69482" lon="3.86244">
        <ele>36.67</ele>
        <time>2017-04-16T11:01:35Z</time>
      </trkpt>
      <trkpt lat="50.69479" lon="3.86239">
        <ele>35.23</ele>
        <time>2017-04-16T11:01:39Z</time>
      </trkpt>
      <trkpt lat="50.69476" lon="3.86232">
        <ele>36.19</ele>
        <time>2017-04-16T11:01:43Z</time>
      </trkpt>
      <trkpt lat="50.69472" lon="3.86225">
        <ele>34.26</ele>
        <time>2017-04-16T11:01:47Z</time>
      </trkpt>
      <trkpt lat="50.69461" lon="3.86197">
        <ele>33.78</ele>
        <time>2017-04-16T11:02:02Z</time>
      </trkpt>
      <trkpt lat="50.69449" lon="3.86181">
        <ele>32.82</ele>
        <time>2017-04-16T11:02:16Z</time>
      </trkpt>
      <trkpt lat="50.69447" lon="3.86176">
        <ele>34.74</ele>
        <time>2017-04-16T11:02:19Z</time>
      </trkpt>
      <trkpt lat="50.69443" lon="3.8617">
        <ele>33.3</ele>
        <time>2017-04-16T11:02:23Z</time>
      </trkpt>
      <trkpt lat="50.69431" lon="3.86143">
        <ele>33.3</ele>
        <time>2017-04-16T11:02:37Z</time>
      </trkpt>
      <trkpt lat="50.69426" lon="3.86131">
        <ele>31.38</ele>
        <time>2017-04-16T11:02:44Z</time>
      </trkpt>
      <trkpt lat="50.69421" lon="3.86123">
        <ele>32.34</ele>
        <time>2017-04-16T11:02:49Z</time>
      </trkpt>
      <trkpt lat="50.69414" lon="3.86111">
        <ele>30.9</ele>
        <time>2017-04-16T11:02:56Z</time>
      </trkpt>
      <trkpt lat="50.6941" lon="3.86104">
        <ele>32.34</ele>
        <time>2017-04-16T11:03:00Z</time>
      </trkpt>
      <trkpt lat="50.69405" lon="3.86095">
        <ele>30.42</ele>
        <time>2017-04-16T11:03:05Z</time>
      </trkpt>
      <trkpt lat="50.69398" lon="3.8608">
        <ele>29.94</ele>
        <time>2017-04-16T11:03:14Z</time>
      </trkpt>
      <trkpt lat="50.69393" lon="3.86072">
        <ele>30.9</ele>
        <time>2017-04-16T11:03:27Z</time>
      </trkpt>
      <trkpt lat="50.69386" lon="3.8606">
        <ele>29.46</ele>
        <time>2017-04-16T11:03:35Z</time>
      </trkpt>
      <trkpt lat="50.69382" lon="3.86053">
        <ele>30.9</ele>
        <time>2017-04-16T11:03:40Z</time>
      </trkpt>
      <trkpt lat="50.69377" lon="3.86044">
        <ele>28.98</ele>
        <time>2017-04-16T11:03:46Z</time>
      </trkpt>
      <trkpt lat="50.69368" lon="3.86025">
        <ele>30.9</ele>
        <time>2017-04-16T11:03:58Z</time>
      </trkpt>
      <trkpt lat="50.69365" lon="3.8602">
        <ele>28.98</ele>
        <time>2017-04-16T11:04:01Z</time>
      </trkpt>
      <trkpt lat="50.69363" lon="3.86009">
        <ele>30.42</ele>
        <time>2017-04-16T11:04:05Z</time>
      </trkpt>
      <trkpt lat="50.6936" lon="3.86002">
        <ele>28.5</ele>
        <time>2017-04-16T11:04:08Z</time>
      </trkpt>
      <trkpt lat="50.69357" lon="3.85991">
        <ele>30.42</ele>
        <time>2017-04-16T11:04:13Z</time>
      </trkpt>
      <trkpt lat="50.69345" lon="3.85964">
        <ele>29.94</ele>
        <time>2017-04-16T11:04:29Z</time>
      </trkpt>
      <trkpt lat="50.69334" lon="3.8594">
        <ele>29.94</ele>
        <time>2017-04-16T11:04:43Z</time>
      </trkpt>
      <trkpt lat="50.69331" lon="3.85932">
        <ele>28.98</ele>
        <time>2017-04-16T11:04:47Z</time>
      </trkpt>
      <trkpt lat="50.69324" lon="3.85913">
        <ele>29.94</ele>
        <time>2017-04-16T11:04:57Z</time>
      </trkpt>
      <trkpt lat="50.69315" lon="3.8589">
        <ele>29.46</ele>
        <time>2017-04-16T11:05:13Z</time>
      </trkpt>
      <trkpt lat="50.69314" lon="3.85889">
        <ele>28.5</ele>
        <time>2017-04-16T11:05:14Z</time>
      </trkpt>
      <trkpt lat="50.69313" lon="3.85885">
        <ele>30.42</ele>
        <time>2017-04-16T11:05:17Z</time>
      </trkpt>
      <trkpt lat="50.69311" lon="3.8588">
        <ele>27.53</ele>
        <time>2017-04-16T11:05:20Z</time>
      </trkpt>
      <trkpt lat="50.693" lon="3.85851">
        <ele>27.53</ele>
        <time>2017-04-16T11:05:35Z</time>
      </trkpt>
      <trkpt lat="50.69297" lon="3.85845">
        <ele>26.57</ele>
        <time>2017-04-16T11:05:40Z</time>
      </trkpt>
      <trkpt lat="50.69295" lon="3.85842">
        <ele>28.5</ele>
        <time>2017-04-16T11:05:42Z</time>
      </trkpt>
      <trkpt lat="50.69292" lon="3.85832">
        <ele>27.05</ele>
        <time>2017-04-16T11:05:48Z</time>
      </trkpt>
      <trkpt lat="50.69287" lon="3.85816">
        <ele>28.5</ele>
        <time>2017-04-16T11:05:56Z</time>
      </trkpt>
      <trkpt lat="50.69273" lon="3.85788">
        <ele>26.57</ele>
        <time>2017-04-16T11:06:13Z</time>
      </trkpt>
      <trkpt lat="50.69269" lon="3.85783">
        <ele>28.02</ele>
        <time>2017-04-16T11:06:17Z</time>
      </trkpt>
      <trkpt lat="50.69267" lon="3.85778">
        <ele>26.09</ele>
        <time>2017-04-16T11:06:20Z</time>
      </trkpt>
      <trkpt lat="50.69263" lon="3.8577">
        <ele>27.05</ele>
        <time>2017-04-16T11:06:25Z</time>
      </trkpt>
      <trkpt lat="50.69255" lon="3.85755">
        <ele>27.53</ele>
        <time>2017-04-16T11:06:33Z</time>
      </trkpt>
      <trkpt lat="50.69253" lon="3.85751">
        <ele>26.09</ele>
        <time>2017-04-16T11:06:35Z</time>
      </trkpt>
      <trkpt lat="50.69248" lon="3.85741">
        <ele>27.53</ele>
        <time>2017-04-16T11:06:41Z</time>
      </trkpt>
      <trkpt lat="50.69239" lon="3.85724">
        <ele>25.61</ele>
        <time>2017-04-16T11:06:52Z</time>
      </trkpt>
      <trkpt lat="50.69235" lon="3.85718">
        <ele>27.53</ele>
        <time>2017-04-16T11:06:57Z</time>
      </trkpt>
      <trkpt lat="50.69231" lon="3.85711">
        <ele>26.09</ele>
        <time>2017-04-16T11:07:02Z</time>
      </trkpt>
      <trkpt lat="50.69224" lon="3.85697">
        <ele>27.53</ele>
        <time>2017-04-16T11:07:11Z</time>
      </trkpt>
      <trkpt lat="50.69221" lon="3.8569">
        <ele>26.09</ele>
        <time>2017-04-16T11:07:14Z</time>
      </trkpt>
      <trkpt lat="50.69209" lon="3.85666">
        <ele>26.57</ele>
        <time>2017-04-16T11:07:28Z</time>
      </trkpt>
      <trkpt lat="50.69205" lon="3.85662">
        <ele>25.13</ele>
        <time>2017-04-16T11:07:32Z</time>
      </trkpt>
      <trkpt lat="50.69195" lon="3.85653">
        <ele>26.09</ele>
        <time>2017-04-16T11:07:41Z</time>
      </trkpt>
      <trkpt lat="50.69191" lon="3.85649">
        <ele>25.13</ele>
        <time>2017-04-16T11:07:44Z</time>
      </trkpt>
      <trkpt lat="50.69182" lon="3.85642">
        <ele>26.09</ele>
        <time>2017-04-16T11:07:51Z</time>
      </trkpt>
      <trkpt lat="50.69179" lon="3.8564">
        <ele>24.65</ele>
        <time>2017-04-16T11:07:53Z</time>
      </trkpt>
      <trkpt lat="50.69174" lon="3.85637">
        <ele>26.57</ele>
        <time>2017-04-16T11:07:56Z</time>
      </trkpt>
      <trkpt lat="50.6917" lon="3.85635">
        <ele>25.61</ele>
        <time>2017-04-16T11:07:59Z</time>
      </trkpt>
      <trkpt lat="50.69156" lon="3.8563">
        <ele>26.57</ele>
        <time>2017-04-16T11:08:11Z</time>
      </trkpt>
      <trkpt lat="50.69153" lon="3.85629">
        <ele>25.13</ele>
        <time>2017-04-16T11:08:14Z</time>
      </trkpt>
      <trkpt lat="50.69132" lon="3.85614">
        <ele>25.61</ele>
        <time>2017-04-16T11:08:30Z</time>
      </trkpt>
      <trkpt lat="50.6912" lon="3.85603">
        <ele>27.53</ele>
        <time>2017-04-16T11:08:40Z</time>
      </trkpt>
      <trkpt lat="50.69115" lon="3.85599">
        <ele>25.61</ele>
        <time>2017-04-16T11:08:45Z</time>
      </trkpt>
      <trkpt lat="50.69101" lon="3.85588">
        <ele>27.05</ele>
        <time>2017-04-16T11:08:58Z</time>
      </trkpt>
      <trkpt lat="50.69085" lon="3.85582">
        <ele>25.61</ele>
        <time>2017-04-16T11:09:11Z</time>
      </trkpt>
      <trkpt lat="50.6908" lon="3.85585">
        <ele>28.02</ele>
        <time>2017-04-16T11:09:16Z</time>
      </trkpt>
      <trkpt lat="50.69068" lon="3.85589">
        <ele>26.09</ele>
        <time>2017-04-16T11:09:26Z</time>
      </trkpt>
      <trkpt lat="50.69064" lon="3.8559">
        <ele>28.02</ele>
        <time>2017-04-16T11:09:30Z</time>
      </trkpt>
      <trkpt lat="50.6906" lon="3.85592">
        <ele>26.09</ele>
        <time>2017-04-16T11:09:33Z</time>
      </trkpt>
      <trkpt lat="50.69058" lon="3.85593">
        <ele>27.53</ele>
        <time>2017-04-16T11:09:35Z</time>
      </trkpt>
      <trkpt lat="50.69048" lon="3.856">
        <ele>28.5</ele>
        <time>2017-04-16T11:09:42Z</time>
      </trkpt>
      <trkpt lat="50.69044" lon="3.85602">
        <ele>27.05</ele>
        <time>2017-04-16T11:09:45Z</time>
      </trkpt>
      <trkpt lat="50.69016" lon="3.85613">
        <ele>27.53</ele>
        <time>2017-04-16T11:10:05Z</time>
      </trkpt>
      <trkpt lat="50.6901" lon="3.85617">
        <ele>27.53</ele>
        <time>2017-04-16T11:10:10Z</time>
      </trkpt>
      <trkpt lat="50.69004" lon="3.85622">
        <ele>28.02</ele>
        <time>2017-04-16T11:10:16Z</time>
      </trkpt>
      <trkpt lat="50.69002" lon="3.85625">
        <ele>26.57</ele>
        <time>2017-04-16T11:10:19Z</time>
      </trkpt>
      <trkpt lat="50.68996" lon="3.85628">
        <ele>26.09</ele>
        <time>2017-04-16T11:10:24Z</time>
      </trkpt>
      <trkpt lat="50.68987" lon="3.85633">
        <ele>27.53</ele>
        <time>2017-04-16T11:10:31Z</time>
      </trkpt>
      <trkpt lat="50.68984" lon="3.85635">
        <ele>26.09</ele>
        <time>2017-04-16T11:10:34Z</time>
      </trkpt>
      <trkpt lat="50.68983" lon="3.85636">
        <ele>28.5</ele>
        <time>2017-04-16T11:10:36Z</time>
      </trkpt>
      <trkpt lat="50.68978" lon="3.85637">
        <ele>27.05</ele>
        <time>2017-04-16T11:10:41Z</time>
      </trkpt>
      <trkpt lat="50.68974" lon="3.85626">
        <ele>28.5</ele>
        <time>2017-04-16T11:10:47Z</time>
      </trkpt>
      <trkpt lat="50.68969" lon="3.85624">
        <ele>28.02</ele>
        <time>2017-04-16T11:10:53Z</time>
      </trkpt>
      <trkpt lat="50.68953" lon="3.8563">
        <ele>28.5</ele>
        <time>2017-04-16T11:11:06Z</time>
      </trkpt>
      <trkpt lat="50.68936" lon="3.8564">
        <ele>26.09</ele>
        <time>2017-04-16T11:11:20Z</time>
      </trkpt>
      <trkpt lat="50.68934" lon="3.85641">
        <ele>28.5</ele>
        <time>2017-04-16T11:11:22Z</time>
      </trkpt>
      <trkpt lat="50.68927" lon="3.85637">
        <ele>27.05</ele>
        <time>2017-04-16T11:11:31Z</time>
      </trkpt>
      <trkpt lat="50.68923" lon="3.85625">
        <ele>29.46</ele>
        <time>2017-04-16T11:11:37Z</time>
      </trkpt>
      <trkpt lat="50.68922" lon="3.8562">
        <ele>28.02</ele>
        <time>2017-04-16T11:11:40Z</time>
      </trkpt>
      <trkpt lat="50.68919" lon="3.85609">
        <ele>27.05</ele>
        <time>2017-04-16T11:11:47Z</time>
      </trkpt>
      <trkpt lat="50.68918" lon="3.85604">
        <ele>29.46</ele>
        <time>2017-04-16T11:11:50Z</time>
      </trkpt>
      <trkpt lat="50.68915" lon="3.85597">
        <ele>28.02</ele>
        <time>2017-04-16T11:11:54Z</time>
      </trkpt>
      <trkpt lat="50.68914" lon="3.85593">
        <ele>28.98</ele>
        <time>2017-04-16T11:11:56Z</time>
      </trkpt>
      <trkpt lat="50.68913" lon="3.85586">
        <ele>27.05</ele>
        <time>2017-04-16T11:11:59Z</time>
      </trkpt>
      <trkpt lat="50.68913" lon="3.85579">
        <ele>28.98</ele>
        <time>2017-04-16T11:12:02Z</time>
      </trkpt>
      <trkpt lat="50.68912" lon="3.85572">
        <ele>27.53</ele>
        <time>2017-04-16T11:12:06Z</time>
      </trkpt>
      <trkpt lat="50.68909" lon="3.85566">
        <ele>26.57</ele>
        <time>2017-04-16T11:12:10Z</time>
      </trkpt>
      <trkpt lat="50.68906" lon="3.85561">
        <ele>28.5</ele>
        <time>2017-04-16T11:12:13Z</time>
      </trkpt>
      <trkpt lat="50.68904" lon="3.85555">
        <ele>28.5</ele>
        <time>2017-04-16T11:12:16Z</time>
      </trkpt>
      <trkpt lat="50.689" lon="3.85542">
        <ele>27.05</ele>
        <time>2017-04-16T11:12:21Z</time>
      </trkpt>
      <trkpt lat="50.68898" lon="3.85533">
        <ele>28.02</ele>
        <time>2017-04-16T11:12:25Z</time>
      </trkpt>
      <trkpt lat="50.68897" lon="3.8552">
        <ele>28.02</ele>
        <time>2017-04-16T11:12:33Z</time>
      </trkpt>
      <trkpt lat="50.68909" lon="3.85481">
        <ele>28.98</ele>
        <time>2017-04-16T11:12:54Z</time>
      </trkpt>
      <trkpt lat="50.68913" lon="3.8547">
        <ele>30.42</ele>
        <time>2017-04-16T11:13:00Z</time>
      </trkpt>
      <trkpt lat="50.68915" lon="3.85466">
        <ele>28.5</ele>
        <time>2017-04-16T11:13:02Z</time>
      </trkpt>
      <trkpt lat="50.68921" lon="3.85448">
        <ele>28.02</ele>
        <time>2017-04-16T11:13:13Z</time>
      </trkpt>
      <trkpt lat="50.68925" lon="3.85428">
        <ele>29.46</ele>
        <time>2017-04-16T11:13:22Z</time>
      </trkpt>
      <trkpt lat="50.68927" lon="3.85416">
        <ele>28.02</ele>
        <time>2017-04-16T11:13:28Z</time>
      </trkpt>
      <trkpt lat="50.6893" lon="3.85405">
        <ele>29.46</ele>
        <time>2017-04-16T11:13:35Z</time>
      </trkpt>
      <trkpt lat="50.68932" lon="3.85397">
        <ele>28.98</ele>
        <time>2017-04-16T11:13:41Z</time>
      </trkpt>
      <trkpt lat="50.68932" lon="3.85393">
        <ele>27.53</ele>
        <time>2017-04-16T11:13:43Z</time>
      </trkpt>
      <trkpt lat="50.68936" lon="3.85373">
        <ele>29.94</ele>
        <time>2017-04-16T11:13:52Z</time>
      </trkpt>
      <trkpt lat="50.68935" lon="3.8537">
        <ele>28.02</ele>
        <time>2017-04-16T11:13:54Z</time>
      </trkpt>
      <trkpt lat="50.68935" lon="3.85363">
        <ele>28.98</ele>
        <time>2017-04-16T11:13:58Z</time>
      </trkpt>
      <trkpt lat="50.68936" lon="3.85356">
        <ele>27.05</ele>
        <time>2017-04-16T11:14:01Z</time>
      </trkpt>
      <trkpt lat="50.68937" lon="3.85353">
        <ele>29.94</ele>
        <time>2017-04-16T11:14:03Z</time>
      </trkpt>
      <trkpt lat="50.68938" lon="3.85347">
        <ele>28.02</ele>
        <time>2017-04-16T11:14:06Z</time>
      </trkpt>
      <trkpt lat="50.68941" lon="3.85327">
        <ele>27.05</ele>
        <time>2017-04-16T11:14:17Z</time>
      </trkpt>
      <trkpt lat="50.68943" lon="3.85321">
        <ele>28.5</ele>
        <time>2017-04-16T11:14:20Z</time>
      </trkpt>
      <trkpt lat="50.68944" lon="3.85308">
        <ele>27.05</ele>
        <time>2017-04-16T11:14:26Z</time>
      </trkpt>
      <trkpt lat="50.68944" lon="3.85302">
        <ele>28.98</ele>
        <time>2017-04-16T11:14:29Z</time>
      </trkpt>
      <trkpt lat="50.68945" lon="3.85292">
        <ele>27.53</ele>
        <time>2017-04-16T11:14:33Z</time>
      </trkpt>
      <trkpt lat="50.68946" lon="3.85284">
        <ele>29.46</ele>
        <time>2017-04-16T11:14:36Z</time>
      </trkpt>
      <trkpt lat="50.68948" lon="3.85275">
        <ele>28.02</ele>
        <time>2017-04-16T11:14:40Z</time>
      </trkpt>
      <trkpt lat="50.68949" lon="3.85268">
        <ele>29.46</ele>
        <time>2017-04-16T11:14:43Z</time>
      </trkpt>
      <trkpt lat="50.6895" lon="3.85263">
        <ele>28.5</ele>
        <time>2017-04-16T11:14:45Z</time>
      </trkpt>
      <trkpt lat="50.68953" lon="3.85251">
        <ele>29.46</ele>
        <time>2017-04-16T11:14:51Z</time>
      </trkpt>
      <trkpt lat="50.68953" lon="3.85247">
        <ele>28.02</ele>
        <time>2017-04-16T11:14:54Z</time>
      </trkpt>
      <trkpt lat="50.68956" lon="3.85237">
        <ele>29.94</ele>
        <time>2017-04-16T11:15:00Z</time>
      </trkpt>
      <trkpt lat="50.68956" lon="3.8523">
        <ele>28.98</ele>
        <time>2017-04-16T11:15:15Z</time>
      </trkpt>
      <trkpt lat="50.68956" lon="3.85215">
        <ele>29.46</ele>
        <time>2017-04-16T11:15:26Z</time>
      </trkpt>
      <trkpt lat="50.68959" lon="3.85205">
        <ele>29.46</ele>
        <time>2017-04-16T11:15:33Z</time>
      </trkpt>
      <trkpt lat="50.68963" lon="3.85191">
        <ele>27.53</ele>
        <time>2017-04-16T11:15:40Z</time>
      </trkpt>
      <trkpt lat="50.68964" lon="3.85188">
        <ele>28.5</ele>
        <time>2017-04-16T11:15:42Z</time>
      </trkpt>
      <trkpt lat="50.68966" lon="3.85181">
        <ele>27.53</ele>
        <time>2017-04-16T11:15:47Z</time>
      </trkpt>
      <trkpt lat="50.68967" lon="3.85172">
        <ele>28.5</ele>
        <time>2017-04-16T11:15:51Z</time>
      </trkpt>
      <trkpt lat="50.68968" lon="3.85167">
        <ele>29.46</ele>
        <time>2017-04-16T11:15:53Z</time>
      </trkpt>
      <trkpt lat="50.68974" lon="3.85141">
        <ele>26.57</ele>
        <time>2017-04-16T11:16:05Z</time>
      </trkpt>
      <trkpt lat="50.68976" lon="3.85135">
        <ele>28.5</ele>
        <time>2017-04-16T11:16:08Z</time>
      </trkpt>
      <trkpt lat="50.68981" lon="3.85113">
        <ele>27.05</ele>
        <time>2017-04-16T11:16:20Z</time>
      </trkpt>
      <trkpt lat="50.68984" lon="3.85098">
        <ele>28.02</ele>
        <time>2017-04-16T11:16:29Z</time>
      </trkpt>
      <trkpt lat="50.68986" lon="3.85081">
        <ele>26.09</ele>
        <time>2017-04-16T11:16:42Z</time>
      </trkpt>
      <trkpt lat="50.68987" lon="3.85077">
        <ele>28.5</ele>
        <time>2017-04-16T11:16:44Z</time>
      </trkpt>
      <trkpt lat="50.6899" lon="3.85057">
        <ele>26.57</ele>
        <time>2017-04-16T11:16:53Z</time>
      </trkpt>
      <trkpt lat="50.68991" lon="3.85051">
        <ele>28.98</ele>
        <time>2017-04-16T11:16:56Z</time>
      </trkpt>
      <trkpt lat="50.68992" lon="3.85042">
        <ele>25.61</ele>
        <time>2017-04-16T11:17:02Z</time>
      </trkpt>
      <trkpt lat="50.68992" lon="3.8503">
        <ele>26.09</ele>
        <time>2017-04-16T11:17:17Z</time>
      </trkpt>
      <trkpt lat="50.68994" lon="3.8502">
        <ele>27.53</ele>
        <time>2017-04-16T11:17:26Z</time>
      </trkpt>
      <trkpt lat="50.68999" lon="3.85007">
        <ele>26.09</ele>
        <time>2017-04-16T11:17:40Z</time>
      </trkpt>
      <trkpt lat="50.68999" lon="3.85004">
        <ele>27.05</ele>
        <time>2017-04-16T11:17:45Z</time>
      </trkpt>
      <trkpt lat="50.69" lon="3.84998">
        <ele>25.13</ele>
        <time>2017-04-16T11:17:48Z</time>
      </trkpt>
      <trkpt lat="50.69002" lon="3.84995">
        <ele>27.05</ele>
        <time>2017-04-16T11:17:50Z</time>
      </trkpt>
      <trkpt lat="50.69005" lon="3.84984">
        <ele>27.53</ele>
        <time>2017-04-16T11:17:57Z</time>
      </trkpt>
      <trkpt lat="50.69007" lon="3.84978">
        <ele>26.09</ele>
        <time>2017-04-16T11:18:00Z</time>
      </trkpt>
      <trkpt lat="50.69015" lon="3.8496">
        <ele>26.09</ele>
        <time>2017-04-16T11:18:13Z</time>
      </trkpt>
      <trkpt lat="50.69017" lon="3.84958">
        <ele>27.53</ele>
        <time>2017-04-16T11:18:15Z</time>
      </trkpt>
      <trkpt lat="50.69021" lon="3.84951">
        <ele>28.5</ele>
        <time>2017-04-16T11:18:21Z</time>
      </trkpt>
      <trkpt lat="50.69024" lon="3.84945">
        <ele>27.05</ele>
        <time>2017-04-16T11:18:24Z</time>
      </trkpt>
      <trkpt lat="50.69032" lon="3.84932">
        <ele>25.61</ele>
        <time>2017-04-16T11:18:39Z</time>
      </trkpt>
      <trkpt lat="50.69035" lon="3.84926">
        <ele>26.09</ele>
        <time>2017-04-16T11:19:12Z</time>
      </trkpt>
      <trkpt lat="50.69041" lon="3.84915">
        <ele>24.65</ele>
        <time>2017-04-16T11:19:21Z</time>
      </trkpt>
      <trkpt lat="50.69051" lon="3.84896">
        <ele>26.09</ele>
        <time>2017-04-16T11:19:34Z</time>
      </trkpt>
      <trkpt lat="50.69054" lon="3.84891">
        <ele>24.65</ele>
        <time>2017-04-16T11:19:37Z</time>
      </trkpt>
      <trkpt lat="50.69066" lon="3.84872">
        <ele>25.61</ele>
        <time>2017-04-16T11:19:49Z</time>
      </trkpt>
      <trkpt lat="50.6907" lon="3.84865">
        <ele>24.17</ele>
        <time>2017-04-16T11:19:54Z</time>
      </trkpt>
      <trkpt lat="50.69072" lon="3.84862">
        <ele>25.61</ele>
        <time>2017-04-16T11:19:56Z</time>
      </trkpt>
      <trkpt lat="50.69075" lon="3.84856">
        <ele>24.17</ele>
        <time>2017-04-16T11:20:00Z</time>
      </trkpt>
      <trkpt lat="50.69079" lon="3.84848">
        <ele>26.09</ele>
        <time>2017-04-16T11:20:06Z</time>
      </trkpt>
      <trkpt lat="50.69081" lon="3.84841">
        <ele>24.17</ele>
        <time>2017-04-16T11:20:10Z</time>
      </trkpt>
      <trkpt lat="50.69091" lon="3.84819">
        <ele>25.61</ele>
        <time>2017-04-16T11:20:22Z</time>
      </trkpt>
      <trkpt lat="50.69096" lon="3.84808">
        <ele>24.17</ele>
        <time>2017-04-16T11:20:28Z</time>
      </trkpt>
      <trkpt lat="50.69107" lon="3.84787">
        <ele>26.09</ele>
        <time>2017-04-16T11:20:40Z</time>
      </trkpt>
      <trkpt lat="50.69109" lon="3.84781">
        <ele>24.17</ele>
        <time>2017-04-16T11:20:43Z</time>
      </trkpt>
      <trkpt lat="50.69118" lon="3.84759">
        <ele>24.17</ele>
        <time>2017-04-16T11:20:56Z</time>
      </trkpt>
      <trkpt lat="50.69128" lon="3.84726">
        <ele>22.73</ele>
        <time>2017-04-16T11:21:15Z</time>
      </trkpt>
      <trkpt lat="50.69133" lon="3.84719">
        <ele>24.65</ele>
        <time>2017-04-16T11:21:20Z</time>
      </trkpt>
      <trkpt lat="50.69147" lon="3.84698">
        <ele>22.25</ele>
        <time>2017-04-16T11:21:34Z</time>
      </trkpt>
      <trkpt lat="50.69149" lon="3.84697">
        <ele>22.25</ele>
        <time>2017-04-16T11:21:35Z</time>
      </trkpt>
      <trkpt lat="50.69156" lon="3.84688">
        <ele>22.25</ele>
        <time>2017-04-16T11:21:43Z</time>
      </trkpt>
      <trkpt lat="50.69166" lon="3.84679">
        <ele>23.69</ele>
        <time>2017-04-16T11:21:52Z</time>
      </trkpt>
      <trkpt lat="50.69177" lon="3.84667">
        <ele>22.25</ele>
        <time>2017-04-16T11:22:02Z</time>
      </trkpt>
      <trkpt lat="50.6918" lon="3.84662">
        <ele>24.17</ele>
        <time>2017-04-16T11:22:05Z</time>
      </trkpt>
      <trkpt lat="50.69196" lon="3.84644">
        <ele>20.81</ele>
        <time>2017-04-16T11:22:18Z</time>
      </trkpt>
      <trkpt lat="50.69198" lon="3.84642">
        <ele>24.17</ele>
        <time>2017-04-16T11:22:20Z</time>
      </trkpt>
      <trkpt lat="50.69208" lon="3.8463">
        <ele>21.77</ele>
        <time>2017-04-16T11:22:30Z</time>
      </trkpt>
      <trkpt lat="50.69213" lon="3.84627">
        <ele>24.17</ele>
        <time>2017-04-16T11:22:35Z</time>
      </trkpt>
      <trkpt lat="50.69216" lon="3.84625">
        <ele>22.73</ele>
        <time>2017-04-16T11:22:38Z</time>
      </trkpt>
      <trkpt lat="50.69235" lon="3.84631">
        <ele>23.21</ele>
        <time>2017-04-16T11:22:50Z</time>
      </trkpt>
      <trkpt lat="50.6924" lon="3.84636">
        <ele>20.32</ele>
        <time>2017-04-16T11:22:56Z</time>
      </trkpt>
      <trkpt lat="50.69241" lon="3.84637">
        <ele>23.69</ele>
        <time>2017-04-16T11:22:57Z</time>
      </trkpt>
      <trkpt lat="50.69242" lon="3.84637">
        <ele>23.69</ele>
        <time>2017-04-16T11:22:58Z</time>
      </trkpt>
      <trkpt lat="50.6925" lon="3.84638">
        <ele>22.25</ele>
        <time>2017-04-16T11:23:05Z</time>
      </trkpt>
      <trkpt lat="50.69255" lon="3.84636">
        <ele>21.29</ele>
        <time>2017-04-16T11:23:09Z</time>
      </trkpt>
      <trkpt lat="50.69256" lon="3.84635">
        <ele>24.17</ele>
        <time>2017-04-16T11:23:10Z</time>
      </trkpt>
      <trkpt lat="50.69257" lon="3.84634">
        <ele>24.17</ele>
        <time>2017-04-16T11:23:11Z</time>
      </trkpt>
      <trkpt lat="50.69259" lon="3.84632">
        <ele>20.81</ele>
        <time>2017-04-16T11:23:13Z</time>
      </trkpt>
      <trkpt lat="50.69263" lon="3.84629">
        <ele>23.21</ele>
        <time>2017-04-16T11:23:16Z</time>
      </trkpt>
      <trkpt lat="50.69265" lon="3.84626">
        <ele>21.29</ele>
        <time>2017-04-16T11:23:21Z</time>
      </trkpt>
      <trkpt lat="50.69267" lon="3.84625">
        <ele>24.17</ele>
        <time>2017-04-16T11:23:23Z</time>
      </trkpt>
      <trkpt lat="50.69268" lon="3.84624">
        <ele>24.17</ele>
        <time>2017-04-16T11:23:24Z</time>
      </trkpt>
      <trkpt lat="50.69269" lon="3.84622">
        <ele>22.73</ele>
        <time>2017-04-16T11:23:26Z</time>
      </trkpt>
      <trkpt lat="50.69282" lon="3.84609">
        <ele>24.17</ele>
        <time>2017-04-16T11:23:35Z</time>
      </trkpt>
      <trkpt lat="50.69288" lon="3.84601">
        <ele>21.77</ele>
        <time>2017-04-16T11:23:39Z</time>
      </trkpt>
      <trkpt lat="50.69299" lon="3.84586">
        <ele>22.73</ele>
        <time>2017-04-16T11:23:50Z</time>
      </trkpt>
      <trkpt lat="50.69311" lon="3.84566">
        <ele>22.73</ele>
        <time>2017-04-16T11:24:01Z</time>
      </trkpt>
      <trkpt lat="50.69315" lon="3.84558">
        <ele>21.29</ele>
        <time>2017-04-16T11:24:06Z</time>
      </trkpt>
      <trkpt lat="50.6932" lon="3.84546">
        <ele>20.81</ele>
        <time>2017-04-16T11:24:13Z</time>
      </trkpt>
      <trkpt lat="50.69321" lon="3.84544">
        <ele>23.69</ele>
        <time>2017-04-16T11:24:15Z</time>
      </trkpt>
      <trkpt lat="50.69322" lon="3.84541">
        <ele>21.77</ele>
        <time>2017-04-16T11:24:17Z</time>
      </trkpt>
      <trkpt lat="50.69326" lon="3.84531">
        <ele>23.69</ele>
        <time>2017-04-16T11:24:23Z</time>
      </trkpt>
      <trkpt lat="50.69328" lon="3.84526">
        <ele>22.73</ele>
        <time>2017-04-16T11:24:26Z</time>
      </trkpt>
      <trkpt lat="50.69331" lon="3.84515">
        <ele>24.17</ele>
        <time>2017-04-16T11:24:33Z</time>
      </trkpt>
      <trkpt lat="50.69333" lon="3.84508">
        <ele>22.25</ele>
        <time>2017-04-16T11:24:36Z</time>
      </trkpt>
      <trkpt lat="50.69342" lon="3.84486">
        <ele>23.69</ele>
        <time>2017-04-16T11:24:49Z</time>
      </trkpt>
      <trkpt lat="50.69345" lon="3.84478">
        <ele>22.25</ele>
        <time>2017-04-16T11:24:53Z</time>
      </trkpt>
      <trkpt lat="50.69347" lon="3.84466">
        <ele>23.69</ele>
        <time>2017-04-16T11:25:01Z</time>
      </trkpt>
      <trkpt lat="50.69349" lon="3.84462">
        <ele>22.25</ele>
        <time>2017-04-16T11:25:03Z</time>
      </trkpt>
      <trkpt lat="50.69357" lon="3.84442">
        <ele>23.21</ele>
        <time>2017-04-16T11:25:13Z</time>
      </trkpt>
      <trkpt lat="50.69362" lon="3.84427">
        <ele>20.81</ele>
        <time>2017-04-16T11:25:22Z</time>
      </trkpt>
      <trkpt lat="50.69365" lon="3.84419">
        <ele>21.29</ele>
        <time>2017-04-16T11:25:27Z</time>
      </trkpt>
      <trkpt lat="50.69368" lon="3.84413">
        <ele>22.25</ele>
        <time>2017-04-16T11:25:31Z</time>
      </trkpt>
      <trkpt lat="50.69373" lon="3.844">
        <ele>20.32</ele>
        <time>2017-04-16T11:25:38Z</time>
      </trkpt>
      <trkpt lat="50.69375" lon="3.84396">
        <ele>23.69</ele>
        <time>2017-04-16T11:25:40Z</time>
      </trkpt>
      <trkpt lat="50.69378" lon="3.8439">
        <ele>21.29</ele>
        <time>2017-04-16T11:25:43Z</time>
      </trkpt>
      <trkpt lat="50.69388" lon="3.84361">
        <ele>20.32</ele>
        <time>2017-04-16T11:26:00Z</time>
      </trkpt>
      <trkpt lat="50.6939" lon="3.84355">
        <ele>22.73</ele>
        <time>2017-04-16T11:26:03Z</time>
      </trkpt>
      <trkpt lat="50.69395" lon="3.84337">
        <ele>20.32</ele>
        <time>2017-04-16T11:26:13Z</time>
      </trkpt>
      <trkpt lat="50.69396" lon="3.84334">
        <ele>22.73</ele>
        <time>2017-04-16T11:26:15Z</time>
      </trkpt>
      <trkpt lat="50.69399" lon="3.84323">
        <ele>21.29</ele>
        <time>2017-04-16T11:26:20Z</time>
      </trkpt>
      <trkpt lat="50.69403" lon="3.84292">
        <ele>21.29</ele>
        <time>2017-04-16T11:26:34Z</time>
      </trkpt>
      <trkpt lat="50.69403" lon="3.84286">
        <ele>21.29</ele>
        <time>2017-04-16T11:26:37Z</time>
      </trkpt>
      <trkpt lat="50.69402" lon="3.84279">
        <ele>20.81</ele>
        <time>2017-04-16T11:26:41Z</time>
      </trkpt>
      <trkpt lat="50.69399" lon="3.8427">
        <ele>22.73</ele>
        <time>2017-04-16T11:26:47Z</time>
      </trkpt>
      <trkpt lat="50.6939" lon="3.84251">
        <ele>23.21</ele>
        <time>2017-04-16T11:26:59Z</time>
      </trkpt>
      <trkpt lat="50.69389" lon="3.84249">
        <ele>23.21</ele>
        <time>2017-04-16T11:27:00Z</time>
      </trkpt>
      <trkpt lat="50.69384" lon="3.84233">
        <ele>21.29</ele>
        <time>2017-04-16T11:27:07Z</time>
      </trkpt>
      <trkpt lat="50.69383" lon="3.84231">
        <ele>21.29</ele>
        <time>2017-04-16T11:27:08Z</time>
      </trkpt>
      <trkpt lat="50.69373" lon="3.84203">
        <ele>22.25</ele>
        <time>2017-04-16T11:27:25Z</time>
      </trkpt>
      <trkpt lat="50.69372" lon="3.84191">
        <ele>24.17</ele>
        <time>2017-04-16T11:27:31Z</time>
      </trkpt>
      <trkpt lat="50.69374" lon="3.84184">
        <ele>22.73</ele>
        <time>2017-04-16T11:27:34Z</time>
      </trkpt>
      <trkpt lat="50.69379" lon="3.84165">
        <ele>22.25</ele>
        <time>2017-04-16T11:27:48Z</time>
      </trkpt>
      <trkpt lat="50.69379" lon="3.84162">
        <ele>23.69</ele>
        <time>2017-04-16T11:27:54Z</time>
      </trkpt>
      <trkpt lat="50.69382" lon="3.8416">
        <ele>22.73</ele>
        <time>2017-04-16T11:27:57Z</time>
      </trkpt>
      <trkpt lat="50.69398" lon="3.84165">
        <ele>23.21</ele>
        <time>2017-04-16T11:28:07Z</time>
      </trkpt>
      <trkpt lat="50.69405" lon="3.84168">
        <ele>21.29</ele>
        <time>2017-04-16T11:28:12Z</time>
      </trkpt>
      <trkpt lat="50.69416" lon="3.84171">
        <ele>21.77</ele>
        <time>2017-04-16T11:28:25Z</time>
      </trkpt>
      <trkpt lat="50.69429" lon="3.84175">
        <ele>23.21</ele>
        <time>2017-04-16T11:28:35Z</time>
      </trkpt>
      <trkpt lat="50.69435" lon="3.84178">
        <ele>21.77</ele>
        <time>2017-04-16T11:28:39Z</time>
      </trkpt>
      <trkpt lat="50.69445" lon="3.84184">
        <ele>22.73</ele>
        <time>2017-04-16T11:28:48Z</time>
      </trkpt>
      <trkpt lat="50.69461" lon="3.84195">
        <ele>22.25</ele>
        <time>2017-04-16T11:29:03Z</time>
      </trkpt>
      <trkpt lat="50.69476" lon="3.84218">
        <ele>21.77</ele>
        <time>2017-04-16T11:29:18Z</time>
      </trkpt>
      <trkpt lat="50.69477" lon="3.8422">
        <ele>22.25</ele>
        <time>2017-04-16T11:29:19Z</time>
      </trkpt>
      <trkpt lat="50.69478" lon="3.84223">
        <ele>20.32</ele>
        <time>2017-04-16T11:29:22Z</time>
      </trkpt>
      <trkpt lat="50.69479" lon="3.84224">
        <ele>20.32</ele>
        <time>2017-04-16T11:29:23Z</time>
      </trkpt>
      <trkpt lat="50.69481" lon="3.84224">
        <ele>20.32</ele>
        <time>2017-04-16T11:29:24Z</time>
      </trkpt>
      <trkpt lat="50.69482" lon="3.84225">
        <ele>20.32</ele>
        <time>2017-04-16T11:29:25Z</time>
      </trkpt>
      <trkpt lat="50.69493" lon="3.84234">
        <ele>20.32</ele>
        <time>2017-04-16T11:29:34Z</time>
      </trkpt>
      <trkpt lat="50.69497" lon="3.84238">
        <ele>23.21</ele>
        <time>2017-04-16T11:29:38Z</time>
      </trkpt>
      <trkpt lat="50.69516" lon="3.84259">
        <ele>22.25</ele>
        <time>2017-04-16T11:29:58Z</time>
      </trkpt>
      <trkpt lat="50.69524" lon="3.84268">
        <ele>22.25</ele>
        <time>2017-04-16T11:30:07Z</time>
      </trkpt>
      <trkpt lat="50.69543" lon="3.84289">
        <ele>21.77</ele>
        <time>2017-04-16T11:30:23Z</time>
      </trkpt>
      <trkpt lat="50.69549" lon="3.84296">
        <ele>20.32</ele>
        <time>2017-04-16T11:30:29Z</time>
      </trkpt>
      <trkpt lat="50.69573" lon="3.84322">
        <ele>19.84</ele>
        <time>2017-04-16T11:30:50Z</time>
      </trkpt>
      <trkpt lat="50.69584" lon="3.84333">
        <ele>21.77</ele>
        <time>2017-04-16T11:30:58Z</time>
      </trkpt>
      <trkpt lat="50.69588" lon="3.84337">
        <ele>19.36</ele>
        <time>2017-04-16T11:31:02Z</time>
      </trkpt>
      <trkpt lat="50.69594" lon="3.84345">
        <ele>20.81</ele>
        <time>2017-04-16T11:31:10Z</time>
      </trkpt>
      <trkpt lat="50.69596" lon="3.84348">
        <ele>19.36</ele>
        <time>2017-04-16T11:31:12Z</time>
      </trkpt>
      <trkpt lat="50.69604" lon="3.84356">
        <ele>19.84</ele>
        <time>2017-04-16T11:31:18Z</time>
      </trkpt>
      <trkpt lat="50.69625" lon="3.8438">
        <ele>20.32</ele>
        <time>2017-04-16T11:31:36Z</time>
      </trkpt>
      <trkpt lat="50.69647" lon="3.84397">
        <ele>21.77</ele>
        <time>2017-04-16T11:31:55Z</time>
      </trkpt>
      <trkpt lat="50.6966" lon="3.84407">
        <ele>21.77</ele>
        <time>2017-04-16T11:32:03Z</time>
      </trkpt>
      <trkpt lat="50.69679" lon="3.84418">
        <ele>22.73</ele>
        <time>2017-04-16T11:32:15Z</time>
      </trkpt>
      <trkpt lat="50.69684" lon="3.84421">
        <ele>21.29</ele>
        <time>2017-04-16T11:32:19Z</time>
      </trkpt>
      <trkpt lat="50.69687" lon="3.84422">
        <ele>22.73</ele>
        <time>2017-04-16T11:32:22Z</time>
      </trkpt>
      <trkpt lat="50.69705" lon="3.84427">
        <ele>22.25</ele>
        <time>2017-04-16T11:32:35Z</time>
      </trkpt>
      <trkpt lat="50.6972" lon="3.84434">
        <ele>20.81</ele>
        <time>2017-04-16T11:32:51Z</time>
      </trkpt>
      <trkpt lat="50.69745" lon="3.84446">
        <ele>22.73</ele>
        <time>2017-04-16T11:33:13Z</time>
      </trkpt>
      <trkpt lat="50.69746" lon="3.84447">
        <ele>22.73</ele>
        <time>2017-04-16T11:33:14Z</time>
      </trkpt>
      <trkpt lat="50.69749" lon="3.84447">
        <ele>21.29</ele>
        <time>2017-04-16T11:33:16Z</time>
      </trkpt>
      <trkpt lat="50.69765" lon="3.84452">
        <ele>22.25</ele>
        <time>2017-04-16T11:33:25Z</time>
      </trkpt>
      <trkpt lat="50.69788" lon="3.84462">
        <ele>22.73</ele>
        <time>2017-04-16T11:33:45Z</time>
      </trkpt>
      <trkpt lat="50.6979" lon="3.84463">
        <ele>22.73</ele>
        <time>2017-04-16T11:33:46Z</time>
      </trkpt>
      <trkpt lat="50.69793" lon="3.84464">
        <ele>21.77</ele>
        <time>2017-04-16T11:33:49Z</time>
      </trkpt>
      <trkpt lat="50.69808" lon="3.8447">
        <ele>22.73</ele>
        <time>2017-04-16T11:34:03Z</time>
      </trkpt>
      <trkpt lat="50.69821" lon="3.84474">
        <ele>22.73</ele>
        <time>2017-04-16T11:34:13Z</time>
      </trkpt>
      <trkpt lat="50.69829" lon="3.84476">
        <ele>21.29</ele>
        <time>2017-04-16T11:34:19Z</time>
      </trkpt>
      <trkpt lat="50.69831" lon="3.84476">
        <ele>20.32</ele>
        <time>2017-04-16T11:34:20Z</time>
      </trkpt>
      <trkpt lat="50.69833" lon="3.84476">
        <ele>20.81</ele>
        <time>2017-04-16T11:34:21Z</time>
      </trkpt>
      <trkpt lat="50.69837" lon="3.84476">
        <ele>22.73</ele>
        <time>2017-04-16T11:34:24Z</time>
      </trkpt>
      <trkpt lat="50.69845" lon="3.84476">
        <ele>21.77</ele>
        <time>2017-04-16T11:34:29Z</time>
      </trkpt>
      <trkpt lat="50.69856" lon="3.84475">
        <ele>22.25</ele>
        <time>2017-04-16T11:34:37Z</time>
      </trkpt>
      <trkpt lat="50.69866" lon="3.84475">
        <ele>20.32</ele>
        <time>2017-04-16T11:34:44Z</time>
      </trkpt>
      <trkpt lat="50.6988" lon="3.84473">
        <ele>20.81</ele>
        <time>2017-04-16T11:34:55Z</time>
      </trkpt>
      <trkpt lat="50.69899" lon="3.8447">
        <ele>20.32</ele>
        <time>2017-04-16T11:35:12Z</time>
      </trkpt>
      <trkpt lat="50.69908" lon="3.8447">
        <ele>21.77</ele>
        <time>2017-04-16T11:35:19Z</time>
      </trkpt>
      <trkpt lat="50.69916" lon="3.84468">
        <ele>21.29</ele>
        <time>2017-04-16T11:35:25Z</time>
      </trkpt>
      <trkpt lat="50.69928" lon="3.84466">
        <ele>20.81</ele>
        <time>2017-04-16T11:35:34Z</time>
      </trkpt>
      <trkpt lat="50.69941" lon="3.84461">
        <ele>23.21</ele>
        <time>2017-04-16T11:35:44Z</time>
      </trkpt>
      <trkpt lat="50.69948" lon="3.84459">
        <ele>21.29</ele>
        <time>2017-04-16T11:35:49Z</time>
      </trkpt>
      <trkpt lat="50.69968" lon="3.84451">
        <ele>20.81</ele>
        <time>2017-04-16T11:36:01Z</time>
      </trkpt>
      <trkpt lat="50.69981" lon="3.84442">
        <ele>22.25</ele>
        <time>2017-04-16T11:36:11Z</time>
      </trkpt>
      <trkpt lat="50.69985" lon="3.84438">
        <ele>20.32</ele>
        <time>2017-04-16T11:36:15Z</time>
      </trkpt>
      <trkpt lat="50.7" lon="3.8442">
        <ele>20.32</ele>
        <time>2017-04-16T11:36:30Z</time>
      </trkpt>
      <trkpt lat="50.70001" lon="3.84419">
        <ele>20.32</ele>
        <time>2017-04-16T11:36:31Z</time>
      </trkpt>
      <trkpt lat="50.70002" lon="3.84417">
        <ele>20.32</ele>
        <time>2017-04-16T11:36:32Z</time>
      </trkpt>
      <trkpt lat="50.70003" lon="3.84415">
        <ele>20.32</ele>
        <time>2017-04-16T11:36:33Z</time>
      </trkpt>
      <trkpt lat="50.70005" lon="3.84414">
        <ele>21.77</ele>
        <time>2017-04-16T11:36:34Z</time>
      </trkpt>
      <trkpt lat="50.70006" lon="3.84412">
        <ele>21.77</ele>
        <time>2017-04-16T11:36:35Z</time>
      </trkpt>
      <trkpt lat="50.70024" lon="3.84375">
        <ele>21.77</ele>
        <time>2017-04-16T11:36:53Z</time>
      </trkpt>
      <trkpt lat="50.70025" lon="3.84373">
        <ele>21.77</ele>
        <time>2017-04-16T11:36:54Z</time>
      </trkpt>
      <trkpt lat="50.70026" lon="3.84368">
        <ele>20.32</ele>
        <time>2017-04-16T11:36:56Z</time>
      </trkpt>
      <trkpt lat="50.70029" lon="3.84346">
        <ele>21.29</ele>
        <time>2017-04-16T11:37:05Z</time>
      </trkpt>
      <trkpt lat="50.70033" lon="3.84334">
        <ele>19.36</ele>
        <time>2017-04-16T11:37:11Z</time>
      </trkpt>
      <trkpt lat="50.70034" lon="3.84331">
        <ele>22.25</ele>
        <time>2017-04-16T11:37:13Z</time>
      </trkpt>
      <trkpt lat="50.70035" lon="3.84329">
        <ele>22.25</ele>
        <time>2017-04-16T11:37:14Z</time>
      </trkpt>
      <trkpt lat="50.70037" lon="3.84319">
        <ele>20.81</ele>
        <time>2017-04-16T11:37:19Z</time>
      </trkpt>
      <trkpt lat="50.70046" lon="3.8429">
        <ele>20.81</ele>
        <time>2017-04-16T11:37:34Z</time>
      </trkpt>
      <trkpt lat="50.70049" lon="3.84281">
        <ele>18.88</ele>
        <time>2017-04-16T11:37:39Z</time>
      </trkpt>
      <trkpt lat="50.70049" lon="3.84279">
        <ele>18.88</ele>
        <time>2017-04-16T11:37:40Z</time>
      </trkpt>
      <trkpt lat="50.70053" lon="3.84272">
        <ele>22.73</ele>
        <time>2017-04-16T11:37:44Z</time>
      </trkpt>
      <trkpt lat="50.70054" lon="3.84271">
        <ele>22.73</ele>
        <time>2017-04-16T11:37:45Z</time>
      </trkpt>
      <trkpt lat="50.70055" lon="3.84268">
        <ele>21.77</ele>
        <time>2017-04-16T11:37:47Z</time>
      </trkpt>
      <trkpt lat="50.70066" lon="3.84249">
        <ele>20.32</ele>
        <time>2017-04-16T11:38:00Z</time>
      </trkpt>
      <trkpt lat="50.70067" lon="3.84247">
        <ele>20.32</ele>
        <time>2017-04-16T11:38:01Z</time>
      </trkpt>
      <trkpt lat="50.70068" lon="3.84245">
        <ele>20.32</ele>
        <time>2017-04-16T11:38:02Z</time>
      </trkpt>
      <trkpt lat="50.70068" lon="3.84243">
        <ele>20.32</ele>
        <time>2017-04-16T11:38:03Z</time>
      </trkpt>
      <trkpt lat="50.70073" lon="3.84232">
        <ele>21.77</ele>
        <time>2017-04-16T11:38:10Z</time>
      </trkpt>
      <trkpt lat="50.70082" lon="3.84203">
        <ele>20.81</ele>
        <time>2017-04-16T11:38:26Z</time>
      </trkpt>
      <trkpt lat="50.70085" lon="3.84193">
        <ele>21.29</ele>
        <time>2017-04-16T11:38:31Z</time>
      </trkpt>
      <trkpt lat="50.70094" lon="3.84166">
        <ele>21.77</ele>
        <time>2017-04-16T11:38:47Z</time>
      </trkpt>
      <trkpt lat="50.70095" lon="3.84163">
        <ele>20.32</ele>
        <time>2017-04-16T11:38:49Z</time>
      </trkpt>
      <trkpt lat="50.70101" lon="3.84139">
        <ele>22.25</ele>
        <time>2017-04-16T11:39:00Z</time>
      </trkpt>
      <trkpt lat="50.70105" lon="3.84124">
        <ele>20.81</ele>
        <time>2017-04-16T11:39:05Z</time>
      </trkpt>
      <trkpt lat="50.70108" lon="3.84117">
        <ele>20.81</ele>
        <time>2017-04-16T11:39:08Z</time>
      </trkpt>
      <trkpt lat="50.70108" lon="3.84115">
        <ele>22.73</ele>
        <time>2017-04-16T11:39:09Z</time>
      </trkpt>
      <trkpt lat="50.70109" lon="3.84112">
        <ele>22.73</ele>
        <time>2017-04-16T11:39:10Z</time>
      </trkpt>
      <trkpt lat="50.7011" lon="3.8411">
        <ele>22.25</ele>
        <time>2017-04-16T11:39:11Z</time>
      </trkpt>
      <trkpt lat="50.70111" lon="3.84108">
        <ele>20.32</ele>
        <time>2017-04-16T11:39:12Z</time>
      </trkpt>
      <trkpt lat="50.70112" lon="3.84106">
        <ele>20.32</ele>
        <time>2017-04-16T11:39:13Z</time>
      </trkpt>
      <trkpt lat="50.70126" lon="3.84082">
        <ele>19.84</ele>
        <time>2017-04-16T11:39:26Z</time>
      </trkpt>
      <trkpt lat="50.70132" lon="3.84065">
        <ele>20.81</ele>
        <time>2017-04-16T11:39:35Z</time>
      </trkpt>
      <trkpt lat="50.70142" lon="3.84041">
        <ele>19.36</ele>
        <time>2017-04-16T11:39:49Z</time>
      </trkpt>
      <trkpt lat="50.7015" lon="3.84025">
        <ele>21.29</ele>
        <time>2017-04-16T11:39:57Z</time>
      </trkpt>
      <trkpt lat="50.70155" lon="3.84011">
        <ele>19.84</ele>
        <time>2017-04-16T11:40:04Z</time>
      </trkpt>
      <trkpt lat="50.7016" lon="3.83999">
        <ele>20.81</ele>
        <time>2017-04-16T11:40:10Z</time>
      </trkpt>
      <trkpt lat="50.70163" lon="3.83992">
        <ele>19.84</ele>
        <time>2017-04-16T11:40:15Z</time>
      </trkpt>
      <trkpt lat="50.70165" lon="3.83986">
        <ele>20.81</ele>
        <time>2017-04-16T11:40:19Z</time>
      </trkpt>
      <trkpt lat="50.70183" lon="3.83956">
        <ele>18.88</ele>
        <time>2017-04-16T11:40:36Z</time>
      </trkpt>
      <trkpt lat="50.702" lon="3.83925">
        <ele>19.36</ele>
        <time>2017-04-16T11:40:54Z</time>
      </trkpt>
      <trkpt lat="50.70203" lon="3.83912">
        <ele>18.88</ele>
        <time>2017-04-16T11:41:01Z</time>
      </trkpt>
      <trkpt lat="50.70215" lon="3.83894">
        <ele>18.4</ele>
        <time>2017-04-16T11:41:13Z</time>
      </trkpt>
      <trkpt lat="50.70223" lon="3.83878">
        <ele>20.81</ele>
        <time>2017-04-16T11:41:23Z</time>
      </trkpt>
      <trkpt lat="50.70228" lon="3.83869">
        <ele>18.4</ele>
        <time>2017-04-16T11:41:28Z</time>
      </trkpt>
      <trkpt lat="50.70242" lon="3.83845">
        <ele>18.4</ele>
        <time>2017-04-16T11:41:44Z</time>
      </trkpt>
      <trkpt lat="50.7025" lon="3.83833">
        <ele>17.44</ele>
        <time>2017-04-16T11:41:51Z</time>
      </trkpt>
      <trkpt lat="50.70253" lon="3.83828">
        <ele>17.92</ele>
        <time>2017-04-16T11:41:54Z</time>
      </trkpt>
      <trkpt lat="50.70254" lon="3.83826">
        <ele>17.92</ele>
        <time>2017-04-16T11:41:55Z</time>
      </trkpt>
      <trkpt lat="50.70258" lon="3.83823">
        <ele>18.88</ele>
        <time>2017-04-16T11:42:00Z</time>
      </trkpt>
      <trkpt lat="50.7026" lon="3.83823">
        <ele>16.96</ele>
        <time>2017-04-16T11:42:03Z</time>
      </trkpt>
      <trkpt lat="50.70261" lon="3.83826">
        <ele>18.88</ele>
        <time>2017-04-16T11:42:04Z</time>
      </trkpt>
      <trkpt lat="50.70262" lon="3.83828">
        <ele>22.25</ele>
        <time>2017-04-16T11:42:05Z</time>
      </trkpt>
      <trkpt lat="50.70262" lon="3.83829">
        <ele>18.88</ele>
        <time>2017-04-16T11:42:06Z</time>
      </trkpt>
      <trkpt lat="50.70274" lon="3.83843">
        <ele>19.36</ele>
        <time>2017-04-16T11:42:20Z</time>
      </trkpt>
      <trkpt lat="50.7028" lon="3.83846">
        <ele>18.88</ele>
        <time>2017-04-16T11:42:47Z</time>
      </trkpt>
      <trkpt lat="50.70283" lon="3.83847">
        <ele>20.32</ele>
        <time>2017-04-16T11:43:00Z</time>
      </trkpt>
      <trkpt lat="50.70283" lon="3.83847">
        <ele>20.32</ele>
        <time>2017-04-16T11:43:01Z</time>
      </trkpt>
      <trkpt lat="50.70286" lon="3.83855">
        <ele>20.32</ele>
        <time>2017-04-16T11:43:06Z</time>
      </trkpt>
      <trkpt lat="50.70288" lon="3.83861">
        <ele>18.88</ele>
        <time>2017-04-16T11:43:11Z</time>
      </trkpt>
      <trkpt lat="50.70291" lon="3.83868">
        <ele>20.81</ele>
        <time>2017-04-16T11:43:15Z</time>
      </trkpt>
      <trkpt lat="50.70295" lon="3.83875">
        <ele>19.36</ele>
        <time>2017-04-16T11:43:19Z</time>
      </trkpt>
      <trkpt lat="50.70304" lon="3.83894">
        <ele>19.84</ele>
        <time>2017-04-16T11:43:32Z</time>
      </trkpt>
      <trkpt lat="50.70308" lon="3.83903">
        <ele>18.4</ele>
        <time>2017-04-16T11:43:38Z</time>
      </trkpt>
      <trkpt lat="50.70313" lon="3.83915">
        <ele>19.36</ele>
        <time>2017-04-16T11:43:43Z</time>
      </trkpt>
      <trkpt lat="50.70319" lon="3.83927">
        <ele>17.44</ele>
        <time>2017-04-16T11:43:50Z</time>
      </trkpt>
      <trkpt lat="50.70321" lon="3.8393">
        <ele>19.84</ele>
        <time>2017-04-16T11:43:52Z</time>
      </trkpt>
      <trkpt lat="50.70325" lon="3.83935">
        <ele>18.4</ele>
        <time>2017-04-16T11:44:04Z</time>
      </trkpt>
      <trkpt lat="50.70325" lon="3.83934">
        <ele>15.52</ele>
        <time>2017-04-16T11:44:23Z</time>
      </trkpt>
      <trkpt lat="50.70325" lon="3.83934">
        <ele>21.77</ele>
        <time>2017-04-16T11:44:24Z</time>
      </trkpt>
      <trkpt lat="50.70324" lon="3.83934">
        <ele>18.4</ele>
        <time>2017-04-16T11:44:25Z</time>
      </trkpt>
      <trkpt lat="50.70326" lon="3.83936">
        <ele>19.84</ele>
        <time>2017-04-16T11:44:44Z</time>
      </trkpt>
      <trkpt lat="50.70325" lon="3.83937">
        <ele>18.4</ele>
        <time>2017-04-16T11:44:52Z</time>
      </trkpt>
      <trkpt lat="50.7032" lon="3.83938">
        <ele>19.36</ele>
        <time>2017-04-16T11:45:11Z</time>
      </trkpt>
      <trkpt lat="50.70323" lon="3.83942">
        <ele>18.4</ele>
        <time>2017-04-16T11:45:28Z</time>
      </trkpt>
      <trkpt lat="50.70325" lon="3.83939">
        <ele>18.88</ele>
        <time>2017-04-16T11:45:52Z</time>
      </trkpt>
      <trkpt lat="50.70316" lon="3.83932">
        <ele>18.88</ele>
        <time>2017-04-16T11:46:14Z</time>
      </trkpt>
      <trkpt lat="50.7032" lon="3.83941">
        <ele>18.88</ele>
        <time>2017-04-16T11:46:40Z</time>
      </trkpt>
      <trkpt lat="50.70323" lon="3.83941">
        <ele>19.36</ele>
        <time>2017-04-16T11:47:12Z</time>
      </trkpt>
      <trkpt lat="50.70321" lon="3.83937">
        <ele>18.88</ele>
        <time>2017-04-16T11:47:47Z</time>
      </trkpt>
      <trkpt lat="50.70322" lon="3.83939">
        <ele>25.13</ele>
        <time>2017-04-16T11:47:49Z</time>
      </trkpt>
      <trkpt lat="50.70322" lon="3.8394">
        <ele>20.32</ele>
        <time>2017-04-16T11:47:50Z</time>
      </trkpt>
      <trkpt lat="50.70322" lon="3.8394">
        <ele>19.84</ele>
        <time>2017-04-16T11:47:52Z</time>
      </trkpt>
      <trkpt lat="50.70325" lon="3.83949">
        <ele>20.81</ele>
        <time>2017-04-16T11:48:01Z</time>
      </trkpt>
      <trkpt lat="50.70326" lon="3.83949">
        <ele>19.36</ele>
        <time>2017-04-16T11:48:02Z</time>
      </trkpt>
      <trkpt lat="50.70326" lon="3.83951">
        <ele>19.36</ele>
        <time>2017-04-16T11:48:03Z</time>
      </trkpt>
      <trkpt lat="50.70331" lon="3.83969">
        <ele>20.32</ele>
        <time>2017-04-16T11:48:15Z</time>
      </trkpt>
      <trkpt lat="50.70337" lon="3.83988">
        <ele>20.32</ele>
        <time>2017-04-16T11:48:30Z</time>
      </trkpt>
      <trkpt lat="50.70338" lon="3.8399">
        <ele>20.32</ele>
        <time>2017-04-16T11:48:32Z</time>
      </trkpt>
      <trkpt lat="50.70339" lon="3.83991">
        <ele>20.32</ele>
        <time>2017-04-16T11:48:33Z</time>
      </trkpt>
      <trkpt lat="50.7034" lon="3.83992">
        <ele>20.32</ele>
        <time>2017-04-16T11:48:34Z</time>
      </trkpt>
      <trkpt lat="50.7034" lon="3.83994">
        <ele>20.32</ele>
        <time>2017-04-16T11:48:35Z</time>
      </trkpt>
      <trkpt lat="50.70341" lon="3.83995">
        <ele>20.32</ele>
        <time>2017-04-16T11:48:36Z</time>
      </trkpt>
      <trkpt lat="50.70347" lon="3.83995">
        <ele>18.88</ele>
        <time>2017-04-16T11:48:44Z</time>
      </trkpt>
      <trkpt lat="50.70351" lon="3.84">
        <ele>20.81</ele>
        <time>2017-04-16T11:48:47Z</time>
      </trkpt>
      <trkpt lat="50.70356" lon="3.8401">
        <ele>19.84</ele>
        <time>2017-04-16T11:48:52Z</time>
      </trkpt>
      <trkpt lat="50.70362" lon="3.84025">
        <ele>21.29</ele>
        <time>2017-04-16T11:48:59Z</time>
      </trkpt>
      <trkpt lat="50.7037" lon="3.84047">
        <ele>21.29</ele>
        <time>2017-04-16T11:49:11Z</time>
      </trkpt>
      <trkpt lat="50.70371" lon="3.84055">
        <ele>21.77</ele>
        <time>2017-04-16T11:49:14Z</time>
      </trkpt>
      <trkpt lat="50.70371" lon="3.84057">
        <ele>21.77</ele>
        <time>2017-04-16T11:49:15Z</time>
      </trkpt>
      <trkpt lat="50.7037" lon="3.8406">
        <ele>21.77</ele>
        <time>2017-04-16T11:49:16Z</time>
      </trkpt>
      <trkpt lat="50.70375" lon="3.84089">
        <ele>22.25</ele>
        <time>2017-04-16T11:49:31Z</time>
      </trkpt>
      <trkpt lat="50.70381" lon="3.84122">
        <ele>22.25</ele>
        <time>2017-04-16T11:49:45Z</time>
      </trkpt>
      <trkpt lat="50.70387" lon="3.84141">
        <ele>20.81</ele>
        <time>2017-04-16T11:49:57Z</time>
      </trkpt>
      <trkpt lat="50.70387" lon="3.84142">
        <ele>20.81</ele>
        <time>2017-04-16T11:49:58Z</time>
      </trkpt>
      <trkpt lat="50.70388" lon="3.84144">
        <ele>22.25</ele>
        <time>2017-04-16T11:50:00Z</time>
      </trkpt>
      <trkpt lat="50.7039" lon="3.84155">
        <ele>23.21</ele>
        <time>2017-04-16T11:50:06Z</time>
      </trkpt>
      <trkpt lat="50.70391" lon="3.84157">
        <ele>21.77</ele>
        <time>2017-04-16T11:50:07Z</time>
      </trkpt>
      <trkpt lat="50.70392" lon="3.84162">
        <ele>21.77</ele>
        <time>2017-04-16T11:50:09Z</time>
      </trkpt>
      <trkpt lat="50.70392" lon="3.84164">
        <ele>21.77</ele>
        <time>2017-04-16T11:50:10Z</time>
      </trkpt>
      <trkpt lat="50.70391" lon="3.84172">
        <ele>24.17</ele>
        <time>2017-04-16T11:50:14Z</time>
      </trkpt>
      <trkpt lat="50.7039" lon="3.84175">
        <ele>23.21</ele>
        <time>2017-04-16T11:50:16Z</time>
      </trkpt>
      <trkpt lat="50.70392" lon="3.84177">
        <ele>21.77</ele>
        <time>2017-04-16T11:50:19Z</time>
      </trkpt>
      <trkpt lat="50.70397" lon="3.84182">
        <ele>24.17</ele>
        <time>2017-04-16T11:50:24Z</time>
      </trkpt>
      <trkpt lat="50.70398" lon="3.84184">
        <ele>24.17</ele>
        <time>2017-04-16T11:50:25Z</time>
      </trkpt>
      <trkpt lat="50.70399" lon="3.84185">
        <ele>24.17</ele>
        <time>2017-04-16T11:50:26Z</time>
      </trkpt>
      <trkpt lat="50.704" lon="3.84186">
        <ele>22.73</ele>
        <time>2017-04-16T11:50:27Z</time>
      </trkpt>
      <trkpt lat="50.70401" lon="3.84187">
        <ele>22.73</ele>
        <time>2017-04-16T11:50:28Z</time>
      </trkpt>
      <trkpt lat="50.70405" lon="3.84191">
        <ele>24.17</ele>
        <time>2017-04-16T11:50:33Z</time>
      </trkpt>
      <trkpt lat="50.70412" lon="3.84196">
        <ele>22.73</ele>
        <time>2017-04-16T11:50:39Z</time>
      </trkpt>
      <trkpt lat="50.7042" lon="3.84202">
        <ele>24.65</ele>
        <time>2017-04-16T11:50:47Z</time>
      </trkpt>
      <trkpt lat="50.70423" lon="3.84206">
        <ele>22.73</ele>
        <time>2017-04-16T11:50:51Z</time>
      </trkpt>
      <trkpt lat="50.70425" lon="3.84208">
        <ele>24.65</ele>
        <time>2017-04-16T11:50:53Z</time>
      </trkpt>
      <trkpt lat="50.70426" lon="3.8421">
        <ele>24.65</ele>
        <time>2017-04-16T11:50:54Z</time>
      </trkpt>
      <trkpt lat="50.70427" lon="3.84212">
        <ele>24.65</ele>
        <time>2017-04-16T11:50:55Z</time>
      </trkpt>
      <trkpt lat="50.70429" lon="3.84214">
        <ele>24.65</ele>
        <time>2017-04-16T11:50:56Z</time>
      </trkpt>
      <trkpt lat="50.7043" lon="3.84217">
        <ele>22.73</ele>
        <time>2017-04-16T11:50:57Z</time>
      </trkpt>
      <trkpt lat="50.70431" lon="3.84219">
        <ele>22.73</ele>
        <time>2017-04-16T11:50:58Z</time>
      </trkpt>
      <trkpt lat="50.70431" lon="3.84221">
        <ele>22.73</ele>
        <time>2017-04-16T11:50:59Z</time>
      </trkpt>
      <trkpt lat="50.70432" lon="3.84222">
        <ele>25.61</ele>
        <time>2017-04-16T11:51:00Z</time>
      </trkpt>
      <trkpt lat="50.70433" lon="3.84224">
        <ele>25.61</ele>
        <time>2017-04-16T11:51:01Z</time>
      </trkpt>
      <trkpt lat="50.70434" lon="3.84227">
        <ele>23.69</ele>
        <time>2017-04-16T11:51:03Z</time>
      </trkpt>
      <trkpt lat="50.70436" lon="3.84235">
        <ele>26.09</ele>
        <time>2017-04-16T11:51:07Z</time>
      </trkpt>
      <trkpt lat="50.70438" lon="3.84239">
        <ele>24.17</ele>
        <time>2017-04-16T11:51:09Z</time>
      </trkpt>
      <trkpt lat="50.70447" lon="3.8426">
        <ele>26.09</ele>
        <time>2017-04-16T11:51:24Z</time>
      </trkpt>
      <trkpt lat="50.70449" lon="3.84276">
        <ele>27.05</ele>
        <time>2017-04-16T11:51:34Z</time>
      </trkpt>
      <trkpt lat="50.70449" lon="3.84279">
        <ele>26.09</ele>
        <time>2017-04-16T11:51:37Z</time>
      </trkpt>
      <trkpt lat="50.70451" lon="3.8428">
        <ele>28.02</ele>
        <time>2017-04-16T11:51:42Z</time>
      </trkpt>
      <trkpt lat="50.70454" lon="3.84279">
        <ele>26.57</ele>
        <time>2017-04-16T11:51:44Z</time>
      </trkpt>
      <trkpt lat="50.70455" lon="3.84279">
        <ele>26.57</ele>
        <time>2017-04-16T11:51:45Z</time>
      </trkpt>
      <trkpt lat="50.70456" lon="3.84279">
        <ele>25.61</ele>
        <time>2017-04-16T11:51:46Z</time>
      </trkpt>
      <trkpt lat="50.70459" lon="3.84278">
        <ele>27.05</ele>
        <time>2017-04-16T11:51:49Z</time>
      </trkpt>
      <trkpt lat="50.70461" lon="3.84275">
        <ele>27.53</ele>
        <time>2017-04-16T11:51:53Z</time>
      </trkpt>
      <trkpt lat="50.70462" lon="3.84274">
        <ele>28.02</ele>
        <time>2017-04-16T11:51:54Z</time>
      </trkpt>
      <trkpt lat="50.70462" lon="3.84264">
        <ele>26.57</ele>
        <time>2017-04-16T11:52:01Z</time>
      </trkpt>
      <trkpt lat="50.70462" lon="3.84256">
        <ele>28.02</ele>
        <time>2017-04-16T11:52:05Z</time>
      </trkpt>
      <trkpt lat="50.70461" lon="3.84251">
        <ele>26.57</ele>
        <time>2017-04-16T11:52:07Z</time>
      </trkpt>
      <trkpt lat="50.7046" lon="3.84226">
        <ele>26.57</ele>
        <time>2017-04-16T11:52:18Z</time>
      </trkpt>
      <trkpt lat="50.70459" lon="3.84216">
        <ele>25.13</ele>
        <time>2017-04-16T11:52:25Z</time>
      </trkpt>
      <trkpt lat="50.70458" lon="3.8421">
        <ele>26.57</ele>
        <time>2017-04-16T11:52:28Z</time>
      </trkpt>
      <trkpt lat="50.70458" lon="3.84205">
        <ele>25.61</ele>
        <time>2017-04-16T11:52:30Z</time>
      </trkpt>
      <trkpt lat="50.70457" lon="3.84203">
        <ele>25.61</ele>
        <time>2017-04-16T11:52:31Z</time>
      </trkpt>
      <trkpt lat="50.70457" lon="3.84201">
        <ele>25.61</ele>
        <time>2017-04-16T11:52:32Z</time>
      </trkpt>
      <trkpt lat="50.70456" lon="3.84198">
        <ele>25.61</ele>
        <time>2017-04-16T11:52:33Z</time>
      </trkpt>
      <trkpt lat="50.70456" lon="3.84195">
        <ele>25.61</ele>
        <time>2017-04-16T11:52:34Z</time>
      </trkpt>
      <trkpt lat="50.70457" lon="3.84187">
        <ele>26.57</ele>
        <time>2017-04-16T11:52:37Z</time>
      </trkpt>
      <trkpt lat="50.70463" lon="3.84176">
        <ele>26.57</ele>
        <time>2017-04-16T11:52:43Z</time>
      </trkpt>
      <trkpt lat="50.70469" lon="3.84174">
        <ele>27.05</ele>
        <time>2017-04-16T11:52:50Z</time>
      </trkpt>
      <trkpt lat="50.7047" lon="3.8417">
        <ele>26.57</ele>
        <time>2017-04-16T11:52:53Z</time>
      </trkpt>
      <trkpt lat="50.7047" lon="3.84169">
        <ele>26.57</ele>
        <time>2017-04-16T11:52:54Z</time>
      </trkpt>
      <trkpt lat="50.70478" lon="3.84153">
        <ele>27.53</ele>
        <time>2017-04-16T11:53:05Z</time>
      </trkpt>
      <trkpt lat="50.70478" lon="3.8415">
        <ele>26.09</ele>
        <time>2017-04-16T11:53:07Z</time>
      </trkpt>
      <trkpt lat="50.70481" lon="3.84146">
        <ele>25.13</ele>
        <time>2017-04-16T11:53:10Z</time>
      </trkpt>
      <trkpt lat="50.70483" lon="3.84139">
        <ele>27.53</ele>
        <time>2017-04-16T11:53:13Z</time>
      </trkpt>
      <trkpt lat="50.70485" lon="3.84136">
        <ele>25.61</ele>
        <time>2017-04-16T11:53:15Z</time>
      </trkpt>
      <trkpt lat="50.70491" lon="3.84119">
        <ele>26.57</ele>
        <time>2017-04-16T11:53:26Z</time>
      </trkpt>
      <trkpt lat="50.70502" lon="3.84096">
        <ele>26.09</ele>
        <time>2017-04-16T11:53:40Z</time>
      </trkpt>
      <trkpt lat="50.70503" lon="3.84092">
        <ele>27.53</ele>
        <time>2017-04-16T11:53:42Z</time>
      </trkpt>
      <trkpt lat="50.70507" lon="3.84081">
        <ele>26.09</ele>
        <time>2017-04-16T11:53:51Z</time>
      </trkpt>
      <trkpt lat="50.70508" lon="3.84081">
        <ele>26.09</ele>
        <time>2017-04-16T11:53:53Z</time>
      </trkpt>
      <trkpt lat="50.70514" lon="3.84084">
        <ele>27.53</ele>
        <time>2017-04-16T11:53:58Z</time>
      </trkpt>
      <trkpt lat="50.70516" lon="3.84084">
        <ele>26.09</ele>
        <time>2017-04-16T11:54:00Z</time>
      </trkpt>
      <trkpt lat="50.70525" lon="3.84091">
        <ele>26.57</ele>
        <time>2017-04-16T11:54:11Z</time>
      </trkpt>
      <trkpt lat="50.70532" lon="3.84094">
        <ele>25.61</ele>
        <time>2017-04-16T11:54:17Z</time>
      </trkpt>
      <trkpt lat="50.70541" lon="3.84103">
        <ele>27.53</ele>
        <time>2017-04-16T11:54:23Z</time>
      </trkpt>
      <trkpt lat="50.70559" lon="3.8411">
        <ele>27.53</ele>
        <time>2017-04-16T11:54:39Z</time>
      </trkpt>
      <trkpt lat="50.70578" lon="3.8412">
        <ele>27.53</ele>
        <time>2017-04-16T11:54:56Z</time>
      </trkpt>
      <trkpt lat="50.70583" lon="3.84122">
        <ele>26.09</ele>
        <time>2017-04-16T11:55:01Z</time>
      </trkpt>
      <trkpt lat="50.70588" lon="3.84126">
        <ele>26.57</ele>
        <time>2017-04-16T11:55:09Z</time>
      </trkpt>
      <trkpt lat="50.70591" lon="3.84127">
        <ele>25.61</ele>
        <time>2017-04-16T11:55:12Z</time>
      </trkpt>
      <trkpt lat="50.70608" lon="3.84127">
        <ele>27.05</ele>
        <time>2017-04-16T11:55:24Z</time>
      </trkpt>
      <trkpt lat="50.70612" lon="3.84124">
        <ele>26.57</ele>
        <time>2017-04-16T11:55:27Z</time>
      </trkpt>
      <trkpt lat="50.70627" lon="3.84121">
        <ele>27.05</ele>
        <time>2017-04-16T11:55:39Z</time>
      </trkpt>
      <trkpt lat="50.70639" lon="3.84147">
        <ele>26.09</ele>
        <time>2017-04-16T11:55:51Z</time>
      </trkpt>
      <trkpt lat="50.70641" lon="3.84156">
        <ele>27.05</ele>
        <time>2017-04-16T11:55:56Z</time>
      </trkpt>
      <trkpt lat="50.70644" lon="3.84179">
        <ele>27.05</ele>
        <time>2017-04-16T11:56:08Z</time>
      </trkpt>
      <trkpt lat="50.70644" lon="3.84186">
        <ele>29.46</ele>
        <time>2017-04-16T11:56:11Z</time>
      </trkpt>
      <trkpt lat="50.70647" lon="3.84198">
        <ele>28.02</ele>
        <time>2017-04-16T11:56:17Z</time>
      </trkpt>
      <trkpt lat="50.70652" lon="3.84215">
        <ele>29.46</ele>
        <time>2017-04-16T11:56:27Z</time>
      </trkpt>
      <trkpt lat="50.70654" lon="3.84228">
        <ele>29.46</ele>
        <time>2017-04-16T11:56:40Z</time>
      </trkpt>
      <trkpt lat="50.70655" lon="3.84228">
        <ele>29.46</ele>
        <time>2017-04-16T11:56:41Z</time>
      </trkpt>
      <trkpt lat="50.70666" lon="3.8422">
        <ele>28.98</ele>
        <time>2017-04-16T11:56:51Z</time>
      </trkpt>
      <trkpt lat="50.70675" lon="3.84223">
        <ele>30.9</ele>
        <time>2017-04-16T11:57:01Z</time>
      </trkpt>
      <trkpt lat="50.70678" lon="3.84222">
        <ele>28.5</ele>
        <time>2017-04-16T11:57:03Z</time>
      </trkpt>
      <trkpt lat="50.70683" lon="3.84218">
        <ele>29.94</ele>
        <time>2017-04-16T11:57:09Z</time>
      </trkpt>
      <trkpt lat="50.7069" lon="3.84216">
        <ele>27.53</ele>
        <time>2017-04-16T11:57:15Z</time>
      </trkpt>
      <trkpt lat="50.70694" lon="3.84213">
        <ele>29.46</ele>
        <time>2017-04-16T11:57:19Z</time>
      </trkpt>
      <trkpt lat="50.70699" lon="3.84207">
        <ele>29.94</ele>
        <time>2017-04-16T11:57:23Z</time>
      </trkpt>
      <trkpt lat="50.70705" lon="3.84202">
        <ele>28.5</ele>
        <time>2017-04-16T11:57:28Z</time>
      </trkpt>
      <trkpt lat="50.70713" lon="3.84191">
        <ele>28.98</ele>
        <time>2017-04-16T11:57:38Z</time>
      </trkpt>
      <trkpt lat="50.70719" lon="3.84187">
        <ele>27.53</ele>
        <time>2017-04-16T11:57:44Z</time>
      </trkpt>
      <trkpt lat="50.70729" lon="3.84179">
        <ele>29.46</ele>
        <time>2017-04-16T11:57:52Z</time>
      </trkpt>
      <trkpt lat="50.70737" lon="3.84179">
        <ele>29.46</ele>
        <time>2017-04-16T11:57:59Z</time>
      </trkpt>
      <trkpt lat="50.70753" lon="3.84172">
        <ele>29.46</ele>
        <time>2017-04-16T11:58:14Z</time>
      </trkpt>
      <trkpt lat="50.70758" lon="3.84165">
        <ele>28.02</ele>
        <time>2017-04-16T11:58:19Z</time>
      </trkpt>
      <trkpt lat="50.70761" lon="3.8416">
        <ele>27.05</ele>
        <time>2017-04-16T11:58:21Z</time>
      </trkpt>
      <trkpt lat="50.70764" lon="3.84155">
        <ele>28.98</ele>
        <time>2017-04-16T11:58:25Z</time>
      </trkpt>
      <trkpt lat="50.70769" lon="3.84154">
        <ele>28.02</ele>
        <time>2017-04-16T11:58:29Z</time>
      </trkpt>
      <trkpt lat="50.70772" lon="3.84153">
        <ele>27.05</ele>
        <time>2017-04-16T11:58:32Z</time>
      </trkpt>
      <trkpt lat="50.70777" lon="3.84154">
        <ele>29.46</ele>
        <time>2017-04-16T11:58:35Z</time>
      </trkpt>
      <trkpt lat="50.7078" lon="3.84153">
        <ele>29.46</ele>
        <time>2017-04-16T11:58:37Z</time>
      </trkpt>
      <trkpt lat="50.70786" lon="3.84152">
        <ele>27.53</ele>
        <time>2017-04-16T11:58:42Z</time>
      </trkpt>
      <trkpt lat="50.70787" lon="3.84152">
        <ele>29.46</ele>
        <time>2017-04-16T11:58:43Z</time>
      </trkpt>
      <trkpt lat="50.70793" lon="3.84149">
        <ele>28.02</ele>
        <time>2017-04-16T11:58:48Z</time>
      </trkpt>
      <trkpt lat="50.70795" lon="3.8415">
        <ele>27.05</ele>
        <time>2017-04-16T11:58:50Z</time>
      </trkpt>
      <trkpt lat="50.70797" lon="3.84148">
        <ele>28.98</ele>
        <time>2017-04-16T11:58:52Z</time>
      </trkpt>
      <trkpt lat="50.708" lon="3.84146">
        <ele>27.53</ele>
        <time>2017-04-16T11:58:54Z</time>
      </trkpt>
      <trkpt lat="50.7081" lon="3.84148">
        <ele>28.98</ele>
        <time>2017-04-16T11:58:59Z</time>
      </trkpt>
      <trkpt lat="50.70815" lon="3.84151">
        <ele>28.98</ele>
        <time>2017-04-16T11:59:02Z</time>
      </trkpt>
      <trkpt lat="50.70825" lon="3.84169">
        <ele>26.57</ele>
        <time>2017-04-16T11:59:14Z</time>
      </trkpt>
      <trkpt lat="50.70825" lon="3.8417">
        <ele>30.9</ele>
        <time>2017-04-16T11:59:15Z</time>
      </trkpt>
      <trkpt lat="50.70825" lon="3.84171">
        <ele>29.46</ele>
        <time>2017-04-16T11:59:16Z</time>
      </trkpt>
      <trkpt lat="50.70825" lon="3.84174">
        <ele>30.42</ele>
        <time>2017-04-16T11:59:19Z</time>
      </trkpt>
      <trkpt lat="50.70827" lon="3.84184">
        <ele>31.38</ele>
        <time>2017-04-16T11:59:27Z</time>
      </trkpt>
      <trkpt lat="50.70827" lon="3.84194">
        <ele>28.98</ele>
        <time>2017-04-16T11:59:33Z</time>
      </trkpt>
      <trkpt lat="50.70828" lon="3.84196">
        <ele>33.3</ele>
        <time>2017-04-16T11:59:34Z</time>
      </trkpt>
      <trkpt lat="50.70831" lon="3.84204">
        <ele>31.38</ele>
        <time>2017-04-16T11:59:48Z</time>
      </trkpt>
      <trkpt lat="50.7083" lon="3.84206">
        <ele>31.38</ele>
        <time>2017-04-16T12:00:02Z</time>
      </trkpt>
      <trkpt lat="50.70832" lon="3.84208">
        <ele>32.82</ele>
        <time>2017-04-16T12:00:28Z</time>
      </trkpt>
      <trkpt lat="50.70833" lon="3.84211">
        <ele>32.82</ele>
        <time>2017-04-16T12:00:30Z</time>
      </trkpt>
      <trkpt lat="50.7084" lon="3.84226">
        <ele>32.82</ele>
        <time>2017-04-16T12:00:40Z</time>
      </trkpt>
      <trkpt lat="50.70843" lon="3.84263">
        <ele>33.3</ele>
        <time>2017-04-16T12:00:58Z</time>
      </trkpt>
      <trkpt lat="50.70844" lon="3.84267">
        <ele>31.86</ele>
        <time>2017-04-16T12:01:00Z</time>
      </trkpt>
      <trkpt lat="50.70843" lon="3.843">
        <ele>32.82</ele>
        <time>2017-04-16T12:01:18Z</time>
      </trkpt>
      <trkpt lat="50.70845" lon="3.84315">
        <ele>32.82</ele>
        <time>2017-04-16T12:01:25Z</time>
      </trkpt>
      <trkpt lat="50.70846" lon="3.84324">
        <ele>31.38</ele>
        <time>2017-04-16T12:01:29Z</time>
      </trkpt>
      <trkpt lat="50.70847" lon="3.84336">
        <ele>31.38</ele>
        <time>2017-04-16T12:01:35Z</time>
      </trkpt>
      <trkpt lat="50.70846" lon="3.84341">
        <ele>32.82</ele>
        <time>2017-04-16T12:01:37Z</time>
      </trkpt>
      <trkpt lat="50.70845" lon="3.84344">
        <ele>33.78</ele>
        <time>2017-04-16T12:01:39Z</time>
      </trkpt>
      <trkpt lat="50.70843" lon="3.84348">
        <ele>32.82</ele>
        <time>2017-04-16T12:01:41Z</time>
      </trkpt>
      <trkpt lat="50.70837" lon="3.84357">
        <ele>33.78</ele>
        <time>2017-04-16T12:01:47Z</time>
      </trkpt>
      <trkpt lat="50.70833" lon="3.84363">
        <ele>32.34</ele>
        <time>2017-04-16T12:01:52Z</time>
      </trkpt>
      <trkpt lat="50.7083" lon="3.84368">
        <ele>34.26</ele>
        <time>2017-04-16T12:01:55Z</time>
      </trkpt>
      <trkpt lat="50.70828" lon="3.84371">
        <ele>32.82</ele>
        <time>2017-04-16T12:01:57Z</time>
      </trkpt>
      <trkpt lat="50.70815" lon="3.84397">
        <ele>35.23</ele>
        <time>2017-04-16T12:02:13Z</time>
      </trkpt>
      <trkpt lat="50.7081" lon="3.84408">
        <ele>34.26</ele>
        <time>2017-04-16T12:02:21Z</time>
      </trkpt>
      <trkpt lat="50.70808" lon="3.84412">
        <ele>35.71</ele>
        <time>2017-04-16T12:02:23Z</time>
      </trkpt>
      <trkpt lat="50.708" lon="3.84438">
        <ele>34.74</ele>
        <time>2017-04-16T12:02:38Z</time>
      </trkpt>
      <trkpt lat="50.70794" lon="3.84457">
        <ele>36.19</ele>
        <time>2017-04-16T12:02:49Z</time>
      </trkpt>
      <trkpt lat="50.70781" lon="3.84484">
        <ele>36.19</ele>
        <time>2017-04-16T12:03:03Z</time>
      </trkpt>
      <trkpt lat="50.70774" lon="3.84496">
        <ele>34.26</ele>
        <time>2017-04-16T12:03:12Z</time>
      </trkpt>
      <trkpt lat="50.70772" lon="3.84499">
        <ele>35.71</ele>
        <time>2017-04-16T12:03:14Z</time>
      </trkpt>
      <trkpt lat="50.70754" lon="3.84521">
        <ele>36.67</ele>
        <time>2017-04-16T12:03:30Z</time>
      </trkpt>
      <trkpt lat="50.70732" lon="3.8454">
        <ele>36.19</ele>
        <time>2017-04-16T12:03:49Z</time>
      </trkpt>
      <trkpt lat="50.70712" lon="3.8455">
        <ele>37.63</ele>
        <time>2017-04-16T12:04:06Z</time>
      </trkpt>
      <trkpt lat="50.70706" lon="3.84561">
        <ele>37.63</ele>
        <time>2017-04-16T12:04:12Z</time>
      </trkpt>
      <trkpt lat="50.70702" lon="3.84567">
        <ele>35.71</ele>
        <time>2017-04-16T12:04:16Z</time>
      </trkpt>
      <trkpt lat="50.70701" lon="3.8457">
        <ele>38.11</ele>
        <time>2017-04-16T12:04:18Z</time>
      </trkpt>
      <trkpt lat="50.70699" lon="3.84573">
        <ele>36.67</ele>
        <time>2017-04-16T12:04:21Z</time>
      </trkpt>
      <trkpt lat="50.70694" lon="3.84594">
        <ele>37.15</ele>
        <time>2017-04-16T12:04:33Z</time>
      </trkpt>
      <trkpt lat="50.70692" lon="3.84614">
        <ele>35.71</ele>
        <time>2017-04-16T12:04:41Z</time>
      </trkpt>
      <trkpt lat="50.70684" lon="3.84644">
        <ele>36.19</ele>
        <time>2017-04-16T12:04:56Z</time>
      </trkpt>
      <trkpt lat="50.70682" lon="3.84649">
        <ele>38.11</ele>
        <time>2017-04-16T12:05:00Z</time>
      </trkpt>
      <trkpt lat="50.7068" lon="3.84653">
        <ele>36.67</ele>
        <time>2017-04-16T12:05:04Z</time>
      </trkpt>
      <trkpt lat="50.70677" lon="3.84667">
        <ele>37.63</ele>
        <time>2017-04-16T12:05:11Z</time>
      </trkpt>
      <trkpt lat="50.70674" lon="3.84688">
        <ele>36.19</ele>
        <time>2017-04-16T12:05:21Z</time>
      </trkpt>
      <trkpt lat="50.70674" lon="3.84692">
        <ele>37.63</ele>
        <time>2017-04-16T12:05:24Z</time>
      </trkpt>
      <trkpt lat="50.70673" lon="3.84695">
        <ele>36.19</ele>
        <time>2017-04-16T12:05:26Z</time>
      </trkpt>
      <trkpt lat="50.70672" lon="3.84702">
        <ele>37.15</ele>
        <time>2017-04-16T12:05:29Z</time>
      </trkpt>
      <trkpt lat="50.70672" lon="3.84706">
        <ele>35.71</ele>
        <time>2017-04-16T12:05:31Z</time>
      </trkpt>
      <trkpt lat="50.70672" lon="3.84712">
        <ele>37.63</ele>
        <time>2017-04-16T12:05:34Z</time>
      </trkpt>
      <trkpt lat="50.70669" lon="3.8473">
        <ele>36.19</ele>
        <time>2017-04-16T12:05:43Z</time>
      </trkpt>
      <trkpt lat="50.70669" lon="3.84734">
        <ele>37.15</ele>
        <time>2017-04-16T12:05:45Z</time>
      </trkpt>
      <trkpt lat="50.70668" lon="3.84769">
        <ele>37.15</ele>
        <time>2017-04-16T12:06:03Z</time>
      </trkpt>
      <trkpt lat="50.70665" lon="3.84806">
        <ele>37.15</ele>
        <time>2017-04-16T12:06:21Z</time>
      </trkpt>
      <trkpt lat="50.70666" lon="3.84814">
        <ele>35.71</ele>
        <time>2017-04-16T12:06:26Z</time>
      </trkpt>
      <trkpt lat="50.70666" lon="3.84819">
        <ele>37.63</ele>
        <time>2017-04-16T12:06:28Z</time>
      </trkpt>
      <trkpt lat="50.70666" lon="3.84849">
        <ele>37.15</ele>
        <time>2017-04-16T12:06:41Z</time>
      </trkpt>
      <trkpt lat="50.70666" lon="3.84878">
        <ele>37.63</ele>
        <time>2017-04-16T12:06:56Z</time>
      </trkpt>
      <trkpt lat="50.70668" lon="3.84889">
        <ele>36.67</ele>
        <time>2017-04-16T12:07:01Z</time>
      </trkpt>
      <trkpt lat="50.7067" lon="3.84895">
        <ele>37.63</ele>
        <time>2017-04-16T12:07:04Z</time>
      </trkpt>
      <trkpt lat="50.70668" lon="3.8491">
        <ele>36.19</ele>
        <time>2017-04-16T12:07:13Z</time>
      </trkpt>
      <trkpt lat="50.7067" lon="3.84917">
        <ele>37.15</ele>
        <time>2017-04-16T12:07:16Z</time>
      </trkpt>
      <trkpt lat="50.70674" lon="3.84947">
        <ele>36.19</ele>
        <time>2017-04-16T12:07:30Z</time>
      </trkpt>
      <trkpt lat="50.70671" lon="3.84981">
        <ele>37.15</ele>
        <time>2017-04-16T12:07:47Z</time>
      </trkpt>
      <trkpt lat="50.70671" lon="3.84983">
        <ele>36.67</ele>
        <time>2017-04-16T12:07:48Z</time>
      </trkpt>
      <trkpt lat="50.70678" lon="3.85011">
        <ele>37.15</ele>
        <time>2017-04-16T12:08:02Z</time>
      </trkpt>
      <trkpt lat="50.70678" lon="3.85043">
        <ele>37.63</ele>
        <time>2017-04-16T12:08:20Z</time>
      </trkpt>
      <trkpt lat="50.70677" lon="3.85047">
        <ele>37.63</ele>
        <time>2017-04-16T12:08:22Z</time>
      </trkpt>
      <trkpt lat="50.70677" lon="3.85052">
        <ele>36.19</ele>
        <time>2017-04-16T12:08:24Z</time>
      </trkpt>
      <trkpt lat="50.70676" lon="3.85061">
        <ele>37.63</ele>
        <time>2017-04-16T12:08:28Z</time>
      </trkpt>
      <trkpt lat="50.70677" lon="3.85077">
        <ele>36.19</ele>
        <time>2017-04-16T12:08:37Z</time>
      </trkpt>
      <trkpt lat="50.70677" lon="3.85085">
        <ele>37.63</ele>
        <time>2017-04-16T12:08:41Z</time>
      </trkpt>
      <trkpt lat="50.70676" lon="3.85106">
        <ele>38.11</ele>
        <time>2017-04-16T12:08:52Z</time>
      </trkpt>
      <trkpt lat="50.70676" lon="3.8513">
        <ele>39.07</ele>
        <time>2017-04-16T12:09:03Z</time>
      </trkpt>
      <trkpt lat="50.70674" lon="3.85172">
        <ele>39.55</ele>
        <time>2017-04-16T12:09:22Z</time>
      </trkpt>
      <trkpt lat="50.70673" lon="3.85211">
        <ele>39.55</ele>
        <time>2017-04-16T12:09:40Z</time>
      </trkpt>
      <trkpt lat="50.70671" lon="3.85255">
        <ele>39.55</ele>
        <time>2017-04-16T12:10:00Z</time>
      </trkpt>
      <trkpt lat="50.70666" lon="3.85299">
        <ele>40.51</ele>
        <time>2017-04-16T12:10:19Z</time>
      </trkpt>
      <trkpt lat="50.70661" lon="3.85335">
        <ele>40.99</ele>
        <time>2017-04-16T12:10:36Z</time>
      </trkpt>
      <trkpt lat="50.70654" lon="3.85372">
        <ele>41.95</ele>
        <time>2017-04-16T12:10:53Z</time>
      </trkpt>
      <trkpt lat="50.70653" lon="3.85381">
        <ele>40.51</ele>
        <time>2017-04-16T12:10:59Z</time>
      </trkpt>
      <trkpt lat="50.70648" lon="3.85417">
        <ele>41.95</ele>
        <time>2017-04-16T12:11:14Z</time>
      </trkpt>
      <trkpt lat="50.70643" lon="3.85451">
        <ele>40.99</ele>
        <time>2017-04-16T12:11:32Z</time>
      </trkpt>
      <trkpt lat="50.70638" lon="3.85492">
        <ele>43.4</ele>
        <time>2017-04-16T12:11:53Z</time>
      </trkpt>
      <trkpt lat="50.7063" lon="3.85524">
        <ele>43.88</ele>
        <time>2017-04-16T12:12:13Z</time>
      </trkpt>
      <trkpt lat="50.70621" lon="3.85564">
        <ele>44.36</ele>
        <time>2017-04-16T12:12:31Z</time>
      </trkpt>
      <trkpt lat="50.70628" lon="3.85584">
        <ele>44.84</ele>
        <time>2017-04-16T12:12:43Z</time>
      </trkpt>
      <trkpt lat="50.70644" lon="3.85624">
        <ele>45.8</ele>
        <time>2017-04-16T12:13:02Z</time>
      </trkpt>
      <trkpt lat="50.70655" lon="3.85642">
        <ele>44.84</ele>
        <time>2017-04-16T12:13:16Z</time>
      </trkpt>
      <trkpt lat="50.70664" lon="3.85658">
        <ele>45.32</ele>
        <time>2017-04-16T12:13:28Z</time>
      </trkpt>
      <trkpt lat="50.70677" lon="3.85679">
        <ele>43.88</ele>
        <time>2017-04-16T12:13:40Z</time>
      </trkpt>
      <trkpt lat="50.70697" lon="3.85705">
        <ele>44.36</ele>
        <time>2017-04-16T12:13:58Z</time>
      </trkpt>
      <trkpt lat="50.70706" lon="3.85737">
        <ele>43.4</ele>
        <time>2017-04-16T12:14:17Z</time>
      </trkpt>
      <trkpt lat="50.70708" lon="3.85753">
        <ele>44.36</ele>
        <time>2017-04-16T12:14:28Z</time>
      </trkpt>
      <trkpt lat="50.70708" lon="3.85757">
        <ele>43.4</ele>
        <time>2017-04-16T12:14:30Z</time>
      </trkpt>
      <trkpt lat="50.70714" lon="3.85782">
        <ele>43.4</ele>
        <time>2017-04-16T12:14:44Z</time>
      </trkpt>
      <trkpt lat="50.70721" lon="3.85823">
        <ele>42.92</ele>
        <time>2017-04-16T12:15:02Z</time>
      </trkpt>
      <trkpt lat="50.70726" lon="3.85844">
        <ele>43.4</ele>
        <time>2017-04-16T12:15:15Z</time>
      </trkpt>
      <trkpt lat="50.7073" lon="3.85863">
        <ele>43.88</ele>
        <time>2017-04-16T12:15:25Z</time>
      </trkpt>
      <trkpt lat="50.70731" lon="3.85867">
        <ele>42.44</ele>
        <time>2017-04-16T12:15:27Z</time>
      </trkpt>
      <trkpt lat="50.70732" lon="3.85873">
        <ele>43.88</ele>
        <time>2017-04-16T12:15:30Z</time>
      </trkpt>
      <trkpt lat="50.70736" lon="3.85899">
        <ele>41.95</ele>
        <time>2017-04-16T12:15:44Z</time>
      </trkpt>
      <trkpt lat="50.70742" lon="3.85935">
        <ele>42.44</ele>
        <time>2017-04-16T12:16:03Z</time>
      </trkpt>
      <trkpt lat="50.7075" lon="3.85977">
        <ele>42.44</ele>
        <time>2017-04-16T12:16:23Z</time>
      </trkpt>
      <trkpt lat="50.70755" lon="3.85987">
        <ele>42.44</ele>
        <time>2017-04-16T12:16:30Z</time>
      </trkpt>
      <trkpt lat="50.70755" lon="3.85991">
        <ele>42.44</ele>
        <time>2017-04-16T12:16:32Z</time>
      </trkpt>
      <trkpt lat="50.70755" lon="3.86">
        <ele>40.99</ele>
        <time>2017-04-16T12:16:36Z</time>
      </trkpt>
      <trkpt lat="50.70756" lon="3.86007">
        <ele>40.99</ele>
        <time>2017-04-16T12:16:40Z</time>
      </trkpt>
      <trkpt lat="50.70757" lon="3.86016">
        <ele>42.44</ele>
        <time>2017-04-16T12:16:44Z</time>
      </trkpt>
      <trkpt lat="50.70758" lon="3.86027">
        <ele>40.99</ele>
        <time>2017-04-16T12:16:49Z</time>
      </trkpt>
      <trkpt lat="50.70762" lon="3.86054">
        <ele>41.95</ele>
        <time>2017-04-16T12:17:01Z</time>
      </trkpt>
      <trkpt lat="50.70763" lon="3.86068">
        <ele>40.99</ele>
        <time>2017-04-16T12:17:08Z</time>
      </trkpt>
      <trkpt lat="50.70774" lon="3.86113">
        <ele>41.47</ele>
        <time>2017-04-16T12:17:30Z</time>
      </trkpt>
      <trkpt lat="50.70779" lon="3.86152">
        <ele>40.03</ele>
        <time>2017-04-16T12:17:50Z</time>
      </trkpt>
      <trkpt lat="50.70781" lon="3.86162">
        <ele>41.47</ele>
        <time>2017-04-16T12:17:56Z</time>
      </trkpt>
      <trkpt lat="50.7078" lon="3.86183">
        <ele>41.47</ele>
        <time>2017-04-16T12:18:06Z</time>
      </trkpt>
      <trkpt lat="50.70779" lon="3.86196">
        <ele>39.55</ele>
        <time>2017-04-16T12:18:12Z</time>
      </trkpt>
      <trkpt lat="50.70779" lon="3.86227">
        <ele>41.47</ele>
        <time>2017-04-16T12:18:26Z</time>
      </trkpt>
      <trkpt lat="50.70778" lon="3.86259">
        <ele>39.55</ele>
        <time>2017-04-16T12:18:40Z</time>
      </trkpt>
      <trkpt lat="50.70777" lon="3.86273">
        <ele>40.99</ele>
        <time>2017-04-16T12:18:46Z</time>
      </trkpt>
      <trkpt lat="50.70772" lon="3.86297">
        <ele>39.55</ele>
        <time>2017-04-16T12:18:56Z</time>
      </trkpt>
      <trkpt lat="50.70772" lon="3.86325">
        <ele>40.51</ele>
        <time>2017-04-16T12:19:10Z</time>
      </trkpt>
      <trkpt lat="50.70765" lon="3.86372">
        <ele>40.51</ele>
        <time>2017-04-16T12:19:32Z</time>
      </trkpt>
      <trkpt lat="50.70762" lon="3.86404">
        <ele>40.03</ele>
        <time>2017-04-16T12:19:47Z</time>
      </trkpt>
      <trkpt lat="50.70758" lon="3.86443">
        <ele>39.07</ele>
        <time>2017-04-16T12:20:05Z</time>
      </trkpt>
      <trkpt lat="50.70756" lon="3.86463">
        <ele>40.03</ele>
        <time>2017-04-16T12:20:15Z</time>
      </trkpt>
      <trkpt lat="50.70753" lon="3.86507">
        <ele>39.55</ele>
        <time>2017-04-16T12:20:35Z</time>
      </trkpt>
      <trkpt lat="50.7075" lon="3.86527">
        <ele>40.51</ele>
        <time>2017-04-16T12:20:44Z</time>
      </trkpt>
      <trkpt lat="50.70741" lon="3.86559">
        <ele>40.51</ele>
        <time>2017-04-16T12:21:01Z</time>
      </trkpt>
      <trkpt lat="50.70739" lon="3.86563">
        <ele>39.07</ele>
        <time>2017-04-16T12:21:03Z</time>
      </trkpt>
      <trkpt lat="50.70737" lon="3.86571">
        <ele>40.03</ele>
        <time>2017-04-16T12:21:08Z</time>
      </trkpt>
      <trkpt lat="50.70724" lon="3.86599">
        <ele>39.07</ele>
        <time>2017-04-16T12:21:23Z</time>
      </trkpt>
      <trkpt lat="50.70722" lon="3.86604">
        <ele>40.03</ele>
        <time>2017-04-16T12:21:26Z</time>
      </trkpt>
      <trkpt lat="50.70716" lon="3.86618">
        <ele>39.07</ele>
        <time>2017-04-16T12:21:36Z</time>
      </trkpt>
      <trkpt lat="50.70704" lon="3.86641">
        <ele>40.99</ele>
        <time>2017-04-16T12:21:50Z</time>
      </trkpt>
      <trkpt lat="50.707" lon="3.86642">
        <ele>39.55</ele>
        <time>2017-04-16T12:21:53Z</time>
      </trkpt>
      <trkpt lat="50.70697" lon="3.86642">
        <ele>41.47</ele>
        <time>2017-04-16T12:21:55Z</time>
      </trkpt>
      <trkpt lat="50.70692" lon="3.86641">
        <ele>42.92</ele>
        <time>2017-04-16T12:21:59Z</time>
      </trkpt>
      <trkpt lat="50.70687" lon="3.86641">
        <ele>41.47</ele>
        <time>2017-04-16T12:22:02Z</time>
      </trkpt>
      <trkpt lat="50.70669" lon="3.86634">
        <ele>42.44</ele>
        <time>2017-04-16T12:22:17Z</time>
      </trkpt>
      <trkpt lat="50.70663" lon="3.86631">
        <ele>40.99</ele>
        <time>2017-04-16T12:22:21Z</time>
      </trkpt>
      <trkpt lat="50.7066" lon="3.8663">
        <ele>42.92</ele>
        <time>2017-04-16T12:22:23Z</time>
      </trkpt>
      <trkpt lat="50.70654" lon="3.86628">
        <ele>41.47</ele>
        <time>2017-04-16T12:22:27Z</time>
      </trkpt>
      <trkpt lat="50.7065" lon="3.86629">
        <ele>43.4</ele>
        <time>2017-04-16T12:22:29Z</time>
      </trkpt>
      <trkpt lat="50.70647" lon="3.86631">
        <ele>41.47</ele>
        <time>2017-04-16T12:22:31Z</time>
      </trkpt>
      <trkpt lat="50.7064" lon="3.86628">
        <ele>43.4</ele>
        <time>2017-04-16T12:22:37Z</time>
      </trkpt>
      <trkpt lat="50.70636" lon="3.86627">
        <ele>41.47</ele>
        <time>2017-04-16T12:22:40Z</time>
      </trkpt>
      <trkpt lat="50.70632" lon="3.86625">
        <ele>42.92</ele>
        <time>2017-04-16T12:22:43Z</time>
      </trkpt>
      <trkpt lat="50.70616" lon="3.86613">
        <ele>43.4</ele>
        <time>2017-04-16T12:22:58Z</time>
      </trkpt>
      <trkpt lat="50.70592" lon="3.86603">
        <ele>44.84</ele>
        <time>2017-04-16T12:23:14Z</time>
      </trkpt>
      <trkpt lat="50.70578" lon="3.86598">
        <ele>45.32</ele>
        <time>2017-04-16T12:23:26Z</time>
      </trkpt>
      <trkpt lat="50.70554" lon="3.86589">
        <ele>44.36</ele>
        <time>2017-04-16T12:23:45Z</time>
      </trkpt>
      <trkpt lat="50.70552" lon="3.86588">
        <ele>46.28</ele>
        <time>2017-04-16T12:23:47Z</time>
      </trkpt>
      <trkpt lat="50.70531" lon="3.8658">
        <ele>46.28</ele>
        <time>2017-04-16T12:24:02Z</time>
      </trkpt>
      <trkpt lat="50.70512" lon="3.86573">
        <ele>47.24</ele>
        <time>2017-04-16T12:24:18Z</time>
      </trkpt>
      <trkpt lat="50.705" lon="3.8657">
        <ele>45.8</ele>
        <time>2017-04-16T12:24:28Z</time>
      </trkpt>
      <trkpt lat="50.70494" lon="3.86568">
        <ele>48.2</ele>
        <time>2017-04-16T12:24:32Z</time>
      </trkpt>
      <trkpt lat="50.70491" lon="3.86567">
        <ele>46.76</ele>
        <time>2017-04-16T12:24:34Z</time>
      </trkpt>
      <trkpt lat="50.70482" lon="3.8657">
        <ele>47.72</ele>
        <time>2017-04-16T12:24:44Z</time>
      </trkpt>
      <trkpt lat="50.70481" lon="3.86586">
        <ele>47.72</ele>
        <time>2017-04-16T12:24:52Z</time>
      </trkpt>
      <trkpt lat="50.7048" lon="3.86604">
        <ele>45.8</ele>
        <time>2017-04-16T12:25:01Z</time>
      </trkpt>
      <trkpt lat="50.7048" lon="3.8664">
        <ele>46.28</ele>
        <time>2017-04-16T12:25:19Z</time>
      </trkpt>
      <trkpt lat="50.7048" lon="3.86642">
        <ele>47.72</ele>
        <time>2017-04-16T12:25:20Z</time>
      </trkpt>
      <trkpt lat="50.70477" lon="3.86648">
        <ele>47.72</ele>
        <time>2017-04-16T12:25:23Z</time>
      </trkpt>
      <trkpt lat="50.7047" lon="3.86686">
        <ele>47.72</ele>
        <time>2017-04-16T12:25:42Z</time>
      </trkpt>
      <trkpt lat="50.70466" lon="3.86708">
        <ele>46.28</ele>
        <time>2017-04-16T12:25:53Z</time>
      </trkpt>
      <trkpt lat="50.70464" lon="3.86717">
        <ele>49.16</ele>
        <time>2017-04-16T12:25:58Z</time>
      </trkpt>
      <trkpt lat="50.70463" lon="3.86722">
        <ele>47.72</ele>
        <time>2017-04-16T12:26:00Z</time>
      </trkpt>
      <trkpt lat="50.70459" lon="3.86743">
        <ele>49.16</ele>
        <time>2017-04-16T12:26:10Z</time>
      </trkpt>
      <trkpt lat="50.70453" lon="3.86766">
        <ele>47.72</ele>
        <time>2017-04-16T12:26:22Z</time>
      </trkpt>
      <trkpt lat="50.70452" lon="3.86769">
        <ele>48.68</ele>
        <time>2017-04-16T12:26:24Z</time>
      </trkpt>
      <trkpt lat="50.70452" lon="3.86775">
        <ele>47.72</ele>
        <time>2017-04-16T12:26:27Z</time>
      </trkpt>
      <trkpt lat="50.70451" lon="3.86779">
        <ele>48.68</ele>
        <time>2017-04-16T12:26:29Z</time>
      </trkpt>
      <trkpt lat="50.7045" lon="3.86783">
        <ele>47.72</ele>
        <time>2017-04-16T12:26:31Z</time>
      </trkpt>
      <trkpt lat="50.70449" lon="3.86792">
        <ele>48.2</ele>
        <time>2017-04-16T12:26:35Z</time>
      </trkpt>
      <trkpt lat="50.70443" lon="3.86822">
        <ele>49.16</ele>
        <time>2017-04-16T12:26:49Z</time>
      </trkpt>
      <trkpt lat="50.70443" lon="3.86827">
        <ele>46.76</ele>
        <time>2017-04-16T12:26:52Z</time>
      </trkpt>
      <trkpt lat="50.70443" lon="3.86832">
        <ele>48.68</ele>
        <time>2017-04-16T12:26:55Z</time>
      </trkpt>
      <trkpt lat="50.70443" lon="3.86836">
        <ele>46.76</ele>
        <time>2017-04-16T12:26:57Z</time>
      </trkpt>
      <trkpt lat="50.70439" lon="3.86851">
        <ele>46.76</ele>
        <time>2017-04-16T12:27:05Z</time>
      </trkpt>
      <trkpt lat="50.70437" lon="3.86861">
        <ele>46.76</ele>
        <time>2017-04-16T12:27:11Z</time>
      </trkpt>
      <trkpt lat="50.70436" lon="3.86867">
        <ele>48.2</ele>
        <time>2017-04-16T12:27:14Z</time>
      </trkpt>
      <trkpt lat="50.70429" lon="3.86899">
        <ele>49.65</ele>
        <time>2017-04-16T12:27:29Z</time>
      </trkpt>
      <trkpt lat="50.70427" lon="3.86906">
        <ele>48.2</ele>
        <time>2017-04-16T12:27:32Z</time>
      </trkpt>
      <trkpt lat="50.70421" lon="3.8693">
        <ele>49.65</ele>
        <time>2017-04-16T12:27:43Z</time>
      </trkpt>
      <trkpt lat="50.70419" lon="3.86941">
        <ele>47.72</ele>
        <time>2017-04-16T12:27:48Z</time>
      </trkpt>
      <trkpt lat="50.70419" lon="3.86944">
        <ele>48.68</ele>
        <time>2017-04-16T12:27:50Z</time>
      </trkpt>
      <trkpt lat="50.70417" lon="3.86953">
        <ele>49.65</ele>
        <time>2017-04-16T12:28:06Z</time>
      </trkpt>
      <trkpt lat="50.70416" lon="3.86954">
        <ele>48.2</ele>
        <time>2017-04-16T12:28:31Z</time>
      </trkpt>
      <trkpt lat="50.70413" lon="3.8696">
        <ele>50.13</ele>
        <time>2017-04-16T12:28:47Z</time>
      </trkpt>
      <trkpt lat="50.70412" lon="3.86965">
        <ele>48.68</ele>
        <time>2017-04-16T12:28:52Z</time>
      </trkpt>
      <trkpt lat="50.70406" lon="3.87003">
        <ele>48.2</ele>
        <time>2017-04-16T12:29:12Z</time>
      </trkpt>
      <trkpt lat="50.70401" lon="3.87021">
        <ele>49.65</ele>
        <time>2017-04-16T12:29:20Z</time>
      </trkpt>
      <trkpt lat="50.70397" lon="3.87036">
        <ele>50.13</ele>
        <time>2017-04-16T12:29:27Z</time>
      </trkpt>
      <trkpt lat="50.70392" lon="3.87064">
        <ele>50.13</ele>
        <time>2017-04-16T12:29:41Z</time>
      </trkpt>
      <trkpt lat="50.70385" lon="3.87102">
        <ele>51.09</ele>
        <time>2017-04-16T12:30:00Z</time>
      </trkpt>
      <trkpt lat="50.70379" lon="3.87131">
        <ele>51.09</ele>
        <time>2017-04-16T12:30:14Z</time>
      </trkpt>
      <trkpt lat="50.70377" lon="3.87143">
        <ele>52.53</ele>
        <time>2017-04-16T12:30:21Z</time>
      </trkpt>
      <trkpt lat="50.70371" lon="3.87176">
        <ele>52.05</ele>
        <time>2017-04-16T12:30:37Z</time>
      </trkpt>
      <trkpt lat="50.70366" lon="3.87193">
        <ele>51.57</ele>
        <time>2017-04-16T12:30:45Z</time>
      </trkpt>
      <trkpt lat="50.70364" lon="3.87204">
        <ele>53.01</ele>
        <time>2017-04-16T12:30:52Z</time>
      </trkpt>
      <trkpt lat="50.70361" lon="3.87217">
        <ele>51.57</ele>
        <time>2017-04-16T12:30:58Z</time>
      </trkpt>
      <trkpt lat="50.70359" lon="3.87225">
        <ele>53.97</ele>
        <time>2017-04-16T12:31:02Z</time>
      </trkpt>
      <trkpt lat="50.70358" lon="3.87233">
        <ele>52.53</ele>
        <time>2017-04-16T12:31:07Z</time>
      </trkpt>
      <trkpt lat="50.70357" lon="3.87239">
        <ele>53.49</ele>
        <time>2017-04-16T12:31:10Z</time>
      </trkpt>
      <trkpt lat="50.70357" lon="3.87248">
        <ele>52.05</ele>
        <time>2017-04-16T12:31:15Z</time>
      </trkpt>
      <trkpt lat="50.7036" lon="3.87261">
        <ele>53.01</ele>
        <time>2017-04-16T12:31:23Z</time>
      </trkpt>
      <trkpt lat="50.7038" lon="3.87271">
        <ele>52.05</ele>
        <time>2017-04-16T12:31:38Z</time>
      </trkpt>
      <trkpt lat="50.70394" lon="3.87286">
        <ele>50.61</ele>
        <time>2017-04-16T12:31:51Z</time>
      </trkpt>
      <trkpt lat="50.70396" lon="3.87289">
        <ele>52.05</ele>
        <time>2017-04-16T12:31:53Z</time>
      </trkpt>
      <trkpt lat="50.70406" lon="3.87295">
        <ele>50.61</ele>
        <time>2017-04-16T12:31:59Z</time>
      </trkpt>
      <trkpt lat="50.70427" lon="3.87314">
        <ele>49.65</ele>
        <time>2017-04-16T12:32:20Z</time>
      </trkpt>
      <trkpt lat="50.70448" lon="3.87332">
        <ele>49.16</ele>
        <time>2017-04-16T12:32:38Z</time>
      </trkpt>
      <trkpt lat="50.70452" lon="3.87336">
        <ele>49.65</ele>
        <time>2017-04-16T12:32:42Z</time>
      </trkpt>
      <trkpt lat="50.70466" lon="3.87348">
        <ele>48.2</ele>
        <time>2017-04-16T12:32:53Z</time>
      </trkpt>
      <trkpt lat="50.70466" lon="3.87353">
        <ele>49.65</ele>
        <time>2017-04-16T12:32:56Z</time>
      </trkpt>
      <trkpt lat="50.70463" lon="3.87361">
        <ele>49.65</ele>
        <time>2017-04-16T12:33:01Z</time>
      </trkpt>
      <trkpt lat="50.70441" lon="3.87402">
        <ele>48.68</ele>
        <time>2017-04-16T12:33:24Z</time>
      </trkpt>
      <trkpt lat="50.70438" lon="3.87407">
        <ele>50.13</ele>
        <time>2017-04-16T12:33:27Z</time>
      </trkpt>
      <trkpt lat="50.70433" lon="3.87424">
        <ele>48.68</ele>
        <time>2017-04-16T12:33:36Z</time>
      </trkpt>
      <trkpt lat="50.70431" lon="3.87438">
        <ele>50.13</ele>
        <time>2017-04-16T12:33:44Z</time>
      </trkpt>
      <trkpt lat="50.70428" lon="3.87455">
        <ele>50.13</ele>
        <time>2017-04-16T12:33:56Z</time>
      </trkpt>
      <trkpt lat="50.70417" lon="3.87504">
        <ele>50.61</ele>
        <time>2017-04-16T12:34:19Z</time>
      </trkpt>
      <trkpt lat="50.70416" lon="3.87511">
        <ele>49.16</ele>
        <time>2017-04-16T12:34:22Z</time>
      </trkpt>
      <trkpt lat="50.70407" lon="3.87556">
        <ele>49.65</ele>
        <time>2017-04-16T12:34:44Z</time>
      </trkpt>
      <trkpt lat="50.70399" lon="3.87597">
        <ele>48.68</ele>
        <time>2017-04-16T12:35:05Z</time>
      </trkpt>
      <trkpt lat="50.70392" lon="3.87628">
        <ele>48.68</ele>
        <time>2017-04-16T12:35:20Z</time>
      </trkpt>
      <trkpt lat="50.70389" lon="3.87644">
        <ele>47.72</ele>
        <time>2017-04-16T12:35:28Z</time>
      </trkpt>
      <trkpt lat="50.70385" lon="3.87664">
        <ele>46.28</ele>
        <time>2017-04-16T12:35:39Z</time>
      </trkpt>
      <trkpt lat="50.70377" lon="3.87708">
        <ele>47.24</ele>
        <time>2017-04-16T12:36:01Z</time>
      </trkpt>
      <trkpt lat="50.70369" lon="3.87747">
        <ele>47.24</ele>
        <time>2017-04-16T12:36:19Z</time>
      </trkpt>
      <trkpt lat="50.7036" lon="3.87781">
        <ele>48.68</ele>
        <time>2017-04-16T12:36:35Z</time>
      </trkpt>
      <trkpt lat="50.7036" lon="3.87793">
        <ele>47.24</ele>
        <time>2017-04-16T12:36:41Z</time>
      </trkpt>
      <trkpt lat="50.70352" lon="3.87827">
        <ele>48.2</ele>
        <time>2017-04-16T12:36:59Z</time>
      </trkpt>
      <trkpt lat="50.70351" lon="3.87833">
        <ele>46.76</ele>
        <time>2017-04-16T12:37:02Z</time>
      </trkpt>
      <trkpt lat="50.70342" lon="3.87874">
        <ele>47.24</ele>
        <time>2017-04-16T12:37:22Z</time>
      </trkpt>
      <trkpt lat="50.70337" lon="3.87892">
        <ele>45.8</ele>
        <time>2017-04-16T12:37:30Z</time>
      </trkpt>
      <trkpt lat="50.70334" lon="3.87904">
        <ele>47.24</ele>
        <time>2017-04-16T12:37:35Z</time>
      </trkpt>
      <trkpt lat="50.70332" lon="3.87924">
        <ele>46.28</ele>
        <time>2017-04-16T12:37:50Z</time>
      </trkpt>
      <trkpt lat="50.70327" lon="3.87948">
        <ele>47.72</ele>
        <time>2017-04-16T12:38:02Z</time>
      </trkpt>
      <trkpt lat="50.70324" lon="3.87963">
        <ele>46.28</ele>
        <time>2017-04-16T12:38:09Z</time>
      </trkpt>
      <trkpt lat="50.70321" lon="3.87985">
        <ele>47.72</ele>
        <time>2017-04-16T12:38:21Z</time>
      </trkpt>
      <trkpt lat="50.70307" lon="3.88022">
        <ele>48.68</ele>
        <time>2017-04-16T12:38:38Z</time>
      </trkpt>
      <trkpt lat="50.70306" lon="3.88043">
        <ele>47.24</ele>
        <time>2017-04-16T12:38:49Z</time>
      </trkpt>
      <trkpt lat="50.70301" lon="3.88075">
        <ele>47.72</ele>
        <time>2017-04-16T12:39:04Z</time>
      </trkpt>
      <trkpt lat="50.70297" lon="3.88095">
        <ele>48.68</ele>
        <time>2017-04-16T12:39:13Z</time>
      </trkpt>
      <trkpt lat="50.70294" lon="3.88118">
        <ele>47.72</ele>
        <time>2017-04-16T12:39:27Z</time>
      </trkpt>
      <trkpt lat="50.70284" lon="3.88159">
        <ele>47.24</ele>
        <time>2017-04-16T12:39:49Z</time>
      </trkpt>
      <trkpt lat="50.70284" lon="3.88163">
        <ele>48.2</ele>
        <time>2017-04-16T12:39:51Z</time>
      </trkpt>
      <trkpt lat="50.70281" lon="3.88175">
        <ele>47.24</ele>
        <time>2017-04-16T12:39:56Z</time>
      </trkpt>
      <trkpt lat="50.70273" lon="3.88211">
        <ele>47.72</ele>
        <time>2017-04-16T12:40:12Z</time>
      </trkpt>
      <trkpt lat="50.70264" lon="3.88245">
        <ele>45.8</ele>
        <time>2017-04-16T12:40:30Z</time>
      </trkpt>
      <trkpt lat="50.70261" lon="3.88287">
        <ele>46.28</ele>
        <time>2017-04-16T12:40:50Z</time>
      </trkpt>
      <trkpt lat="50.70251" lon="3.88302">
        <ele>45.32</ele>
        <time>2017-04-16T12:41:04Z</time>
      </trkpt>
      <trkpt lat="50.70241" lon="3.88307">
        <ele>47.72</ele>
        <time>2017-04-16T12:41:08Z</time>
      </trkpt>
      <trkpt lat="50.70236" lon="3.88311">
        <ele>45.8</ele>
        <time>2017-04-16T12:41:13Z</time>
      </trkpt>
      <trkpt lat="50.70232" lon="3.88319">
        <ele>47.72</ele>
        <time>2017-04-16T12:41:22Z</time>
      </trkpt>
      <trkpt lat="50.70225" lon="3.88329">
        <ele>46.28</ele>
        <time>2017-04-16T12:41:32Z</time>
      </trkpt>
      <trkpt lat="50.70222" lon="3.88333">
        <ele>47.24</ele>
        <time>2017-04-16T12:41:34Z</time>
      </trkpt>
      <trkpt lat="50.70219" lon="3.88336">
        <ele>45.8</ele>
        <time>2017-04-16T12:41:36Z</time>
      </trkpt>
      <trkpt lat="50.70209" lon="3.88348">
        <ele>47.72</ele>
        <time>2017-04-16T12:41:43Z</time>
      </trkpt>
      <trkpt lat="50.70192" lon="3.88361">
        <ele>48.2</ele>
        <time>2017-04-16T12:41:55Z</time>
      </trkpt>
      <trkpt lat="50.70187" lon="3.88369">
        <ele>46.28</ele>
        <time>2017-04-16T12:42:02Z</time>
      </trkpt>
      <trkpt lat="50.70172" lon="3.8838">
        <ele>46.76</ele>
        <time>2017-04-16T12:42:17Z</time>
      </trkpt>
      <trkpt lat="50.70157" lon="3.88403">
        <ele>48.68</ele>
        <time>2017-04-16T12:42:34Z</time>
      </trkpt>
      <trkpt lat="50.70152" lon="3.88404">
        <ele>47.24</ele>
        <time>2017-04-16T12:42:37Z</time>
      </trkpt>
      <trkpt lat="50.7014" lon="3.88413">
        <ele>48.2</ele>
        <time>2017-04-16T12:42:45Z</time>
      </trkpt>
      <trkpt lat="50.70129" lon="3.88425">
        <ele>48.2</ele>
        <time>2017-04-16T12:43:00Z</time>
      </trkpt>
      <trkpt lat="50.70117" lon="3.8844">
        <ele>50.13</ele>
        <time>2017-04-16T12:43:08Z</time>
      </trkpt>
      <trkpt lat="50.70116" lon="3.88441">
        <ele>49.16</ele>
        <time>2017-04-16T12:43:11Z</time>
      </trkpt>
      <trkpt lat="50.70114" lon="3.88455">
        <ele>48.68</ele>
        <time>2017-04-16T12:43:25Z</time>
      </trkpt>
      <trkpt lat="50.70107" lon="3.88459">
        <ele>49.16</ele>
        <time>2017-04-16T12:43:30Z</time>
      </trkpt>
      <trkpt lat="50.70103" lon="3.8846">
        <ele>50.61</ele>
        <time>2017-04-16T12:43:33Z</time>
      </trkpt>
      <trkpt lat="50.7008" lon="3.8847">
        <ele>49.16</ele>
        <time>2017-04-16T12:43:47Z</time>
      </trkpt>
      <trkpt lat="50.70078" lon="3.88471">
        <ele>50.61</ele>
        <time>2017-04-16T12:43:49Z</time>
      </trkpt>
      <trkpt lat="50.70065" lon="3.8849">
        <ele>51.57</ele>
        <time>2017-04-16T12:44:02Z</time>
      </trkpt>
      <trkpt lat="50.70061" lon="3.88499">
        <ele>52.53</ele>
        <time>2017-04-16T12:44:09Z</time>
      </trkpt>
      <trkpt lat="50.70047" lon="3.8851">
        <ele>53.97</ele>
        <time>2017-04-16T12:44:23Z</time>
      </trkpt>
      <trkpt lat="50.70026" lon="3.88527">
        <ele>53.01</ele>
        <time>2017-04-16T12:44:41Z</time>
      </trkpt>
      <trkpt lat="50.70024" lon="3.88525">
        <ele>54.45</ele>
        <time>2017-04-16T12:44:43Z</time>
      </trkpt>
      <trkpt lat="50.7002" lon="3.88524">
        <ele>53.01</ele>
        <time>2017-04-16T12:44:47Z</time>
      </trkpt>
      <trkpt lat="50.70019" lon="3.88523">
        <ele>53.01</ele>
        <time>2017-04-16T12:44:48Z</time>
      </trkpt>
      <trkpt lat="50.70017" lon="3.88524">
        <ele>53.01</ele>
        <time>2017-04-16T12:44:49Z</time>
      </trkpt>
      <trkpt lat="50.70016" lon="3.88524">
        <ele>53.01</ele>
        <time>2017-04-16T12:44:50Z</time>
      </trkpt>
      <trkpt lat="50.70014" lon="3.88525">
        <ele>53.01</ele>
        <time>2017-04-16T12:44:51Z</time>
      </trkpt>
      <trkpt lat="50.70012" lon="3.88525">
        <ele>53.01</ele>
        <time>2017-04-16T12:44:52Z</time>
      </trkpt>
      <trkpt lat="50.70004" lon="3.88524">
        <ele>54.93</ele>
        <time>2017-04-16T12:44:58Z</time>
      </trkpt>
      <trkpt lat="50.69994" lon="3.88523">
        <ele>53.01</ele>
        <time>2017-04-16T12:45:06Z</time>
      </trkpt>
      <trkpt lat="50.69991" lon="3.88524">
        <ele>55.89</ele>
        <time>2017-04-16T12:45:08Z</time>
      </trkpt>
      <trkpt lat="50.69984" lon="3.88525">
        <ele>53.97</ele>
        <time>2017-04-16T12:45:13Z</time>
      </trkpt>
      <trkpt lat="50.69972" lon="3.88527">
        <ele>56.37</ele>
        <time>2017-04-16T12:45:22Z</time>
      </trkpt>
      <trkpt lat="50.6996" lon="3.88525">
        <ele>57.34</ele>
        <time>2017-04-16T12:45:33Z</time>
      </trkpt>
      <trkpt lat="50.69936" lon="3.88522">
        <ele>59.26</ele>
        <time>2017-04-16T12:45:49Z</time>
      </trkpt>
      <trkpt lat="50.69925" lon="3.88519">
        <ele>58.3</ele>
        <time>2017-04-16T12:46:00Z</time>
      </trkpt>
      <trkpt lat="50.69922" lon="3.88518">
        <ele>60.22</ele>
        <time>2017-04-16T12:46:03Z</time>
      </trkpt>
      <trkpt lat="50.69902" lon="3.88509">
        <ele>61.66</ele>
        <time>2017-04-16T12:46:21Z</time>
      </trkpt>
      <trkpt lat="50.69893" lon="3.8851">
        <ele>60.22</ele>
        <time>2017-04-16T12:46:28Z</time>
      </trkpt>
      <trkpt lat="50.69885" lon="3.88514">
        <ele>60.22</ele>
        <time>2017-04-16T12:46:33Z</time>
      </trkpt>
      <trkpt lat="50.69883" lon="3.88515">
        <ele>60.22</ele>
        <time>2017-04-16T12:46:34Z</time>
      </trkpt>
      <trkpt lat="50.69881" lon="3.88516">
        <ele>61.66</ele>
        <time>2017-04-16T12:46:35Z</time>
      </trkpt>
      <trkpt lat="50.6988" lon="3.88516">
        <ele>61.66</ele>
        <time>2017-04-16T12:46:36Z</time>
      </trkpt>
      <trkpt lat="50.69879" lon="3.88516">
        <ele>61.66</ele>
        <time>2017-04-16T12:46:37Z</time>
      </trkpt>
      <trkpt lat="50.69862" lon="3.88514">
        <ele>60.7</ele>
        <time>2017-04-16T12:46:51Z</time>
      </trkpt>
      <trkpt lat="50.69858" lon="3.8851">
        <ele>62.14</ele>
        <time>2017-04-16T12:46:57Z</time>
      </trkpt>
      <trkpt lat="50.69857" lon="3.88512">
        <ele>62.14</ele>
        <time>2017-04-16T12:46:58Z</time>
      </trkpt>
      <trkpt lat="50.69856" lon="3.88513">
        <ele>62.14</ele>
        <time>2017-04-16T12:46:59Z</time>
      </trkpt>
      <trkpt lat="50.69854" lon="3.88515">
        <ele>62.14</ele>
        <time>2017-04-16T12:47:00Z</time>
      </trkpt>
      <trkpt lat="50.69852" lon="3.88516">
        <ele>60.22</ele>
        <time>2017-04-16T12:47:01Z</time>
      </trkpt>
      <trkpt lat="50.6985" lon="3.88517">
        <ele>61.66</ele>
        <time>2017-04-16T12:47:02Z</time>
      </trkpt>
      <trkpt lat="50.69848" lon="3.88518">
        <ele>61.66</ele>
        <time>2017-04-16T12:47:03Z</time>
      </trkpt>
      <trkpt lat="50.69842" lon="3.88519">
        <ele>60.22</ele>
        <time>2017-04-16T12:47:09Z</time>
      </trkpt>
      <trkpt lat="50.69836" lon="3.88516">
        <ele>61.66</ele>
        <time>2017-04-16T12:47:15Z</time>
      </trkpt>
      <trkpt lat="50.69829" lon="3.88515">
        <ele>60.22</ele>
        <time>2017-04-16T12:47:20Z</time>
      </trkpt>
      <trkpt lat="50.6983" lon="3.88522">
        <ele>58.78</ele>
        <time>2017-04-16T12:47:26Z</time>
      </trkpt>
      <trkpt lat="50.69831" lon="3.88525">
        <ele>60.22</ele>
        <time>2017-04-16T12:47:28Z</time>
      </trkpt>
      <trkpt lat="50.69831" lon="3.88543">
        <ele>57.82</ele>
        <time>2017-04-16T12:47:38Z</time>
      </trkpt>
      <trkpt lat="50.69829" lon="3.88569">
        <ele>55.89</ele>
        <time>2017-04-16T12:47:52Z</time>
      </trkpt>
      <trkpt lat="50.6983" lon="3.88576">
        <ele>57.34</ele>
        <time>2017-04-16T12:47:55Z</time>
      </trkpt>
      <trkpt lat="50.69832" lon="3.88587">
        <ele>55.41</ele>
        <time>2017-04-16T12:48:04Z</time>
      </trkpt>
      <trkpt lat="50.69832" lon="3.88594">
        <ele>56.86</ele>
        <time>2017-04-16T12:48:07Z</time>
      </trkpt>
      <trkpt lat="50.69829" lon="3.88621">
        <ele>55.41</ele>
        <time>2017-04-16T12:48:19Z</time>
      </trkpt>
      <trkpt lat="50.69826" lon="3.88634">
        <ele>53.97</ele>
        <time>2017-04-16T12:48:25Z</time>
      </trkpt>
      <trkpt lat="50.69826" lon="3.88647">
        <ele>55.41</ele>
        <time>2017-04-16T12:48:33Z</time>
      </trkpt>
      <trkpt lat="50.6982" lon="3.88678">
        <ele>55.41</ele>
        <time>2017-04-16T12:48:48Z</time>
      </trkpt>
      <trkpt lat="50.69816" lon="3.88702">
        <ele>53.97</ele>
        <time>2017-04-16T12:48:59Z</time>
      </trkpt>
      <trkpt lat="50.69814" lon="3.88706">
        <ele>56.86</ele>
        <time>2017-04-16T12:49:02Z</time>
      </trkpt>
      <trkpt lat="50.69811" lon="3.88725">
        <ele>58.3</ele>
        <time>2017-04-16T12:49:12Z</time>
      </trkpt>
      <trkpt lat="50.69798" lon="3.88757">
        <ele>60.7</ele>
        <time>2017-04-16T12:49:31Z</time>
      </trkpt>
      <trkpt lat="50.69792" lon="3.88791">
        <ele>64.07</ele>
        <time>2017-04-16T12:49:48Z</time>
      </trkpt>
      <trkpt lat="50.69791" lon="3.88793">
        <ele>64.07</ele>
        <time>2017-04-16T12:49:49Z</time>
      </trkpt>
      <trkpt lat="50.69784" lon="3.88813">
        <ele>65.51</ele>
        <time>2017-04-16T12:50:01Z</time>
      </trkpt>
      <trkpt lat="50.69781" lon="3.88826">
        <ele>67.43</ele>
        <time>2017-04-16T12:50:08Z</time>
      </trkpt>
      <trkpt lat="50.69778" lon="3.88846">
        <ele>69.35</ele>
        <time>2017-04-16T12:50:26Z</time>
      </trkpt>
      <trkpt lat="50.69783" lon="3.88847">
        <ele>68.39</ele>
        <time>2017-04-16T12:50:30Z</time>
      </trkpt>
      <trkpt lat="50.6979" lon="3.88846">
        <ele>70.31</ele>
        <time>2017-04-16T12:50:37Z</time>
      </trkpt>
      <trkpt lat="50.69795" lon="3.88845">
        <ele>68.87</ele>
        <time>2017-04-16T12:50:43Z</time>
      </trkpt>
      <trkpt lat="50.69799" lon="3.88843">
        <ele>68.39</ele>
        <time>2017-04-16T12:50:48Z</time>
      </trkpt>
      <trkpt lat="50.69802" lon="3.88837">
        <ele>68.87</ele>
        <time>2017-04-16T12:51:03Z</time>
      </trkpt>
      <trkpt lat="50.69813" lon="3.88837">
        <ele>68.87</ele>
        <time>2017-04-16T12:51:24Z</time>
      </trkpt>
      <trkpt lat="50.69812" lon="3.88839">
        <ele>67.91</ele>
        <time>2017-04-16T12:51:29Z</time>
      </trkpt>
      <trkpt lat="50.69811" lon="3.88842">
        <ele>67.91</ele>
        <time>2017-04-16T12:51:31Z</time>
      </trkpt>
      <trkpt lat="50.69806" lon="3.88852">
        <ele>68.87</ele>
        <time>2017-04-16T12:51:37Z</time>
      </trkpt>
      <trkpt lat="50.698" lon="3.88845">
        <ele>68.87</ele>
        <time>2017-04-16T12:52:00Z</time>
      </trkpt>
      <trkpt lat="50.6981" lon="3.88852">
        <ele>68.87</ele>
        <time>2017-04-16T12:52:23Z</time>
      </trkpt>
    </trkseg>
  </trk>
</gpx>